<?xml version="1.0" encoding="UTF-8" standalone="no" ?>
<gpx xmlns="http://www.topografix.com/GPX/1/1" xmlns:xsi="http://www.w3.org/2001/XMLSchema-instance" xsi:schemaLocation="http://www.topografix.com/GPX/1/1 http://www.topografix.com/GPX/1/1/gpx.xsd" version="1.1" creator="VisuGPX - https://www.visugpx.com">
  <metadata>
    <name>Sortie les DH secrètes de Pollionnay 24km - 28052012</name>
    <desc><![CDATA[Des singles méconnus pour des DH d\'anthologie requérant un certain bagage technique ! !]]></desc>
  </metadata>
  <trk>
    <name><![CDATA[TracÃ© actuel: 28 MAI 2012 08:52]]></name>
    <extensions>
      <line xmlns="http://www.topografix.com/GPX/gpx_style/0/2">
        <color>ff0000</color>
        <opacity>1.0</opacity>
        <width>2.0</width>
      </line>
    </extensions>
    <trkseg>
      <trkpt lat="45.7655" lon="4.66012">
        <ele>435</ele>
        <time>2012-05-28T06:52:14Z</time>
      </trkpt>
      <trkpt lat="45.76551" lon="4.66012">
        <ele>434</ele>
        <time>2012-05-28T06:52:31Z</time>
      </trkpt>
      <trkpt lat="45.7655" lon="4.66012">
        <ele>435</ele>
        <time>2012-05-28T06:52:39Z</time>
      </trkpt>
      <trkpt lat="45.76545" lon="4.66009">
        <ele>435</ele>
        <time>2012-05-28T06:52:43Z</time>
      </trkpt>
      <trkpt lat="45.7653" lon="4.66003">
        <ele>435</ele>
        <time>2012-05-28T06:52:52Z</time>
      </trkpt>
      <trkpt lat="45.76528" lon="4.66003">
        <ele>434</ele>
        <time>2012-05-28T06:52:53Z</time>
      </trkpt>
      <trkpt lat="45.76525" lon="4.65993">
        <ele>434</ele>
        <time>2012-05-28T06:52:57Z</time>
      </trkpt>
      <trkpt lat="45.76532" lon="4.6599">
        <ele>435</ele>
        <time>2012-05-28T06:53:01Z</time>
      </trkpt>
      <trkpt lat="45.76555" lon="4.65985">
        <ele>437</ele>
        <time>2012-05-28T06:53:12Z</time>
      </trkpt>
      <trkpt lat="45.76573" lon="4.65983">
        <ele>438</ele>
        <time>2012-05-28T06:53:20Z</time>
      </trkpt>
      <trkpt lat="45.76591" lon="4.6598">
        <ele>438</ele>
        <time>2012-05-28T06:53:28Z</time>
      </trkpt>
      <trkpt lat="45.76608" lon="4.65976">
        <ele>439</ele>
        <time>2012-05-28T06:53:36Z</time>
      </trkpt>
      <trkpt lat="45.76629" lon="4.65974">
        <ele>440</ele>
        <time>2012-05-28T06:53:45Z</time>
      </trkpt>
      <trkpt lat="45.76648" lon="4.6598">
        <ele>441</ele>
        <time>2012-05-28T06:53:53Z</time>
      </trkpt>
      <trkpt lat="45.76669" lon="4.65985">
        <ele>443</ele>
        <time>2012-05-28T06:54:03Z</time>
      </trkpt>
      <trkpt lat="45.76687" lon="4.65985">
        <ele>444</ele>
        <time>2012-05-28T06:54:11Z</time>
      </trkpt>
      <trkpt lat="45.76703" lon="4.65984">
        <ele>445</ele>
        <time>2012-05-28T06:54:19Z</time>
      </trkpt>
      <trkpt lat="45.7672" lon="4.65982">
        <ele>447</ele>
        <time>2012-05-28T06:54:27Z</time>
      </trkpt>
      <trkpt lat="45.76739" lon="4.65981">
        <ele>448</ele>
        <time>2012-05-28T06:54:36Z</time>
      </trkpt>
      <trkpt lat="45.76758" lon="4.65979">
        <ele>450</ele>
        <time>2012-05-28T06:54:45Z</time>
      </trkpt>
      <trkpt lat="45.76775" lon="4.65971">
        <ele>452</ele>
        <time>2012-05-28T06:54:54Z</time>
      </trkpt>
      <trkpt lat="45.7678" lon="4.65966">
        <ele>452</ele>
        <time>2012-05-28T06:54:57Z</time>
      </trkpt>
      <trkpt lat="45.76794" lon="4.65949">
        <ele>454</ele>
        <time>2012-05-28T06:55:06Z</time>
      </trkpt>
      <trkpt lat="45.76807" lon="4.65924">
        <ele>456</ele>
        <time>2012-05-28T06:55:16Z</time>
      </trkpt>
      <trkpt lat="45.76815" lon="4.65898">
        <ele>457</ele>
        <time>2012-05-28T06:55:25Z</time>
      </trkpt>
      <trkpt lat="45.76816" lon="4.65867">
        <ele>458</ele>
        <time>2012-05-28T06:55:34Z</time>
      </trkpt>
      <trkpt lat="45.7681" lon="4.65832">
        <ele>459</ele>
        <time>2012-05-28T06:55:44Z</time>
      </trkpt>
      <trkpt lat="45.76805" lon="4.65797">
        <ele>459</ele>
        <time>2012-05-28T06:55:53Z</time>
      </trkpt>
      <trkpt lat="45.76798" lon="4.65765">
        <ele>459</ele>
        <time>2012-05-28T06:56:01Z</time>
      </trkpt>
      <trkpt lat="45.76788" lon="4.6573">
        <ele>460</ele>
        <time>2012-05-28T06:56:10Z</time>
      </trkpt>
      <trkpt lat="45.7678" lon="4.65698">
        <ele>461</ele>
        <time>2012-05-28T06:56:19Z</time>
      </trkpt>
      <trkpt lat="45.7677" lon="4.65664">
        <ele>462</ele>
        <time>2012-05-28T06:56:29Z</time>
      </trkpt>
      <trkpt lat="45.76761" lon="4.65637">
        <ele>463</ele>
        <time>2012-05-28T06:56:37Z</time>
      </trkpt>
      <trkpt lat="45.76752" lon="4.65607">
        <ele>464</ele>
        <time>2012-05-28T06:56:46Z</time>
      </trkpt>
      <trkpt lat="45.76743" lon="4.65574">
        <ele>465</ele>
        <time>2012-05-28T06:56:56Z</time>
      </trkpt>
      <trkpt lat="45.76734" lon="4.6554">
        <ele>467</ele>
        <time>2012-05-28T06:57:06Z</time>
      </trkpt>
      <trkpt lat="45.76727" lon="4.65512">
        <ele>470</ele>
        <time>2012-05-28T06:57:15Z</time>
      </trkpt>
      <trkpt lat="45.76717" lon="4.65481">
        <ele>472</ele>
        <time>2012-05-28T06:57:25Z</time>
      </trkpt>
      <trkpt lat="45.76708" lon="4.65454">
        <ele>473</ele>
        <time>2012-05-28T06:57:34Z</time>
      </trkpt>
      <trkpt lat="45.76699" lon="4.65431">
        <ele>474</ele>
        <time>2012-05-28T06:57:42Z</time>
      </trkpt>
      <trkpt lat="45.76692" lon="4.65406">
        <ele>475</ele>
        <time>2012-05-28T06:57:50Z</time>
      </trkpt>
      <trkpt lat="45.76685" lon="4.65376">
        <ele>476</ele>
        <time>2012-05-28T06:57:58Z</time>
      </trkpt>
      <trkpt lat="45.7668" lon="4.65342">
        <ele>477</ele>
        <time>2012-05-28T06:58:07Z</time>
      </trkpt>
      <trkpt lat="45.76678" lon="4.65301">
        <ele>478</ele>
        <time>2012-05-28T06:58:17Z</time>
      </trkpt>
      <trkpt lat="45.76676" lon="4.65263">
        <ele>478</ele>
        <time>2012-05-28T06:58:27Z</time>
      </trkpt>
      <trkpt lat="45.76674" lon="4.6522">
        <ele>479</ele>
        <time>2012-05-28T06:58:38Z</time>
      </trkpt>
      <trkpt lat="45.76671" lon="4.65182">
        <ele>480</ele>
        <time>2012-05-28T06:58:48Z</time>
      </trkpt>
      <trkpt lat="45.76667" lon="4.65153">
        <ele>482</ele>
        <time>2012-05-28T06:58:56Z</time>
      </trkpt>
      <trkpt lat="45.76664" lon="4.6512">
        <ele>483</ele>
        <time>2012-05-28T06:59:06Z</time>
      </trkpt>
      <trkpt lat="45.76661" lon="4.65091">
        <ele>484</ele>
        <time>2012-05-28T06:59:15Z</time>
      </trkpt>
      <trkpt lat="45.7666" lon="4.6507">
        <ele>486</ele>
        <time>2012-05-28T06:59:22Z</time>
      </trkpt>
      <trkpt lat="45.76659" lon="4.65045">
        <ele>488</ele>
        <time>2012-05-28T06:59:30Z</time>
      </trkpt>
      <trkpt lat="45.76654" lon="4.65021">
        <ele>489</ele>
        <time>2012-05-28T06:59:39Z</time>
      </trkpt>
      <trkpt lat="45.76651" lon="4.65">
        <ele>490</ele>
        <time>2012-05-28T06:59:47Z</time>
      </trkpt>
      <trkpt lat="45.76649" lon="4.6498">
        <ele>492</ele>
        <time>2012-05-28T06:59:55Z</time>
      </trkpt>
      <trkpt lat="45.7665" lon="4.6496">
        <ele>494</ele>
        <time>2012-05-28T07:00:04Z</time>
      </trkpt>
      <trkpt lat="45.76649" lon="4.64944">
        <ele>496</ele>
        <time>2012-05-28T07:00:12Z</time>
      </trkpt>
      <trkpt lat="45.76648" lon="4.64924">
        <ele>498</ele>
        <time>2012-05-28T07:00:21Z</time>
      </trkpt>
      <trkpt lat="45.76646" lon="4.64902">
        <ele>500</ele>
        <time>2012-05-28T07:00:31Z</time>
      </trkpt>
      <trkpt lat="45.76644" lon="4.64884">
        <ele>502</ele>
        <time>2012-05-28T07:00:40Z</time>
      </trkpt>
      <trkpt lat="45.76644" lon="4.6487">
        <ele>504</ele>
        <time>2012-05-28T07:00:47Z</time>
      </trkpt>
      <trkpt lat="45.76643" lon="4.64854">
        <ele>506</ele>
        <time>2012-05-28T07:00:55Z</time>
      </trkpt>
      <trkpt lat="45.76643" lon="4.64837">
        <ele>508</ele>
        <time>2012-05-28T07:01:04Z</time>
      </trkpt>
      <trkpt lat="45.76642" lon="4.64829">
        <ele>510</ele>
        <time>2012-05-28T07:01:08Z</time>
      </trkpt>
      <trkpt lat="45.76642" lon="4.64811">
        <ele>512</ele>
        <time>2012-05-28T07:01:17Z</time>
      </trkpt>
      <trkpt lat="45.7664" lon="4.64793">
        <ele>513</ele>
        <time>2012-05-28T07:01:26Z</time>
      </trkpt>
      <trkpt lat="45.76637" lon="4.64775">
        <ele>515</ele>
        <time>2012-05-28T07:01:35Z</time>
      </trkpt>
      <trkpt lat="45.76633" lon="4.64754">
        <ele>516</ele>
        <time>2012-05-28T07:01:45Z</time>
      </trkpt>
      <trkpt lat="45.76629" lon="4.64741">
        <ele>517</ele>
        <time>2012-05-28T07:01:52Z</time>
      </trkpt>
      <trkpt lat="45.76626" lon="4.64735">
        <ele>517</ele>
        <time>2012-05-28T07:01:55Z</time>
      </trkpt>
      <trkpt lat="45.76623" lon="4.6472">
        <ele>519</ele>
        <time>2012-05-28T07:02:03Z</time>
      </trkpt>
      <trkpt lat="45.7662" lon="4.64706">
        <ele>519</ele>
        <time>2012-05-28T07:02:10Z</time>
      </trkpt>
      <trkpt lat="45.76616" lon="4.64692">
        <ele>521</ele>
        <time>2012-05-28T07:02:17Z</time>
      </trkpt>
      <trkpt lat="45.76614" lon="4.64675">
        <ele>523</ele>
        <time>2012-05-28T07:02:26Z</time>
      </trkpt>
      <trkpt lat="45.76609" lon="4.64656">
        <ele>525</ele>
        <time>2012-05-28T07:02:35Z</time>
      </trkpt>
      <trkpt lat="45.76606" lon="4.64646">
        <ele>526</ele>
        <time>2012-05-28T07:02:40Z</time>
      </trkpt>
      <trkpt lat="45.76599" lon="4.64628">
        <ele>527</ele>
        <time>2012-05-28T07:02:50Z</time>
      </trkpt>
      <trkpt lat="45.76595" lon="4.64618">
        <ele>527</ele>
        <time>2012-05-28T07:02:56Z</time>
      </trkpt>
      <trkpt lat="45.76589" lon="4.64603">
        <ele>528</ele>
        <time>2012-05-28T07:03:04Z</time>
      </trkpt>
      <trkpt lat="45.76584" lon="4.64585">
        <ele>529</ele>
        <time>2012-05-28T07:03:12Z</time>
      </trkpt>
      <trkpt lat="45.76581" lon="4.64578">
        <ele>530</ele>
        <time>2012-05-28T07:03:15Z</time>
      </trkpt>
      <trkpt lat="45.76579" lon="4.6457">
        <ele>531</ele>
        <time>2012-05-28T07:03:19Z</time>
      </trkpt>
      <trkpt lat="45.76579" lon="4.64568">
        <ele>531</ele>
        <time>2012-05-28T07:03:20Z</time>
      </trkpt>
      <trkpt lat="45.76574" lon="4.6456">
        <ele>532</ele>
        <time>2012-05-28T07:03:25Z</time>
      </trkpt>
      <trkpt lat="45.76571" lon="4.6455">
        <ele>533</ele>
        <time>2012-05-28T07:03:30Z</time>
      </trkpt>
      <trkpt lat="45.76566" lon="4.64533">
        <ele>534</ele>
        <time>2012-05-28T07:03:39Z</time>
      </trkpt>
      <trkpt lat="45.76563" lon="4.64523">
        <ele>535</ele>
        <time>2012-05-28T07:03:44Z</time>
      </trkpt>
      <trkpt lat="45.76559" lon="4.64511">
        <ele>536</ele>
        <time>2012-05-28T07:03:50Z</time>
      </trkpt>
      <trkpt lat="45.76557" lon="4.64495">
        <ele>536</ele>
        <time>2012-05-28T07:03:57Z</time>
      </trkpt>
      <trkpt lat="45.76553" lon="4.64477">
        <ele>538</ele>
        <time>2012-05-28T07:04:05Z</time>
      </trkpt>
      <trkpt lat="45.76551" lon="4.64466">
        <ele>539</ele>
        <time>2012-05-28T07:04:11Z</time>
      </trkpt>
      <trkpt lat="45.76548" lon="4.64459">
        <ele>540</ele>
        <time>2012-05-28T07:04:15Z</time>
      </trkpt>
      <trkpt lat="45.7655" lon="4.64445">
        <ele>541</ele>
        <time>2012-05-28T07:04:21Z</time>
      </trkpt>
      <trkpt lat="45.76548" lon="4.6444">
        <ele>542</ele>
        <time>2012-05-28T07:04:24Z</time>
      </trkpt>
      <trkpt lat="45.76547" lon="4.64431">
        <ele>543</ele>
        <time>2012-05-28T07:04:29Z</time>
      </trkpt>
      <trkpt lat="45.76544" lon="4.64425">
        <ele>543</ele>
        <time>2012-05-28T07:04:33Z</time>
      </trkpt>
      <trkpt lat="45.76542" lon="4.64419">
        <ele>543</ele>
        <time>2012-05-28T07:04:36Z</time>
      </trkpt>
      <trkpt lat="45.76536" lon="4.64406">
        <ele>546</ele>
        <time>2012-05-28T07:04:44Z</time>
      </trkpt>
      <trkpt lat="45.76533" lon="4.64399">
        <ele>547</ele>
        <time>2012-05-28T07:04:48Z</time>
      </trkpt>
      <trkpt lat="45.7653" lon="4.64397">
        <ele>548</ele>
        <time>2012-05-28T07:04:52Z</time>
      </trkpt>
      <trkpt lat="45.7653" lon="4.64383">
        <ele>550</ele>
        <time>2012-05-28T07:04:59Z</time>
      </trkpt>
      <trkpt lat="45.7653" lon="4.64378">
        <ele>551</ele>
        <time>2012-05-28T07:05:02Z</time>
      </trkpt>
      <trkpt lat="45.76526" lon="4.6437">
        <ele>553</ele>
        <time>2012-05-28T07:05:07Z</time>
      </trkpt>
      <trkpt lat="45.76516" lon="4.64363">
        <ele>555</ele>
        <time>2012-05-28T07:05:16Z</time>
      </trkpt>
      <trkpt lat="45.76514" lon="4.64358">
        <ele>556</ele>
        <time>2012-05-28T07:05:19Z</time>
      </trkpt>
      <trkpt lat="45.76511" lon="4.64355">
        <ele>557</ele>
        <time>2012-05-28T07:05:21Z</time>
      </trkpt>
      <trkpt lat="45.76503" lon="4.64351">
        <ele>559</ele>
        <time>2012-05-28T07:05:27Z</time>
      </trkpt>
      <trkpt lat="45.76495" lon="4.64347">
        <ele>561</ele>
        <time>2012-05-28T07:05:34Z</time>
      </trkpt>
      <trkpt lat="45.76489" lon="4.64346">
        <ele>562</ele>
        <time>2012-05-28T07:05:41Z</time>
      </trkpt>
      <trkpt lat="45.76486" lon="4.64344">
        <ele>562</ele>
        <time>2012-05-28T07:05:44Z</time>
      </trkpt>
      <trkpt lat="45.76479" lon="4.64342">
        <ele>563</ele>
        <time>2012-05-28T07:05:50Z</time>
      </trkpt>
      <trkpt lat="45.76472" lon="4.64336">
        <ele>564</ele>
        <time>2012-05-28T07:05:57Z</time>
      </trkpt>
      <trkpt lat="45.76465" lon="4.64332">
        <ele>566</ele>
        <time>2012-05-28T07:06:04Z</time>
      </trkpt>
      <trkpt lat="45.7646" lon="4.64327">
        <ele>567</ele>
        <time>2012-05-28T07:06:09Z</time>
      </trkpt>
      <trkpt lat="45.76456" lon="4.64322">
        <ele>569</ele>
        <time>2012-05-28T07:06:14Z</time>
      </trkpt>
      <trkpt lat="45.76447" lon="4.64314">
        <ele>571</ele>
        <time>2012-05-28T07:06:21Z</time>
      </trkpt>
      <trkpt lat="45.76443" lon="4.64312">
        <ele>571</ele>
        <time>2012-05-28T07:06:25Z</time>
      </trkpt>
      <trkpt lat="45.76436" lon="4.64305">
        <ele>573</ele>
        <time>2012-05-28T07:06:31Z</time>
      </trkpt>
      <trkpt lat="45.76431" lon="4.64299">
        <ele>574</ele>
        <time>2012-05-28T07:06:36Z</time>
      </trkpt>
      <trkpt lat="45.76425" lon="4.64296">
        <ele>575</ele>
        <time>2012-05-28T07:06:40Z</time>
      </trkpt>
      <trkpt lat="45.76423" lon="4.64294">
        <ele>576</ele>
        <time>2012-05-28T07:06:42Z</time>
      </trkpt>
      <trkpt lat="45.76413" lon="4.6429">
        <ele>578</ele>
        <time>2012-05-28T07:06:48Z</time>
      </trkpt>
      <trkpt lat="45.76411" lon="4.64288">
        <ele>578</ele>
        <time>2012-05-28T07:06:50Z</time>
      </trkpt>
      <trkpt lat="45.76409" lon="4.64285">
        <ele>579</ele>
        <time>2012-05-28T07:06:53Z</time>
      </trkpt>
      <trkpt lat="45.76406" lon="4.64281">
        <ele>579</ele>
        <time>2012-05-28T07:06:56Z</time>
      </trkpt>
      <trkpt lat="45.764" lon="4.64278">
        <ele>580</ele>
        <time>2012-05-28T07:07:03Z</time>
      </trkpt>
      <trkpt lat="45.76399" lon="4.64277">
        <ele>581</ele>
        <time>2012-05-28T07:07:11Z</time>
      </trkpt>
      <trkpt lat="45.76398" lon="4.64277">
        <ele>581</ele>
        <time>2012-05-28T07:07:24Z</time>
      </trkpt>
      <trkpt lat="45.76398" lon="4.64275">
        <ele>581</ele>
        <time>2012-05-28T07:07:38Z</time>
      </trkpt>
      <trkpt lat="45.76394" lon="4.64271">
        <ele>583</ele>
        <time>2012-05-28T07:07:45Z</time>
      </trkpt>
      <trkpt lat="45.76392" lon="4.64266">
        <ele>584</ele>
        <time>2012-05-28T07:07:51Z</time>
      </trkpt>
      <trkpt lat="45.76391" lon="4.64261">
        <ele>585</ele>
        <time>2012-05-28T07:07:57Z</time>
      </trkpt>
      <trkpt lat="45.76391" lon="4.64257">
        <ele>586</ele>
        <time>2012-05-28T07:08:02Z</time>
      </trkpt>
      <trkpt lat="45.76391" lon="4.6425">
        <ele>587</ele>
        <time>2012-05-28T07:08:09Z</time>
      </trkpt>
      <trkpt lat="45.7639" lon="4.64242">
        <ele>588</ele>
        <time>2012-05-28T07:08:16Z</time>
      </trkpt>
      <trkpt lat="45.76387" lon="4.64235">
        <ele>590</ele>
        <time>2012-05-28T07:08:24Z</time>
      </trkpt>
      <trkpt lat="45.76384" lon="4.64229">
        <ele>590</ele>
        <time>2012-05-28T07:08:33Z</time>
      </trkpt>
      <trkpt lat="45.76385" lon="4.64228">
        <ele>590</ele>
        <time>2012-05-28T07:08:47Z</time>
      </trkpt>
      <trkpt lat="45.76384" lon="4.64226">
        <ele>591</ele>
        <time>2012-05-28T07:09:06Z</time>
      </trkpt>
      <trkpt lat="45.76383" lon="4.64227">
        <ele>591</ele>
        <time>2012-05-28T07:09:19Z</time>
      </trkpt>
      <trkpt lat="45.76382" lon="4.64223">
        <ele>591</ele>
        <time>2012-05-28T07:09:23Z</time>
      </trkpt>
      <trkpt lat="45.76379" lon="4.6422">
        <ele>591</ele>
        <time>2012-05-28T07:09:26Z</time>
      </trkpt>
      <trkpt lat="45.76373" lon="4.6421">
        <ele>592</ele>
        <time>2012-05-28T07:09:33Z</time>
      </trkpt>
      <trkpt lat="45.76369" lon="4.64202">
        <ele>593</ele>
        <time>2012-05-28T07:09:39Z</time>
      </trkpt>
      <trkpt lat="45.76368" lon="4.64194">
        <ele>595</ele>
        <time>2012-05-28T07:09:45Z</time>
      </trkpt>
      <trkpt lat="45.76365" lon="4.64188">
        <ele>595</ele>
        <time>2012-05-28T07:09:48Z</time>
      </trkpt>
      <trkpt lat="45.7636" lon="4.64178">
        <ele>595</ele>
        <time>2012-05-28T07:09:53Z</time>
      </trkpt>
      <trkpt lat="45.76356" lon="4.64166">
        <ele>596</ele>
        <time>2012-05-28T07:10:01Z</time>
      </trkpt>
      <trkpt lat="45.76352" lon="4.64157">
        <ele>597</ele>
        <time>2012-05-28T07:10:06Z</time>
      </trkpt>
      <trkpt lat="45.76349" lon="4.64149">
        <ele>598</ele>
        <time>2012-05-28T07:10:12Z</time>
      </trkpt>
      <trkpt lat="45.76347" lon="4.64146">
        <ele>598</ele>
        <time>2012-05-28T07:10:14Z</time>
      </trkpt>
      <trkpt lat="45.76347" lon="4.64139">
        <ele>599</ele>
        <time>2012-05-28T07:10:17Z</time>
      </trkpt>
      <trkpt lat="45.76348" lon="4.64124">
        <ele>601</ele>
        <time>2012-05-28T07:10:24Z</time>
      </trkpt>
      <trkpt lat="45.76347" lon="4.64113">
        <ele>603</ele>
        <time>2012-05-28T07:10:31Z</time>
      </trkpt>
      <trkpt lat="45.76345" lon="4.64103">
        <ele>604</ele>
        <time>2012-05-28T07:10:38Z</time>
      </trkpt>
      <trkpt lat="45.76342" lon="4.64094">
        <ele>605</ele>
        <time>2012-05-28T07:10:44Z</time>
      </trkpt>
      <trkpt lat="45.76341" lon="4.64084">
        <ele>606</ele>
        <time>2012-05-28T07:10:51Z</time>
      </trkpt>
      <trkpt lat="45.76341" lon="4.64077">
        <ele>607</ele>
        <time>2012-05-28T07:10:58Z</time>
      </trkpt>
      <trkpt lat="45.76338" lon="4.64066">
        <ele>608</ele>
        <time>2012-05-28T07:11:04Z</time>
      </trkpt>
      <trkpt lat="45.76336" lon="4.64059">
        <ele>609</ele>
        <time>2012-05-28T07:11:10Z</time>
      </trkpt>
      <trkpt lat="45.76333" lon="4.64048">
        <ele>610</ele>
        <time>2012-05-28T07:11:17Z</time>
      </trkpt>
      <trkpt lat="45.76331" lon="4.64038">
        <ele>612</ele>
        <time>2012-05-28T07:11:24Z</time>
      </trkpt>
      <trkpt lat="45.76329" lon="4.64032">
        <ele>612</ele>
        <time>2012-05-28T07:11:28Z</time>
      </trkpt>
      <trkpt lat="45.76328" lon="4.64028">
        <ele>612</ele>
        <time>2012-05-28T07:11:30Z</time>
      </trkpt>
      <trkpt lat="45.76328" lon="4.64015">
        <ele>614</ele>
        <time>2012-05-28T07:11:38Z</time>
      </trkpt>
      <trkpt lat="45.76324" lon="4.64006">
        <ele>615</ele>
        <time>2012-05-28T07:11:45Z</time>
      </trkpt>
      <trkpt lat="45.76322" lon="4.63997">
        <ele>617</ele>
        <time>2012-05-28T07:11:53Z</time>
      </trkpt>
      <trkpt lat="45.76321" lon="4.63995">
        <ele>617</ele>
        <time>2012-05-28T07:11:55Z</time>
      </trkpt>
      <trkpt lat="45.7632" lon="4.63986">
        <ele>618</ele>
        <time>2012-05-28T07:12:02Z</time>
      </trkpt>
      <trkpt lat="45.76319" lon="4.63982">
        <ele>619</ele>
        <time>2012-05-28T07:12:04Z</time>
      </trkpt>
      <trkpt lat="45.76318" lon="4.63975">
        <ele>621</ele>
        <time>2012-05-28T07:12:07Z</time>
      </trkpt>
      <trkpt lat="45.76318" lon="4.63957">
        <ele>623</ele>
        <time>2012-05-28T07:12:17Z</time>
      </trkpt>
      <trkpt lat="45.76318" lon="4.63954">
        <ele>623</ele>
        <time>2012-05-28T07:12:19Z</time>
      </trkpt>
      <trkpt lat="45.76319" lon="4.63944">
        <ele>625</ele>
        <time>2012-05-28T07:12:27Z</time>
      </trkpt>
      <trkpt lat="45.76319" lon="4.63941">
        <ele>626</ele>
        <time>2012-05-28T07:12:33Z</time>
      </trkpt>
      <trkpt lat="45.76319" lon="4.63942">
        <ele>626</ele>
        <time>2012-05-28T07:12:44Z</time>
      </trkpt>
      <trkpt lat="45.76318" lon="4.63941">
        <ele>626</ele>
        <time>2012-05-28T07:12:55Z</time>
      </trkpt>
      <trkpt lat="45.76317" lon="4.63937">
        <ele>626</ele>
        <time>2012-05-28T07:13:01Z</time>
      </trkpt>
      <trkpt lat="45.76317" lon="4.63934">
        <ele>628</ele>
        <time>2012-05-28T07:13:08Z</time>
      </trkpt>
      <trkpt lat="45.76318" lon="4.63931">
        <ele>629</ele>
        <time>2012-05-28T07:13:14Z</time>
      </trkpt>
      <trkpt lat="45.76317" lon="4.63925">
        <ele>629</ele>
        <time>2012-05-28T07:13:19Z</time>
      </trkpt>
      <trkpt lat="45.76316" lon="4.63919">
        <ele>630</ele>
        <time>2012-05-28T07:13:25Z</time>
      </trkpt>
      <trkpt lat="45.76315" lon="4.63906">
        <ele>631</ele>
        <time>2012-05-28T07:13:32Z</time>
      </trkpt>
      <trkpt lat="45.76316" lon="4.63904">
        <ele>631</ele>
        <time>2012-05-28T07:13:37Z</time>
      </trkpt>
      <trkpt lat="45.76315" lon="4.639">
        <ele>631</ele>
        <time>2012-05-28T07:13:46Z</time>
      </trkpt>
      <trkpt lat="45.76315" lon="4.63899">
        <ele>632</ele>
        <time>2012-05-28T07:13:51Z</time>
      </trkpt>
      <trkpt lat="45.76316" lon="4.63897">
        <ele>632</ele>
        <time>2012-05-28T07:13:53Z</time>
      </trkpt>
      <trkpt lat="45.76313" lon="4.63885">
        <ele>633</ele>
        <time>2012-05-28T07:14:01Z</time>
      </trkpt>
      <trkpt lat="45.76309" lon="4.63877">
        <ele>634</ele>
        <time>2012-05-28T07:14:05Z</time>
      </trkpt>
      <trkpt lat="45.76304" lon="4.63867">
        <ele>636</ele>
        <time>2012-05-28T07:14:10Z</time>
      </trkpt>
      <trkpt lat="45.76299" lon="4.63861">
        <ele>637</ele>
        <time>2012-05-28T07:14:16Z</time>
      </trkpt>
      <trkpt lat="45.76292" lon="4.63853">
        <ele>639</ele>
        <time>2012-05-28T07:14:24Z</time>
      </trkpt>
      <trkpt lat="45.76289" lon="4.63849">
        <ele>640</ele>
        <time>2012-05-28T07:14:27Z</time>
      </trkpt>
      <trkpt lat="45.76287" lon="4.63846">
        <ele>641</ele>
        <time>2012-05-28T07:14:29Z</time>
      </trkpt>
      <trkpt lat="45.76283" lon="4.63837">
        <ele>642</ele>
        <time>2012-05-28T07:14:37Z</time>
      </trkpt>
      <trkpt lat="45.76277" lon="4.63829">
        <ele>644</ele>
        <time>2012-05-28T07:14:44Z</time>
      </trkpt>
      <trkpt lat="45.76275" lon="4.63826">
        <ele>644</ele>
        <time>2012-05-28T07:14:47Z</time>
      </trkpt>
      <trkpt lat="45.76272" lon="4.63815">
        <ele>645</ele>
        <time>2012-05-28T07:14:55Z</time>
      </trkpt>
      <trkpt lat="45.76266" lon="4.63803">
        <ele>646</ele>
        <time>2012-05-28T07:15:03Z</time>
      </trkpt>
      <trkpt lat="45.76261" lon="4.63787">
        <ele>648</ele>
        <time>2012-05-28T07:15:12Z</time>
      </trkpt>
      <trkpt lat="45.76261" lon="4.63786">
        <ele>648</ele>
        <time>2012-05-28T07:15:13Z</time>
      </trkpt>
      <trkpt lat="45.76257" lon="4.63782">
        <ele>649</ele>
        <time>2012-05-28T07:15:17Z</time>
      </trkpt>
      <trkpt lat="45.76253" lon="4.63772">
        <ele>651</ele>
        <time>2012-05-28T07:15:24Z</time>
      </trkpt>
      <trkpt lat="45.76251" lon="4.63762">
        <ele>652</ele>
        <time>2012-05-28T07:15:31Z</time>
      </trkpt>
      <trkpt lat="45.76248" lon="4.63755">
        <ele>652</ele>
        <time>2012-05-28T07:15:37Z</time>
      </trkpt>
      <trkpt lat="45.76246" lon="4.63746">
        <ele>654</ele>
        <time>2012-05-28T07:15:43Z</time>
      </trkpt>
      <trkpt lat="45.76243" lon="4.63734">
        <ele>655</ele>
        <time>2012-05-28T07:15:53Z</time>
      </trkpt>
      <trkpt lat="45.76242" lon="4.63724">
        <ele>656</ele>
        <time>2012-05-28T07:16:01Z</time>
      </trkpt>
      <trkpt lat="45.76241" lon="4.6372">
        <ele>657</ele>
        <time>2012-05-28T07:16:05Z</time>
      </trkpt>
      <trkpt lat="45.76243" lon="4.63713">
        <ele>658</ele>
        <time>2012-05-28T07:16:09Z</time>
      </trkpt>
      <trkpt lat="45.7624" lon="4.63704">
        <ele>660</ele>
        <time>2012-05-28T07:16:13Z</time>
      </trkpt>
      <trkpt lat="45.76238" lon="4.63689">
        <ele>661</ele>
        <time>2012-05-28T07:16:20Z</time>
      </trkpt>
      <trkpt lat="45.76237" lon="4.63675">
        <ele>662</ele>
        <time>2012-05-28T07:16:28Z</time>
      </trkpt>
      <trkpt lat="45.76235" lon="4.63668">
        <ele>663</ele>
        <time>2012-05-28T07:16:34Z</time>
      </trkpt>
      <trkpt lat="45.76236" lon="4.63658">
        <ele>664</ele>
        <time>2012-05-28T07:16:42Z</time>
      </trkpt>
      <trkpt lat="45.76236" lon="4.63649">
        <ele>666</ele>
        <time>2012-05-28T07:16:48Z</time>
      </trkpt>
      <trkpt lat="45.76236" lon="4.63642">
        <ele>667</ele>
        <time>2012-05-28T07:16:52Z</time>
      </trkpt>
      <trkpt lat="45.76232" lon="4.63632">
        <ele>668</ele>
        <time>2012-05-28T07:16:57Z</time>
      </trkpt>
      <trkpt lat="45.76234" lon="4.63615">
        <ele>670</ele>
        <time>2012-05-28T07:17:07Z</time>
      </trkpt>
      <trkpt lat="45.76234" lon="4.63604">
        <ele>672</ele>
        <time>2012-05-28T07:17:15Z</time>
      </trkpt>
      <trkpt lat="45.76232" lon="4.63595">
        <ele>674</ele>
        <time>2012-05-28T07:17:22Z</time>
      </trkpt>
      <trkpt lat="45.76232" lon="4.63594">
        <ele>674</ele>
        <time>2012-05-28T07:17:23Z</time>
      </trkpt>
      <trkpt lat="45.76231" lon="4.63585">
        <ele>675</ele>
        <time>2012-05-28T07:17:29Z</time>
      </trkpt>
      <trkpt lat="45.7623" lon="4.63577">
        <ele>675</ele>
        <time>2012-05-28T07:17:36Z</time>
      </trkpt>
      <trkpt lat="45.76229" lon="4.63567">
        <ele>675</ele>
        <time>2012-05-28T07:17:43Z</time>
      </trkpt>
      <trkpt lat="45.76226" lon="4.63561">
        <ele>676</ele>
        <time>2012-05-28T07:17:48Z</time>
      </trkpt>
      <trkpt lat="45.76222" lon="4.63544">
        <ele>676</ele>
        <time>2012-05-28T07:17:58Z</time>
      </trkpt>
      <trkpt lat="45.76219" lon="4.63531">
        <ele>677</ele>
        <time>2012-05-28T07:18:06Z</time>
      </trkpt>
      <trkpt lat="45.76217" lon="4.63519">
        <ele>678</ele>
        <time>2012-05-28T07:18:14Z</time>
      </trkpt>
      <trkpt lat="45.76215" lon="4.63508">
        <ele>678</ele>
        <time>2012-05-28T07:18:21Z</time>
      </trkpt>
      <trkpt lat="45.76214" lon="4.63495">
        <ele>678</ele>
        <time>2012-05-28T07:18:30Z</time>
      </trkpt>
      <trkpt lat="45.76215" lon="4.6348">
        <ele>680</ele>
        <time>2012-05-28T07:18:39Z</time>
      </trkpt>
      <trkpt lat="45.76216" lon="4.6347">
        <ele>681</ele>
        <time>2012-05-28T07:18:45Z</time>
      </trkpt>
      <trkpt lat="45.76216" lon="4.63462">
        <ele>681</ele>
        <time>2012-05-28T07:18:49Z</time>
      </trkpt>
      <trkpt lat="45.76215" lon="4.63458">
        <ele>681</ele>
        <time>2012-05-28T07:18:52Z</time>
      </trkpt>
      <trkpt lat="45.76217" lon="4.63445">
        <ele>682</ele>
        <time>2012-05-28T07:19:00Z</time>
      </trkpt>
      <trkpt lat="45.76218" lon="4.63434">
        <ele>683</ele>
        <time>2012-05-28T07:19:07Z</time>
      </trkpt>
      <trkpt lat="45.76218" lon="4.63421">
        <ele>684</ele>
        <time>2012-05-28T07:19:12Z</time>
      </trkpt>
      <trkpt lat="45.76217" lon="4.63419">
        <ele>684</ele>
        <time>2012-05-28T07:19:13Z</time>
      </trkpt>
      <trkpt lat="45.76219" lon="4.6341">
        <ele>685</ele>
        <time>2012-05-28T07:19:17Z</time>
      </trkpt>
      <trkpt lat="45.76222" lon="4.63397">
        <ele>687</ele>
        <time>2012-05-28T07:19:26Z</time>
      </trkpt>
      <trkpt lat="45.76223" lon="4.63395">
        <ele>688</ele>
        <time>2012-05-28T07:19:28Z</time>
      </trkpt>
      <trkpt lat="45.76223" lon="4.63383">
        <ele>688</ele>
        <time>2012-05-28T07:19:35Z</time>
      </trkpt>
      <trkpt lat="45.76222" lon="4.63373">
        <ele>690</ele>
        <time>2012-05-28T07:19:41Z</time>
      </trkpt>
      <trkpt lat="45.76221" lon="4.63366">
        <ele>690</ele>
        <time>2012-05-28T07:19:45Z</time>
      </trkpt>
      <trkpt lat="45.76222" lon="4.6336">
        <ele>691</ele>
        <time>2012-05-28T07:19:48Z</time>
      </trkpt>
      <trkpt lat="45.76223" lon="4.63353">
        <ele>692</ele>
        <time>2012-05-28T07:19:52Z</time>
      </trkpt>
      <trkpt lat="45.76222" lon="4.63344">
        <ele>693</ele>
        <time>2012-05-28T07:19:57Z</time>
      </trkpt>
      <trkpt lat="45.76222" lon="4.63332">
        <ele>694</ele>
        <time>2012-05-28T07:20:05Z</time>
      </trkpt>
      <trkpt lat="45.76222" lon="4.63321">
        <ele>696</ele>
        <time>2012-05-28T07:20:12Z</time>
      </trkpt>
      <trkpt lat="45.7622" lon="4.63316">
        <ele>697</ele>
        <time>2012-05-28T07:20:19Z</time>
      </trkpt>
      <trkpt lat="45.7622" lon="4.63315">
        <ele>697</ele>
        <time>2012-05-28T07:20:31Z</time>
      </trkpt>
      <trkpt lat="45.7622" lon="4.63315">
        <ele>697</ele>
        <time>2012-05-28T07:20:40Z</time>
      </trkpt>
      <trkpt lat="45.7622" lon="4.63315">
        <ele>697</ele>
        <time>2012-05-28T07:20:47Z</time>
      </trkpt>
      <trkpt lat="45.76219" lon="4.63319">
        <ele>697</ele>
        <time>2012-05-28T07:20:54Z</time>
      </trkpt>
      <trkpt lat="45.76218" lon="4.6332">
        <ele>697</ele>
        <time>2012-05-28T07:21:06Z</time>
      </trkpt>
      <trkpt lat="45.76219" lon="4.63321">
        <ele>696</ele>
        <time>2012-05-28T07:21:26Z</time>
      </trkpt>
      <trkpt lat="45.76222" lon="4.63322">
        <ele>697</ele>
        <time>2012-05-28T07:21:50Z</time>
      </trkpt>
      <trkpt lat="45.76221" lon="4.63323">
        <ele>697</ele>
        <time>2012-05-28T07:22:09Z</time>
      </trkpt>
      <trkpt lat="45.76221" lon="4.63323">
        <ele>697</ele>
        <time>2012-05-28T07:22:28Z</time>
      </trkpt>
      <trkpt lat="45.7622" lon="4.6332">
        <ele>698</ele>
        <time>2012-05-28T07:22:49Z</time>
      </trkpt>
      <trkpt lat="45.7622" lon="4.6332">
        <ele>697</ele>
        <time>2012-05-28T07:22:59Z</time>
      </trkpt>
      <trkpt lat="45.7622" lon="4.6332">
        <ele>697</ele>
        <time>2012-05-28T07:23:07Z</time>
      </trkpt>
      <trkpt lat="45.7622" lon="4.6332">
        <ele>698</ele>
        <time>2012-05-28T07:23:15Z</time>
      </trkpt>
      <trkpt lat="45.76222" lon="4.63316">
        <ele>698</ele>
        <time>2012-05-28T07:23:19Z</time>
      </trkpt>
      <trkpt lat="45.76224" lon="4.63318">
        <ele>698</ele>
        <time>2012-05-28T07:23:22Z</time>
      </trkpt>
      <trkpt lat="45.76228" lon="4.63325">
        <ele>698</ele>
        <time>2012-05-28T07:23:30Z</time>
      </trkpt>
      <trkpt lat="45.76229" lon="4.63326">
        <ele>698</ele>
        <time>2012-05-28T07:23:31Z</time>
      </trkpt>
      <trkpt lat="45.76234" lon="4.63326">
        <ele>700</ele>
        <time>2012-05-28T07:23:38Z</time>
      </trkpt>
      <trkpt lat="45.76235" lon="4.63323">
        <ele>700</ele>
        <time>2012-05-28T07:23:44Z</time>
      </trkpt>
      <trkpt lat="45.76236" lon="4.63318">
        <ele>700</ele>
        <time>2012-05-28T07:23:51Z</time>
      </trkpt>
      <trkpt lat="45.7624" lon="4.63311">
        <ele>702</ele>
        <time>2012-05-28T07:23:57Z</time>
      </trkpt>
      <trkpt lat="45.76241" lon="4.63309">
        <ele>702</ele>
        <time>2012-05-28T07:24:04Z</time>
      </trkpt>
      <trkpt lat="45.76241" lon="4.63307">
        <ele>702</ele>
        <time>2012-05-28T07:24:07Z</time>
      </trkpt>
      <trkpt lat="45.76245" lon="4.63296">
        <ele>704</ele>
        <time>2012-05-28T07:24:13Z</time>
      </trkpt>
      <trkpt lat="45.76244" lon="4.63287">
        <ele>705</ele>
        <time>2012-05-28T07:24:20Z</time>
      </trkpt>
      <trkpt lat="45.76245" lon="4.63284">
        <ele>704</ele>
        <time>2012-05-28T07:24:27Z</time>
      </trkpt>
      <trkpt lat="45.76244" lon="4.63275">
        <ele>704</ele>
        <time>2012-05-28T07:24:34Z</time>
      </trkpt>
      <trkpt lat="45.76245" lon="4.63266">
        <ele>705</ele>
        <time>2012-05-28T07:24:39Z</time>
      </trkpt>
      <trkpt lat="45.76247" lon="4.63263">
        <ele>706</ele>
        <time>2012-05-28T07:24:42Z</time>
      </trkpt>
      <trkpt lat="45.76251" lon="4.63253">
        <ele>706</ele>
        <time>2012-05-28T07:24:49Z</time>
      </trkpt>
      <trkpt lat="45.76251" lon="4.63251">
        <ele>707</ele>
        <time>2012-05-28T07:24:51Z</time>
      </trkpt>
      <trkpt lat="45.76249" lon="4.63232">
        <ele>708</ele>
        <time>2012-05-28T07:25:00Z</time>
      </trkpt>
      <trkpt lat="45.76248" lon="4.63227">
        <ele>708</ele>
        <time>2012-05-28T07:25:03Z</time>
      </trkpt>
      <trkpt lat="45.76248" lon="4.63218">
        <ele>709</ele>
        <time>2012-05-28T07:25:08Z</time>
      </trkpt>
      <trkpt lat="45.7625" lon="4.63207">
        <ele>710</ele>
        <time>2012-05-28T07:25:15Z</time>
      </trkpt>
      <trkpt lat="45.76253" lon="4.63195">
        <ele>710</ele>
        <time>2012-05-28T07:25:23Z</time>
      </trkpt>
      <trkpt lat="45.76255" lon="4.63187">
        <ele>711</ele>
        <time>2012-05-28T07:25:28Z</time>
      </trkpt>
      <trkpt lat="45.7626" lon="4.63184">
        <ele>712</ele>
        <time>2012-05-28T07:25:33Z</time>
      </trkpt>
      <trkpt lat="45.76263" lon="4.6318">
        <ele>713</ele>
        <time>2012-05-28T07:25:36Z</time>
      </trkpt>
      <trkpt lat="45.76268" lon="4.6317">
        <ele>714</ele>
        <time>2012-05-28T07:25:44Z</time>
      </trkpt>
      <trkpt lat="45.76272" lon="4.63162">
        <ele>715</ele>
        <time>2012-05-28T07:25:50Z</time>
      </trkpt>
      <trkpt lat="45.76276" lon="4.63157">
        <ele>716</ele>
        <time>2012-05-28T07:25:54Z</time>
      </trkpt>
      <trkpt lat="45.76283" lon="4.6315">
        <ele>717</ele>
        <time>2012-05-28T07:26:02Z</time>
      </trkpt>
      <trkpt lat="45.76289" lon="4.63145">
        <ele>718</ele>
        <time>2012-05-28T07:26:09Z</time>
      </trkpt>
      <trkpt lat="45.76293" lon="4.63142">
        <ele>718</ele>
        <time>2012-05-28T07:26:13Z</time>
      </trkpt>
      <trkpt lat="45.763" lon="4.63132">
        <ele>720</ele>
        <time>2012-05-28T07:26:20Z</time>
      </trkpt>
      <trkpt lat="45.76302" lon="4.6313">
        <ele>720</ele>
        <time>2012-05-28T07:26:24Z</time>
      </trkpt>
      <trkpt lat="45.76309" lon="4.63123">
        <ele>721</ele>
        <time>2012-05-28T07:26:31Z</time>
      </trkpt>
      <trkpt lat="45.76315" lon="4.63116">
        <ele>722</ele>
        <time>2012-05-28T07:26:37Z</time>
      </trkpt>
      <trkpt lat="45.76323" lon="4.63104">
        <ele>722</ele>
        <time>2012-05-28T07:26:45Z</time>
      </trkpt>
      <trkpt lat="45.76325" lon="4.63095">
        <ele>722</ele>
        <time>2012-05-28T07:26:51Z</time>
      </trkpt>
      <trkpt lat="45.76324" lon="4.63088">
        <ele>722</ele>
        <time>2012-05-28T07:26:56Z</time>
      </trkpt>
      <trkpt lat="45.76325" lon="4.63076">
        <ele>723</ele>
        <time>2012-05-28T07:27:03Z</time>
      </trkpt>
      <trkpt lat="45.76324" lon="4.63066">
        <ele>722</ele>
        <time>2012-05-28T07:27:08Z</time>
      </trkpt>
      <trkpt lat="45.76323" lon="4.63055">
        <ele>722</ele>
        <time>2012-05-28T07:27:11Z</time>
      </trkpt>
      <trkpt lat="45.76319" lon="4.63042">
        <ele>721</ele>
        <time>2012-05-28T07:27:14Z</time>
      </trkpt>
      <trkpt lat="45.76308" lon="4.62995">
        <ele>718</ele>
        <time>2012-05-28T07:27:20Z</time>
      </trkpt>
      <trkpt lat="45.76301" lon="4.62961">
        <ele>717</ele>
        <time>2012-05-28T07:27:25Z</time>
      </trkpt>
      <trkpt lat="45.76299" lon="4.62948">
        <ele>717</ele>
        <time>2012-05-28T07:27:27Z</time>
      </trkpt>
      <trkpt lat="45.76298" lon="4.62941">
        <ele>716</ele>
        <time>2012-05-28T07:27:28Z</time>
      </trkpt>
      <trkpt lat="45.76296" lon="4.62935">
        <ele>716</ele>
        <time>2012-05-28T07:27:29Z</time>
      </trkpt>
      <trkpt lat="45.76288" lon="4.62913">
        <ele>714</ele>
        <time>2012-05-28T07:27:33Z</time>
      </trkpt>
      <trkpt lat="45.76287" lon="4.62908">
        <ele>714</ele>
        <time>2012-05-28T07:27:34Z</time>
      </trkpt>
      <trkpt lat="45.76287" lon="4.62903">
        <ele>714</ele>
        <time>2012-05-28T07:27:35Z</time>
      </trkpt>
      <trkpt lat="45.76281" lon="4.62889">
        <ele>714</ele>
        <time>2012-05-28T07:27:39Z</time>
      </trkpt>
      <trkpt lat="45.76279" lon="4.62886">
        <ele>715</ele>
        <time>2012-05-28T07:27:40Z</time>
      </trkpt>
      <trkpt lat="45.76277" lon="4.62883">
        <ele>715</ele>
        <time>2012-05-28T07:27:41Z</time>
      </trkpt>
      <trkpt lat="45.76275" lon="4.62881">
        <ele>715</ele>
        <time>2012-05-28T07:27:42Z</time>
      </trkpt>
      <trkpt lat="45.76273" lon="4.62879">
        <ele>715</ele>
        <time>2012-05-28T07:27:43Z</time>
      </trkpt>
      <trkpt lat="45.76271" lon="4.62878">
        <ele>715</ele>
        <time>2012-05-28T07:27:44Z</time>
      </trkpt>
      <trkpt lat="45.7627" lon="4.62876">
        <ele>715</ele>
        <time>2012-05-28T07:27:45Z</time>
      </trkpt>
      <trkpt lat="45.76268" lon="4.62875">
        <ele>715</ele>
        <time>2012-05-28T07:27:46Z</time>
      </trkpt>
      <trkpt lat="45.76267" lon="4.62874">
        <ele>716</ele>
        <time>2012-05-28T07:27:47Z</time>
      </trkpt>
      <trkpt lat="45.76259" lon="4.62872">
        <ele>715</ele>
        <time>2012-05-28T07:27:52Z</time>
      </trkpt>
      <trkpt lat="45.76246" lon="4.62871">
        <ele>716</ele>
        <time>2012-05-28T07:27:58Z</time>
      </trkpt>
      <trkpt lat="45.76235" lon="4.62871">
        <ele>716</ele>
        <time>2012-05-28T07:28:04Z</time>
      </trkpt>
      <trkpt lat="45.7622" lon="4.62873">
        <ele>717</ele>
        <time>2012-05-28T07:28:10Z</time>
      </trkpt>
      <trkpt lat="45.76218" lon="4.62873">
        <ele>717</ele>
        <time>2012-05-28T07:28:11Z</time>
      </trkpt>
      <trkpt lat="45.76216" lon="4.62873">
        <ele>717</ele>
        <time>2012-05-28T07:28:12Z</time>
      </trkpt>
      <trkpt lat="45.76214" lon="4.62873">
        <ele>717</ele>
        <time>2012-05-28T07:28:13Z</time>
      </trkpt>
      <trkpt lat="45.76213" lon="4.62872">
        <ele>718</ele>
        <time>2012-05-28T07:28:14Z</time>
      </trkpt>
      <trkpt lat="45.7621" lon="4.6287">
        <ele>718</ele>
        <time>2012-05-28T07:28:16Z</time>
      </trkpt>
      <trkpt lat="45.76199" lon="4.62868">
        <ele>718</ele>
        <time>2012-05-28T07:28:21Z</time>
      </trkpt>
      <trkpt lat="45.76196" lon="4.62866">
        <ele>719</ele>
        <time>2012-05-28T07:28:22Z</time>
      </trkpt>
      <trkpt lat="45.76195" lon="4.62864">
        <ele>719</ele>
        <time>2012-05-28T07:28:23Z</time>
      </trkpt>
      <trkpt lat="45.76187" lon="4.62857">
        <ele>718</ele>
        <time>2012-05-28T07:28:31Z</time>
      </trkpt>
      <trkpt lat="45.76175" lon="4.62851">
        <ele>715</ele>
        <time>2012-05-28T07:28:37Z</time>
      </trkpt>
      <trkpt lat="45.76164" lon="4.62843">
        <ele>713</ele>
        <time>2012-05-28T07:28:42Z</time>
      </trkpt>
      <trkpt lat="45.76158" lon="4.62845">
        <ele>712</ele>
        <time>2012-05-28T07:28:44Z</time>
      </trkpt>
      <trkpt lat="45.76156" lon="4.62847">
        <ele>713</ele>
        <time>2012-05-28T07:28:45Z</time>
      </trkpt>
      <trkpt lat="45.76142" lon="4.62862">
        <ele>711</ele>
        <time>2012-05-28T07:28:51Z</time>
      </trkpt>
      <trkpt lat="45.7614" lon="4.62865">
        <ele>711</ele>
        <time>2012-05-28T07:28:52Z</time>
      </trkpt>
      <trkpt lat="45.76137" lon="4.62868">
        <ele>711</ele>
        <time>2012-05-28T07:28:53Z</time>
      </trkpt>
      <trkpt lat="45.76135" lon="4.6287">
        <ele>710</ele>
        <time>2012-05-28T07:28:54Z</time>
      </trkpt>
      <trkpt lat="45.76133" lon="4.62872">
        <ele>710</ele>
        <time>2012-05-28T07:28:55Z</time>
      </trkpt>
      <trkpt lat="45.76131" lon="4.62875">
        <ele>711</ele>
        <time>2012-05-28T07:28:56Z</time>
      </trkpt>
      <trkpt lat="45.76119" lon="4.62896">
        <ele>709</ele>
        <time>2012-05-28T07:29:01Z</time>
      </trkpt>
      <trkpt lat="45.76115" lon="4.629">
        <ele>708</ele>
        <time>2012-05-28T07:29:03Z</time>
      </trkpt>
      <trkpt lat="45.76114" lon="4.62903">
        <ele>708</ele>
        <time>2012-05-28T07:29:04Z</time>
      </trkpt>
      <trkpt lat="45.76113" lon="4.62906">
        <ele>707</ele>
        <time>2012-05-28T07:29:05Z</time>
      </trkpt>
      <trkpt lat="45.76111" lon="4.6291">
        <ele>707</ele>
        <time>2012-05-28T07:29:06Z</time>
      </trkpt>
      <trkpt lat="45.7611" lon="4.62914">
        <ele>707</ele>
        <time>2012-05-28T07:29:07Z</time>
      </trkpt>
      <trkpt lat="45.76108" lon="4.62919">
        <ele>706</ele>
        <time>2012-05-28T07:29:08Z</time>
      </trkpt>
      <trkpt lat="45.76105" lon="4.62929">
        <ele>706</ele>
        <time>2012-05-28T07:29:10Z</time>
      </trkpt>
      <trkpt lat="45.76104" lon="4.62939">
        <ele>705</ele>
        <time>2012-05-28T07:29:13Z</time>
      </trkpt>
      <trkpt lat="45.76104" lon="4.62941">
        <ele>705</ele>
        <time>2012-05-28T07:29:14Z</time>
      </trkpt>
      <trkpt lat="45.76104" lon="4.62944">
        <ele>705</ele>
        <time>2012-05-28T07:29:15Z</time>
      </trkpt>
      <trkpt lat="45.76104" lon="4.62946">
        <ele>705</ele>
        <time>2012-05-28T07:29:16Z</time>
      </trkpt>
      <trkpt lat="45.76104" lon="4.62949">
        <ele>704</ele>
        <time>2012-05-28T07:29:17Z</time>
      </trkpt>
      <trkpt lat="45.76101" lon="4.62962">
        <ele>704</ele>
        <time>2012-05-28T07:29:22Z</time>
      </trkpt>
      <trkpt lat="45.76102" lon="4.62965">
        <ele>704</ele>
        <time>2012-05-28T07:29:23Z</time>
      </trkpt>
      <trkpt lat="45.76101" lon="4.62967">
        <ele>704</ele>
        <time>2012-05-28T07:29:24Z</time>
      </trkpt>
      <trkpt lat="45.76101" lon="4.62969">
        <ele>704</ele>
        <time>2012-05-28T07:29:25Z</time>
      </trkpt>
      <trkpt lat="45.76097" lon="4.62984">
        <ele>704</ele>
        <time>2012-05-28T07:29:31Z</time>
      </trkpt>
      <trkpt lat="45.76096" lon="4.62987">
        <ele>705</ele>
        <time>2012-05-28T07:29:32Z</time>
      </trkpt>
      <trkpt lat="45.76096" lon="4.6299">
        <ele>704</ele>
        <time>2012-05-28T07:29:33Z</time>
      </trkpt>
      <trkpt lat="45.76094" lon="4.62995">
        <ele>704</ele>
        <time>2012-05-28T07:29:35Z</time>
      </trkpt>
      <trkpt lat="45.76092" lon="4.62998">
        <ele>705</ele>
        <time>2012-05-28T07:29:36Z</time>
      </trkpt>
      <trkpt lat="45.76091" lon="4.63">
        <ele>705</ele>
        <time>2012-05-28T07:29:37Z</time>
      </trkpt>
      <trkpt lat="45.76089" lon="4.63003">
        <ele>705</ele>
        <time>2012-05-28T07:29:38Z</time>
      </trkpt>
      <trkpt lat="45.76088" lon="4.63006">
        <ele>704</ele>
        <time>2012-05-28T07:29:39Z</time>
      </trkpt>
      <trkpt lat="45.76086" lon="4.63011">
        <ele>705</ele>
        <time>2012-05-28T07:29:40Z</time>
      </trkpt>
      <trkpt lat="45.76085" lon="4.63015">
        <ele>706</ele>
        <time>2012-05-28T07:29:41Z</time>
      </trkpt>
      <trkpt lat="45.76077" lon="4.63041">
        <ele>706</ele>
        <time>2012-05-28T07:29:49Z</time>
      </trkpt>
      <trkpt lat="45.76074" lon="4.63049">
        <ele>706</ele>
        <time>2012-05-28T07:29:52Z</time>
      </trkpt>
      <trkpt lat="45.76073" lon="4.63051">
        <ele>706</ele>
        <time>2012-05-28T07:29:53Z</time>
      </trkpt>
      <trkpt lat="45.76072" lon="4.63054">
        <ele>706</ele>
        <time>2012-05-28T07:29:54Z</time>
      </trkpt>
      <trkpt lat="45.76063" lon="4.63065">
        <ele>707</ele>
        <time>2012-05-28T07:29:59Z</time>
      </trkpt>
      <trkpt lat="45.76055" lon="4.63077">
        <ele>708</ele>
        <time>2012-05-28T07:30:03Z</time>
      </trkpt>
      <trkpt lat="45.76041" lon="4.63091">
        <ele>709</ele>
        <time>2012-05-28T07:30:09Z</time>
      </trkpt>
      <trkpt lat="45.76038" lon="4.63093">
        <ele>709</ele>
        <time>2012-05-28T07:30:11Z</time>
      </trkpt>
      <trkpt lat="45.76035" lon="4.63094">
        <ele>709</ele>
        <time>2012-05-28T07:30:12Z</time>
      </trkpt>
      <trkpt lat="45.76028" lon="4.63096">
        <ele>710</ele>
        <time>2012-05-28T07:30:16Z</time>
      </trkpt>
      <trkpt lat="45.76018" lon="4.63098">
        <ele>711</ele>
        <time>2012-05-28T07:30:22Z</time>
      </trkpt>
      <trkpt lat="45.7601" lon="4.63098">
        <ele>711</ele>
        <time>2012-05-28T07:30:28Z</time>
      </trkpt>
      <trkpt lat="45.76009" lon="4.63097">
        <ele>712</ele>
        <time>2012-05-28T07:30:30Z</time>
      </trkpt>
      <trkpt lat="45.75995" lon="4.63095">
        <ele>713</ele>
        <time>2012-05-28T07:30:37Z</time>
      </trkpt>
      <trkpt lat="45.75994" lon="4.63094">
        <ele>713</ele>
        <time>2012-05-28T07:30:38Z</time>
      </trkpt>
      <trkpt lat="45.75982" lon="4.63087">
        <ele>714</ele>
        <time>2012-05-28T07:30:44Z</time>
      </trkpt>
      <trkpt lat="45.75978" lon="4.63083">
        <ele>714</ele>
        <time>2012-05-28T07:30:47Z</time>
      </trkpt>
      <trkpt lat="45.75968" lon="4.63075">
        <ele>716</ele>
        <time>2012-05-28T07:30:54Z</time>
      </trkpt>
      <trkpt lat="45.7596" lon="4.63068">
        <ele>717</ele>
        <time>2012-05-28T07:31:00Z</time>
      </trkpt>
      <trkpt lat="45.75959" lon="4.63066">
        <ele>716</ele>
        <time>2012-05-28T07:31:01Z</time>
      </trkpt>
      <trkpt lat="45.75957" lon="4.63064">
        <ele>716</ele>
        <time>2012-05-28T07:31:02Z</time>
      </trkpt>
      <trkpt lat="45.75953" lon="4.63062">
        <ele>717</ele>
        <time>2012-05-28T07:31:04Z</time>
      </trkpt>
      <trkpt lat="45.75952" lon="4.63062">
        <ele>716</ele>
        <time>2012-05-28T07:31:05Z</time>
      </trkpt>
      <trkpt lat="45.7595" lon="4.63061">
        <ele>717</ele>
        <time>2012-05-28T07:31:06Z</time>
      </trkpt>
      <trkpt lat="45.75949" lon="4.6306">
        <ele>717</ele>
        <time>2012-05-28T07:31:07Z</time>
      </trkpt>
      <trkpt lat="45.75947" lon="4.63059">
        <ele>717</ele>
        <time>2012-05-28T07:31:08Z</time>
      </trkpt>
      <trkpt lat="45.75941" lon="4.63052">
        <ele>717</ele>
        <time>2012-05-28T07:31:14Z</time>
      </trkpt>
      <trkpt lat="45.75936" lon="4.63045">
        <ele>717</ele>
        <time>2012-05-28T07:31:21Z</time>
      </trkpt>
      <trkpt lat="45.75934" lon="4.63042">
        <ele>717</ele>
        <time>2012-05-28T07:31:33Z</time>
      </trkpt>
      <trkpt lat="45.75934" lon="4.6304">
        <ele>717</ele>
        <time>2012-05-28T07:31:47Z</time>
      </trkpt>
      <trkpt lat="45.75933" lon="4.63038">
        <ele>717</ele>
        <time>2012-05-28T07:32:03Z</time>
      </trkpt>
      <trkpt lat="45.75934" lon="4.63038">
        <ele>717</ele>
        <time>2012-05-28T07:32:19Z</time>
      </trkpt>
      <trkpt lat="45.75933" lon="4.63037">
        <ele>717</ele>
        <time>2012-05-28T07:32:36Z</time>
      </trkpt>
      <trkpt lat="45.75934" lon="4.63035">
        <ele>717</ele>
        <time>2012-05-28T07:32:48Z</time>
      </trkpt>
      <trkpt lat="45.75934" lon="4.63035">
        <ele>717</ele>
        <time>2012-05-28T07:33:02Z</time>
      </trkpt>
      <trkpt lat="45.75934" lon="4.63035">
        <ele>717</ele>
        <time>2012-05-28T07:33:12Z</time>
      </trkpt>
      <trkpt lat="45.75935" lon="4.63036">
        <ele>717</ele>
        <time>2012-05-28T07:33:22Z</time>
      </trkpt>
      <trkpt lat="45.75935" lon="4.63036">
        <ele>717</ele>
        <time>2012-05-28T07:33:34Z</time>
      </trkpt>
      <trkpt lat="45.75935" lon="4.63037">
        <ele>717</ele>
        <time>2012-05-28T07:33:53Z</time>
      </trkpt>
      <trkpt lat="45.75935" lon="4.63037">
        <ele>717</ele>
        <time>2012-05-28T07:34:10Z</time>
      </trkpt>
      <trkpt lat="45.75935" lon="4.63036">
        <ele>717</ele>
        <time>2012-05-28T07:34:29Z</time>
      </trkpt>
      <trkpt lat="45.75935" lon="4.63036">
        <ele>717</ele>
        <time>2012-05-28T07:34:45Z</time>
      </trkpt>
      <trkpt lat="45.75935" lon="4.63036">
        <ele>718</ele>
        <time>2012-05-28T07:35:03Z</time>
      </trkpt>
      <trkpt lat="45.75935" lon="4.63036">
        <ele>717</ele>
        <time>2012-05-28T07:35:15Z</time>
      </trkpt>
      <trkpt lat="45.75928" lon="4.63031">
        <ele>717</ele>
        <time>2012-05-28T07:35:22Z</time>
      </trkpt>
      <trkpt lat="45.75926" lon="4.6303">
        <ele>717</ele>
        <time>2012-05-28T07:35:24Z</time>
      </trkpt>
      <trkpt lat="45.75924" lon="4.6303">
        <ele>717</ele>
        <time>2012-05-28T07:35:25Z</time>
      </trkpt>
      <trkpt lat="45.75921" lon="4.6303">
        <ele>717</ele>
        <time>2012-05-28T07:35:26Z</time>
      </trkpt>
      <trkpt lat="45.75919" lon="4.63029">
        <ele>717</ele>
        <time>2012-05-28T07:35:27Z</time>
      </trkpt>
      <trkpt lat="45.75916" lon="4.63028">
        <ele>716</ele>
        <time>2012-05-28T07:35:28Z</time>
      </trkpt>
      <trkpt lat="45.75906" lon="4.63021">
        <ele>715</ele>
        <time>2012-05-28T07:35:32Z</time>
      </trkpt>
      <trkpt lat="45.75904" lon="4.63021">
        <ele>715</ele>
        <time>2012-05-28T07:35:33Z</time>
      </trkpt>
      <trkpt lat="45.75901" lon="4.63019">
        <ele>715</ele>
        <time>2012-05-28T07:35:34Z</time>
      </trkpt>
      <trkpt lat="45.75886" lon="4.63008">
        <ele>713</ele>
        <time>2012-05-28T07:35:40Z</time>
      </trkpt>
      <trkpt lat="45.75872" lon="4.63001">
        <ele>712</ele>
        <time>2012-05-28T07:35:45Z</time>
      </trkpt>
      <trkpt lat="45.75861" lon="4.62997">
        <ele>711</ele>
        <time>2012-05-28T07:35:50Z</time>
      </trkpt>
      <trkpt lat="45.75852" lon="4.62981">
        <ele>710</ele>
        <time>2012-05-28T07:35:55Z</time>
      </trkpt>
      <trkpt lat="45.75843" lon="4.62973">
        <ele>710</ele>
        <time>2012-05-28T07:36:00Z</time>
      </trkpt>
      <trkpt lat="45.75841" lon="4.62974">
        <ele>710</ele>
        <time>2012-05-28T07:36:01Z</time>
      </trkpt>
      <trkpt lat="45.75839" lon="4.62974">
        <ele>710</ele>
        <time>2012-05-28T07:36:02Z</time>
      </trkpt>
      <trkpt lat="45.75833" lon="4.62972">
        <ele>711</ele>
        <time>2012-05-28T07:36:04Z</time>
      </trkpt>
      <trkpt lat="45.75831" lon="4.6297">
        <ele>711</ele>
        <time>2012-05-28T07:36:05Z</time>
      </trkpt>
      <trkpt lat="45.75828" lon="4.62968">
        <ele>711</ele>
        <time>2012-05-28T07:36:06Z</time>
      </trkpt>
      <trkpt lat="45.75825" lon="4.62968">
        <ele>711</ele>
        <time>2012-05-28T07:36:07Z</time>
      </trkpt>
      <trkpt lat="45.75823" lon="4.62967">
        <ele>711</ele>
        <time>2012-05-28T07:36:08Z</time>
      </trkpt>
      <trkpt lat="45.75821" lon="4.62966">
        <ele>711</ele>
        <time>2012-05-28T07:36:09Z</time>
      </trkpt>
      <trkpt lat="45.75818" lon="4.62966">
        <ele>711</ele>
        <time>2012-05-28T07:36:10Z</time>
      </trkpt>
      <trkpt lat="45.75817" lon="4.62966">
        <ele>711</ele>
        <time>2012-05-28T07:36:11Z</time>
      </trkpt>
      <trkpt lat="45.75813" lon="4.62965">
        <ele>711</ele>
        <time>2012-05-28T07:36:13Z</time>
      </trkpt>
      <trkpt lat="45.75812" lon="4.62964">
        <ele>711</ele>
        <time>2012-05-28T07:36:14Z</time>
      </trkpt>
      <trkpt lat="45.7581" lon="4.62963">
        <ele>711</ele>
        <time>2012-05-28T07:36:15Z</time>
      </trkpt>
      <trkpt lat="45.75807" lon="4.62961">
        <ele>711</ele>
        <time>2012-05-28T07:36:16Z</time>
      </trkpt>
      <trkpt lat="45.75805" lon="4.62961">
        <ele>711</ele>
        <time>2012-05-28T07:36:17Z</time>
      </trkpt>
      <trkpt lat="45.75802" lon="4.6296">
        <ele>711</ele>
        <time>2012-05-28T07:36:18Z</time>
      </trkpt>
      <trkpt lat="45.758" lon="4.62958">
        <ele>711</ele>
        <time>2012-05-28T07:36:19Z</time>
      </trkpt>
      <trkpt lat="45.75797" lon="4.62957">
        <ele>711</ele>
        <time>2012-05-28T07:36:20Z</time>
      </trkpt>
      <trkpt lat="45.75787" lon="4.62952">
        <ele>711</ele>
        <time>2012-05-28T07:36:24Z</time>
      </trkpt>
      <trkpt lat="45.75769" lon="4.62942">
        <ele>711</ele>
        <time>2012-05-28T07:36:31Z</time>
      </trkpt>
      <trkpt lat="45.75757" lon="4.62932">
        <ele>709</ele>
        <time>2012-05-28T07:36:36Z</time>
      </trkpt>
      <trkpt lat="45.75738" lon="4.62925">
        <ele>708</ele>
        <time>2012-05-28T07:36:42Z</time>
      </trkpt>
      <trkpt lat="45.75735" lon="4.62924">
        <ele>707</ele>
        <time>2012-05-28T07:36:43Z</time>
      </trkpt>
      <trkpt lat="45.75732" lon="4.62921">
        <ele>707</ele>
        <time>2012-05-28T07:36:44Z</time>
      </trkpt>
      <trkpt lat="45.75729" lon="4.62918">
        <ele>707</ele>
        <time>2012-05-28T07:36:45Z</time>
      </trkpt>
      <trkpt lat="45.75726" lon="4.62915">
        <ele>706</ele>
        <time>2012-05-28T07:36:46Z</time>
      </trkpt>
      <trkpt lat="45.75723" lon="4.62912">
        <ele>706</ele>
        <time>2012-05-28T07:36:47Z</time>
      </trkpt>
      <trkpt lat="45.75718" lon="4.62909">
        <ele>705</ele>
        <time>2012-05-28T07:36:48Z</time>
      </trkpt>
      <trkpt lat="45.75713" lon="4.62907">
        <ele>705</ele>
        <time>2012-05-28T07:36:49Z</time>
      </trkpt>
      <trkpt lat="45.75708" lon="4.62906">
        <ele>705</ele>
        <time>2012-05-28T07:36:50Z</time>
      </trkpt>
      <trkpt lat="45.757" lon="4.62903">
        <ele>703</ele>
        <time>2012-05-28T07:36:52Z</time>
      </trkpt>
      <trkpt lat="45.75691" lon="4.62898">
        <ele>703</ele>
        <time>2012-05-28T07:36:54Z</time>
      </trkpt>
      <trkpt lat="45.75687" lon="4.62895">
        <ele>703</ele>
        <time>2012-05-28T07:36:55Z</time>
      </trkpt>
      <trkpt lat="45.75683" lon="4.62892">
        <ele>703</ele>
        <time>2012-05-28T07:36:56Z</time>
      </trkpt>
      <trkpt lat="45.75664" lon="4.62879">
        <ele>703</ele>
        <time>2012-05-28T07:37:01Z</time>
      </trkpt>
      <trkpt lat="45.75646" lon="4.62868">
        <ele>703</ele>
        <time>2012-05-28T07:37:07Z</time>
      </trkpt>
      <trkpt lat="45.75641" lon="4.62865">
        <ele>703</ele>
        <time>2012-05-28T07:37:10Z</time>
      </trkpt>
      <trkpt lat="45.75639" lon="4.62862">
        <ele>703</ele>
        <time>2012-05-28T07:37:11Z</time>
      </trkpt>
      <trkpt lat="45.75637" lon="4.6286">
        <ele>703</ele>
        <time>2012-05-28T07:37:12Z</time>
      </trkpt>
      <trkpt lat="45.75634" lon="4.62858">
        <ele>703</ele>
        <time>2012-05-28T07:37:13Z</time>
      </trkpt>
      <trkpt lat="45.75631" lon="4.62856">
        <ele>703</ele>
        <time>2012-05-28T07:37:14Z</time>
      </trkpt>
      <trkpt lat="45.75628" lon="4.62854">
        <ele>703</ele>
        <time>2012-05-28T07:37:15Z</time>
      </trkpt>
      <trkpt lat="45.75607" lon="4.62842">
        <ele>702</ele>
        <time>2012-05-28T07:37:21Z</time>
      </trkpt>
      <trkpt lat="45.75603" lon="4.6284">
        <ele>701</ele>
        <time>2012-05-28T07:37:22Z</time>
      </trkpt>
      <trkpt lat="45.75599" lon="4.62839">
        <ele>701</ele>
        <time>2012-05-28T07:37:23Z</time>
      </trkpt>
      <trkpt lat="45.75594" lon="4.62838">
        <ele>701</ele>
        <time>2012-05-28T07:37:24Z</time>
      </trkpt>
      <trkpt lat="45.7559" lon="4.62837">
        <ele>701</ele>
        <time>2012-05-28T07:37:25Z</time>
      </trkpt>
      <trkpt lat="45.75581" lon="4.62837">
        <ele>700</ele>
        <time>2012-05-28T07:37:27Z</time>
      </trkpt>
      <trkpt lat="45.75576" lon="4.62838">
        <ele>700</ele>
        <time>2012-05-28T07:37:28Z</time>
      </trkpt>
      <trkpt lat="45.75571" lon="4.62838">
        <ele>699</ele>
        <time>2012-05-28T07:37:29Z</time>
      </trkpt>
      <trkpt lat="45.75566" lon="4.62838">
        <ele>699</ele>
        <time>2012-05-28T07:37:30Z</time>
      </trkpt>
      <trkpt lat="45.75562" lon="4.62839">
        <ele>699</ele>
        <time>2012-05-28T07:37:31Z</time>
      </trkpt>
      <trkpt lat="45.75557" lon="4.6284">
        <ele>699</ele>
        <time>2012-05-28T07:37:32Z</time>
      </trkpt>
      <trkpt lat="45.75553" lon="4.62842">
        <ele>699</ele>
        <time>2012-05-28T07:37:33Z</time>
      </trkpt>
      <trkpt lat="45.7553" lon="4.62844">
        <ele>699</ele>
        <time>2012-05-28T07:37:39Z</time>
      </trkpt>
      <trkpt lat="45.75515" lon="4.62848">
        <ele>700</ele>
        <time>2012-05-28T07:37:46Z</time>
      </trkpt>
      <trkpt lat="45.75501" lon="4.62849">
        <ele>699</ele>
        <time>2012-05-28T07:37:50Z</time>
      </trkpt>
      <trkpt lat="45.755" lon="4.62847">
        <ele>699</ele>
        <time>2012-05-28T07:37:51Z</time>
      </trkpt>
      <trkpt lat="45.75499" lon="4.62844">
        <ele>699</ele>
        <time>2012-05-28T07:37:52Z</time>
      </trkpt>
      <trkpt lat="45.75499" lon="4.62841">
        <ele>699</ele>
        <time>2012-05-28T07:37:53Z</time>
      </trkpt>
      <trkpt lat="45.755" lon="4.62839">
        <ele>699</ele>
        <time>2012-05-28T07:37:54Z</time>
      </trkpt>
      <trkpt lat="45.755" lon="4.62837">
        <ele>699</ele>
        <time>2012-05-28T07:37:55Z</time>
      </trkpt>
      <trkpt lat="45.75504" lon="4.62824">
        <ele>699</ele>
        <time>2012-05-28T07:38:00Z</time>
      </trkpt>
      <trkpt lat="45.75504" lon="4.62821">
        <ele>699</ele>
        <time>2012-05-28T07:38:01Z</time>
      </trkpt>
      <trkpt lat="45.75504" lon="4.62818">
        <ele>699</ele>
        <time>2012-05-28T07:38:02Z</time>
      </trkpt>
      <trkpt lat="45.75509" lon="4.628">
        <ele>699</ele>
        <time>2012-05-28T07:38:09Z</time>
      </trkpt>
      <trkpt lat="45.75513" lon="4.62784">
        <ele>699</ele>
        <time>2012-05-28T07:38:14Z</time>
      </trkpt>
      <trkpt lat="45.75514" lon="4.62781">
        <ele>699</ele>
        <time>2012-05-28T07:38:15Z</time>
      </trkpt>
      <trkpt lat="45.75515" lon="4.62777">
        <ele>699</ele>
        <time>2012-05-28T07:38:16Z</time>
      </trkpt>
      <trkpt lat="45.75523" lon="4.62749">
        <ele>700</ele>
        <time>2012-05-28T07:38:24Z</time>
      </trkpt>
      <trkpt lat="45.75533" lon="4.62718">
        <ele>701</ele>
        <time>2012-05-28T07:38:33Z</time>
      </trkpt>
      <trkpt lat="45.75544" lon="4.62691">
        <ele>702</ele>
        <time>2012-05-28T07:38:42Z</time>
      </trkpt>
      <trkpt lat="45.75554" lon="4.62666">
        <ele>704</ele>
        <time>2012-05-28T07:38:51Z</time>
      </trkpt>
      <trkpt lat="45.75562" lon="4.62653">
        <ele>705</ele>
        <time>2012-05-28T07:38:58Z</time>
      </trkpt>
      <trkpt lat="45.7557" lon="4.62638">
        <ele>707</ele>
        <time>2012-05-28T07:39:08Z</time>
      </trkpt>
      <trkpt lat="45.75577" lon="4.62623">
        <ele>708</ele>
        <time>2012-05-28T07:39:15Z</time>
      </trkpt>
      <trkpt lat="45.75583" lon="4.62612">
        <ele>709</ele>
        <time>2012-05-28T07:39:22Z</time>
      </trkpt>
      <trkpt lat="45.75584" lon="4.62611">
        <ele>709</ele>
        <time>2012-05-28T07:39:23Z</time>
      </trkpt>
      <trkpt lat="45.75586" lon="4.6261">
        <ele>709</ele>
        <time>2012-05-28T07:39:24Z</time>
      </trkpt>
      <trkpt lat="45.75586" lon="4.62607">
        <ele>710</ele>
        <time>2012-05-28T07:39:25Z</time>
      </trkpt>
      <trkpt lat="45.75587" lon="4.62605">
        <ele>710</ele>
        <time>2012-05-28T07:39:26Z</time>
      </trkpt>
      <trkpt lat="45.75593" lon="4.62591">
        <ele>711</ele>
        <time>2012-05-28T07:39:33Z</time>
      </trkpt>
      <trkpt lat="45.75594" lon="4.62588">
        <ele>711</ele>
        <time>2012-05-28T07:39:35Z</time>
      </trkpt>
      <trkpt lat="45.75597" lon="4.62581">
        <ele>712</ele>
        <time>2012-05-28T07:39:39Z</time>
      </trkpt>
      <trkpt lat="45.756" lon="4.62567">
        <ele>713</ele>
        <time>2012-05-28T07:39:45Z</time>
      </trkpt>
      <trkpt lat="45.75603" lon="4.62559">
        <ele>713</ele>
        <time>2012-05-28T07:39:49Z</time>
      </trkpt>
      <trkpt lat="45.75603" lon="4.62557">
        <ele>714</ele>
        <time>2012-05-28T07:39:50Z</time>
      </trkpt>
      <trkpt lat="45.75602" lon="4.62554">
        <ele>713</ele>
        <time>2012-05-28T07:39:51Z</time>
      </trkpt>
      <trkpt lat="45.75604" lon="4.62545">
        <ele>715</ele>
        <time>2012-05-28T07:39:55Z</time>
      </trkpt>
      <trkpt lat="45.75604" lon="4.62543">
        <ele>714</ele>
        <time>2012-05-28T07:39:56Z</time>
      </trkpt>
      <trkpt lat="45.75603" lon="4.62541">
        <ele>715</ele>
        <time>2012-05-28T07:39:57Z</time>
      </trkpt>
      <trkpt lat="45.75603" lon="4.62532">
        <ele>716</ele>
        <time>2012-05-28T07:40:01Z</time>
      </trkpt>
      <trkpt lat="45.75602" lon="4.62527">
        <ele>716</ele>
        <time>2012-05-28T07:40:04Z</time>
      </trkpt>
      <trkpt lat="45.75602" lon="4.62524">
        <ele>717</ele>
        <time>2012-05-28T07:40:05Z</time>
      </trkpt>
      <trkpt lat="45.75605" lon="4.62515">
        <ele>717</ele>
        <time>2012-05-28T07:40:10Z</time>
      </trkpt>
      <trkpt lat="45.75607" lon="4.62511">
        <ele>718</ele>
        <time>2012-05-28T07:40:12Z</time>
      </trkpt>
      <trkpt lat="45.75608" lon="4.62508">
        <ele>718</ele>
        <time>2012-05-28T07:40:13Z</time>
      </trkpt>
      <trkpt lat="45.7561" lon="4.62492">
        <ele>719</ele>
        <time>2012-05-28T07:40:20Z</time>
      </trkpt>
      <trkpt lat="45.7561" lon="4.62479">
        <ele>720</ele>
        <time>2012-05-28T07:40:27Z</time>
      </trkpt>
      <trkpt lat="45.75611" lon="4.62475">
        <ele>721</ele>
        <time>2012-05-28T07:40:29Z</time>
      </trkpt>
      <trkpt lat="45.75612" lon="4.62472">
        <ele>721</ele>
        <time>2012-05-28T07:40:30Z</time>
      </trkpt>
      <trkpt lat="45.7561" lon="4.62467">
        <ele>722</ele>
        <time>2012-05-28T07:40:33Z</time>
      </trkpt>
      <trkpt lat="45.75608" lon="4.62453">
        <ele>723</ele>
        <time>2012-05-28T07:40:40Z</time>
      </trkpt>
      <trkpt lat="45.75609" lon="4.6245">
        <ele>723</ele>
        <time>2012-05-28T07:40:42Z</time>
      </trkpt>
      <trkpt lat="45.7561" lon="4.62442">
        <ele>724</ele>
        <time>2012-05-28T07:40:46Z</time>
      </trkpt>
      <trkpt lat="45.75612" lon="4.62434">
        <ele>724</ele>
        <time>2012-05-28T07:40:49Z</time>
      </trkpt>
      <trkpt lat="45.75612" lon="4.62432">
        <ele>724</ele>
        <time>2012-05-28T07:40:50Z</time>
      </trkpt>
      <trkpt lat="45.75613" lon="4.6243">
        <ele>724</ele>
        <time>2012-05-28T07:40:51Z</time>
      </trkpt>
      <trkpt lat="45.75615" lon="4.6242">
        <ele>724</ele>
        <time>2012-05-28T07:40:57Z</time>
      </trkpt>
      <trkpt lat="45.75615" lon="4.62417">
        <ele>724</ele>
        <time>2012-05-28T07:40:58Z</time>
      </trkpt>
      <trkpt lat="45.75616" lon="4.62415">
        <ele>724</ele>
        <time>2012-05-28T07:40:59Z</time>
      </trkpt>
      <trkpt lat="45.75616" lon="4.62412">
        <ele>724</ele>
        <time>2012-05-28T07:41:00Z</time>
      </trkpt>
      <trkpt lat="45.75616" lon="4.62406">
        <ele>724</ele>
        <time>2012-05-28T07:41:02Z</time>
      </trkpt>
      <trkpt lat="45.75616" lon="4.62404">
        <ele>725</ele>
        <time>2012-05-28T07:41:03Z</time>
      </trkpt>
      <trkpt lat="45.75616" lon="4.62388">
        <ele>725</ele>
        <time>2012-05-28T07:41:09Z</time>
      </trkpt>
      <trkpt lat="45.75616" lon="4.62385">
        <ele>725</ele>
        <time>2012-05-28T07:41:10Z</time>
      </trkpt>
      <trkpt lat="45.75615" lon="4.62362">
        <ele>726</ele>
        <time>2012-05-28T07:41:19Z</time>
      </trkpt>
      <trkpt lat="45.75611" lon="4.62345">
        <ele>726</ele>
        <time>2012-05-28T07:41:26Z</time>
      </trkpt>
      <trkpt lat="45.7561" lon="4.62342">
        <ele>726</ele>
        <time>2012-05-28T07:41:27Z</time>
      </trkpt>
      <trkpt lat="45.75609" lon="4.6234">
        <ele>726</ele>
        <time>2012-05-28T07:41:28Z</time>
      </trkpt>
      <trkpt lat="45.75609" lon="4.62338">
        <ele>726</ele>
        <time>2012-05-28T07:41:29Z</time>
      </trkpt>
      <trkpt lat="45.75607" lon="4.62325">
        <ele>727</ele>
        <time>2012-05-28T07:41:35Z</time>
      </trkpt>
      <trkpt lat="45.75604" lon="4.62311">
        <ele>727</ele>
        <time>2012-05-28T07:41:42Z</time>
      </trkpt>
      <trkpt lat="45.756" lon="4.62301">
        <ele>728</ele>
        <time>2012-05-28T07:41:46Z</time>
      </trkpt>
      <trkpt lat="45.75597" lon="4.62293">
        <ele>729</ele>
        <time>2012-05-28T07:41:50Z</time>
      </trkpt>
      <trkpt lat="45.75597" lon="4.62291">
        <ele>729</ele>
        <time>2012-05-28T07:41:51Z</time>
      </trkpt>
      <trkpt lat="45.75596" lon="4.62288">
        <ele>729</ele>
        <time>2012-05-28T07:41:52Z</time>
      </trkpt>
      <trkpt lat="45.75596" lon="4.62286">
        <ele>730</ele>
        <time>2012-05-28T07:41:53Z</time>
      </trkpt>
      <trkpt lat="45.75596" lon="4.62284">
        <ele>729</ele>
        <time>2012-05-28T07:41:54Z</time>
      </trkpt>
      <trkpt lat="45.75596" lon="4.62283">
        <ele>730</ele>
        <time>2012-05-28T07:41:55Z</time>
      </trkpt>
      <trkpt lat="45.75596" lon="4.62281">
        <ele>730</ele>
        <time>2012-05-28T07:41:56Z</time>
      </trkpt>
      <trkpt lat="45.75595" lon="4.62271">
        <ele>731</ele>
        <time>2012-05-28T07:42:00Z</time>
      </trkpt>
      <trkpt lat="45.75595" lon="4.62269">
        <ele>730</ele>
        <time>2012-05-28T07:42:01Z</time>
      </trkpt>
      <trkpt lat="45.75596" lon="4.62267">
        <ele>731</ele>
        <time>2012-05-28T07:42:02Z</time>
      </trkpt>
      <trkpt lat="45.75596" lon="4.62265">
        <ele>731</ele>
        <time>2012-05-28T07:42:03Z</time>
      </trkpt>
      <trkpt lat="45.75596" lon="4.62263">
        <ele>731</ele>
        <time>2012-05-28T07:42:04Z</time>
      </trkpt>
      <trkpt lat="45.75596" lon="4.62261">
        <ele>731</ele>
        <time>2012-05-28T07:42:05Z</time>
      </trkpt>
      <trkpt lat="45.75596" lon="4.62258">
        <ele>731</ele>
        <time>2012-05-28T07:42:06Z</time>
      </trkpt>
      <trkpt lat="45.75598" lon="4.62247">
        <ele>732</ele>
        <time>2012-05-28T07:42:12Z</time>
      </trkpt>
      <trkpt lat="45.75597" lon="4.62234">
        <ele>732</ele>
        <time>2012-05-28T07:42:18Z</time>
      </trkpt>
      <trkpt lat="45.75598" lon="4.62218">
        <ele>734</ele>
        <time>2012-05-28T07:42:25Z</time>
      </trkpt>
      <trkpt lat="45.75598" lon="4.62211">
        <ele>734</ele>
        <time>2012-05-28T07:42:28Z</time>
      </trkpt>
      <trkpt lat="45.75599" lon="4.62209">
        <ele>734</ele>
        <time>2012-05-28T07:42:29Z</time>
      </trkpt>
      <trkpt lat="45.75599" lon="4.62206">
        <ele>734</ele>
        <time>2012-05-28T07:42:30Z</time>
      </trkpt>
      <trkpt lat="45.75599" lon="4.62203">
        <ele>735</ele>
        <time>2012-05-28T07:42:31Z</time>
      </trkpt>
      <trkpt lat="45.75598" lon="4.62201">
        <ele>735</ele>
        <time>2012-05-28T07:42:32Z</time>
      </trkpt>
      <trkpt lat="45.75598" lon="4.62199">
        <ele>734</ele>
        <time>2012-05-28T07:42:33Z</time>
      </trkpt>
      <trkpt lat="45.75599" lon="4.62196">
        <ele>735</ele>
        <time>2012-05-28T07:42:34Z</time>
      </trkpt>
      <trkpt lat="45.756" lon="4.62191">
        <ele>735</ele>
        <time>2012-05-28T07:42:36Z</time>
      </trkpt>
      <trkpt lat="45.75599" lon="4.62189">
        <ele>736</ele>
        <time>2012-05-28T07:42:37Z</time>
      </trkpt>
      <trkpt lat="45.75599" lon="4.62186">
        <ele>736</ele>
        <time>2012-05-28T07:42:38Z</time>
      </trkpt>
      <trkpt lat="45.75599" lon="4.62183">
        <ele>736</ele>
        <time>2012-05-28T07:42:39Z</time>
      </trkpt>
      <trkpt lat="45.75599" lon="4.62182">
        <ele>736</ele>
        <time>2012-05-28T07:42:40Z</time>
      </trkpt>
      <trkpt lat="45.756" lon="4.6218">
        <ele>736</ele>
        <time>2012-05-28T07:42:41Z</time>
      </trkpt>
      <trkpt lat="45.756" lon="4.6217">
        <ele>736</ele>
        <time>2012-05-28T07:42:45Z</time>
      </trkpt>
      <trkpt lat="45.756" lon="4.62168">
        <ele>737</ele>
        <time>2012-05-28T07:42:46Z</time>
      </trkpt>
      <trkpt lat="45.756" lon="4.62165">
        <ele>737</ele>
        <time>2012-05-28T07:42:47Z</time>
      </trkpt>
      <trkpt lat="45.756" lon="4.62163">
        <ele>737</ele>
        <time>2012-05-28T07:42:48Z</time>
      </trkpt>
      <trkpt lat="45.756" lon="4.6216">
        <ele>737</ele>
        <time>2012-05-28T07:42:49Z</time>
      </trkpt>
      <trkpt lat="45.756" lon="4.62158">
        <ele>737</ele>
        <time>2012-05-28T07:42:50Z</time>
      </trkpt>
      <trkpt lat="45.756" lon="4.62153">
        <ele>737</ele>
        <time>2012-05-28T07:42:52Z</time>
      </trkpt>
      <trkpt lat="45.756" lon="4.6215">
        <ele>737</ele>
        <time>2012-05-28T07:42:53Z</time>
      </trkpt>
      <trkpt lat="45.756" lon="4.62148">
        <ele>738</ele>
        <time>2012-05-28T07:42:54Z</time>
      </trkpt>
      <trkpt lat="45.756" lon="4.62138">
        <ele>739</ele>
        <time>2012-05-28T07:42:59Z</time>
      </trkpt>
      <trkpt lat="45.756" lon="4.62131">
        <ele>739</ele>
        <time>2012-05-28T07:43:02Z</time>
      </trkpt>
      <trkpt lat="45.756" lon="4.62129">
        <ele>739</ele>
        <time>2012-05-28T07:43:03Z</time>
      </trkpt>
      <trkpt lat="45.756" lon="4.62127">
        <ele>740</ele>
        <time>2012-05-28T07:43:04Z</time>
      </trkpt>
      <trkpt lat="45.756" lon="4.62125">
        <ele>739</ele>
        <time>2012-05-28T07:43:05Z</time>
      </trkpt>
      <trkpt lat="45.75599" lon="4.62122">
        <ele>739</ele>
        <time>2012-05-28T07:43:06Z</time>
      </trkpt>
      <trkpt lat="45.756" lon="4.6212">
        <ele>739</ele>
        <time>2012-05-28T07:43:07Z</time>
      </trkpt>
      <trkpt lat="45.756" lon="4.62118">
        <ele>740</ele>
        <time>2012-05-28T07:43:08Z</time>
      </trkpt>
      <trkpt lat="45.756" lon="4.62116">
        <ele>740</ele>
        <time>2012-05-28T07:43:09Z</time>
      </trkpt>
      <trkpt lat="45.75601" lon="4.62113">
        <ele>740</ele>
        <time>2012-05-28T07:43:10Z</time>
      </trkpt>
      <trkpt lat="45.75601" lon="4.62111">
        <ele>740</ele>
        <time>2012-05-28T07:43:11Z</time>
      </trkpt>
      <trkpt lat="45.75602" lon="4.62099">
        <ele>741</ele>
        <time>2012-05-28T07:43:17Z</time>
      </trkpt>
      <trkpt lat="45.75602" lon="4.62096">
        <ele>741</ele>
        <time>2012-05-28T07:43:18Z</time>
      </trkpt>
      <trkpt lat="45.75602" lon="4.62085">
        <ele>743</ele>
        <time>2012-05-28T07:43:24Z</time>
      </trkpt>
      <trkpt lat="45.75603" lon="4.62075">
        <ele>743</ele>
        <time>2012-05-28T07:43:28Z</time>
      </trkpt>
      <trkpt lat="45.75604" lon="4.62072">
        <ele>743</ele>
        <time>2012-05-28T07:43:29Z</time>
      </trkpt>
      <trkpt lat="45.75604" lon="4.62069">
        <ele>743</ele>
        <time>2012-05-28T07:43:30Z</time>
      </trkpt>
      <trkpt lat="45.75604" lon="4.62067">
        <ele>743</ele>
        <time>2012-05-28T07:43:31Z</time>
      </trkpt>
      <trkpt lat="45.75603" lon="4.6205">
        <ele>744</ele>
        <time>2012-05-28T07:43:38Z</time>
      </trkpt>
      <trkpt lat="45.75601" lon="4.62028">
        <ele>745</ele>
        <time>2012-05-28T07:43:47Z</time>
      </trkpt>
      <trkpt lat="45.756" lon="4.62024">
        <ele>745</ele>
        <time>2012-05-28T07:43:49Z</time>
      </trkpt>
      <trkpt lat="45.756" lon="4.62022">
        <ele>745</ele>
        <time>2012-05-28T07:43:50Z</time>
      </trkpt>
      <trkpt lat="45.756" lon="4.62011">
        <ele>746</ele>
        <time>2012-05-28T07:43:54Z</time>
      </trkpt>
      <trkpt lat="45.75601" lon="4.62008">
        <ele>745</ele>
        <time>2012-05-28T07:43:55Z</time>
      </trkpt>
      <trkpt lat="45.75601" lon="4.62006">
        <ele>745</ele>
        <time>2012-05-28T07:43:56Z</time>
      </trkpt>
      <trkpt lat="45.75601" lon="4.62003">
        <ele>745</ele>
        <time>2012-05-28T07:43:57Z</time>
      </trkpt>
      <trkpt lat="45.75602" lon="4.61995">
        <ele>746</ele>
        <time>2012-05-28T07:44:00Z</time>
      </trkpt>
      <trkpt lat="45.75601" lon="4.61992">
        <ele>746</ele>
        <time>2012-05-28T07:44:02Z</time>
      </trkpt>
      <trkpt lat="45.75601" lon="4.61987">
        <ele>746</ele>
        <time>2012-05-28T07:44:04Z</time>
      </trkpt>
      <trkpt lat="45.75602" lon="4.61983">
        <ele>746</ele>
        <time>2012-05-28T07:44:05Z</time>
      </trkpt>
      <trkpt lat="45.75602" lon="4.61963">
        <ele>747</ele>
        <time>2012-05-28T07:44:12Z</time>
      </trkpt>
      <trkpt lat="45.75602" lon="4.61948">
        <ele>748</ele>
        <time>2012-05-28T07:44:17Z</time>
      </trkpt>
      <trkpt lat="45.75601" lon="4.61935">
        <ele>748</ele>
        <time>2012-05-28T07:44:23Z</time>
      </trkpt>
      <trkpt lat="45.756" lon="4.61925">
        <ele>748</ele>
        <time>2012-05-28T07:44:27Z</time>
      </trkpt>
      <trkpt lat="45.756" lon="4.61922">
        <ele>749</ele>
        <time>2012-05-28T07:44:28Z</time>
      </trkpt>
      <trkpt lat="45.75599" lon="4.6192">
        <ele>748</ele>
        <time>2012-05-28T07:44:29Z</time>
      </trkpt>
      <trkpt lat="45.75599" lon="4.61918">
        <ele>749</ele>
        <time>2012-05-28T07:44:30Z</time>
      </trkpt>
      <trkpt lat="45.75599" lon="4.61915">
        <ele>748</ele>
        <time>2012-05-28T07:44:31Z</time>
      </trkpt>
      <trkpt lat="45.75598" lon="4.61912">
        <ele>749</ele>
        <time>2012-05-28T07:44:32Z</time>
      </trkpt>
      <trkpt lat="45.75595" lon="4.619">
        <ele>749</ele>
        <time>2012-05-28T07:44:37Z</time>
      </trkpt>
      <trkpt lat="45.75596" lon="4.61891">
        <ele>749</ele>
        <time>2012-05-28T07:44:40Z</time>
      </trkpt>
      <trkpt lat="45.75596" lon="4.61888">
        <ele>749</ele>
        <time>2012-05-28T07:44:41Z</time>
      </trkpt>
      <trkpt lat="45.75597" lon="4.61885">
        <ele>749</ele>
        <time>2012-05-28T07:44:42Z</time>
      </trkpt>
      <trkpt lat="45.75597" lon="4.61883">
        <ele>749</ele>
        <time>2012-05-28T07:44:43Z</time>
      </trkpt>
      <trkpt lat="45.75597" lon="4.61881">
        <ele>749</ele>
        <time>2012-05-28T07:44:44Z</time>
      </trkpt>
      <trkpt lat="45.75598" lon="4.61878">
        <ele>750</ele>
        <time>2012-05-28T07:44:45Z</time>
      </trkpt>
      <trkpt lat="45.75598" lon="4.61875">
        <ele>750</ele>
        <time>2012-05-28T07:44:46Z</time>
      </trkpt>
      <trkpt lat="45.75598" lon="4.61873">
        <ele>750</ele>
        <time>2012-05-28T07:44:47Z</time>
      </trkpt>
      <trkpt lat="45.75597" lon="4.6187">
        <ele>750</ele>
        <time>2012-05-28T07:44:48Z</time>
      </trkpt>
      <trkpt lat="45.75597" lon="4.61868">
        <ele>750</ele>
        <time>2012-05-28T07:44:49Z</time>
      </trkpt>
      <trkpt lat="45.75597" lon="4.61867">
        <ele>750</ele>
        <time>2012-05-28T07:44:50Z</time>
      </trkpt>
      <trkpt lat="45.75597" lon="4.6186">
        <ele>750</ele>
        <time>2012-05-28T07:44:52Z</time>
      </trkpt>
      <trkpt lat="45.75597" lon="4.61857">
        <ele>751</ele>
        <time>2012-05-28T07:44:53Z</time>
      </trkpt>
      <trkpt lat="45.75595" lon="4.61845">
        <ele>751</ele>
        <time>2012-05-28T07:44:58Z</time>
      </trkpt>
      <trkpt lat="45.75597" lon="4.61838">
        <ele>752</ele>
        <time>2012-05-28T07:45:01Z</time>
      </trkpt>
      <trkpt lat="45.75598" lon="4.61836">
        <ele>752</ele>
        <time>2012-05-28T07:45:02Z</time>
      </trkpt>
      <trkpt lat="45.75598" lon="4.61834">
        <ele>752</ele>
        <time>2012-05-28T07:45:03Z</time>
      </trkpt>
      <trkpt lat="45.75599" lon="4.61831">
        <ele>752</ele>
        <time>2012-05-28T07:45:04Z</time>
      </trkpt>
      <trkpt lat="45.756" lon="4.61828">
        <ele>752</ele>
        <time>2012-05-28T07:45:05Z</time>
      </trkpt>
      <trkpt lat="45.756" lon="4.61825">
        <ele>752</ele>
        <time>2012-05-28T07:45:06Z</time>
      </trkpt>
      <trkpt lat="45.75601" lon="4.61822">
        <ele>752</ele>
        <time>2012-05-28T07:45:07Z</time>
      </trkpt>
      <trkpt lat="45.75601" lon="4.61819">
        <ele>753</ele>
        <time>2012-05-28T07:45:08Z</time>
      </trkpt>
      <trkpt lat="45.75602" lon="4.61817">
        <ele>752</ele>
        <time>2012-05-28T07:45:09Z</time>
      </trkpt>
      <trkpt lat="45.75603" lon="4.61816">
        <ele>752</ele>
        <time>2012-05-28T07:45:10Z</time>
      </trkpt>
      <trkpt lat="45.75604" lon="4.61815">
        <ele>753</ele>
        <time>2012-05-28T07:45:11Z</time>
      </trkpt>
      <trkpt lat="45.75605" lon="4.61813">
        <ele>753</ele>
        <time>2012-05-28T07:45:12Z</time>
      </trkpt>
      <trkpt lat="45.75608" lon="4.61806">
        <ele>753</ele>
        <time>2012-05-28T07:45:17Z</time>
      </trkpt>
      <trkpt lat="45.75606" lon="4.61805">
        <ele>753</ele>
        <time>2012-05-28T07:45:18Z</time>
      </trkpt>
      <trkpt lat="45.75605" lon="4.61805">
        <ele>753</ele>
        <time>2012-05-28T07:45:19Z</time>
      </trkpt>
      <trkpt lat="45.75602" lon="4.61804">
        <ele>754</ele>
        <time>2012-05-28T07:45:22Z</time>
      </trkpt>
      <trkpt lat="45.756" lon="4.61803">
        <ele>754</ele>
        <time>2012-05-28T07:45:23Z</time>
      </trkpt>
      <trkpt lat="45.75598" lon="4.61802">
        <ele>754</ele>
        <time>2012-05-28T07:45:24Z</time>
      </trkpt>
      <trkpt lat="45.75597" lon="4.618">
        <ele>754</ele>
        <time>2012-05-28T07:45:25Z</time>
      </trkpt>
      <trkpt lat="45.75595" lon="4.61799">
        <ele>754</ele>
        <time>2012-05-28T07:45:26Z</time>
      </trkpt>
      <trkpt lat="45.75592" lon="4.61796">
        <ele>755</ele>
        <time>2012-05-28T07:45:28Z</time>
      </trkpt>
      <trkpt lat="45.75591" lon="4.61796">
        <ele>755</ele>
        <time>2012-05-28T07:45:29Z</time>
      </trkpt>
      <trkpt lat="45.75589" lon="4.61796">
        <ele>754</ele>
        <time>2012-05-28T07:45:30Z</time>
      </trkpt>
      <trkpt lat="45.75588" lon="4.61794">
        <ele>755</ele>
        <time>2012-05-28T07:45:31Z</time>
      </trkpt>
      <trkpt lat="45.75587" lon="4.61792">
        <ele>755</ele>
        <time>2012-05-28T07:45:32Z</time>
      </trkpt>
      <trkpt lat="45.75587" lon="4.6179">
        <ele>755</ele>
        <time>2012-05-28T07:45:33Z</time>
      </trkpt>
      <trkpt lat="45.75583" lon="4.61783">
        <ele>756</ele>
        <time>2012-05-28T07:45:37Z</time>
      </trkpt>
      <trkpt lat="45.75582" lon="4.61781">
        <ele>756</ele>
        <time>2012-05-28T07:45:38Z</time>
      </trkpt>
      <trkpt lat="45.7557" lon="4.61765">
        <ele>757</ele>
        <time>2012-05-28T07:45:45Z</time>
      </trkpt>
      <trkpt lat="45.75568" lon="4.61762">
        <ele>757</ele>
        <time>2012-05-28T07:45:46Z</time>
      </trkpt>
      <trkpt lat="45.75568" lon="4.6176">
        <ele>757</ele>
        <time>2012-05-28T07:45:47Z</time>
      </trkpt>
      <trkpt lat="45.75566" lon="4.61755">
        <ele>757</ele>
        <time>2012-05-28T07:45:49Z</time>
      </trkpt>
      <trkpt lat="45.75564" lon="4.61753">
        <ele>757</ele>
        <time>2012-05-28T07:45:50Z</time>
      </trkpt>
      <trkpt lat="45.75562" lon="4.61751">
        <ele>757</ele>
        <time>2012-05-28T07:45:52Z</time>
      </trkpt>
      <trkpt lat="45.75559" lon="4.61747">
        <ele>758</ele>
        <time>2012-05-28T07:45:55Z</time>
      </trkpt>
      <trkpt lat="45.75553" lon="4.61737">
        <ele>759</ele>
        <time>2012-05-28T07:46:01Z</time>
      </trkpt>
      <trkpt lat="45.75548" lon="4.61728">
        <ele>760</ele>
        <time>2012-05-28T07:46:06Z</time>
      </trkpt>
      <trkpt lat="45.75546" lon="4.61724">
        <ele>761</ele>
        <time>2012-05-28T07:46:09Z</time>
      </trkpt>
      <trkpt lat="45.75544" lon="4.61722">
        <ele>760</ele>
        <time>2012-05-28T07:46:10Z</time>
      </trkpt>
      <trkpt lat="45.75537" lon="4.61714">
        <ele>761</ele>
        <time>2012-05-28T07:46:16Z</time>
      </trkpt>
      <trkpt lat="45.75535" lon="4.61711">
        <ele>761</ele>
        <time>2012-05-28T07:46:18Z</time>
      </trkpt>
      <trkpt lat="45.75533" lon="4.6171">
        <ele>761</ele>
        <time>2012-05-28T07:46:19Z</time>
      </trkpt>
      <trkpt lat="45.75532" lon="4.61708">
        <ele>761</ele>
        <time>2012-05-28T07:46:20Z</time>
      </trkpt>
      <trkpt lat="45.7553" lon="4.61706">
        <ele>761</ele>
        <time>2012-05-28T07:46:21Z</time>
      </trkpt>
      <trkpt lat="45.75529" lon="4.61705">
        <ele>761</ele>
        <time>2012-05-28T07:46:22Z</time>
      </trkpt>
      <trkpt lat="45.75528" lon="4.61703">
        <ele>762</ele>
        <time>2012-05-28T07:46:23Z</time>
      </trkpt>
      <trkpt lat="45.75521" lon="4.61695">
        <ele>763</ele>
        <time>2012-05-28T07:46:30Z</time>
      </trkpt>
      <trkpt lat="45.75512" lon="4.61688">
        <ele>763</ele>
        <time>2012-05-28T07:46:36Z</time>
      </trkpt>
      <trkpt lat="45.75509" lon="4.61685">
        <ele>764</ele>
        <time>2012-05-28T07:46:38Z</time>
      </trkpt>
      <trkpt lat="45.75507" lon="4.61684">
        <ele>764</ele>
        <time>2012-05-28T07:46:39Z</time>
      </trkpt>
      <trkpt lat="45.75506" lon="4.61683">
        <ele>764</ele>
        <time>2012-05-28T07:46:40Z</time>
      </trkpt>
      <trkpt lat="45.75496" lon="4.61679">
        <ele>765</ele>
        <time>2012-05-28T07:46:45Z</time>
      </trkpt>
      <trkpt lat="45.75492" lon="4.61678">
        <ele>764</ele>
        <time>2012-05-28T07:46:47Z</time>
      </trkpt>
      <trkpt lat="45.7549" lon="4.61677">
        <ele>765</ele>
        <time>2012-05-28T07:46:49Z</time>
      </trkpt>
      <trkpt lat="45.7548" lon="4.61669">
        <ele>766</ele>
        <time>2012-05-28T07:46:56Z</time>
      </trkpt>
      <trkpt lat="45.75479" lon="4.61669">
        <ele>766</ele>
        <time>2012-05-28T07:46:57Z</time>
      </trkpt>
      <trkpt lat="45.75477" lon="4.61668">
        <ele>767</ele>
        <time>2012-05-28T07:46:58Z</time>
      </trkpt>
      <trkpt lat="45.75476" lon="4.61666">
        <ele>767</ele>
        <time>2012-05-28T07:46:59Z</time>
      </trkpt>
      <trkpt lat="45.75474" lon="4.61665">
        <ele>767</ele>
        <time>2012-05-28T07:47:00Z</time>
      </trkpt>
      <trkpt lat="45.75473" lon="4.61664">
        <ele>767</ele>
        <time>2012-05-28T07:47:01Z</time>
      </trkpt>
      <trkpt lat="45.75465" lon="4.61658">
        <ele>769</ele>
        <time>2012-05-28T07:47:06Z</time>
      </trkpt>
      <trkpt lat="45.75455" lon="4.61651">
        <ele>770</ele>
        <time>2012-05-28T07:47:14Z</time>
      </trkpt>
      <trkpt lat="45.75445" lon="4.61645">
        <ele>772</ele>
        <time>2012-05-28T07:47:21Z</time>
      </trkpt>
      <trkpt lat="45.75443" lon="4.61645">
        <ele>772</ele>
        <time>2012-05-28T07:47:22Z</time>
      </trkpt>
      <trkpt lat="45.75434" lon="4.6164">
        <ele>772</ele>
        <time>2012-05-28T07:47:29Z</time>
      </trkpt>
      <trkpt lat="45.75432" lon="4.61639">
        <ele>772</ele>
        <time>2012-05-28T07:47:30Z</time>
      </trkpt>
      <trkpt lat="45.7543" lon="4.61638">
        <ele>773</ele>
        <time>2012-05-28T07:47:31Z</time>
      </trkpt>
      <trkpt lat="45.75423" lon="4.61634">
        <ele>773</ele>
        <time>2012-05-28T07:47:36Z</time>
      </trkpt>
      <trkpt lat="45.7542" lon="4.61633">
        <ele>773</ele>
        <time>2012-05-28T07:47:38Z</time>
      </trkpt>
      <trkpt lat="45.75419" lon="4.61632">
        <ele>773</ele>
        <time>2012-05-28T07:47:39Z</time>
      </trkpt>
      <trkpt lat="45.75417" lon="4.61632">
        <ele>773</ele>
        <time>2012-05-28T07:47:40Z</time>
      </trkpt>
      <trkpt lat="45.75415" lon="4.61632">
        <ele>774</ele>
        <time>2012-05-28T07:47:41Z</time>
      </trkpt>
      <trkpt lat="45.7541" lon="4.61628">
        <ele>774</ele>
        <time>2012-05-28T07:47:45Z</time>
      </trkpt>
      <trkpt lat="45.75396" lon="4.61622">
        <ele>775</ele>
        <time>2012-05-28T07:47:53Z</time>
      </trkpt>
      <trkpt lat="45.75393" lon="4.61619">
        <ele>775</ele>
        <time>2012-05-28T07:47:55Z</time>
      </trkpt>
      <trkpt lat="45.75392" lon="4.61618">
        <ele>775</ele>
        <time>2012-05-28T07:47:56Z</time>
      </trkpt>
      <trkpt lat="45.7539" lon="4.61617">
        <ele>775</ele>
        <time>2012-05-28T07:47:57Z</time>
      </trkpt>
      <trkpt lat="45.75388" lon="4.61616">
        <ele>775</ele>
        <time>2012-05-28T07:47:58Z</time>
      </trkpt>
      <trkpt lat="45.75387" lon="4.61616">
        <ele>775</ele>
        <time>2012-05-28T07:47:59Z</time>
      </trkpt>
      <trkpt lat="45.75385" lon="4.61614">
        <ele>775</ele>
        <time>2012-05-28T07:48:00Z</time>
      </trkpt>
      <trkpt lat="45.75383" lon="4.61613">
        <ele>776</ele>
        <time>2012-05-28T07:48:01Z</time>
      </trkpt>
      <trkpt lat="45.75382" lon="4.61611">
        <ele>775</ele>
        <time>2012-05-28T07:48:02Z</time>
      </trkpt>
      <trkpt lat="45.75375" lon="4.61605">
        <ele>776</ele>
        <time>2012-05-28T07:48:07Z</time>
      </trkpt>
      <trkpt lat="45.75365" lon="4.616">
        <ele>777</ele>
        <time>2012-05-28T07:48:13Z</time>
      </trkpt>
      <trkpt lat="45.75361" lon="4.61597">
        <ele>777</ele>
        <time>2012-05-28T07:48:18Z</time>
      </trkpt>
      <trkpt lat="45.75355" lon="4.61593">
        <ele>777</ele>
        <time>2012-05-28T07:48:21Z</time>
      </trkpt>
      <trkpt lat="45.75352" lon="4.61593">
        <ele>777</ele>
        <time>2012-05-28T07:48:22Z</time>
      </trkpt>
      <trkpt lat="45.7535" lon="4.61592">
        <ele>777</ele>
        <time>2012-05-28T07:48:23Z</time>
      </trkpt>
      <trkpt lat="45.75348" lon="4.61591">
        <ele>777</ele>
        <time>2012-05-28T07:48:24Z</time>
      </trkpt>
      <trkpt lat="45.75345" lon="4.6159">
        <ele>777</ele>
        <time>2012-05-28T07:48:25Z</time>
      </trkpt>
      <trkpt lat="45.75342" lon="4.61589">
        <ele>777</ele>
        <time>2012-05-28T07:48:26Z</time>
      </trkpt>
      <trkpt lat="45.75339" lon="4.61588">
        <ele>777</ele>
        <time>2012-05-28T07:48:27Z</time>
      </trkpt>
      <trkpt lat="45.75337" lon="4.61588">
        <ele>777</ele>
        <time>2012-05-28T07:48:28Z</time>
      </trkpt>
      <trkpt lat="45.75334" lon="4.61587">
        <ele>777</ele>
        <time>2012-05-28T07:48:29Z</time>
      </trkpt>
      <trkpt lat="45.75321" lon="4.61585">
        <ele>777</ele>
        <time>2012-05-28T07:48:34Z</time>
      </trkpt>
      <trkpt lat="45.75303" lon="4.6158">
        <ele>777</ele>
        <time>2012-05-28T07:48:41Z</time>
      </trkpt>
      <trkpt lat="45.75294" lon="4.61572">
        <ele>776</ele>
        <time>2012-05-28T07:48:46Z</time>
      </trkpt>
      <trkpt lat="45.75294" lon="4.61569">
        <ele>776</ele>
        <time>2012-05-28T07:48:50Z</time>
      </trkpt>
      <trkpt lat="45.75292" lon="4.61568">
        <ele>776</ele>
        <time>2012-05-28T07:48:57Z</time>
      </trkpt>
      <trkpt lat="45.75292" lon="4.61568">
        <ele>775</ele>
        <time>2012-05-28T07:49:12Z</time>
      </trkpt>
      <trkpt lat="45.75291" lon="4.61568">
        <ele>776</ele>
        <time>2012-05-28T07:49:32Z</time>
      </trkpt>
      <trkpt lat="45.7529" lon="4.61567">
        <ele>776</ele>
        <time>2012-05-28T07:49:53Z</time>
      </trkpt>
      <trkpt lat="45.75289" lon="4.61567">
        <ele>776</ele>
        <time>2012-05-28T07:50:15Z</time>
      </trkpt>
      <trkpt lat="45.75288" lon="4.61565">
        <ele>775</ele>
        <time>2012-05-28T07:50:39Z</time>
      </trkpt>
      <trkpt lat="45.75288" lon="4.61565">
        <ele>776</ele>
        <time>2012-05-28T07:51:00Z</time>
      </trkpt>
      <trkpt lat="45.75289" lon="4.61565">
        <ele>776</ele>
        <time>2012-05-28T07:51:23Z</time>
      </trkpt>
      <trkpt lat="45.75289" lon="4.61565">
        <ele>776</ele>
        <time>2012-05-28T07:51:41Z</time>
      </trkpt>
      <trkpt lat="45.7529" lon="4.61564">
        <ele>776</ele>
        <time>2012-05-28T07:51:59Z</time>
      </trkpt>
      <trkpt lat="45.75292" lon="4.61568">
        <ele>776</ele>
        <time>2012-05-28T07:52:05Z</time>
      </trkpt>
      <trkpt lat="45.75293" lon="4.61569">
        <ele>776</ele>
        <time>2012-05-28T07:52:13Z</time>
      </trkpt>
      <trkpt lat="45.75293" lon="4.61569">
        <ele>776</ele>
        <time>2012-05-28T07:52:25Z</time>
      </trkpt>
      <trkpt lat="45.75293" lon="4.6157">
        <ele>776</ele>
        <time>2012-05-28T07:52:31Z</time>
      </trkpt>
      <trkpt lat="45.75293" lon="4.6157">
        <ele>776</ele>
        <time>2012-05-28T07:52:42Z</time>
      </trkpt>
      <trkpt lat="45.75292" lon="4.61571">
        <ele>776</ele>
        <time>2012-05-28T07:52:58Z</time>
      </trkpt>
      <trkpt lat="45.75292" lon="4.61572">
        <ele>777</ele>
        <time>2012-05-28T07:53:10Z</time>
      </trkpt>
      <trkpt lat="45.75292" lon="4.61572">
        <ele>776</ele>
        <time>2012-05-28T07:53:12Z</time>
      </trkpt>
      <trkpt lat="45.75285" lon="4.61583">
        <ele>775</ele>
        <time>2012-05-28T07:53:18Z</time>
      </trkpt>
      <trkpt lat="45.75273" lon="4.61603">
        <ele>773</ele>
        <time>2012-05-28T07:53:22Z</time>
      </trkpt>
      <trkpt lat="45.75248" lon="4.61648">
        <ele>768</ele>
        <time>2012-05-28T07:53:27Z</time>
      </trkpt>
      <trkpt lat="45.75241" lon="4.61656">
        <ele>767</ele>
        <time>2012-05-28T07:53:28Z</time>
      </trkpt>
      <trkpt lat="45.75228" lon="4.61685">
        <ele>764</ele>
        <time>2012-05-28T07:53:32Z</time>
      </trkpt>
      <trkpt lat="45.75213" lon="4.61716">
        <ele>760</ele>
        <time>2012-05-28T07:53:36Z</time>
      </trkpt>
      <trkpt lat="45.75201" lon="4.61744">
        <ele>757</ele>
        <time>2012-05-28T07:53:39Z</time>
      </trkpt>
      <trkpt lat="45.75198" lon="4.6176">
        <ele>755</ele>
        <time>2012-05-28T07:53:41Z</time>
      </trkpt>
      <trkpt lat="45.75186" lon="4.61798">
        <ele>751</ele>
        <time>2012-05-28T07:53:45Z</time>
      </trkpt>
      <trkpt lat="45.75175" lon="4.61831">
        <ele>747</ele>
        <time>2012-05-28T07:53:48Z</time>
      </trkpt>
      <trkpt lat="45.75162" lon="4.6186">
        <ele>741</ele>
        <time>2012-05-28T07:53:51Z</time>
      </trkpt>
      <trkpt lat="45.75158" lon="4.61869">
        <ele>740</ele>
        <time>2012-05-28T07:53:52Z</time>
      </trkpt>
      <trkpt lat="45.75141" lon="4.61897">
        <ele>734</ele>
        <time>2012-05-28T07:53:56Z</time>
      </trkpt>
      <trkpt lat="45.75134" lon="4.61915">
        <ele>733</ele>
        <time>2012-05-28T07:53:58Z</time>
      </trkpt>
      <trkpt lat="45.75126" lon="4.6193">
        <ele>730</ele>
        <time>2012-05-28T07:54:00Z</time>
      </trkpt>
      <trkpt lat="45.75116" lon="4.61947">
        <ele>727</ele>
        <time>2012-05-28T07:54:04Z</time>
      </trkpt>
      <trkpt lat="45.7511" lon="4.61953">
        <ele>725</ele>
        <time>2012-05-28T07:54:11Z</time>
      </trkpt>
      <trkpt lat="45.75105" lon="4.61956">
        <ele>724</ele>
        <time>2012-05-28T07:54:21Z</time>
      </trkpt>
      <trkpt lat="45.75102" lon="4.61959">
        <ele>724</ele>
        <time>2012-05-28T07:54:26Z</time>
      </trkpt>
      <trkpt lat="45.75097" lon="4.61964">
        <ele>723</ele>
        <time>2012-05-28T07:54:33Z</time>
      </trkpt>
      <trkpt lat="45.7509" lon="4.61974">
        <ele>720</ele>
        <time>2012-05-28T07:54:38Z</time>
      </trkpt>
      <trkpt lat="45.75088" lon="4.61978">
        <ele>719</ele>
        <time>2012-05-28T07:54:39Z</time>
      </trkpt>
      <trkpt lat="45.75076" lon="4.61995">
        <ele>715</ele>
        <time>2012-05-28T07:54:42Z</time>
      </trkpt>
      <trkpt lat="45.75057" lon="4.62022">
        <ele>710</ele>
        <time>2012-05-28T07:54:46Z</time>
      </trkpt>
      <trkpt lat="45.75045" lon="4.62043">
        <ele>706</ele>
        <time>2012-05-28T07:54:49Z</time>
      </trkpt>
      <trkpt lat="45.7504" lon="4.6205">
        <ele>705</ele>
        <time>2012-05-28T07:54:50Z</time>
      </trkpt>
      <trkpt lat="45.75019" lon="4.62087">
        <ele>701</ele>
        <time>2012-05-28T07:54:55Z</time>
      </trkpt>
      <trkpt lat="45.75016" lon="4.62094">
        <ele>700</ele>
        <time>2012-05-28T07:54:56Z</time>
      </trkpt>
      <trkpt lat="45.75011" lon="4.62107">
        <ele>699</ele>
        <time>2012-05-28T07:54:58Z</time>
      </trkpt>
      <trkpt lat="45.74995" lon="4.62142">
        <ele>696</ele>
        <time>2012-05-28T07:55:04Z</time>
      </trkpt>
      <trkpt lat="45.74989" lon="4.62156">
        <ele>695</ele>
        <time>2012-05-28T07:55:06Z</time>
      </trkpt>
      <trkpt lat="45.74982" lon="4.62178">
        <ele>694</ele>
        <time>2012-05-28T07:55:09Z</time>
      </trkpt>
      <trkpt lat="45.74968" lon="4.62225">
        <ele>691</ele>
        <time>2012-05-28T07:55:14Z</time>
      </trkpt>
      <trkpt lat="45.74963" lon="4.62243">
        <ele>690</ele>
        <time>2012-05-28T07:55:16Z</time>
      </trkpt>
      <trkpt lat="45.74954" lon="4.62269">
        <ele>690</ele>
        <time>2012-05-28T07:55:20Z</time>
      </trkpt>
      <trkpt lat="45.74946" lon="4.62285">
        <ele>690</ele>
        <time>2012-05-28T07:55:23Z</time>
      </trkpt>
      <trkpt lat="45.74935" lon="4.623">
        <ele>688</ele>
        <time>2012-05-28T07:55:26Z</time>
      </trkpt>
      <trkpt lat="45.74931" lon="4.62305">
        <ele>688</ele>
        <time>2012-05-28T07:55:27Z</time>
      </trkpt>
      <trkpt lat="45.74921" lon="4.62324">
        <ele>686</ele>
        <time>2012-05-28T07:55:30Z</time>
      </trkpt>
      <trkpt lat="45.74919" lon="4.62331">
        <ele>686</ele>
        <time>2012-05-28T07:55:31Z</time>
      </trkpt>
      <trkpt lat="45.74916" lon="4.62338">
        <ele>685</ele>
        <time>2012-05-28T07:55:32Z</time>
      </trkpt>
      <trkpt lat="45.74913" lon="4.62345">
        <ele>684</ele>
        <time>2012-05-28T07:55:33Z</time>
      </trkpt>
      <trkpt lat="45.74911" lon="4.62353">
        <ele>683</ele>
        <time>2012-05-28T07:55:34Z</time>
      </trkpt>
      <trkpt lat="45.74904" lon="4.62374">
        <ele>679</ele>
        <time>2012-05-28T07:55:37Z</time>
      </trkpt>
      <trkpt lat="45.74901" lon="4.62383">
        <ele>678</ele>
        <time>2012-05-28T07:55:38Z</time>
      </trkpt>
      <trkpt lat="45.74895" lon="4.62408">
        <ele>674</ele>
        <time>2012-05-28T07:55:41Z</time>
      </trkpt>
      <trkpt lat="45.74891" lon="4.6242">
        <ele>672</ele>
        <time>2012-05-28T07:55:43Z</time>
      </trkpt>
      <trkpt lat="45.74879" lon="4.6244">
        <ele>670</ele>
        <time>2012-05-28T07:55:47Z</time>
      </trkpt>
      <trkpt lat="45.74876" lon="4.62447">
        <ele>669</ele>
        <time>2012-05-28T07:55:48Z</time>
      </trkpt>
      <trkpt lat="45.74869" lon="4.62462">
        <ele>667</ele>
        <time>2012-05-28T07:55:50Z</time>
      </trkpt>
      <trkpt lat="45.74867" lon="4.62471">
        <ele>667</ele>
        <time>2012-05-28T07:55:51Z</time>
      </trkpt>
      <trkpt lat="45.74864" lon="4.6248">
        <ele>666</ele>
        <time>2012-05-28T07:55:52Z</time>
      </trkpt>
      <trkpt lat="45.74862" lon="4.62487">
        <ele>665</ele>
        <time>2012-05-28T07:55:53Z</time>
      </trkpt>
      <trkpt lat="45.74859" lon="4.62494">
        <ele>664</ele>
        <time>2012-05-28T07:55:54Z</time>
      </trkpt>
      <trkpt lat="45.74856" lon="4.62501">
        <ele>663</ele>
        <time>2012-05-28T07:55:55Z</time>
      </trkpt>
      <trkpt lat="45.74853" lon="4.62508">
        <ele>662</ele>
        <time>2012-05-28T07:55:56Z</time>
      </trkpt>
      <trkpt lat="45.74851" lon="4.62515">
        <ele>662</ele>
        <time>2012-05-28T07:55:57Z</time>
      </trkpt>
      <trkpt lat="45.74846" lon="4.62526">
        <ele>660</ele>
        <time>2012-05-28T07:55:59Z</time>
      </trkpt>
      <trkpt lat="45.74843" lon="4.62544">
        <ele>657</ele>
        <time>2012-05-28T07:56:02Z</time>
      </trkpt>
      <trkpt lat="45.74843" lon="4.62551">
        <ele>656</ele>
        <time>2012-05-28T07:56:03Z</time>
      </trkpt>
      <trkpt lat="45.74844" lon="4.62558">
        <ele>655</ele>
        <time>2012-05-28T07:56:04Z</time>
      </trkpt>
      <trkpt lat="45.74845" lon="4.62565">
        <ele>654</ele>
        <time>2012-05-28T07:56:05Z</time>
      </trkpt>
      <trkpt lat="45.74846" lon="4.6257">
        <ele>654</ele>
        <time>2012-05-28T07:56:06Z</time>
      </trkpt>
      <trkpt lat="45.74845" lon="4.62575">
        <ele>652</ele>
        <time>2012-05-28T07:56:07Z</time>
      </trkpt>
      <trkpt lat="45.74843" lon="4.62577">
        <ele>652</ele>
        <time>2012-05-28T07:56:08Z</time>
      </trkpt>
      <trkpt lat="45.74841" lon="4.62578">
        <ele>652</ele>
        <time>2012-05-28T07:56:09Z</time>
      </trkpt>
      <trkpt lat="45.74838" lon="4.62576">
        <ele>652</ele>
        <time>2012-05-28T07:56:10Z</time>
      </trkpt>
      <trkpt lat="45.74836" lon="4.62574">
        <ele>651</ele>
        <time>2012-05-28T07:56:11Z</time>
      </trkpt>
      <trkpt lat="45.74834" lon="4.62572">
        <ele>651</ele>
        <time>2012-05-28T07:56:12Z</time>
      </trkpt>
      <trkpt lat="45.74832" lon="4.62569">
        <ele>651</ele>
        <time>2012-05-28T07:56:13Z</time>
      </trkpt>
      <trkpt lat="45.7483" lon="4.62568">
        <ele>650</ele>
        <time>2012-05-28T07:56:14Z</time>
      </trkpt>
      <trkpt lat="45.74827" lon="4.6257">
        <ele>650</ele>
        <time>2012-05-28T07:56:15Z</time>
      </trkpt>
      <trkpt lat="45.74826" lon="4.62572">
        <ele>650</ele>
        <time>2012-05-28T07:56:16Z</time>
      </trkpt>
      <trkpt lat="45.74823" lon="4.62579">
        <ele>650</ele>
        <time>2012-05-28T07:56:18Z</time>
      </trkpt>
      <trkpt lat="45.7482" lon="4.62584">
        <ele>650</ele>
        <time>2012-05-28T07:56:19Z</time>
      </trkpt>
      <trkpt lat="45.74817" lon="4.6259">
        <ele>649</ele>
        <time>2012-05-28T07:56:20Z</time>
      </trkpt>
      <trkpt lat="45.74814" lon="4.62595">
        <ele>647</ele>
        <time>2012-05-28T07:56:21Z</time>
      </trkpt>
      <trkpt lat="45.74811" lon="4.62601">
        <ele>646</ele>
        <time>2012-05-28T07:56:22Z</time>
      </trkpt>
      <trkpt lat="45.74808" lon="4.62604">
        <ele>645</ele>
        <time>2012-05-28T07:56:23Z</time>
      </trkpt>
      <trkpt lat="45.74806" lon="4.62607">
        <ele>644</ele>
        <time>2012-05-28T07:56:24Z</time>
      </trkpt>
      <trkpt lat="45.74799" lon="4.62619">
        <ele>638</ele>
        <time>2012-05-28T07:56:28Z</time>
      </trkpt>
      <trkpt lat="45.7479" lon="4.62631">
        <ele>635</ele>
        <time>2012-05-28T07:56:31Z</time>
      </trkpt>
      <trkpt lat="45.74787" lon="4.62635">
        <ele>635</ele>
        <time>2012-05-28T07:56:32Z</time>
      </trkpt>
      <trkpt lat="45.74783" lon="4.62641">
        <ele>632</ele>
        <time>2012-05-28T07:56:34Z</time>
      </trkpt>
      <trkpt lat="45.74773" lon="4.62649">
        <ele>628</ele>
        <time>2012-05-28T07:56:38Z</time>
      </trkpt>
      <trkpt lat="45.74767" lon="4.62663">
        <ele>623</ele>
        <time>2012-05-28T07:56:42Z</time>
      </trkpt>
      <trkpt lat="45.74764" lon="4.62673">
        <ele>619</ele>
        <time>2012-05-28T07:56:45Z</time>
      </trkpt>
      <trkpt lat="45.74762" lon="4.62682">
        <ele>617</ele>
        <time>2012-05-28T07:56:47Z</time>
      </trkpt>
      <trkpt lat="45.74757" lon="4.62699">
        <ele>612</ele>
        <time>2012-05-28T07:56:51Z</time>
      </trkpt>
      <trkpt lat="45.74754" lon="4.62714">
        <ele>610</ele>
        <time>2012-05-28T07:56:54Z</time>
      </trkpt>
      <trkpt lat="45.74751" lon="4.62729">
        <ele>606</ele>
        <time>2012-05-28T07:56:57Z</time>
      </trkpt>
      <trkpt lat="45.74749" lon="4.62734">
        <ele>606</ele>
        <time>2012-05-28T07:56:58Z</time>
      </trkpt>
      <trkpt lat="45.74743" lon="4.62757">
        <ele>602</ele>
        <time>2012-05-28T07:57:02Z</time>
      </trkpt>
      <trkpt lat="45.74733" lon="4.6277">
        <ele>598</ele>
        <time>2012-05-28T07:57:05Z</time>
      </trkpt>
      <trkpt lat="45.7473" lon="4.62775">
        <ele>597</ele>
        <time>2012-05-28T07:57:06Z</time>
      </trkpt>
      <trkpt lat="45.74726" lon="4.6278">
        <ele>596</ele>
        <time>2012-05-28T07:57:07Z</time>
      </trkpt>
      <trkpt lat="45.74722" lon="4.62785">
        <ele>594</ele>
        <time>2012-05-28T07:57:08Z</time>
      </trkpt>
      <trkpt lat="45.74719" lon="4.6279">
        <ele>593</ele>
        <time>2012-05-28T07:57:09Z</time>
      </trkpt>
      <trkpt lat="45.74716" lon="4.62795">
        <ele>592</ele>
        <time>2012-05-28T07:57:10Z</time>
      </trkpt>
      <trkpt lat="45.74714" lon="4.62801">
        <ele>591</ele>
        <time>2012-05-28T07:57:11Z</time>
      </trkpt>
      <trkpt lat="45.74711" lon="4.62807">
        <ele>590</ele>
        <time>2012-05-28T07:57:12Z</time>
      </trkpt>
      <trkpt lat="45.74708" lon="4.62811">
        <ele>588</ele>
        <time>2012-05-28T07:57:13Z</time>
      </trkpt>
      <trkpt lat="45.74705" lon="4.62815">
        <ele>587</ele>
        <time>2012-05-28T07:57:14Z</time>
      </trkpt>
      <trkpt lat="45.74702" lon="4.62819">
        <ele>587</ele>
        <time>2012-05-28T07:57:15Z</time>
      </trkpt>
      <trkpt lat="45.747" lon="4.62824">
        <ele>586</ele>
        <time>2012-05-28T07:57:16Z</time>
      </trkpt>
      <trkpt lat="45.747" lon="4.62831">
        <ele>585</ele>
        <time>2012-05-28T07:57:17Z</time>
      </trkpt>
      <trkpt lat="45.74701" lon="4.62837">
        <ele>584</ele>
        <time>2012-05-28T07:57:18Z</time>
      </trkpt>
      <trkpt lat="45.74701" lon="4.62843">
        <ele>584</ele>
        <time>2012-05-28T07:57:19Z</time>
      </trkpt>
      <trkpt lat="45.747" lon="4.62852">
        <ele>583</ele>
        <time>2012-05-28T07:57:23Z</time>
      </trkpt>
      <trkpt lat="45.74701" lon="4.62851">
        <ele>583</ele>
        <time>2012-05-28T07:57:32Z</time>
      </trkpt>
      <trkpt lat="45.74701" lon="4.62852">
        <ele>583</ele>
        <time>2012-05-28T07:57:46Z</time>
      </trkpt>
      <trkpt lat="45.747" lon="4.62856">
        <ele>583</ele>
        <time>2012-05-28T07:57:53Z</time>
      </trkpt>
      <trkpt lat="45.747" lon="4.62858">
        <ele>583</ele>
        <time>2012-05-28T07:58:05Z</time>
      </trkpt>
      <trkpt lat="45.74701" lon="4.62857">
        <ele>583</ele>
        <time>2012-05-28T07:58:16Z</time>
      </trkpt>
      <trkpt lat="45.74701" lon="4.62857">
        <ele>583</ele>
        <time>2012-05-28T07:58:26Z</time>
      </trkpt>
      <trkpt lat="45.747" lon="4.62855">
        <ele>582</ele>
        <time>2012-05-28T07:58:35Z</time>
      </trkpt>
      <trkpt lat="45.747" lon="4.62853">
        <ele>583</ele>
        <time>2012-05-28T07:58:38Z</time>
      </trkpt>
      <trkpt lat="45.74701" lon="4.6285">
        <ele>583</ele>
        <time>2012-05-28T07:58:40Z</time>
      </trkpt>
      <trkpt lat="45.74702" lon="4.62843">
        <ele>583</ele>
        <time>2012-05-28T07:58:45Z</time>
      </trkpt>
      <trkpt lat="45.74702" lon="4.62841">
        <ele>584</ele>
        <time>2012-05-28T07:58:46Z</time>
      </trkpt>
      <trkpt lat="45.74701" lon="4.6283">
        <ele>584</ele>
        <time>2012-05-28T07:58:54Z</time>
      </trkpt>
      <trkpt lat="45.747" lon="4.62823">
        <ele>585</ele>
        <time>2012-05-28T07:59:00Z</time>
      </trkpt>
      <trkpt lat="45.747" lon="4.62819">
        <ele>586</ele>
        <time>2012-05-28T07:59:08Z</time>
      </trkpt>
      <trkpt lat="45.747" lon="4.62819">
        <ele>586</ele>
        <time>2012-05-28T07:59:09Z</time>
      </trkpt>
      <trkpt lat="45.74699" lon="4.6282">
        <ele>586</ele>
        <time>2012-05-28T07:59:14Z</time>
      </trkpt>
      <trkpt lat="45.74699" lon="4.62823">
        <ele>585</ele>
        <time>2012-05-28T07:59:19Z</time>
      </trkpt>
      <trkpt lat="45.747" lon="4.62829">
        <ele>584</ele>
        <time>2012-05-28T07:59:23Z</time>
      </trkpt>
      <trkpt lat="45.74695" lon="4.62829">
        <ele>583</ele>
        <time>2012-05-28T07:59:28Z</time>
      </trkpt>
      <trkpt lat="45.74693" lon="4.62827">
        <ele>582</ele>
        <time>2012-05-28T07:59:30Z</time>
      </trkpt>
      <trkpt lat="45.74693" lon="4.62825">
        <ele>582</ele>
        <time>2012-05-28T07:59:31Z</time>
      </trkpt>
      <trkpt lat="45.74693" lon="4.62821">
        <ele>583</ele>
        <time>2012-05-28T07:59:37Z</time>
      </trkpt>
      <trkpt lat="45.74693" lon="4.62818">
        <ele>583</ele>
        <time>2012-05-28T07:59:45Z</time>
      </trkpt>
      <trkpt lat="45.74692" lon="4.62814">
        <ele>583</ele>
        <time>2012-05-28T07:59:51Z</time>
      </trkpt>
      <trkpt lat="45.74692" lon="4.62814">
        <ele>583</ele>
        <time>2012-05-28T07:59:54Z</time>
      </trkpt>
      <trkpt lat="45.74692" lon="4.62807">
        <ele>584</ele>
        <time>2012-05-28T08:00:02Z</time>
      </trkpt>
      <trkpt lat="45.74691" lon="4.62801">
        <ele>584</ele>
        <time>2012-05-28T08:00:08Z</time>
      </trkpt>
      <trkpt lat="45.74691" lon="4.62801">
        <ele>583</ele>
        <time>2012-05-28T08:00:15Z</time>
      </trkpt>
      <trkpt lat="45.74691" lon="4.62802">
        <ele>584</ele>
        <time>2012-05-28T08:00:25Z</time>
      </trkpt>
      <trkpt lat="45.74691" lon="4.62801">
        <ele>583</ele>
        <time>2012-05-28T08:00:35Z</time>
      </trkpt>
      <trkpt lat="45.74691" lon="4.62795">
        <ele>584</ele>
        <time>2012-05-28T08:00:42Z</time>
      </trkpt>
      <trkpt lat="45.7469" lon="4.62786">
        <ele>584</ele>
        <time>2012-05-28T08:00:47Z</time>
      </trkpt>
      <trkpt lat="45.74689" lon="4.62763">
        <ele>584</ele>
        <time>2012-05-28T08:00:57Z</time>
      </trkpt>
      <trkpt lat="45.74685" lon="4.6274">
        <ele>585</ele>
        <time>2012-05-28T08:01:05Z</time>
      </trkpt>
      <trkpt lat="45.7468" lon="4.62717">
        <ele>585</ele>
        <time>2012-05-28T08:01:14Z</time>
      </trkpt>
      <trkpt lat="45.74675" lon="4.62696">
        <ele>586</ele>
        <time>2012-05-28T08:01:22Z</time>
      </trkpt>
      <trkpt lat="45.74675" lon="4.62677">
        <ele>586</ele>
        <time>2012-05-28T08:01:29Z</time>
      </trkpt>
      <trkpt lat="45.74676" lon="4.62669">
        <ele>587</ele>
        <time>2012-05-28T08:01:32Z</time>
      </trkpt>
      <trkpt lat="45.74678" lon="4.62655">
        <ele>588</ele>
        <time>2012-05-28T08:01:39Z</time>
      </trkpt>
      <trkpt lat="45.74678" lon="4.62648">
        <ele>590</ele>
        <time>2012-05-28T08:01:42Z</time>
      </trkpt>
      <trkpt lat="45.74679" lon="4.62634">
        <ele>591</ele>
        <time>2012-05-28T08:01:49Z</time>
      </trkpt>
      <trkpt lat="45.74681" lon="4.62625">
        <ele>592</ele>
        <time>2012-05-28T08:01:55Z</time>
      </trkpt>
      <trkpt lat="45.74682" lon="4.62614">
        <ele>593</ele>
        <time>2012-05-28T08:02:02Z</time>
      </trkpt>
      <trkpt lat="45.74682" lon="4.62598">
        <ele>594</ele>
        <time>2012-05-28T08:02:10Z</time>
      </trkpt>
      <trkpt lat="45.74683" lon="4.62591">
        <ele>595</ele>
        <time>2012-05-28T08:02:14Z</time>
      </trkpt>
      <trkpt lat="45.74683" lon="4.62573">
        <ele>596</ele>
        <time>2012-05-28T08:02:23Z</time>
      </trkpt>
      <trkpt lat="45.74684" lon="4.62564">
        <ele>597</ele>
        <time>2012-05-28T08:02:29Z</time>
      </trkpt>
      <trkpt lat="45.74683" lon="4.62561">
        <ele>598</ele>
        <time>2012-05-28T08:02:31Z</time>
      </trkpt>
      <trkpt lat="45.74683" lon="4.62556">
        <ele>598</ele>
        <time>2012-05-28T08:02:34Z</time>
      </trkpt>
      <trkpt lat="45.74684" lon="4.62549">
        <ele>599</ele>
        <time>2012-05-28T08:02:38Z</time>
      </trkpt>
      <trkpt lat="45.74688" lon="4.62538">
        <ele>600</ele>
        <time>2012-05-28T08:02:45Z</time>
      </trkpt>
      <trkpt lat="45.7469" lon="4.62527">
        <ele>601</ele>
        <time>2012-05-28T08:02:51Z</time>
      </trkpt>
      <trkpt lat="45.74692" lon="4.62513">
        <ele>603</ele>
        <time>2012-05-28T08:02:59Z</time>
      </trkpt>
      <trkpt lat="45.74691" lon="4.62503">
        <ele>604</ele>
        <time>2012-05-28T08:03:05Z</time>
      </trkpt>
      <trkpt lat="45.74691" lon="4.62497">
        <ele>604</ele>
        <time>2012-05-28T08:03:08Z</time>
      </trkpt>
      <trkpt lat="45.74691" lon="4.62484">
        <ele>605</ele>
        <time>2012-05-28T08:03:16Z</time>
      </trkpt>
      <trkpt lat="45.74691" lon="4.62469">
        <ele>607</ele>
        <time>2012-05-28T08:03:24Z</time>
      </trkpt>
      <trkpt lat="45.74691" lon="4.6246">
        <ele>607</ele>
        <time>2012-05-28T08:03:29Z</time>
      </trkpt>
      <trkpt lat="45.74691" lon="4.62441">
        <ele>607</ele>
        <time>2012-05-28T08:03:37Z</time>
      </trkpt>
      <trkpt lat="45.74692" lon="4.62433">
        <ele>607</ele>
        <time>2012-05-28T08:03:41Z</time>
      </trkpt>
      <trkpt lat="45.74691" lon="4.62416">
        <ele>609</ele>
        <time>2012-05-28T08:03:49Z</time>
      </trkpt>
      <trkpt lat="45.74691" lon="4.6241">
        <ele>609</ele>
        <time>2012-05-28T08:03:52Z</time>
      </trkpt>
      <trkpt lat="45.74689" lon="4.62395">
        <ele>610</ele>
        <time>2012-05-28T08:03:59Z</time>
      </trkpt>
      <trkpt lat="45.74683" lon="4.62375">
        <ele>610</ele>
        <time>2012-05-28T08:04:07Z</time>
      </trkpt>
      <trkpt lat="45.74682" lon="4.62365">
        <ele>609</ele>
        <time>2012-05-28T08:04:11Z</time>
      </trkpt>
      <trkpt lat="45.74681" lon="4.62348">
        <ele>609</ele>
        <time>2012-05-28T08:04:17Z</time>
      </trkpt>
      <trkpt lat="45.74683" lon="4.62331">
        <ele>609</ele>
        <time>2012-05-28T08:04:23Z</time>
      </trkpt>
      <trkpt lat="45.74684" lon="4.62328">
        <ele>608</ele>
        <time>2012-05-28T08:04:24Z</time>
      </trkpt>
      <trkpt lat="45.74686" lon="4.62309">
        <ele>609</ele>
        <time>2012-05-28T08:04:30Z</time>
      </trkpt>
      <trkpt lat="45.74688" lon="4.6229">
        <ele>610</ele>
        <time>2012-05-28T08:04:36Z</time>
      </trkpt>
      <trkpt lat="45.74689" lon="4.62287">
        <ele>610</ele>
        <time>2012-05-28T08:04:37Z</time>
      </trkpt>
      <trkpt lat="45.74695" lon="4.62262">
        <ele>610</ele>
        <time>2012-05-28T08:04:45Z</time>
      </trkpt>
      <trkpt lat="45.74697" lon="4.62251">
        <ele>611</ele>
        <time>2012-05-28T08:04:49Z</time>
      </trkpt>
      <trkpt lat="45.74701" lon="4.62231">
        <ele>610</ele>
        <time>2012-05-28T08:04:55Z</time>
      </trkpt>
      <trkpt lat="45.74707" lon="4.62207">
        <ele>610</ele>
        <time>2012-05-28T08:05:01Z</time>
      </trkpt>
      <trkpt lat="45.74709" lon="4.62203">
        <ele>610</ele>
        <time>2012-05-28T08:05:02Z</time>
      </trkpt>
      <trkpt lat="45.74715" lon="4.62182">
        <ele>609</ele>
        <time>2012-05-28T08:05:08Z</time>
      </trkpt>
      <trkpt lat="45.74718" lon="4.62174">
        <ele>610</ele>
        <time>2012-05-28T08:05:10Z</time>
      </trkpt>
      <trkpt lat="45.74722" lon="4.62167">
        <ele>610</ele>
        <time>2012-05-28T08:05:13Z</time>
      </trkpt>
      <trkpt lat="45.74729" lon="4.62144">
        <ele>612</ele>
        <time>2012-05-28T08:05:21Z</time>
      </trkpt>
      <trkpt lat="45.74732" lon="4.62122">
        <ele>611</ele>
        <time>2012-05-28T08:05:27Z</time>
      </trkpt>
      <trkpt lat="45.74732" lon="4.62103">
        <ele>612</ele>
        <time>2012-05-28T08:05:32Z</time>
      </trkpt>
      <trkpt lat="45.74732" lon="4.62099">
        <ele>611</ele>
        <time>2012-05-28T08:05:33Z</time>
      </trkpt>
      <trkpt lat="45.74738" lon="4.62072">
        <ele>611</ele>
        <time>2012-05-28T08:05:39Z</time>
      </trkpt>
      <trkpt lat="45.7474" lon="4.62065">
        <ele>610</ele>
        <time>2012-05-28T08:05:41Z</time>
      </trkpt>
      <trkpt lat="45.74745" lon="4.6203">
        <ele>611</ele>
        <time>2012-05-28T08:05:50Z</time>
      </trkpt>
      <trkpt lat="45.74749" lon="4.62015">
        <ele>611</ele>
        <time>2012-05-28T08:05:55Z</time>
      </trkpt>
      <trkpt lat="45.74752" lon="4.61993">
        <ele>612</ele>
        <time>2012-05-28T08:06:02Z</time>
      </trkpt>
      <trkpt lat="45.74755" lon="4.61974">
        <ele>612</ele>
        <time>2012-05-28T08:06:08Z</time>
      </trkpt>
      <trkpt lat="45.7476" lon="4.61959">
        <ele>614</ele>
        <time>2012-05-28T08:06:12Z</time>
      </trkpt>
      <trkpt lat="45.74764" lon="4.6194">
        <ele>614</ele>
        <time>2012-05-28T08:06:19Z</time>
      </trkpt>
      <trkpt lat="45.74768" lon="4.61924">
        <ele>614</ele>
        <time>2012-05-28T08:06:24Z</time>
      </trkpt>
      <trkpt lat="45.74776" lon="4.61896">
        <ele>614</ele>
        <time>2012-05-28T08:06:31Z</time>
      </trkpt>
      <trkpt lat="45.74784" lon="4.61875">
        <ele>613</ele>
        <time>2012-05-28T08:06:37Z</time>
      </trkpt>
      <trkpt lat="45.74792" lon="4.61857">
        <ele>612</ele>
        <time>2012-05-28T08:06:42Z</time>
      </trkpt>
      <trkpt lat="45.748" lon="4.61836">
        <ele>612</ele>
        <time>2012-05-28T08:06:48Z</time>
      </trkpt>
      <trkpt lat="45.74801" lon="4.61833">
        <ele>613</ele>
        <time>2012-05-28T08:06:49Z</time>
      </trkpt>
      <trkpt lat="45.74805" lon="4.61815">
        <ele>614</ele>
        <time>2012-05-28T08:06:55Z</time>
      </trkpt>
      <trkpt lat="45.74809" lon="4.61793">
        <ele>613</ele>
        <time>2012-05-28T08:07:03Z</time>
      </trkpt>
      <trkpt lat="45.74811" lon="4.61776">
        <ele>613</ele>
        <time>2012-05-28T08:07:09Z</time>
      </trkpt>
      <trkpt lat="45.74809" lon="4.61767">
        <ele>613</ele>
        <time>2012-05-28T08:07:12Z</time>
      </trkpt>
      <trkpt lat="45.74807" lon="4.61749">
        <ele>614</ele>
        <time>2012-05-28T08:07:19Z</time>
      </trkpt>
      <trkpt lat="45.74804" lon="4.61734">
        <ele>614</ele>
        <time>2012-05-28T08:07:25Z</time>
      </trkpt>
      <trkpt lat="45.74801" lon="4.61723">
        <ele>615</ele>
        <time>2012-05-28T08:07:29Z</time>
      </trkpt>
      <trkpt lat="45.74798" lon="4.61713">
        <ele>615</ele>
        <time>2012-05-28T08:07:35Z</time>
      </trkpt>
      <trkpt lat="45.74798" lon="4.61702">
        <ele>616</ele>
        <time>2012-05-28T08:07:42Z</time>
      </trkpt>
      <trkpt lat="45.74798" lon="4.61693">
        <ele>617</ele>
        <time>2012-05-28T08:07:51Z</time>
      </trkpt>
      <trkpt lat="45.74799" lon="4.61685">
        <ele>618</ele>
        <time>2012-05-28T08:07:58Z</time>
      </trkpt>
      <trkpt lat="45.74799" lon="4.61676">
        <ele>619</ele>
        <time>2012-05-28T08:08:07Z</time>
      </trkpt>
      <trkpt lat="45.74798" lon="4.61672">
        <ele>620</ele>
        <time>2012-05-28T08:08:13Z</time>
      </trkpt>
      <trkpt lat="45.74799" lon="4.61668">
        <ele>621</ele>
        <time>2012-05-28T08:08:19Z</time>
      </trkpt>
      <trkpt lat="45.74802" lon="4.61662">
        <ele>622</ele>
        <time>2012-05-28T08:08:25Z</time>
      </trkpt>
      <trkpt lat="45.74803" lon="4.61654">
        <ele>623</ele>
        <time>2012-05-28T08:08:32Z</time>
      </trkpt>
      <trkpt lat="45.74804" lon="4.6165">
        <ele>624</ele>
        <time>2012-05-28T08:08:38Z</time>
      </trkpt>
      <trkpt lat="45.74807" lon="4.61646">
        <ele>625</ele>
        <time>2012-05-28T08:08:45Z</time>
      </trkpt>
      <trkpt lat="45.74808" lon="4.61642">
        <ele>626</ele>
        <time>2012-05-28T08:08:52Z</time>
      </trkpt>
      <trkpt lat="45.74808" lon="4.61641">
        <ele>626</ele>
        <time>2012-05-28T08:09:00Z</time>
      </trkpt>
      <trkpt lat="45.74809" lon="4.6164">
        <ele>627</ele>
        <time>2012-05-28T08:09:06Z</time>
      </trkpt>
      <trkpt lat="45.74812" lon="4.61634">
        <ele>627</ele>
        <time>2012-05-28T08:09:13Z</time>
      </trkpt>
      <trkpt lat="45.74814" lon="4.61628">
        <ele>628</ele>
        <time>2012-05-28T08:09:20Z</time>
      </trkpt>
      <trkpt lat="45.74817" lon="4.61625">
        <ele>628</ele>
        <time>2012-05-28T08:09:25Z</time>
      </trkpt>
      <trkpt lat="45.74818" lon="4.61621">
        <ele>629</ele>
        <time>2012-05-28T08:09:33Z</time>
      </trkpt>
      <trkpt lat="45.74819" lon="4.61618">
        <ele>630</ele>
        <time>2012-05-28T08:09:44Z</time>
      </trkpt>
      <trkpt lat="45.7482" lon="4.61612">
        <ele>631</ele>
        <time>2012-05-28T08:09:51Z</time>
      </trkpt>
      <trkpt lat="45.74822" lon="4.61605">
        <ele>632</ele>
        <time>2012-05-28T08:09:58Z</time>
      </trkpt>
      <trkpt lat="45.74823" lon="4.61601">
        <ele>633</ele>
        <time>2012-05-28T08:10:05Z</time>
      </trkpt>
      <trkpt lat="45.74823" lon="4.616">
        <ele>633</ele>
        <time>2012-05-28T08:10:11Z</time>
      </trkpt>
      <trkpt lat="45.74823" lon="4.61598">
        <ele>634</ele>
        <time>2012-05-28T08:10:19Z</time>
      </trkpt>
      <trkpt lat="45.74824" lon="4.61594">
        <ele>635</ele>
        <time>2012-05-28T08:10:25Z</time>
      </trkpt>
      <trkpt lat="45.74825" lon="4.61586">
        <ele>635</ele>
        <time>2012-05-28T08:10:32Z</time>
      </trkpt>
      <trkpt lat="45.74825" lon="4.61582">
        <ele>635</ele>
        <time>2012-05-28T08:10:39Z</time>
      </trkpt>
      <trkpt lat="45.74825" lon="4.61576">
        <ele>637</ele>
        <time>2012-05-28T08:10:45Z</time>
      </trkpt>
      <trkpt lat="45.74827" lon="4.61564">
        <ele>637</ele>
        <time>2012-05-28T08:10:51Z</time>
      </trkpt>
      <trkpt lat="45.74829" lon="4.61552">
        <ele>639</ele>
        <time>2012-05-28T08:10:59Z</time>
      </trkpt>
      <trkpt lat="45.74829" lon="4.61544">
        <ele>640</ele>
        <time>2012-05-28T08:11:06Z</time>
      </trkpt>
      <trkpt lat="45.7483" lon="4.61535">
        <ele>642</ele>
        <time>2012-05-28T08:11:13Z</time>
      </trkpt>
      <trkpt lat="45.7483" lon="4.6153">
        <ele>642</ele>
        <time>2012-05-28T08:11:19Z</time>
      </trkpt>
      <trkpt lat="45.74829" lon="4.61526">
        <ele>644</ele>
        <time>2012-05-28T08:11:25Z</time>
      </trkpt>
      <trkpt lat="45.74826" lon="4.61518">
        <ele>645</ele>
        <time>2012-05-28T08:11:31Z</time>
      </trkpt>
      <trkpt lat="45.74827" lon="4.61506">
        <ele>646</ele>
        <time>2012-05-28T08:11:39Z</time>
      </trkpt>
      <trkpt lat="45.74828" lon="4.61502">
        <ele>648</ele>
        <time>2012-05-28T08:11:45Z</time>
      </trkpt>
      <trkpt lat="45.74831" lon="4.615">
        <ele>649</ele>
        <time>2012-05-28T08:11:51Z</time>
      </trkpt>
      <trkpt lat="45.74833" lon="4.61497">
        <ele>650</ele>
        <time>2012-05-28T08:11:58Z</time>
      </trkpt>
      <trkpt lat="45.74837" lon="4.61491">
        <ele>651</ele>
        <time>2012-05-28T08:12:04Z</time>
      </trkpt>
      <trkpt lat="45.7484" lon="4.61487">
        <ele>651</ele>
        <time>2012-05-28T08:12:11Z</time>
      </trkpt>
      <trkpt lat="45.7484" lon="4.61481">
        <ele>651</ele>
        <time>2012-05-28T08:12:29Z</time>
      </trkpt>
      <trkpt lat="45.7484" lon="4.61481">
        <ele>651</ele>
        <time>2012-05-28T08:12:30Z</time>
      </trkpt>
      <trkpt lat="45.74849" lon="4.61479">
        <ele>651</ele>
        <time>2012-05-28T08:12:37Z</time>
      </trkpt>
      <trkpt lat="45.74856" lon="4.61475">
        <ele>652</ele>
        <time>2012-05-28T08:12:45Z</time>
      </trkpt>
      <trkpt lat="45.74861" lon="4.61471">
        <ele>654</ele>
        <time>2012-05-28T08:12:53Z</time>
      </trkpt>
      <trkpt lat="45.74862" lon="4.6147">
        <ele>654</ele>
        <time>2012-05-28T08:12:55Z</time>
      </trkpt>
      <trkpt lat="45.74866" lon="4.61466">
        <ele>655</ele>
        <time>2012-05-28T08:13:01Z</time>
      </trkpt>
      <trkpt lat="45.7487" lon="4.61466">
        <ele>656</ele>
        <time>2012-05-28T08:13:07Z</time>
      </trkpt>
      <trkpt lat="45.74873" lon="4.61462">
        <ele>658</ele>
        <time>2012-05-28T08:13:14Z</time>
      </trkpt>
      <trkpt lat="45.74879" lon="4.61454">
        <ele>659</ele>
        <time>2012-05-28T08:13:21Z</time>
      </trkpt>
      <trkpt lat="45.74886" lon="4.61445">
        <ele>661</ele>
        <time>2012-05-28T08:13:28Z</time>
      </trkpt>
      <trkpt lat="45.74891" lon="4.61439">
        <ele>662</ele>
        <time>2012-05-28T08:13:36Z</time>
      </trkpt>
      <trkpt lat="45.74893" lon="4.61434">
        <ele>663</ele>
        <time>2012-05-28T08:13:43Z</time>
      </trkpt>
      <trkpt lat="45.74897" lon="4.61423">
        <ele>664</ele>
        <time>2012-05-28T08:13:51Z</time>
      </trkpt>
      <trkpt lat="45.74898" lon="4.61418">
        <ele>666</ele>
        <time>2012-05-28T08:13:56Z</time>
      </trkpt>
      <trkpt lat="45.74899" lon="4.61416">
        <ele>666</ele>
        <time>2012-05-28T08:14:05Z</time>
      </trkpt>
      <trkpt lat="45.74899" lon="4.61416">
        <ele>666</ele>
        <time>2012-05-28T08:14:21Z</time>
      </trkpt>
      <trkpt lat="45.74899" lon="4.61416">
        <ele>667</ele>
        <time>2012-05-28T08:14:34Z</time>
      </trkpt>
      <trkpt lat="45.74899" lon="4.61415">
        <ele>666</ele>
        <time>2012-05-28T08:14:52Z</time>
      </trkpt>
      <trkpt lat="45.749" lon="4.61414">
        <ele>667</ele>
        <time>2012-05-28T08:15:10Z</time>
      </trkpt>
      <trkpt lat="45.74901" lon="4.61404">
        <ele>668</ele>
        <time>2012-05-28T08:15:18Z</time>
      </trkpt>
      <trkpt lat="45.74902" lon="4.61396">
        <ele>669</ele>
        <time>2012-05-28T08:15:25Z</time>
      </trkpt>
      <trkpt lat="45.74906" lon="4.61389">
        <ele>671</ele>
        <time>2012-05-28T08:15:33Z</time>
      </trkpt>
      <trkpt lat="45.74908" lon="4.61386">
        <ele>673</ele>
        <time>2012-05-28T08:15:42Z</time>
      </trkpt>
      <trkpt lat="45.74909" lon="4.61383">
        <ele>673</ele>
        <time>2012-05-28T08:15:50Z</time>
      </trkpt>
      <trkpt lat="45.74913" lon="4.61378">
        <ele>673</ele>
        <time>2012-05-28T08:15:59Z</time>
      </trkpt>
      <trkpt lat="45.74919" lon="4.61372">
        <ele>674</ele>
        <time>2012-05-28T08:16:05Z</time>
      </trkpt>
      <trkpt lat="45.74924" lon="4.61368">
        <ele>675</ele>
        <time>2012-05-28T08:16:11Z</time>
      </trkpt>
      <trkpt lat="45.74925" lon="4.61367">
        <ele>675</ele>
        <time>2012-05-28T08:16:20Z</time>
      </trkpt>
      <trkpt lat="45.74925" lon="4.61368">
        <ele>676</ele>
        <time>2012-05-28T08:16:28Z</time>
      </trkpt>
      <trkpt lat="45.74926" lon="4.61366">
        <ele>676</ele>
        <time>2012-05-28T08:16:34Z</time>
      </trkpt>
      <trkpt lat="45.74929" lon="4.61367">
        <ele>676</ele>
        <time>2012-05-28T08:16:46Z</time>
      </trkpt>
      <trkpt lat="45.7493" lon="4.61365">
        <ele>677</ele>
        <time>2012-05-28T08:16:57Z</time>
      </trkpt>
      <trkpt lat="45.7493" lon="4.61362">
        <ele>678</ele>
        <time>2012-05-28T08:17:04Z</time>
      </trkpt>
      <trkpt lat="45.74932" lon="4.61355">
        <ele>680</ele>
        <time>2012-05-28T08:17:11Z</time>
      </trkpt>
      <trkpt lat="45.74937" lon="4.61353">
        <ele>679</ele>
        <time>2012-05-28T08:17:17Z</time>
      </trkpt>
      <trkpt lat="45.7494" lon="4.6135">
        <ele>679</ele>
        <time>2012-05-28T08:17:24Z</time>
      </trkpt>
      <trkpt lat="45.74945" lon="4.61345">
        <ele>680</ele>
        <time>2012-05-28T08:17:33Z</time>
      </trkpt>
      <trkpt lat="45.74949" lon="4.61337">
        <ele>682</ele>
        <time>2012-05-28T08:17:41Z</time>
      </trkpt>
      <trkpt lat="45.74951" lon="4.61333">
        <ele>683</ele>
        <time>2012-05-28T08:17:48Z</time>
      </trkpt>
      <trkpt lat="45.74956" lon="4.61326">
        <ele>685</ele>
        <time>2012-05-28T08:17:56Z</time>
      </trkpt>
      <trkpt lat="45.74957" lon="4.61322">
        <ele>686</ele>
        <time>2012-05-28T08:18:02Z</time>
      </trkpt>
      <trkpt lat="45.74957" lon="4.61322">
        <ele>687</ele>
        <time>2012-05-28T08:18:08Z</time>
      </trkpt>
      <trkpt lat="45.74961" lon="4.61317">
        <ele>689</ele>
        <time>2012-05-28T08:18:15Z</time>
      </trkpt>
      <trkpt lat="45.74963" lon="4.61315">
        <ele>691</ele>
        <time>2012-05-28T08:18:23Z</time>
      </trkpt>
      <trkpt lat="45.7497" lon="4.61308">
        <ele>692</ele>
        <time>2012-05-28T08:18:32Z</time>
      </trkpt>
      <trkpt lat="45.74973" lon="4.61304">
        <ele>693</ele>
        <time>2012-05-28T08:18:38Z</time>
      </trkpt>
      <trkpt lat="45.74981" lon="4.61295">
        <ele>695</ele>
        <time>2012-05-28T08:18:45Z</time>
      </trkpt>
      <trkpt lat="45.74986" lon="4.6129">
        <ele>696</ele>
        <time>2012-05-28T08:18:52Z</time>
      </trkpt>
      <trkpt lat="45.74989" lon="4.61285">
        <ele>697</ele>
        <time>2012-05-28T08:18:58Z</time>
      </trkpt>
      <trkpt lat="45.74993" lon="4.61281">
        <ele>698</ele>
        <time>2012-05-28T08:19:04Z</time>
      </trkpt>
      <trkpt lat="45.74998" lon="4.61276">
        <ele>699</ele>
        <time>2012-05-28T08:19:11Z</time>
      </trkpt>
      <trkpt lat="45.74998" lon="4.61272">
        <ele>699</ele>
        <time>2012-05-28T08:19:17Z</time>
      </trkpt>
      <trkpt lat="45.75003" lon="4.61269">
        <ele>701</ele>
        <time>2012-05-28T08:19:26Z</time>
      </trkpt>
      <trkpt lat="45.75007" lon="4.61267">
        <ele>702</ele>
        <time>2012-05-28T08:19:32Z</time>
      </trkpt>
      <trkpt lat="45.75017" lon="4.61264">
        <ele>703</ele>
        <time>2012-05-28T08:19:40Z</time>
      </trkpt>
      <trkpt lat="45.75028" lon="4.61258">
        <ele>705</ele>
        <time>2012-05-28T08:19:48Z</time>
      </trkpt>
      <trkpt lat="45.75036" lon="4.61256">
        <ele>707</ele>
        <time>2012-05-28T08:19:57Z</time>
      </trkpt>
      <trkpt lat="45.75044" lon="4.61253">
        <ele>708</ele>
        <time>2012-05-28T08:20:04Z</time>
      </trkpt>
      <trkpt lat="45.75049" lon="4.61252">
        <ele>710</ele>
        <time>2012-05-28T08:20:13Z</time>
      </trkpt>
      <trkpt lat="45.75052" lon="4.6125">
        <ele>711</ele>
        <time>2012-05-28T08:20:19Z</time>
      </trkpt>
      <trkpt lat="45.75056" lon="4.61245">
        <ele>713</ele>
        <time>2012-05-28T08:20:26Z</time>
      </trkpt>
      <trkpt lat="45.75055" lon="4.61242">
        <ele>713</ele>
        <time>2012-05-28T08:20:29Z</time>
      </trkpt>
      <trkpt lat="45.75051" lon="4.61236">
        <ele>714</ele>
        <time>2012-05-28T08:20:37Z</time>
      </trkpt>
      <trkpt lat="45.75045" lon="4.61233">
        <ele>714</ele>
        <time>2012-05-28T08:20:43Z</time>
      </trkpt>
      <trkpt lat="45.75046" lon="4.61232">
        <ele>714</ele>
        <time>2012-05-28T08:20:51Z</time>
      </trkpt>
      <trkpt lat="45.75046" lon="4.61233">
        <ele>714</ele>
        <time>2012-05-28T08:20:56Z</time>
      </trkpt>
      <trkpt lat="45.75038" lon="4.61227">
        <ele>715</ele>
        <time>2012-05-28T08:21:04Z</time>
      </trkpt>
      <trkpt lat="45.75035" lon="4.61224">
        <ele>715</ele>
        <time>2012-05-28T08:21:07Z</time>
      </trkpt>
      <trkpt lat="45.75026" lon="4.61218">
        <ele>716</ele>
        <time>2012-05-28T08:21:13Z</time>
      </trkpt>
      <trkpt lat="45.75018" lon="4.61215">
        <ele>717</ele>
        <time>2012-05-28T08:21:18Z</time>
      </trkpt>
      <trkpt lat="45.75011" lon="4.61213">
        <ele>717</ele>
        <time>2012-05-28T08:21:21Z</time>
      </trkpt>
      <trkpt lat="45.74998" lon="4.61207">
        <ele>718</ele>
        <time>2012-05-28T08:21:28Z</time>
      </trkpt>
      <trkpt lat="45.74985" lon="4.61205">
        <ele>719</ele>
        <time>2012-05-28T08:21:34Z</time>
      </trkpt>
      <trkpt lat="45.74977" lon="4.61203">
        <ele>719</ele>
        <time>2012-05-28T08:21:38Z</time>
      </trkpt>
      <trkpt lat="45.74968" lon="4.61191">
        <ele>720</ele>
        <time>2012-05-28T08:21:46Z</time>
      </trkpt>
      <trkpt lat="45.7496" lon="4.61185">
        <ele>721</ele>
        <time>2012-05-28T08:21:51Z</time>
      </trkpt>
      <trkpt lat="45.74947" lon="4.6118">
        <ele>722</ele>
        <time>2012-05-28T08:21:59Z</time>
      </trkpt>
      <trkpt lat="45.74931" lon="4.61182">
        <ele>723</ele>
        <time>2012-05-28T08:22:06Z</time>
      </trkpt>
      <trkpt lat="45.74918" lon="4.6119">
        <ele>724</ele>
        <time>2012-05-28T08:22:13Z</time>
      </trkpt>
      <trkpt lat="45.7491" lon="4.61192">
        <ele>725</ele>
        <time>2012-05-28T08:22:18Z</time>
      </trkpt>
      <trkpt lat="45.74897" lon="4.61195">
        <ele>725</ele>
        <time>2012-05-28T08:22:24Z</time>
      </trkpt>
      <trkpt lat="45.74882" lon="4.61199">
        <ele>726</ele>
        <time>2012-05-28T08:22:31Z</time>
      </trkpt>
      <trkpt lat="45.74867" lon="4.61207">
        <ele>727</ele>
        <time>2012-05-28T08:22:37Z</time>
      </trkpt>
      <trkpt lat="45.74855" lon="4.6121">
        <ele>728</ele>
        <time>2012-05-28T08:22:42Z</time>
      </trkpt>
      <trkpt lat="45.74838" lon="4.61211">
        <ele>729</ele>
        <time>2012-05-28T08:22:49Z</time>
      </trkpt>
      <trkpt lat="45.74823" lon="4.61208">
        <ele>730</ele>
        <time>2012-05-28T08:22:55Z</time>
      </trkpt>
      <trkpt lat="45.74806" lon="4.61201">
        <ele>732</ele>
        <time>2012-05-28T08:23:02Z</time>
      </trkpt>
      <trkpt lat="45.74791" lon="4.61185">
        <ele>732</ele>
        <time>2012-05-28T08:23:09Z</time>
      </trkpt>
      <trkpt lat="45.74783" lon="4.61159">
        <ele>733</ele>
        <time>2012-05-28T08:23:17Z</time>
      </trkpt>
      <trkpt lat="45.74773" lon="4.61142">
        <ele>733</ele>
        <time>2012-05-28T08:23:24Z</time>
      </trkpt>
      <trkpt lat="45.74771" lon="4.61129">
        <ele>732</ele>
        <time>2012-05-28T08:23:29Z</time>
      </trkpt>
      <trkpt lat="45.74778" lon="4.61117">
        <ele>731</ele>
        <time>2012-05-28T08:23:36Z</time>
      </trkpt>
      <trkpt lat="45.74785" lon="4.61108">
        <ele>731</ele>
        <time>2012-05-28T08:23:42Z</time>
      </trkpt>
      <trkpt lat="45.74785" lon="4.61108">
        <ele>730</ele>
        <time>2012-05-28T08:23:48Z</time>
      </trkpt>
      <trkpt lat="45.74784" lon="4.61109">
        <ele>731</ele>
        <time>2012-05-28T08:23:50Z</time>
      </trkpt>
      <trkpt lat="45.74782" lon="4.61107">
        <ele>730</ele>
        <time>2012-05-28T08:23:58Z</time>
      </trkpt>
      <trkpt lat="45.74783" lon="4.61107">
        <ele>731</ele>
        <time>2012-05-28T08:24:18Z</time>
      </trkpt>
      <trkpt lat="45.74783" lon="4.61106">
        <ele>730</ele>
        <time>2012-05-28T08:24:34Z</time>
      </trkpt>
      <trkpt lat="45.74782" lon="4.61106">
        <ele>731</ele>
        <time>2012-05-28T08:24:52Z</time>
      </trkpt>
      <trkpt lat="45.7478" lon="4.61108">
        <ele>731</ele>
        <time>2012-05-28T08:25:08Z</time>
      </trkpt>
      <trkpt lat="45.74781" lon="4.61109">
        <ele>731</ele>
        <time>2012-05-28T08:25:23Z</time>
      </trkpt>
      <trkpt lat="45.74782" lon="4.61107">
        <ele>731</ele>
        <time>2012-05-28T08:25:44Z</time>
      </trkpt>
      <trkpt lat="45.74781" lon="4.61107">
        <ele>732</ele>
        <time>2012-05-28T08:26:05Z</time>
      </trkpt>
      <trkpt lat="45.74783" lon="4.61108">
        <ele>731</ele>
        <time>2012-05-28T08:26:23Z</time>
      </trkpt>
      <trkpt lat="45.74782" lon="4.61108">
        <ele>732</ele>
        <time>2012-05-28T08:26:41Z</time>
      </trkpt>
      <trkpt lat="45.74781" lon="4.61108">
        <ele>731</ele>
        <time>2012-05-28T08:27:00Z</time>
      </trkpt>
      <trkpt lat="45.7478" lon="4.61107">
        <ele>732</ele>
        <time>2012-05-28T08:27:21Z</time>
      </trkpt>
      <trkpt lat="45.74781" lon="4.61107">
        <ele>732</ele>
        <time>2012-05-28T08:27:40Z</time>
      </trkpt>
      <trkpt lat="45.74782" lon="4.61106">
        <ele>732</ele>
        <time>2012-05-28T08:27:57Z</time>
      </trkpt>
      <trkpt lat="45.74783" lon="4.61107">
        <ele>732</ele>
        <time>2012-05-28T08:28:15Z</time>
      </trkpt>
      <trkpt lat="45.74783" lon="4.61108">
        <ele>732</ele>
        <time>2012-05-28T08:28:21Z</time>
      </trkpt>
      <trkpt lat="45.74783" lon="4.61108">
        <ele>732</ele>
        <time>2012-05-28T08:28:23Z</time>
      </trkpt>
      <trkpt lat="45.74793" lon="4.61103">
        <ele>732</ele>
        <time>2012-05-28T08:28:31Z</time>
      </trkpt>
      <trkpt lat="45.74804" lon="4.61092">
        <ele>731</ele>
        <time>2012-05-28T08:28:36Z</time>
      </trkpt>
      <trkpt lat="45.74816" lon="4.61066">
        <ele>729</ele>
        <time>2012-05-28T08:28:42Z</time>
      </trkpt>
      <trkpt lat="45.74819" lon="4.61059">
        <ele>728</ele>
        <time>2012-05-28T08:28:43Z</time>
      </trkpt>
      <trkpt lat="45.74822" lon="4.61052">
        <ele>728</ele>
        <time>2012-05-28T08:28:44Z</time>
      </trkpt>
      <trkpt lat="45.74825" lon="4.61045">
        <ele>727</ele>
        <time>2012-05-28T08:28:45Z</time>
      </trkpt>
      <trkpt lat="45.74828" lon="4.61037">
        <ele>726</ele>
        <time>2012-05-28T08:28:46Z</time>
      </trkpt>
      <trkpt lat="45.7483" lon="4.61029">
        <ele>724</ele>
        <time>2012-05-28T08:28:47Z</time>
      </trkpt>
      <trkpt lat="45.74839" lon="4.61001">
        <ele>722</ele>
        <time>2012-05-28T08:28:50Z</time>
      </trkpt>
      <trkpt lat="45.74844" lon="4.60986">
        <ele>718</ele>
        <time>2012-05-28T08:28:53Z</time>
      </trkpt>
      <trkpt lat="45.74846" lon="4.60982">
        <ele>718</ele>
        <time>2012-05-28T08:28:54Z</time>
      </trkpt>
      <trkpt lat="45.74846" lon="4.60977">
        <ele>717</ele>
        <time>2012-05-28T08:28:55Z</time>
      </trkpt>
      <trkpt lat="45.74848" lon="4.60972">
        <ele>717</ele>
        <time>2012-05-28T08:28:56Z</time>
      </trkpt>
      <trkpt lat="45.74853" lon="4.60959">
        <ele>716</ele>
        <time>2012-05-28T08:28:58Z</time>
      </trkpt>
      <trkpt lat="45.74855" lon="4.60952">
        <ele>716</ele>
        <time>2012-05-28T08:28:59Z</time>
      </trkpt>
      <trkpt lat="45.74858" lon="4.60944">
        <ele>715</ele>
        <time>2012-05-28T08:29:00Z</time>
      </trkpt>
      <trkpt lat="45.7486" lon="4.60936">
        <ele>715</ele>
        <time>2012-05-28T08:29:01Z</time>
      </trkpt>
      <trkpt lat="45.74862" lon="4.60929">
        <ele>714</ele>
        <time>2012-05-28T08:29:02Z</time>
      </trkpt>
      <trkpt lat="45.74865" lon="4.60922">
        <ele>713</ele>
        <time>2012-05-28T08:29:03Z</time>
      </trkpt>
      <trkpt lat="45.74867" lon="4.60914">
        <ele>713</ele>
        <time>2012-05-28T08:29:04Z</time>
      </trkpt>
      <trkpt lat="45.74873" lon="4.60898">
        <ele>711</ele>
        <time>2012-05-28T08:29:06Z</time>
      </trkpt>
      <trkpt lat="45.74881" lon="4.60873">
        <ele>709</ele>
        <time>2012-05-28T08:29:09Z</time>
      </trkpt>
      <trkpt lat="45.74883" lon="4.60864">
        <ele>708</ele>
        <time>2012-05-28T08:29:10Z</time>
      </trkpt>
      <trkpt lat="45.74884" lon="4.60855">
        <ele>707</ele>
        <time>2012-05-28T08:29:11Z</time>
      </trkpt>
      <trkpt lat="45.74886" lon="4.60845">
        <ele>706</ele>
        <time>2012-05-28T08:29:12Z</time>
      </trkpt>
      <trkpt lat="45.74889" lon="4.60837">
        <ele>706</ele>
        <time>2012-05-28T08:29:13Z</time>
      </trkpt>
      <trkpt lat="45.74892" lon="4.60829">
        <ele>705</ele>
        <time>2012-05-28T08:29:14Z</time>
      </trkpt>
      <trkpt lat="45.74901" lon="4.60807">
        <ele>702</ele>
        <time>2012-05-28T08:29:17Z</time>
      </trkpt>
      <trkpt lat="45.74908" lon="4.60796">
        <ele>700</ele>
        <time>2012-05-28T08:29:19Z</time>
      </trkpt>
      <trkpt lat="45.74911" lon="4.60793">
        <ele>700</ele>
        <time>2012-05-28T08:29:20Z</time>
      </trkpt>
      <trkpt lat="45.74913" lon="4.6079">
        <ele>700</ele>
        <time>2012-05-28T08:29:21Z</time>
      </trkpt>
      <trkpt lat="45.74915" lon="4.60788">
        <ele>699</ele>
        <time>2012-05-28T08:29:22Z</time>
      </trkpt>
      <trkpt lat="45.74916" lon="4.60785">
        <ele>699</ele>
        <time>2012-05-28T08:29:23Z</time>
      </trkpt>
      <trkpt lat="45.74917" lon="4.60783">
        <ele>699</ele>
        <time>2012-05-28T08:29:24Z</time>
      </trkpt>
      <trkpt lat="45.74918" lon="4.60779">
        <ele>699</ele>
        <time>2012-05-28T08:29:25Z</time>
      </trkpt>
      <trkpt lat="45.7492" lon="4.60774">
        <ele>698</ele>
        <time>2012-05-28T08:29:26Z</time>
      </trkpt>
      <trkpt lat="45.74922" lon="4.60769">
        <ele>697</ele>
        <time>2012-05-28T08:29:27Z</time>
      </trkpt>
      <trkpt lat="45.74924" lon="4.60764">
        <ele>697</ele>
        <time>2012-05-28T08:29:28Z</time>
      </trkpt>
      <trkpt lat="45.74928" lon="4.6076">
        <ele>697</ele>
        <time>2012-05-28T08:29:29Z</time>
      </trkpt>
      <trkpt lat="45.74931" lon="4.60757">
        <ele>695</ele>
        <time>2012-05-28T08:29:30Z</time>
      </trkpt>
      <trkpt lat="45.74935" lon="4.60755">
        <ele>695</ele>
        <time>2012-05-28T08:29:31Z</time>
      </trkpt>
      <trkpt lat="45.74939" lon="4.60754">
        <ele>694</ele>
        <time>2012-05-28T08:29:32Z</time>
      </trkpt>
      <trkpt lat="45.74943" lon="4.60753">
        <ele>695</ele>
        <time>2012-05-28T08:29:33Z</time>
      </trkpt>
      <trkpt lat="45.74962" lon="4.60757">
        <ele>693</ele>
        <time>2012-05-28T08:29:39Z</time>
      </trkpt>
      <trkpt lat="45.7498" lon="4.60767">
        <ele>693</ele>
        <time>2012-05-28T08:29:45Z</time>
      </trkpt>
      <trkpt lat="45.74984" lon="4.60767">
        <ele>693</ele>
        <time>2012-05-28T08:29:46Z</time>
      </trkpt>
      <trkpt lat="45.74989" lon="4.60769">
        <ele>693</ele>
        <time>2012-05-28T08:29:48Z</time>
      </trkpt>
      <trkpt lat="45.74991" lon="4.60771">
        <ele>693</ele>
        <time>2012-05-28T08:29:49Z</time>
      </trkpt>
      <trkpt lat="45.75008" lon="4.60781">
        <ele>694</ele>
        <time>2012-05-28T08:29:56Z</time>
      </trkpt>
      <trkpt lat="45.75023" lon="4.60784">
        <ele>694</ele>
        <time>2012-05-28T08:30:02Z</time>
      </trkpt>
      <trkpt lat="45.75042" lon="4.60786">
        <ele>694</ele>
        <time>2012-05-28T08:30:09Z</time>
      </trkpt>
      <trkpt lat="45.75045" lon="4.60786">
        <ele>694</ele>
        <time>2012-05-28T08:30:10Z</time>
      </trkpt>
      <trkpt lat="45.75066" lon="4.60791">
        <ele>694</ele>
        <time>2012-05-28T08:30:17Z</time>
      </trkpt>
      <trkpt lat="45.75083" lon="4.60794">
        <ele>694</ele>
        <time>2012-05-28T08:30:22Z</time>
      </trkpt>
      <trkpt lat="45.75086" lon="4.60794">
        <ele>694</ele>
        <time>2012-05-28T08:30:23Z</time>
      </trkpt>
      <trkpt lat="45.75104" lon="4.60799">
        <ele>694</ele>
        <time>2012-05-28T08:30:29Z</time>
      </trkpt>
      <trkpt lat="45.75119" lon="4.60797">
        <ele>695</ele>
        <time>2012-05-28T08:30:35Z</time>
      </trkpt>
      <trkpt lat="45.75137" lon="4.60793">
        <ele>697</ele>
        <time>2012-05-28T08:30:42Z</time>
      </trkpt>
      <trkpt lat="45.75152" lon="4.60791">
        <ele>698</ele>
        <time>2012-05-28T08:30:48Z</time>
      </trkpt>
      <trkpt lat="45.7517" lon="4.60787">
        <ele>699</ele>
        <time>2012-05-28T08:30:54Z</time>
      </trkpt>
      <trkpt lat="45.75191" lon="4.6079">
        <ele>699</ele>
        <time>2012-05-28T08:31:01Z</time>
      </trkpt>
      <trkpt lat="45.75201" lon="4.60793">
        <ele>699</ele>
        <time>2012-05-28T08:31:05Z</time>
      </trkpt>
      <trkpt lat="45.75211" lon="4.608">
        <ele>699</ele>
        <time>2012-05-28T08:31:09Z</time>
      </trkpt>
      <trkpt lat="45.75216" lon="4.60808">
        <ele>699</ele>
        <time>2012-05-28T08:31:12Z</time>
      </trkpt>
      <trkpt lat="45.75222" lon="4.60824">
        <ele>699</ele>
        <time>2012-05-28T08:31:18Z</time>
      </trkpt>
      <trkpt lat="45.75237" lon="4.60838">
        <ele>699</ele>
        <time>2012-05-28T08:31:25Z</time>
      </trkpt>
      <trkpt lat="45.75251" lon="4.60856">
        <ele>699</ele>
        <time>2012-05-28T08:31:31Z</time>
      </trkpt>
      <trkpt lat="45.75259" lon="4.60874">
        <ele>699</ele>
        <time>2012-05-28T08:31:35Z</time>
      </trkpt>
      <trkpt lat="45.75263" lon="4.60879">
        <ele>699</ele>
        <time>2012-05-28T08:31:37Z</time>
      </trkpt>
      <trkpt lat="45.75273" lon="4.60908">
        <ele>700</ele>
        <time>2012-05-28T08:31:43Z</time>
      </trkpt>
      <trkpt lat="45.75287" lon="4.60937">
        <ele>702</ele>
        <time>2012-05-28T08:31:50Z</time>
      </trkpt>
      <trkpt lat="45.753" lon="4.60954">
        <ele>702</ele>
        <time>2012-05-28T08:31:55Z</time>
      </trkpt>
      <trkpt lat="45.75306" lon="4.60963">
        <ele>703</ele>
        <time>2012-05-28T08:31:57Z</time>
      </trkpt>
      <trkpt lat="45.75318" lon="4.60985">
        <ele>702</ele>
        <time>2012-05-28T08:32:02Z</time>
      </trkpt>
      <trkpt lat="45.75337" lon="4.61003">
        <ele>702</ele>
        <time>2012-05-28T08:32:07Z</time>
      </trkpt>
      <trkpt lat="45.7534" lon="4.61004">
        <ele>702</ele>
        <time>2012-05-28T08:32:08Z</time>
      </trkpt>
      <trkpt lat="45.75359" lon="4.61016">
        <ele>700</ele>
        <time>2012-05-28T08:32:12Z</time>
      </trkpt>
      <trkpt lat="45.75365" lon="4.61016">
        <ele>699</ele>
        <time>2012-05-28T08:32:13Z</time>
      </trkpt>
      <trkpt lat="45.75372" lon="4.61014">
        <ele>698</ele>
        <time>2012-05-28T08:32:14Z</time>
      </trkpt>
      <trkpt lat="45.75379" lon="4.61014">
        <ele>697</ele>
        <time>2012-05-28T08:32:15Z</time>
      </trkpt>
      <trkpt lat="45.75387" lon="4.61015">
        <ele>697</ele>
        <time>2012-05-28T08:32:16Z</time>
      </trkpt>
      <trkpt lat="45.75394" lon="4.61016">
        <ele>696</ele>
        <time>2012-05-28T08:32:17Z</time>
      </trkpt>
      <trkpt lat="45.75401" lon="4.61019">
        <ele>696</ele>
        <time>2012-05-28T08:32:18Z</time>
      </trkpt>
      <trkpt lat="45.75408" lon="4.61021">
        <ele>695</ele>
        <time>2012-05-28T08:32:19Z</time>
      </trkpt>
      <trkpt lat="45.75411" lon="4.61022">
        <ele>694</ele>
        <time>2012-05-28T08:32:20Z</time>
      </trkpt>
      <trkpt lat="45.75421" lon="4.61024">
        <ele>694</ele>
        <time>2012-05-28T08:32:21Z</time>
      </trkpt>
      <trkpt lat="45.75426" lon="4.61027">
        <ele>694</ele>
        <time>2012-05-28T08:32:22Z</time>
      </trkpt>
      <trkpt lat="45.75431" lon="4.6103">
        <ele>694</ele>
        <time>2012-05-28T08:32:23Z</time>
      </trkpt>
      <trkpt lat="45.75446" lon="4.61039">
        <ele>695</ele>
        <time>2012-05-28T08:32:27Z</time>
      </trkpt>
      <trkpt lat="45.75454" lon="4.61042">
        <ele>695</ele>
        <time>2012-05-28T08:32:30Z</time>
      </trkpt>
      <trkpt lat="45.75457" lon="4.61044">
        <ele>696</ele>
        <time>2012-05-28T08:32:31Z</time>
      </trkpt>
      <trkpt lat="45.75466" lon="4.6105">
        <ele>697</ele>
        <time>2012-05-28T08:32:36Z</time>
      </trkpt>
      <trkpt lat="45.75481" lon="4.6106">
        <ele>699</ele>
        <time>2012-05-28T08:32:44Z</time>
      </trkpt>
      <trkpt lat="45.75493" lon="4.61068">
        <ele>699</ele>
        <time>2012-05-28T08:32:50Z</time>
      </trkpt>
      <trkpt lat="45.75495" lon="4.61069">
        <ele>699</ele>
        <time>2012-05-28T08:32:51Z</time>
      </trkpt>
      <trkpt lat="45.75496" lon="4.61071">
        <ele>700</ele>
        <time>2012-05-28T08:32:52Z</time>
      </trkpt>
      <trkpt lat="45.75498" lon="4.61073">
        <ele>700</ele>
        <time>2012-05-28T08:32:53Z</time>
      </trkpt>
      <trkpt lat="45.75499" lon="4.61073">
        <ele>701</ele>
        <time>2012-05-28T08:32:54Z</time>
      </trkpt>
      <trkpt lat="45.75501" lon="4.61075">
        <ele>701</ele>
        <time>2012-05-28T08:32:55Z</time>
      </trkpt>
      <trkpt lat="45.75509" lon="4.61081">
        <ele>702</ele>
        <time>2012-05-28T08:33:00Z</time>
      </trkpt>
      <trkpt lat="45.7551" lon="4.61082">
        <ele>702</ele>
        <time>2012-05-28T08:33:01Z</time>
      </trkpt>
      <trkpt lat="45.75513" lon="4.61083">
        <ele>703</ele>
        <time>2012-05-28T08:33:03Z</time>
      </trkpt>
      <trkpt lat="45.75515" lon="4.61085">
        <ele>703</ele>
        <time>2012-05-28T08:33:04Z</time>
      </trkpt>
      <trkpt lat="45.75527" lon="4.61094">
        <ele>703</ele>
        <time>2012-05-28T08:33:12Z</time>
      </trkpt>
      <trkpt lat="45.75536" lon="4.611">
        <ele>703</ele>
        <time>2012-05-28T08:33:18Z</time>
      </trkpt>
      <trkpt lat="45.75538" lon="4.61103">
        <ele>704</ele>
        <time>2012-05-28T08:33:20Z</time>
      </trkpt>
      <trkpt lat="45.75541" lon="4.61105">
        <ele>703</ele>
        <time>2012-05-28T08:33:23Z</time>
      </trkpt>
      <trkpt lat="45.75549" lon="4.61113">
        <ele>704</ele>
        <time>2012-05-28T08:33:28Z</time>
      </trkpt>
      <trkpt lat="45.75552" lon="4.61115">
        <ele>704</ele>
        <time>2012-05-28T08:33:29Z</time>
      </trkpt>
      <trkpt lat="45.75554" lon="4.61117">
        <ele>704</ele>
        <time>2012-05-28T08:33:30Z</time>
      </trkpt>
      <trkpt lat="45.75555" lon="4.61119">
        <ele>704</ele>
        <time>2012-05-28T08:33:31Z</time>
      </trkpt>
      <trkpt lat="45.75557" lon="4.61121">
        <ele>704</ele>
        <time>2012-05-28T08:33:32Z</time>
      </trkpt>
      <trkpt lat="45.75558" lon="4.61122">
        <ele>704</ele>
        <time>2012-05-28T08:33:33Z</time>
      </trkpt>
      <trkpt lat="45.75559" lon="4.61124">
        <ele>704</ele>
        <time>2012-05-28T08:33:34Z</time>
      </trkpt>
      <trkpt lat="45.75561" lon="4.61125">
        <ele>704</ele>
        <time>2012-05-28T08:33:35Z</time>
      </trkpt>
      <trkpt lat="45.75562" lon="4.61126">
        <ele>704</ele>
        <time>2012-05-28T08:33:36Z</time>
      </trkpt>
      <trkpt lat="45.75564" lon="4.61127">
        <ele>704</ele>
        <time>2012-05-28T08:33:37Z</time>
      </trkpt>
      <trkpt lat="45.75565" lon="4.61129">
        <ele>704</ele>
        <time>2012-05-28T08:33:38Z</time>
      </trkpt>
      <trkpt lat="45.75566" lon="4.6113">
        <ele>704</ele>
        <time>2012-05-28T08:33:39Z</time>
      </trkpt>
      <trkpt lat="45.75568" lon="4.61131">
        <ele>704</ele>
        <time>2012-05-28T08:33:40Z</time>
      </trkpt>
      <trkpt lat="45.75577" lon="4.61142">
        <ele>705</ele>
        <time>2012-05-28T08:33:47Z</time>
      </trkpt>
      <trkpt lat="45.75592" lon="4.6116">
        <ele>705</ele>
        <time>2012-05-28T08:33:55Z</time>
      </trkpt>
      <trkpt lat="45.75604" lon="4.61173">
        <ele>706</ele>
        <time>2012-05-28T08:34:01Z</time>
      </trkpt>
      <trkpt lat="45.75614" lon="4.61183">
        <ele>707</ele>
        <time>2012-05-28T08:34:07Z</time>
      </trkpt>
      <trkpt lat="45.75619" lon="4.61193">
        <ele>707</ele>
        <time>2012-05-28T08:34:13Z</time>
      </trkpt>
      <trkpt lat="45.7562" lon="4.61194">
        <ele>707</ele>
        <time>2012-05-28T08:34:14Z</time>
      </trkpt>
      <trkpt lat="45.75623" lon="4.61195">
        <ele>707</ele>
        <time>2012-05-28T08:34:15Z</time>
      </trkpt>
      <trkpt lat="45.75632" lon="4.61206">
        <ele>708</ele>
        <time>2012-05-28T08:34:21Z</time>
      </trkpt>
      <trkpt lat="45.7564" lon="4.61213">
        <ele>708</ele>
        <time>2012-05-28T08:34:25Z</time>
      </trkpt>
      <trkpt lat="45.75642" lon="4.61215">
        <ele>709</ele>
        <time>2012-05-28T08:34:26Z</time>
      </trkpt>
      <trkpt lat="45.75644" lon="4.61218">
        <ele>709</ele>
        <time>2012-05-28T08:34:27Z</time>
      </trkpt>
      <trkpt lat="45.75646" lon="4.6122">
        <ele>709</ele>
        <time>2012-05-28T08:34:28Z</time>
      </trkpt>
      <trkpt lat="45.75648" lon="4.61222">
        <ele>709</ele>
        <time>2012-05-28T08:34:29Z</time>
      </trkpt>
      <trkpt lat="45.75661" lon="4.61242">
        <ele>709</ele>
        <time>2012-05-28T08:34:37Z</time>
      </trkpt>
      <trkpt lat="45.75671" lon="4.6126">
        <ele>711</ele>
        <time>2012-05-28T08:34:44Z</time>
      </trkpt>
      <trkpt lat="45.75682" lon="4.61278">
        <ele>711</ele>
        <time>2012-05-28T08:34:52Z</time>
      </trkpt>
      <trkpt lat="45.75685" lon="4.61283">
        <ele>711</ele>
        <time>2012-05-28T08:34:54Z</time>
      </trkpt>
      <trkpt lat="45.75686" lon="4.61284">
        <ele>712</ele>
        <time>2012-05-28T08:34:55Z</time>
      </trkpt>
      <trkpt lat="45.75698" lon="4.61299">
        <ele>713</ele>
        <time>2012-05-28T08:35:03Z</time>
      </trkpt>
      <trkpt lat="45.75704" lon="4.61313">
        <ele>714</ele>
        <time>2012-05-28T08:35:10Z</time>
      </trkpt>
      <trkpt lat="45.75706" lon="4.61318">
        <ele>714</ele>
        <time>2012-05-28T08:35:12Z</time>
      </trkpt>
      <trkpt lat="45.75708" lon="4.6132">
        <ele>714</ele>
        <time>2012-05-28T08:35:13Z</time>
      </trkpt>
      <trkpt lat="45.75709" lon="4.61322">
        <ele>714</ele>
        <time>2012-05-28T08:35:14Z</time>
      </trkpt>
      <trkpt lat="45.75718" lon="4.61338">
        <ele>716</ele>
        <time>2012-05-28T08:35:22Z</time>
      </trkpt>
      <trkpt lat="45.75719" lon="4.6134">
        <ele>716</ele>
        <time>2012-05-28T08:35:23Z</time>
      </trkpt>
      <trkpt lat="45.7572" lon="4.61343">
        <ele>716</ele>
        <time>2012-05-28T08:35:24Z</time>
      </trkpt>
      <trkpt lat="45.75724" lon="4.61355">
        <ele>716</ele>
        <time>2012-05-28T08:35:29Z</time>
      </trkpt>
      <trkpt lat="45.75725" lon="4.61357">
        <ele>717</ele>
        <time>2012-05-28T08:35:30Z</time>
      </trkpt>
      <trkpt lat="45.75726" lon="4.61359">
        <ele>716</ele>
        <time>2012-05-28T08:35:31Z</time>
      </trkpt>
      <trkpt lat="45.75726" lon="4.6136">
        <ele>716</ele>
        <time>2012-05-28T08:35:32Z</time>
      </trkpt>
      <trkpt lat="45.75727" lon="4.61362">
        <ele>717</ele>
        <time>2012-05-28T08:35:33Z</time>
      </trkpt>
      <trkpt lat="45.75727" lon="4.61364">
        <ele>717</ele>
        <time>2012-05-28T08:35:34Z</time>
      </trkpt>
      <trkpt lat="45.75727" lon="4.61366">
        <ele>717</ele>
        <time>2012-05-28T08:35:36Z</time>
      </trkpt>
      <trkpt lat="45.75728" lon="4.61367">
        <ele>717</ele>
        <time>2012-05-28T08:35:37Z</time>
      </trkpt>
      <trkpt lat="45.75728" lon="4.61369">
        <ele>717</ele>
        <time>2012-05-28T08:35:38Z</time>
      </trkpt>
      <trkpt lat="45.7573" lon="4.61374">
        <ele>717</ele>
        <time>2012-05-28T08:35:40Z</time>
      </trkpt>
      <trkpt lat="45.75731" lon="4.61378">
        <ele>717</ele>
        <time>2012-05-28T08:35:41Z</time>
      </trkpt>
      <trkpt lat="45.75731" lon="4.61389">
        <ele>717</ele>
        <time>2012-05-28T08:35:46Z</time>
      </trkpt>
      <trkpt lat="45.7573" lon="4.61409">
        <ele>718</ele>
        <time>2012-05-28T08:35:53Z</time>
      </trkpt>
      <trkpt lat="45.75731" lon="4.61419">
        <ele>718</ele>
        <time>2012-05-28T08:35:56Z</time>
      </trkpt>
      <trkpt lat="45.7573" lon="4.61422">
        <ele>718</ele>
        <time>2012-05-28T08:35:57Z</time>
      </trkpt>
      <trkpt lat="45.75731" lon="4.61425">
        <ele>718</ele>
        <time>2012-05-28T08:35:58Z</time>
      </trkpt>
      <trkpt lat="45.7573" lon="4.61448">
        <ele>719</ele>
        <time>2012-05-28T08:36:06Z</time>
      </trkpt>
      <trkpt lat="45.7573" lon="4.6145">
        <ele>719</ele>
        <time>2012-05-28T08:36:07Z</time>
      </trkpt>
      <trkpt lat="45.75729" lon="4.61453">
        <ele>719</ele>
        <time>2012-05-28T08:36:08Z</time>
      </trkpt>
      <trkpt lat="45.75728" lon="4.61455">
        <ele>720</ele>
        <time>2012-05-28T08:36:09Z</time>
      </trkpt>
      <trkpt lat="45.75728" lon="4.61457">
        <ele>720</ele>
        <time>2012-05-28T08:36:10Z</time>
      </trkpt>
      <trkpt lat="45.75727" lon="4.6146">
        <ele>720</ele>
        <time>2012-05-28T08:36:11Z</time>
      </trkpt>
      <trkpt lat="45.75725" lon="4.61475">
        <ele>721</ele>
        <time>2012-05-28T08:36:17Z</time>
      </trkpt>
      <trkpt lat="45.75723" lon="4.61489">
        <ele>723</ele>
        <time>2012-05-28T08:36:24Z</time>
      </trkpt>
      <trkpt lat="45.75723" lon="4.61491">
        <ele>723</ele>
        <time>2012-05-28T08:36:25Z</time>
      </trkpt>
      <trkpt lat="45.75719" lon="4.61508">
        <ele>724</ele>
        <time>2012-05-28T08:36:33Z</time>
      </trkpt>
      <trkpt lat="45.75718" lon="4.61524">
        <ele>725</ele>
        <time>2012-05-28T08:36:40Z</time>
      </trkpt>
      <trkpt lat="45.75716" lon="4.61535">
        <ele>726</ele>
        <time>2012-05-28T08:36:45Z</time>
      </trkpt>
      <trkpt lat="45.75716" lon="4.61537">
        <ele>726</ele>
        <time>2012-05-28T08:36:46Z</time>
      </trkpt>
      <trkpt lat="45.75714" lon="4.61548">
        <ele>728</ele>
        <time>2012-05-28T08:36:52Z</time>
      </trkpt>
      <trkpt lat="45.75714" lon="4.61566">
        <ele>729</ele>
        <time>2012-05-28T08:37:00Z</time>
      </trkpt>
      <trkpt lat="45.75715" lon="4.61582">
        <ele>731</ele>
        <time>2012-05-28T08:37:07Z</time>
      </trkpt>
      <trkpt lat="45.75715" lon="4.61599">
        <ele>732</ele>
        <time>2012-05-28T08:37:15Z</time>
      </trkpt>
      <trkpt lat="45.75713" lon="4.61614">
        <ele>733</ele>
        <time>2012-05-28T08:37:22Z</time>
      </trkpt>
      <trkpt lat="45.75712" lon="4.61625">
        <ele>735</ele>
        <time>2012-05-28T08:37:27Z</time>
      </trkpt>
      <trkpt lat="45.75711" lon="4.61626">
        <ele>735</ele>
        <time>2012-05-28T08:37:28Z</time>
      </trkpt>
      <trkpt lat="45.75711" lon="4.6163">
        <ele>736</ele>
        <time>2012-05-28T08:37:30Z</time>
      </trkpt>
      <trkpt lat="45.75711" lon="4.61632">
        <ele>736</ele>
        <time>2012-05-28T08:37:31Z</time>
      </trkpt>
      <trkpt lat="45.7571" lon="4.61635">
        <ele>736</ele>
        <time>2012-05-28T08:37:32Z</time>
      </trkpt>
      <trkpt lat="45.75709" lon="4.61638">
        <ele>736</ele>
        <time>2012-05-28T08:37:33Z</time>
      </trkpt>
      <trkpt lat="45.75709" lon="4.6164">
        <ele>736</ele>
        <time>2012-05-28T08:37:34Z</time>
      </trkpt>
      <trkpt lat="45.75708" lon="4.61643">
        <ele>736</ele>
        <time>2012-05-28T08:37:35Z</time>
      </trkpt>
      <trkpt lat="45.75708" lon="4.61646">
        <ele>736</ele>
        <time>2012-05-28T08:37:36Z</time>
      </trkpt>
      <trkpt lat="45.75708" lon="4.61648">
        <ele>736</ele>
        <time>2012-05-28T08:37:37Z</time>
      </trkpt>
      <trkpt lat="45.75706" lon="4.61666">
        <ele>738</ele>
        <time>2012-05-28T08:37:44Z</time>
      </trkpt>
      <trkpt lat="45.75705" lon="4.61667">
        <ele>739</ele>
        <time>2012-05-28T08:37:45Z</time>
      </trkpt>
      <trkpt lat="45.75703" lon="4.61668">
        <ele>739</ele>
        <time>2012-05-28T08:37:46Z</time>
      </trkpt>
      <trkpt lat="45.75702" lon="4.61669">
        <ele>740</ele>
        <time>2012-05-28T08:37:47Z</time>
      </trkpt>
      <trkpt lat="45.75701" lon="4.61669">
        <ele>740</ele>
        <time>2012-05-28T08:37:48Z</time>
      </trkpt>
      <trkpt lat="45.757" lon="4.6167">
        <ele>740</ele>
        <time>2012-05-28T08:37:49Z</time>
      </trkpt>
      <trkpt lat="45.75693" lon="4.61672">
        <ele>742</ele>
        <time>2012-05-28T08:37:53Z</time>
      </trkpt>
      <trkpt lat="45.75689" lon="4.61666">
        <ele>743</ele>
        <time>2012-05-28T08:37:58Z</time>
      </trkpt>
      <trkpt lat="45.75684" lon="4.61655">
        <ele>744</ele>
        <time>2012-05-28T08:38:06Z</time>
      </trkpt>
      <trkpt lat="45.75683" lon="4.61654">
        <ele>743</ele>
        <time>2012-05-28T08:38:07Z</time>
      </trkpt>
      <trkpt lat="45.75681" lon="4.61648">
        <ele>744</ele>
        <time>2012-05-28T08:38:11Z</time>
      </trkpt>
      <trkpt lat="45.75676" lon="4.61637">
        <ele>745</ele>
        <time>2012-05-28T08:38:18Z</time>
      </trkpt>
      <trkpt lat="45.75675" lon="4.61635">
        <ele>745</ele>
        <time>2012-05-28T08:38:19Z</time>
      </trkpt>
      <trkpt lat="45.75674" lon="4.61626">
        <ele>747</ele>
        <time>2012-05-28T08:38:24Z</time>
      </trkpt>
      <trkpt lat="45.75669" lon="4.61616">
        <ele>747</ele>
        <time>2012-05-28T08:38:31Z</time>
      </trkpt>
      <trkpt lat="45.75668" lon="4.61615">
        <ele>747</ele>
        <time>2012-05-28T08:38:32Z</time>
      </trkpt>
      <trkpt lat="45.75667" lon="4.61614">
        <ele>747</ele>
        <time>2012-05-28T08:38:33Z</time>
      </trkpt>
      <trkpt lat="45.75666" lon="4.61613">
        <ele>748</ele>
        <time>2012-05-28T08:38:34Z</time>
      </trkpt>
      <trkpt lat="45.75665" lon="4.61612">
        <ele>747</ele>
        <time>2012-05-28T08:38:35Z</time>
      </trkpt>
      <trkpt lat="45.75664" lon="4.61611">
        <ele>748</ele>
        <time>2012-05-28T08:38:36Z</time>
      </trkpt>
      <trkpt lat="45.75663" lon="4.6161">
        <ele>748</ele>
        <time>2012-05-28T08:38:37Z</time>
      </trkpt>
      <trkpt lat="45.75662" lon="4.61609">
        <ele>748</ele>
        <time>2012-05-28T08:38:38Z</time>
      </trkpt>
      <trkpt lat="45.75653" lon="4.61602">
        <ele>750</ele>
        <time>2012-05-28T08:38:46Z</time>
      </trkpt>
      <trkpt lat="45.7565" lon="4.61603">
        <ele>750</ele>
        <time>2012-05-28T08:38:48Z</time>
      </trkpt>
      <trkpt lat="45.75648" lon="4.61605">
        <ele>750</ele>
        <time>2012-05-28T08:38:50Z</time>
      </trkpt>
      <trkpt lat="45.75647" lon="4.61607">
        <ele>751</ele>
        <time>2012-05-28T08:38:51Z</time>
      </trkpt>
      <trkpt lat="45.75648" lon="4.61609">
        <ele>750</ele>
        <time>2012-05-28T08:38:52Z</time>
      </trkpt>
      <trkpt lat="45.75648" lon="4.61611">
        <ele>751</ele>
        <time>2012-05-28T08:38:53Z</time>
      </trkpt>
      <trkpt lat="45.75648" lon="4.61613">
        <ele>751</ele>
        <time>2012-05-28T08:38:54Z</time>
      </trkpt>
      <trkpt lat="45.75649" lon="4.61623">
        <ele>751</ele>
        <time>2012-05-28T08:39:00Z</time>
      </trkpt>
      <trkpt lat="45.75649" lon="4.61625">
        <ele>752</ele>
        <time>2012-05-28T08:39:01Z</time>
      </trkpt>
      <trkpt lat="45.75648" lon="4.61627">
        <ele>752</ele>
        <time>2012-05-28T08:39:02Z</time>
      </trkpt>
      <trkpt lat="45.75648" lon="4.61629">
        <ele>752</ele>
        <time>2012-05-28T08:39:03Z</time>
      </trkpt>
      <trkpt lat="45.75648" lon="4.61631">
        <ele>752</ele>
        <time>2012-05-28T08:39:04Z</time>
      </trkpt>
      <trkpt lat="45.75647" lon="4.61632">
        <ele>752</ele>
        <time>2012-05-28T08:39:05Z</time>
      </trkpt>
      <trkpt lat="45.75647" lon="4.61634">
        <ele>752</ele>
        <time>2012-05-28T08:39:06Z</time>
      </trkpt>
      <trkpt lat="45.75646" lon="4.61636">
        <ele>753</ele>
        <time>2012-05-28T08:39:07Z</time>
      </trkpt>
      <trkpt lat="45.75643" lon="4.61646">
        <ele>754</ele>
        <time>2012-05-28T08:39:12Z</time>
      </trkpt>
      <trkpt lat="45.75641" lon="4.61657">
        <ele>755</ele>
        <time>2012-05-28T08:39:18Z</time>
      </trkpt>
      <trkpt lat="45.75637" lon="4.61671">
        <ele>755</ele>
        <time>2012-05-28T08:39:24Z</time>
      </trkpt>
      <trkpt lat="45.75637" lon="4.61673">
        <ele>755</ele>
        <time>2012-05-28T08:39:25Z</time>
      </trkpt>
      <trkpt lat="45.75637" lon="4.61676">
        <ele>755</ele>
        <time>2012-05-28T08:39:26Z</time>
      </trkpt>
      <trkpt lat="45.75637" lon="4.61678">
        <ele>755</ele>
        <time>2012-05-28T08:39:27Z</time>
      </trkpt>
      <trkpt lat="45.75636" lon="4.6168">
        <ele>756</ele>
        <time>2012-05-28T08:39:28Z</time>
      </trkpt>
      <trkpt lat="45.75635" lon="4.61682">
        <ele>756</ele>
        <time>2012-05-28T08:39:29Z</time>
      </trkpt>
      <trkpt lat="45.75634" lon="4.61684">
        <ele>755</ele>
        <time>2012-05-28T08:39:30Z</time>
      </trkpt>
      <trkpt lat="45.75624" lon="4.617">
        <ele>756</ele>
        <time>2012-05-28T08:39:39Z</time>
      </trkpt>
      <trkpt lat="45.75623" lon="4.61702">
        <ele>756</ele>
        <time>2012-05-28T08:39:40Z</time>
      </trkpt>
      <trkpt lat="45.75622" lon="4.61704">
        <ele>756</ele>
        <time>2012-05-28T08:39:41Z</time>
      </trkpt>
      <trkpt lat="45.7562" lon="4.61718">
        <ele>757</ele>
        <time>2012-05-28T08:39:46Z</time>
      </trkpt>
      <trkpt lat="45.7562" lon="4.6172">
        <ele>757</ele>
        <time>2012-05-28T08:39:47Z</time>
      </trkpt>
      <trkpt lat="45.75621" lon="4.61723">
        <ele>756</ele>
        <time>2012-05-28T08:39:48Z</time>
      </trkpt>
      <trkpt lat="45.75621" lon="4.61725">
        <ele>756</ele>
        <time>2012-05-28T08:39:49Z</time>
      </trkpt>
      <trkpt lat="45.75621" lon="4.61728">
        <ele>757</ele>
        <time>2012-05-28T08:39:50Z</time>
      </trkpt>
      <trkpt lat="45.75621" lon="4.61731">
        <ele>757</ele>
        <time>2012-05-28T08:39:51Z</time>
      </trkpt>
      <trkpt lat="45.75621" lon="4.61733">
        <ele>757</ele>
        <time>2012-05-28T08:39:52Z</time>
      </trkpt>
      <trkpt lat="45.75623" lon="4.6175">
        <ele>757</ele>
        <time>2012-05-28T08:39:58Z</time>
      </trkpt>
      <trkpt lat="45.75625" lon="4.6177">
        <ele>757</ele>
        <time>2012-05-28T08:40:05Z</time>
      </trkpt>
      <trkpt lat="45.75628" lon="4.61788">
        <ele>757</ele>
        <time>2012-05-28T08:40:11Z</time>
      </trkpt>
      <trkpt lat="45.75627" lon="4.61791">
        <ele>757</ele>
        <time>2012-05-28T08:40:12Z</time>
      </trkpt>
      <trkpt lat="45.75626" lon="4.61793">
        <ele>757</ele>
        <time>2012-05-28T08:40:13Z</time>
      </trkpt>
      <trkpt lat="45.75626" lon="4.61796">
        <ele>758</ele>
        <time>2012-05-28T08:40:14Z</time>
      </trkpt>
      <trkpt lat="45.75627" lon="4.61798">
        <ele>757</ele>
        <time>2012-05-28T08:40:15Z</time>
      </trkpt>
      <trkpt lat="45.75628" lon="4.618">
        <ele>758</ele>
        <time>2012-05-28T08:40:16Z</time>
      </trkpt>
      <trkpt lat="45.75629" lon="4.61801">
        <ele>758</ele>
        <time>2012-05-28T08:40:17Z</time>
      </trkpt>
      <trkpt lat="45.7563" lon="4.61803">
        <ele>758</ele>
        <time>2012-05-28T08:40:18Z</time>
      </trkpt>
      <trkpt lat="45.7563" lon="4.61805">
        <ele>759</ele>
        <time>2012-05-28T08:40:19Z</time>
      </trkpt>
      <trkpt lat="45.75631" lon="4.61807">
        <ele>759</ele>
        <time>2012-05-28T08:40:20Z</time>
      </trkpt>
      <trkpt lat="45.75633" lon="4.6182">
        <ele>759</ele>
        <time>2012-05-28T08:40:26Z</time>
      </trkpt>
      <trkpt lat="45.75633" lon="4.61822">
        <ele>760</ele>
        <time>2012-05-28T08:40:27Z</time>
      </trkpt>
      <trkpt lat="45.75633" lon="4.61825">
        <ele>760</ele>
        <time>2012-05-28T08:40:28Z</time>
      </trkpt>
      <trkpt lat="45.75634" lon="4.61828">
        <ele>760</ele>
        <time>2012-05-28T08:40:29Z</time>
      </trkpt>
      <trkpt lat="45.75635" lon="4.6183">
        <ele>760</ele>
        <time>2012-05-28T08:40:30Z</time>
      </trkpt>
      <trkpt lat="45.75635" lon="4.61833">
        <ele>760</ele>
        <time>2012-05-28T08:40:31Z</time>
      </trkpt>
      <trkpt lat="45.75636" lon="4.61836">
        <ele>760</ele>
        <time>2012-05-28T08:40:32Z</time>
      </trkpt>
      <trkpt lat="45.75637" lon="4.61838">
        <ele>760</ele>
        <time>2012-05-28T08:40:33Z</time>
      </trkpt>
      <trkpt lat="45.75639" lon="4.61844">
        <ele>761</ele>
        <time>2012-05-28T08:40:35Z</time>
      </trkpt>
      <trkpt lat="45.7564" lon="4.61847">
        <ele>761</ele>
        <time>2012-05-28T08:40:36Z</time>
      </trkpt>
      <trkpt lat="45.75641" lon="4.61849">
        <ele>761</ele>
        <time>2012-05-28T08:40:37Z</time>
      </trkpt>
      <trkpt lat="45.75642" lon="4.61852">
        <ele>761</ele>
        <time>2012-05-28T08:40:38Z</time>
      </trkpt>
      <trkpt lat="45.75643" lon="4.61854">
        <ele>761</ele>
        <time>2012-05-28T08:40:39Z</time>
      </trkpt>
      <trkpt lat="45.75644" lon="4.61857">
        <ele>761</ele>
        <time>2012-05-28T08:40:40Z</time>
      </trkpt>
      <trkpt lat="45.75645" lon="4.61859">
        <ele>761</ele>
        <time>2012-05-28T08:40:41Z</time>
      </trkpt>
      <trkpt lat="45.75647" lon="4.61862">
        <ele>761</ele>
        <time>2012-05-28T08:40:42Z</time>
      </trkpt>
      <trkpt lat="45.75648" lon="4.61864">
        <ele>761</ele>
        <time>2012-05-28T08:40:43Z</time>
      </trkpt>
      <trkpt lat="45.75648" lon="4.61867">
        <ele>761</ele>
        <time>2012-05-28T08:40:44Z</time>
      </trkpt>
      <trkpt lat="45.7565" lon="4.61869">
        <ele>761</ele>
        <time>2012-05-28T08:40:45Z</time>
      </trkpt>
      <trkpt lat="45.75655" lon="4.61887">
        <ele>762</ele>
        <time>2012-05-28T08:40:52Z</time>
      </trkpt>
      <trkpt lat="45.75655" lon="4.61889">
        <ele>762</ele>
        <time>2012-05-28T08:40:53Z</time>
      </trkpt>
      <trkpt lat="45.75655" lon="4.61891">
        <ele>762</ele>
        <time>2012-05-28T08:40:54Z</time>
      </trkpt>
      <trkpt lat="45.75656" lon="4.61894">
        <ele>762</ele>
        <time>2012-05-28T08:40:55Z</time>
      </trkpt>
      <trkpt lat="45.75656" lon="4.61897">
        <ele>763</ele>
        <time>2012-05-28T08:40:56Z</time>
      </trkpt>
      <trkpt lat="45.75657" lon="4.619">
        <ele>763</ele>
        <time>2012-05-28T08:40:57Z</time>
      </trkpt>
      <trkpt lat="45.75659" lon="4.61905">
        <ele>763</ele>
        <time>2012-05-28T08:40:59Z</time>
      </trkpt>
      <trkpt lat="45.75661" lon="4.61909">
        <ele>763</ele>
        <time>2012-05-28T08:41:01Z</time>
      </trkpt>
      <trkpt lat="45.75661" lon="4.61912">
        <ele>763</ele>
        <time>2012-05-28T08:41:02Z</time>
      </trkpt>
      <trkpt lat="45.75662" lon="4.61913">
        <ele>763</ele>
        <time>2012-05-28T08:41:03Z</time>
      </trkpt>
      <trkpt lat="45.75662" lon="4.61916">
        <ele>763</ele>
        <time>2012-05-28T08:41:04Z</time>
      </trkpt>
      <trkpt lat="45.75663" lon="4.6192">
        <ele>764</ele>
        <time>2012-05-28T08:41:05Z</time>
      </trkpt>
      <trkpt lat="45.75663" lon="4.61924">
        <ele>763</ele>
        <time>2012-05-28T08:41:06Z</time>
      </trkpt>
      <trkpt lat="45.75664" lon="4.61928">
        <ele>764</ele>
        <time>2012-05-28T08:41:07Z</time>
      </trkpt>
      <trkpt lat="45.75666" lon="4.61931">
        <ele>763</ele>
        <time>2012-05-28T08:41:08Z</time>
      </trkpt>
      <trkpt lat="45.75667" lon="4.61935">
        <ele>763</ele>
        <time>2012-05-28T08:41:09Z</time>
      </trkpt>
      <trkpt lat="45.75667" lon="4.61939">
        <ele>763</ele>
        <time>2012-05-28T08:41:10Z</time>
      </trkpt>
      <trkpt lat="45.75668" lon="4.61942">
        <ele>764</ele>
        <time>2012-05-28T08:41:11Z</time>
      </trkpt>
      <trkpt lat="45.75669" lon="4.61945">
        <ele>763</ele>
        <time>2012-05-28T08:41:12Z</time>
      </trkpt>
      <trkpt lat="45.7567" lon="4.61948">
        <ele>764</ele>
        <time>2012-05-28T08:41:13Z</time>
      </trkpt>
      <trkpt lat="45.75671" lon="4.61952">
        <ele>763</ele>
        <time>2012-05-28T08:41:14Z</time>
      </trkpt>
      <trkpt lat="45.75673" lon="4.61974">
        <ele>763</ele>
        <time>2012-05-28T08:41:20Z</time>
      </trkpt>
      <trkpt lat="45.75674" lon="4.61997">
        <ele>763</ele>
        <time>2012-05-28T08:41:26Z</time>
      </trkpt>
      <trkpt lat="45.75675" lon="4.62024">
        <ele>763</ele>
        <time>2012-05-28T08:41:32Z</time>
      </trkpt>
      <trkpt lat="45.75677" lon="4.62048">
        <ele>764</ele>
        <time>2012-05-28T08:41:38Z</time>
      </trkpt>
      <trkpt lat="45.75678" lon="4.62073">
        <ele>764</ele>
        <time>2012-05-28T08:41:44Z</time>
      </trkpt>
      <trkpt lat="45.75678" lon="4.62077">
        <ele>764</ele>
        <time>2012-05-28T08:41:45Z</time>
      </trkpt>
      <trkpt lat="45.75678" lon="4.62081">
        <ele>764</ele>
        <time>2012-05-28T08:41:46Z</time>
      </trkpt>
      <trkpt lat="45.75679" lon="4.62084">
        <ele>764</ele>
        <time>2012-05-28T08:41:47Z</time>
      </trkpt>
      <trkpt lat="45.7568" lon="4.62086">
        <ele>764</ele>
        <time>2012-05-28T08:41:48Z</time>
      </trkpt>
      <trkpt lat="45.75681" lon="4.62089">
        <ele>764</ele>
        <time>2012-05-28T08:41:49Z</time>
      </trkpt>
      <trkpt lat="45.75682" lon="4.62092">
        <ele>764</ele>
        <time>2012-05-28T08:41:50Z</time>
      </trkpt>
      <trkpt lat="45.75682" lon="4.62096">
        <ele>764</ele>
        <time>2012-05-28T08:41:51Z</time>
      </trkpt>
      <trkpt lat="45.75683" lon="4.621">
        <ele>764</ele>
        <time>2012-05-28T08:41:52Z</time>
      </trkpt>
      <trkpt lat="45.75683" lon="4.62105">
        <ele>764</ele>
        <time>2012-05-28T08:41:53Z</time>
      </trkpt>
      <trkpt lat="45.75683" lon="4.6211">
        <ele>764</ele>
        <time>2012-05-28T08:41:54Z</time>
      </trkpt>
      <trkpt lat="45.75683" lon="4.62114">
        <ele>764</ele>
        <time>2012-05-28T08:41:55Z</time>
      </trkpt>
      <trkpt lat="45.75683" lon="4.62118">
        <ele>764</ele>
        <time>2012-05-28T08:41:56Z</time>
      </trkpt>
      <trkpt lat="45.75683" lon="4.62122">
        <ele>764</ele>
        <time>2012-05-28T08:41:57Z</time>
      </trkpt>
      <trkpt lat="45.75684" lon="4.62125">
        <ele>764</ele>
        <time>2012-05-28T08:41:58Z</time>
      </trkpt>
      <trkpt lat="45.75684" lon="4.62129">
        <ele>764</ele>
        <time>2012-05-28T08:41:59Z</time>
      </trkpt>
      <trkpt lat="45.75685" lon="4.62143">
        <ele>765</ele>
        <time>2012-05-28T08:42:03Z</time>
      </trkpt>
      <trkpt lat="45.75685" lon="4.62146">
        <ele>764</ele>
        <time>2012-05-28T08:42:04Z</time>
      </trkpt>
      <trkpt lat="45.75686" lon="4.6215">
        <ele>764</ele>
        <time>2012-05-28T08:42:05Z</time>
      </trkpt>
      <trkpt lat="45.75687" lon="4.62154">
        <ele>765</ele>
        <time>2012-05-28T08:42:06Z</time>
      </trkpt>
      <trkpt lat="45.75688" lon="4.62157">
        <ele>765</ele>
        <time>2012-05-28T08:42:07Z</time>
      </trkpt>
      <trkpt lat="45.7569" lon="4.62159">
        <ele>766</ele>
        <time>2012-05-28T08:42:08Z</time>
      </trkpt>
      <trkpt lat="45.75698" lon="4.62173">
        <ele>767</ele>
        <time>2012-05-28T08:42:13Z</time>
      </trkpt>
      <trkpt lat="45.75699" lon="4.62177">
        <ele>766</ele>
        <time>2012-05-28T08:42:14Z</time>
      </trkpt>
      <trkpt lat="45.757" lon="4.62181">
        <ele>766</ele>
        <time>2012-05-28T08:42:15Z</time>
      </trkpt>
      <trkpt lat="45.75701" lon="4.62185">
        <ele>767</ele>
        <time>2012-05-28T08:42:16Z</time>
      </trkpt>
      <trkpt lat="45.75702" lon="4.62189">
        <ele>767</ele>
        <time>2012-05-28T08:42:17Z</time>
      </trkpt>
      <trkpt lat="45.75703" lon="4.62192">
        <ele>767</ele>
        <time>2012-05-28T08:42:18Z</time>
      </trkpt>
      <trkpt lat="45.75704" lon="4.62196">
        <ele>767</ele>
        <time>2012-05-28T08:42:19Z</time>
      </trkpt>
      <trkpt lat="45.75706" lon="4.622">
        <ele>767</ele>
        <time>2012-05-28T08:42:20Z</time>
      </trkpt>
      <trkpt lat="45.75716" lon="4.62228">
        <ele>768</ele>
        <time>2012-05-28T08:42:27Z</time>
      </trkpt>
      <trkpt lat="45.7573" lon="4.62261">
        <ele>768</ele>
        <time>2012-05-28T08:42:37Z</time>
      </trkpt>
      <trkpt lat="45.75737" lon="4.62283">
        <ele>769</ele>
        <time>2012-05-28T08:42:44Z</time>
      </trkpt>
      <trkpt lat="45.75744" lon="4.62306">
        <ele>770</ele>
        <time>2012-05-28T08:42:51Z</time>
      </trkpt>
      <trkpt lat="45.75752" lon="4.62321">
        <ele>771</ele>
        <time>2012-05-28T08:42:57Z</time>
      </trkpt>
      <trkpt lat="45.75761" lon="4.6233">
        <ele>772</ele>
        <time>2012-05-28T08:43:03Z</time>
      </trkpt>
      <trkpt lat="45.75773" lon="4.62334">
        <ele>774</ele>
        <time>2012-05-28T08:43:11Z</time>
      </trkpt>
      <trkpt lat="45.75776" lon="4.62334">
        <ele>774</ele>
        <time>2012-05-28T08:43:13Z</time>
      </trkpt>
      <trkpt lat="45.75777" lon="4.62335">
        <ele>774</ele>
        <time>2012-05-28T08:43:14Z</time>
      </trkpt>
      <trkpt lat="45.75779" lon="4.62335">
        <ele>774</ele>
        <time>2012-05-28T08:43:15Z</time>
      </trkpt>
      <trkpt lat="45.7578" lon="4.62335">
        <ele>775</ele>
        <time>2012-05-28T08:43:16Z</time>
      </trkpt>
      <trkpt lat="45.75782" lon="4.62335">
        <ele>775</ele>
        <time>2012-05-28T08:43:17Z</time>
      </trkpt>
      <trkpt lat="45.75783" lon="4.62335">
        <ele>775</ele>
        <time>2012-05-28T08:43:18Z</time>
      </trkpt>
      <trkpt lat="45.75785" lon="4.62335">
        <ele>776</ele>
        <time>2012-05-28T08:43:19Z</time>
      </trkpt>
      <trkpt lat="45.75796" lon="4.62339">
        <ele>777</ele>
        <time>2012-05-28T08:43:26Z</time>
      </trkpt>
      <trkpt lat="45.758" lon="4.62342">
        <ele>777</ele>
        <time>2012-05-28T08:43:29Z</time>
      </trkpt>
      <trkpt lat="45.75801" lon="4.62342">
        <ele>778</ele>
        <time>2012-05-28T08:43:30Z</time>
      </trkpt>
      <trkpt lat="45.75803" lon="4.62343">
        <ele>778</ele>
        <time>2012-05-28T08:43:31Z</time>
      </trkpt>
      <trkpt lat="45.75805" lon="4.62344">
        <ele>778</ele>
        <time>2012-05-28T08:43:32Z</time>
      </trkpt>
      <trkpt lat="45.75806" lon="4.62346">
        <ele>778</ele>
        <time>2012-05-28T08:43:33Z</time>
      </trkpt>
      <trkpt lat="45.75808" lon="4.62348">
        <ele>778</ele>
        <time>2012-05-28T08:43:34Z</time>
      </trkpt>
      <trkpt lat="45.75809" lon="4.6235">
        <ele>779</ele>
        <time>2012-05-28T08:43:35Z</time>
      </trkpt>
      <trkpt lat="45.75811" lon="4.62351">
        <ele>778</ele>
        <time>2012-05-28T08:43:36Z</time>
      </trkpt>
      <trkpt lat="45.75812" lon="4.62353">
        <ele>779</ele>
        <time>2012-05-28T08:43:37Z</time>
      </trkpt>
      <trkpt lat="45.75817" lon="4.62356">
        <ele>779</ele>
        <time>2012-05-28T08:43:43Z</time>
      </trkpt>
      <trkpt lat="45.75817" lon="4.62357">
        <ele>779</ele>
        <time>2012-05-28T08:43:50Z</time>
      </trkpt>
      <trkpt lat="45.75817" lon="4.62359">
        <ele>779</ele>
        <time>2012-05-28T08:44:03Z</time>
      </trkpt>
      <trkpt lat="45.75817" lon="4.62359">
        <ele>779</ele>
        <time>2012-05-28T08:44:11Z</time>
      </trkpt>
      <trkpt lat="45.75817" lon="4.62359">
        <ele>779</ele>
        <time>2012-05-28T08:44:20Z</time>
      </trkpt>
      <trkpt lat="45.75817" lon="4.62359">
        <ele>779</ele>
        <time>2012-05-28T08:44:32Z</time>
      </trkpt>
      <trkpt lat="45.75817" lon="4.62358">
        <ele>779</ele>
        <time>2012-05-28T08:44:41Z</time>
      </trkpt>
      <trkpt lat="45.75818" lon="4.62358">
        <ele>779</ele>
        <time>2012-05-28T08:44:53Z</time>
      </trkpt>
      <trkpt lat="45.75818" lon="4.62358">
        <ele>779</ele>
        <time>2012-05-28T08:45:06Z</time>
      </trkpt>
      <trkpt lat="45.75819" lon="4.62358">
        <ele>779</ele>
        <time>2012-05-28T08:45:25Z</time>
      </trkpt>
      <trkpt lat="45.75819" lon="4.62357">
        <ele>779</ele>
        <time>2012-05-28T08:45:39Z</time>
      </trkpt>
      <trkpt lat="45.75818" lon="4.62356">
        <ele>779</ele>
        <time>2012-05-28T08:45:49Z</time>
      </trkpt>
      <trkpt lat="45.75816" lon="4.62357">
        <ele>779</ele>
        <time>2012-05-28T08:46:08Z</time>
      </trkpt>
      <trkpt lat="45.75817" lon="4.62357">
        <ele>779</ele>
        <time>2012-05-28T08:46:16Z</time>
      </trkpt>
      <trkpt lat="45.75819" lon="4.62363">
        <ele>780</ele>
        <time>2012-05-28T08:46:26Z</time>
      </trkpt>
      <trkpt lat="45.7582" lon="4.62364">
        <ele>780</ele>
        <time>2012-05-28T08:46:31Z</time>
      </trkpt>
      <trkpt lat="45.75826" lon="4.62374">
        <ele>781</ele>
        <time>2012-05-28T08:46:39Z</time>
      </trkpt>
      <trkpt lat="45.7583" lon="4.62378">
        <ele>781</ele>
        <time>2012-05-28T08:46:46Z</time>
      </trkpt>
      <trkpt lat="45.75833" lon="4.62381">
        <ele>781</ele>
        <time>2012-05-28T08:46:55Z</time>
      </trkpt>
      <trkpt lat="45.75833" lon="4.62381">
        <ele>781</ele>
        <time>2012-05-28T08:47:02Z</time>
      </trkpt>
      <trkpt lat="45.75834" lon="4.62384">
        <ele>781</ele>
        <time>2012-05-28T08:47:08Z</time>
      </trkpt>
      <trkpt lat="45.75835" lon="4.62385">
        <ele>781</ele>
        <time>2012-05-28T08:47:15Z</time>
      </trkpt>
      <trkpt lat="45.75835" lon="4.62387">
        <ele>781</ele>
        <time>2012-05-28T08:47:24Z</time>
      </trkpt>
      <trkpt lat="45.75836" lon="4.62389">
        <ele>781</ele>
        <time>2012-05-28T08:47:31Z</time>
      </trkpt>
      <trkpt lat="45.75839" lon="4.62397">
        <ele>782</ele>
        <time>2012-05-28T08:47:38Z</time>
      </trkpt>
      <trkpt lat="45.75842" lon="4.62401">
        <ele>783</ele>
        <time>2012-05-28T08:47:45Z</time>
      </trkpt>
      <trkpt lat="45.75844" lon="4.62404">
        <ele>783</ele>
        <time>2012-05-28T08:47:54Z</time>
      </trkpt>
      <trkpt lat="45.75845" lon="4.62405">
        <ele>783</ele>
        <time>2012-05-28T08:48:00Z</time>
      </trkpt>
      <trkpt lat="45.75849" lon="4.62404">
        <ele>783</ele>
        <time>2012-05-28T08:48:07Z</time>
      </trkpt>
      <trkpt lat="45.75852" lon="4.62405">
        <ele>782</ele>
        <time>2012-05-28T08:48:13Z</time>
      </trkpt>
      <trkpt lat="45.75852" lon="4.62406">
        <ele>782</ele>
        <time>2012-05-28T08:48:20Z</time>
      </trkpt>
      <trkpt lat="45.75852" lon="4.62407">
        <ele>783</ele>
        <time>2012-05-28T08:48:38Z</time>
      </trkpt>
      <trkpt lat="45.75853" lon="4.62408">
        <ele>783</ele>
        <time>2012-05-28T08:48:52Z</time>
      </trkpt>
      <trkpt lat="45.75857" lon="4.62411">
        <ele>785</ele>
        <time>2012-05-28T08:48:58Z</time>
      </trkpt>
      <trkpt lat="45.75858" lon="4.62415">
        <ele>784</ele>
        <time>2012-05-28T08:49:05Z</time>
      </trkpt>
      <trkpt lat="45.7586" lon="4.6242">
        <ele>784</ele>
        <time>2012-05-28T08:49:10Z</time>
      </trkpt>
      <trkpt lat="45.75861" lon="4.62422">
        <ele>783</ele>
        <time>2012-05-28T08:49:12Z</time>
      </trkpt>
      <trkpt lat="45.75864" lon="4.62428">
        <ele>783</ele>
        <time>2012-05-28T08:49:17Z</time>
      </trkpt>
      <trkpt lat="45.75867" lon="4.62439">
        <ele>784</ele>
        <time>2012-05-28T08:49:25Z</time>
      </trkpt>
      <trkpt lat="45.75869" lon="4.62443">
        <ele>784</ele>
        <time>2012-05-28T08:49:32Z</time>
      </trkpt>
      <trkpt lat="45.7587" lon="4.62443">
        <ele>784</ele>
        <time>2012-05-28T08:49:40Z</time>
      </trkpt>
      <trkpt lat="45.7587" lon="4.62443">
        <ele>783</ele>
        <time>2012-05-28T08:49:46Z</time>
      </trkpt>
      <trkpt lat="45.75871" lon="4.62443">
        <ele>784</ele>
        <time>2012-05-28T08:49:59Z</time>
      </trkpt>
      <trkpt lat="45.75875" lon="4.62444">
        <ele>782</ele>
        <time>2012-05-28T08:50:05Z</time>
      </trkpt>
      <trkpt lat="45.7588" lon="4.62444">
        <ele>781</ele>
        <time>2012-05-28T08:50:11Z</time>
      </trkpt>
      <trkpt lat="45.75882" lon="4.62443">
        <ele>780</ele>
        <time>2012-05-28T08:50:12Z</time>
      </trkpt>
      <trkpt lat="45.75883" lon="4.62442">
        <ele>780</ele>
        <time>2012-05-28T08:50:13Z</time>
      </trkpt>
      <trkpt lat="45.75888" lon="4.62439">
        <ele>778</ele>
        <time>2012-05-28T08:50:16Z</time>
      </trkpt>
      <trkpt lat="45.75893" lon="4.62437">
        <ele>777</ele>
        <time>2012-05-28T08:50:19Z</time>
      </trkpt>
      <trkpt lat="45.75902" lon="4.62436">
        <ele>775</ele>
        <time>2012-05-28T08:50:26Z</time>
      </trkpt>
      <trkpt lat="45.75908" lon="4.62437">
        <ele>773</ele>
        <time>2012-05-28T08:50:32Z</time>
      </trkpt>
      <trkpt lat="45.75911" lon="4.62436">
        <ele>773</ele>
        <time>2012-05-28T08:50:34Z</time>
      </trkpt>
      <trkpt lat="45.75913" lon="4.62435">
        <ele>772</ele>
        <time>2012-05-28T08:50:37Z</time>
      </trkpt>
      <trkpt lat="45.7592" lon="4.62434">
        <ele>770</ele>
        <time>2012-05-28T08:50:41Z</time>
      </trkpt>
      <trkpt lat="45.75923" lon="4.62434">
        <ele>770</ele>
        <time>2012-05-28T08:50:42Z</time>
      </trkpt>
      <trkpt lat="45.75926" lon="4.62434">
        <ele>769</ele>
        <time>2012-05-28T08:50:43Z</time>
      </trkpt>
      <trkpt lat="45.7593" lon="4.62432">
        <ele>768</ele>
        <time>2012-05-28T08:50:45Z</time>
      </trkpt>
      <trkpt lat="45.75936" lon="4.6243">
        <ele>768</ele>
        <time>2012-05-28T08:50:47Z</time>
      </trkpt>
      <trkpt lat="45.75939" lon="4.62431">
        <ele>767</ele>
        <time>2012-05-28T08:50:48Z</time>
      </trkpt>
      <trkpt lat="45.75941" lon="4.62433">
        <ele>767</ele>
        <time>2012-05-28T08:50:49Z</time>
      </trkpt>
      <trkpt lat="45.75942" lon="4.62435">
        <ele>767</ele>
        <time>2012-05-28T08:50:50Z</time>
      </trkpt>
      <trkpt lat="45.75945" lon="4.62437">
        <ele>767</ele>
        <time>2012-05-28T08:50:56Z</time>
      </trkpt>
      <trkpt lat="45.75946" lon="4.62436">
        <ele>767</ele>
        <time>2012-05-28T08:51:02Z</time>
      </trkpt>
      <trkpt lat="45.75946" lon="4.62437">
        <ele>767</ele>
        <time>2012-05-28T08:51:08Z</time>
      </trkpt>
      <trkpt lat="45.75946" lon="4.62435">
        <ele>767</ele>
        <time>2012-05-28T08:51:18Z</time>
      </trkpt>
      <trkpt lat="45.75944" lon="4.62428">
        <ele>767</ele>
        <time>2012-05-28T08:51:25Z</time>
      </trkpt>
      <trkpt lat="45.75943" lon="4.62427">
        <ele>767</ele>
        <time>2012-05-28T08:51:26Z</time>
      </trkpt>
      <trkpt lat="45.75943" lon="4.62425">
        <ele>767</ele>
        <time>2012-05-28T08:51:27Z</time>
      </trkpt>
      <trkpt lat="45.75943" lon="4.62423">
        <ele>767</ele>
        <time>2012-05-28T08:51:28Z</time>
      </trkpt>
      <trkpt lat="45.75942" lon="4.62422">
        <ele>767</ele>
        <time>2012-05-28T08:51:29Z</time>
      </trkpt>
      <trkpt lat="45.75942" lon="4.6242">
        <ele>767</ele>
        <time>2012-05-28T08:51:30Z</time>
      </trkpt>
      <trkpt lat="45.75943" lon="4.62416">
        <ele>767</ele>
        <time>2012-05-28T08:51:33Z</time>
      </trkpt>
      <trkpt lat="45.75945" lon="4.62414">
        <ele>766</ele>
        <time>2012-05-28T08:51:35Z</time>
      </trkpt>
      <trkpt lat="45.75948" lon="4.62413">
        <ele>766</ele>
        <time>2012-05-28T08:51:37Z</time>
      </trkpt>
      <trkpt lat="45.75949" lon="4.62414">
        <ele>766</ele>
        <time>2012-05-28T08:51:38Z</time>
      </trkpt>
      <trkpt lat="45.75951" lon="4.62416">
        <ele>765</ele>
        <time>2012-05-28T08:51:39Z</time>
      </trkpt>
      <trkpt lat="45.75952" lon="4.62418">
        <ele>765</ele>
        <time>2012-05-28T08:51:40Z</time>
      </trkpt>
      <trkpt lat="45.75953" lon="4.62419">
        <ele>765</ele>
        <time>2012-05-28T08:51:41Z</time>
      </trkpt>
      <trkpt lat="45.75955" lon="4.62419">
        <ele>765</ele>
        <time>2012-05-28T08:51:46Z</time>
      </trkpt>
      <trkpt lat="45.75954" lon="4.62417">
        <ele>765</ele>
        <time>2012-05-28T08:51:56Z</time>
      </trkpt>
      <trkpt lat="45.75954" lon="4.62414">
        <ele>765</ele>
        <time>2012-05-28T08:51:58Z</time>
      </trkpt>
      <trkpt lat="45.75953" lon="4.62413">
        <ele>765</ele>
        <time>2012-05-28T08:52:02Z</time>
      </trkpt>
      <trkpt lat="45.75947" lon="4.62399">
        <ele>765</ele>
        <time>2012-05-28T08:52:07Z</time>
      </trkpt>
      <trkpt lat="45.75939" lon="4.62378">
        <ele>766</ele>
        <time>2012-05-28T08:52:13Z</time>
      </trkpt>
      <trkpt lat="45.75939" lon="4.62376">
        <ele>766</ele>
        <time>2012-05-28T08:52:14Z</time>
      </trkpt>
      <trkpt lat="45.7594" lon="4.62373">
        <ele>765</ele>
        <time>2012-05-28T08:52:15Z</time>
      </trkpt>
      <trkpt lat="45.75942" lon="4.62369">
        <ele>765</ele>
        <time>2012-05-28T08:52:16Z</time>
      </trkpt>
      <trkpt lat="45.75943" lon="4.62364">
        <ele>765</ele>
        <time>2012-05-28T08:52:17Z</time>
      </trkpt>
      <trkpt lat="45.75944" lon="4.62359">
        <ele>763</ele>
        <time>2012-05-28T08:52:18Z</time>
      </trkpt>
      <trkpt lat="45.75944" lon="4.62352">
        <ele>763</ele>
        <time>2012-05-28T08:52:19Z</time>
      </trkpt>
      <trkpt lat="45.75945" lon="4.62347">
        <ele>762</ele>
        <time>2012-05-28T08:52:20Z</time>
      </trkpt>
      <trkpt lat="45.75946" lon="4.62344">
        <ele>761</ele>
        <time>2012-05-28T08:52:21Z</time>
      </trkpt>
      <trkpt lat="45.75947" lon="4.62344">
        <ele>761</ele>
        <time>2012-05-28T08:52:22Z</time>
      </trkpt>
      <trkpt lat="45.75948" lon="4.6235">
        <ele>761</ele>
        <time>2012-05-28T08:52:27Z</time>
      </trkpt>
      <trkpt lat="45.75952" lon="4.62369">
        <ele>761</ele>
        <time>2012-05-28T08:52:32Z</time>
      </trkpt>
      <trkpt lat="45.75958" lon="4.62394">
        <ele>761</ele>
        <time>2012-05-28T08:52:39Z</time>
      </trkpt>
      <trkpt lat="45.75961" lon="4.6242">
        <ele>762</ele>
        <time>2012-05-28T08:52:45Z</time>
      </trkpt>
      <trkpt lat="45.75967" lon="4.62449">
        <ele>762</ele>
        <time>2012-05-28T08:52:52Z</time>
      </trkpt>
      <trkpt lat="45.75974" lon="4.62472">
        <ele>762</ele>
        <time>2012-05-28T08:52:58Z</time>
      </trkpt>
      <trkpt lat="45.75983" lon="4.6249">
        <ele>762</ele>
        <time>2012-05-28T08:53:03Z</time>
      </trkpt>
      <trkpt lat="45.75989" lon="4.62504">
        <ele>761</ele>
        <time>2012-05-28T08:53:06Z</time>
      </trkpt>
      <trkpt lat="45.75991" lon="4.62508">
        <ele>761</ele>
        <time>2012-05-28T08:53:07Z</time>
      </trkpt>
      <trkpt lat="45.75993" lon="4.62512">
        <ele>761</ele>
        <time>2012-05-28T08:53:08Z</time>
      </trkpt>
      <trkpt lat="45.75996" lon="4.62517">
        <ele>761</ele>
        <time>2012-05-28T08:53:09Z</time>
      </trkpt>
      <trkpt lat="45.75999" lon="4.62521">
        <ele>761</ele>
        <time>2012-05-28T08:53:10Z</time>
      </trkpt>
      <trkpt lat="45.76002" lon="4.62526">
        <ele>761</ele>
        <time>2012-05-28T08:53:11Z</time>
      </trkpt>
      <trkpt lat="45.76005" lon="4.62531">
        <ele>761</ele>
        <time>2012-05-28T08:53:12Z</time>
      </trkpt>
      <trkpt lat="45.76008" lon="4.62537">
        <ele>761</ele>
        <time>2012-05-28T08:53:13Z</time>
      </trkpt>
      <trkpt lat="45.7601" lon="4.62542">
        <ele>760</ele>
        <time>2012-05-28T08:53:14Z</time>
      </trkpt>
      <trkpt lat="45.76012" lon="4.62548">
        <ele>760</ele>
        <time>2012-05-28T08:53:15Z</time>
      </trkpt>
      <trkpt lat="45.76015" lon="4.62553">
        <ele>760</ele>
        <time>2012-05-28T08:53:16Z</time>
      </trkpt>
      <trkpt lat="45.76018" lon="4.62558">
        <ele>760</ele>
        <time>2012-05-28T08:53:17Z</time>
      </trkpt>
      <trkpt lat="45.76021" lon="4.62562">
        <ele>760</ele>
        <time>2012-05-28T08:53:18Z</time>
      </trkpt>
      <trkpt lat="45.76023" lon="4.62565">
        <ele>759</ele>
        <time>2012-05-28T08:53:19Z</time>
      </trkpt>
      <trkpt lat="45.76024" lon="4.62568">
        <ele>759</ele>
        <time>2012-05-28T08:53:20Z</time>
      </trkpt>
      <trkpt lat="45.76025" lon="4.6257">
        <ele>759</ele>
        <time>2012-05-28T08:53:21Z</time>
      </trkpt>
      <trkpt lat="45.76026" lon="4.62572">
        <ele>759</ele>
        <time>2012-05-28T08:53:22Z</time>
      </trkpt>
      <trkpt lat="45.76029" lon="4.6258">
        <ele>758</ele>
        <time>2012-05-28T08:53:28Z</time>
      </trkpt>
      <trkpt lat="45.76034" lon="4.62585">
        <ele>756</ele>
        <time>2012-05-28T08:53:33Z</time>
      </trkpt>
      <trkpt lat="45.76041" lon="4.62592">
        <ele>756</ele>
        <time>2012-05-28T08:53:39Z</time>
      </trkpt>
      <trkpt lat="45.76055" lon="4.62607">
        <ele>755</ele>
        <time>2012-05-28T08:53:44Z</time>
      </trkpt>
      <trkpt lat="45.76059" lon="4.62611">
        <ele>755</ele>
        <time>2012-05-28T08:53:45Z</time>
      </trkpt>
      <trkpt lat="45.76064" lon="4.62616">
        <ele>754</ele>
        <time>2012-05-28T08:53:46Z</time>
      </trkpt>
      <trkpt lat="45.76068" lon="4.6262">
        <ele>753</ele>
        <time>2012-05-28T08:53:47Z</time>
      </trkpt>
      <trkpt lat="45.76072" lon="4.62623">
        <ele>752</ele>
        <time>2012-05-28T08:53:48Z</time>
      </trkpt>
      <trkpt lat="45.76075" lon="4.62625">
        <ele>751</ele>
        <time>2012-05-28T08:53:49Z</time>
      </trkpt>
      <trkpt lat="45.76084" lon="4.62631">
        <ele>749</ele>
        <time>2012-05-28T08:53:52Z</time>
      </trkpt>
      <trkpt lat="45.76101" lon="4.62644">
        <ele>746</ele>
        <time>2012-05-28T08:53:55Z</time>
      </trkpt>
      <trkpt lat="45.76109" lon="4.62647">
        <ele>746</ele>
        <time>2012-05-28T08:53:56Z</time>
      </trkpt>
      <trkpt lat="45.76116" lon="4.62651">
        <ele>745</ele>
        <time>2012-05-28T08:53:57Z</time>
      </trkpt>
      <trkpt lat="45.76122" lon="4.62656">
        <ele>744</ele>
        <time>2012-05-28T08:53:58Z</time>
      </trkpt>
      <trkpt lat="45.76129" lon="4.62662">
        <ele>743</ele>
        <time>2012-05-28T08:53:59Z</time>
      </trkpt>
      <trkpt lat="45.76134" lon="4.62668">
        <ele>742</ele>
        <time>2012-05-28T08:54:00Z</time>
      </trkpt>
      <trkpt lat="45.76139" lon="4.62672">
        <ele>741</ele>
        <time>2012-05-28T08:54:01Z</time>
      </trkpt>
      <trkpt lat="45.76143" lon="4.62676">
        <ele>741</ele>
        <time>2012-05-28T08:54:02Z</time>
      </trkpt>
      <trkpt lat="45.76167" lon="4.62698">
        <ele>738</ele>
        <time>2012-05-28T08:54:06Z</time>
      </trkpt>
      <trkpt lat="45.76172" lon="4.62703">
        <ele>737</ele>
        <time>2012-05-28T08:54:07Z</time>
      </trkpt>
      <trkpt lat="45.76182" lon="4.62716">
        <ele>736</ele>
        <time>2012-05-28T08:54:09Z</time>
      </trkpt>
      <trkpt lat="45.76187" lon="4.62725">
        <ele>736</ele>
        <time>2012-05-28T08:54:10Z</time>
      </trkpt>
      <trkpt lat="45.76193" lon="4.62733">
        <ele>736</ele>
        <time>2012-05-28T08:54:11Z</time>
      </trkpt>
      <trkpt lat="45.76199" lon="4.6274">
        <ele>735</ele>
        <time>2012-05-28T08:54:12Z</time>
      </trkpt>
      <trkpt lat="45.76213" lon="4.6276">
        <ele>732</ele>
        <time>2012-05-28T08:54:15Z</time>
      </trkpt>
      <trkpt lat="45.7622" lon="4.62775">
        <ele>729</ele>
        <time>2012-05-28T08:54:19Z</time>
      </trkpt>
      <trkpt lat="45.76225" lon="4.62785">
        <ele>727</ele>
        <time>2012-05-28T08:54:21Z</time>
      </trkpt>
      <trkpt lat="45.76226" lon="4.62791">
        <ele>726</ele>
        <time>2012-05-28T08:54:22Z</time>
      </trkpt>
      <trkpt lat="45.76227" lon="4.62798">
        <ele>726</ele>
        <time>2012-05-28T08:54:23Z</time>
      </trkpt>
      <trkpt lat="45.76231" lon="4.62814">
        <ele>724</ele>
        <time>2012-05-28T08:54:25Z</time>
      </trkpt>
      <trkpt lat="45.76234" lon="4.6282">
        <ele>723</ele>
        <time>2012-05-28T08:54:26Z</time>
      </trkpt>
      <trkpt lat="45.76238" lon="4.62824">
        <ele>722</ele>
        <time>2012-05-28T08:54:27Z</time>
      </trkpt>
      <trkpt lat="45.76242" lon="4.62827">
        <ele>722</ele>
        <time>2012-05-28T08:54:28Z</time>
      </trkpt>
      <trkpt lat="45.76247" lon="4.6283">
        <ele>721</ele>
        <time>2012-05-28T08:54:29Z</time>
      </trkpt>
      <trkpt lat="45.7625" lon="4.62836">
        <ele>720</ele>
        <time>2012-05-28T08:54:30Z</time>
      </trkpt>
      <trkpt lat="45.76253" lon="4.62842">
        <ele>719</ele>
        <time>2012-05-28T08:54:31Z</time>
      </trkpt>
      <trkpt lat="45.76258" lon="4.62847">
        <ele>719</ele>
        <time>2012-05-28T08:54:32Z</time>
      </trkpt>
      <trkpt lat="45.76262" lon="4.62853">
        <ele>718</ele>
        <time>2012-05-28T08:54:33Z</time>
      </trkpt>
      <trkpt lat="45.76276" lon="4.62875">
        <ele>718</ele>
        <time>2012-05-28T08:54:36Z</time>
      </trkpt>
      <trkpt lat="45.76277" lon="4.62881">
        <ele>717</ele>
        <time>2012-05-28T08:54:37Z</time>
      </trkpt>
      <trkpt lat="45.76278" lon="4.62886">
        <ele>717</ele>
        <time>2012-05-28T08:54:38Z</time>
      </trkpt>
      <trkpt lat="45.76281" lon="4.62889">
        <ele>718</ele>
        <time>2012-05-28T08:54:39Z</time>
      </trkpt>
      <trkpt lat="45.76282" lon="4.62892">
        <ele>718</ele>
        <time>2012-05-28T08:54:40Z</time>
      </trkpt>
      <trkpt lat="45.76284" lon="4.62894">
        <ele>717</ele>
        <time>2012-05-28T08:54:41Z</time>
      </trkpt>
      <trkpt lat="45.76285" lon="4.62896">
        <ele>718</ele>
        <time>2012-05-28T08:54:42Z</time>
      </trkpt>
      <trkpt lat="45.76286" lon="4.62898">
        <ele>718</ele>
        <time>2012-05-28T08:54:43Z</time>
      </trkpt>
      <trkpt lat="45.76287" lon="4.629">
        <ele>718</ele>
        <time>2012-05-28T08:54:44Z</time>
      </trkpt>
      <trkpt lat="45.76289" lon="4.62903">
        <ele>718</ele>
        <time>2012-05-28T08:54:46Z</time>
      </trkpt>
      <trkpt lat="45.7629" lon="4.62906">
        <ele>718</ele>
        <time>2012-05-28T08:54:47Z</time>
      </trkpt>
      <trkpt lat="45.76296" lon="4.62921">
        <ele>719</ele>
        <time>2012-05-28T08:54:53Z</time>
      </trkpt>
      <trkpt lat="45.76296" lon="4.62923">
        <ele>719</ele>
        <time>2012-05-28T08:54:54Z</time>
      </trkpt>
      <trkpt lat="45.76297" lon="4.62924">
        <ele>719</ele>
        <time>2012-05-28T08:54:55Z</time>
      </trkpt>
      <trkpt lat="45.76298" lon="4.62926">
        <ele>719</ele>
        <time>2012-05-28T08:54:56Z</time>
      </trkpt>
      <trkpt lat="45.76305" lon="4.62931">
        <ele>720</ele>
        <time>2012-05-28T08:55:01Z</time>
      </trkpt>
      <trkpt lat="45.76312" lon="4.62937">
        <ele>721</ele>
        <time>2012-05-28T08:55:08Z</time>
      </trkpt>
      <trkpt lat="45.76323" lon="4.62948">
        <ele>723</ele>
        <time>2012-05-28T08:55:15Z</time>
      </trkpt>
      <trkpt lat="45.76329" lon="4.62953">
        <ele>724</ele>
        <time>2012-05-28T08:55:20Z</time>
      </trkpt>
      <trkpt lat="45.76343" lon="4.62964">
        <ele>725</ele>
        <time>2012-05-28T08:55:27Z</time>
      </trkpt>
      <trkpt lat="45.76347" lon="4.62967">
        <ele>725</ele>
        <time>2012-05-28T08:55:29Z</time>
      </trkpt>
      <trkpt lat="45.76349" lon="4.62968">
        <ele>725</ele>
        <time>2012-05-28T08:55:30Z</time>
      </trkpt>
      <trkpt lat="45.76351" lon="4.62969">
        <ele>725</ele>
        <time>2012-05-28T08:55:31Z</time>
      </trkpt>
      <trkpt lat="45.76353" lon="4.62971">
        <ele>725</ele>
        <time>2012-05-28T08:55:32Z</time>
      </trkpt>
      <trkpt lat="45.76355" lon="4.62972">
        <ele>725</ele>
        <time>2012-05-28T08:55:33Z</time>
      </trkpt>
      <trkpt lat="45.76358" lon="4.62973">
        <ele>725</ele>
        <time>2012-05-28T08:55:35Z</time>
      </trkpt>
      <trkpt lat="45.7636" lon="4.62975">
        <ele>726</ele>
        <time>2012-05-28T08:55:37Z</time>
      </trkpt>
      <trkpt lat="45.76364" lon="4.62978">
        <ele>726</ele>
        <time>2012-05-28T08:55:40Z</time>
      </trkpt>
      <trkpt lat="45.76365" lon="4.6298">
        <ele>725</ele>
        <time>2012-05-28T08:55:41Z</time>
      </trkpt>
      <trkpt lat="45.76367" lon="4.62982">
        <ele>726</ele>
        <time>2012-05-28T08:55:42Z</time>
      </trkpt>
      <trkpt lat="45.76369" lon="4.62984">
        <ele>726</ele>
        <time>2012-05-28T08:55:43Z</time>
      </trkpt>
      <trkpt lat="45.76372" lon="4.62986">
        <ele>726</ele>
        <time>2012-05-28T08:55:44Z</time>
      </trkpt>
      <trkpt lat="45.76373" lon="4.62988">
        <ele>726</ele>
        <time>2012-05-28T08:55:45Z</time>
      </trkpt>
      <trkpt lat="45.76376" lon="4.62992">
        <ele>726</ele>
        <time>2012-05-28T08:55:47Z</time>
      </trkpt>
      <trkpt lat="45.76383" lon="4.63">
        <ele>727</ele>
        <time>2012-05-28T08:55:52Z</time>
      </trkpt>
      <trkpt lat="45.76388" lon="4.63005">
        <ele>728</ele>
        <time>2012-05-28T08:55:55Z</time>
      </trkpt>
      <trkpt lat="45.76389" lon="4.63006">
        <ele>727</ele>
        <time>2012-05-28T08:55:56Z</time>
      </trkpt>
      <trkpt lat="45.76392" lon="4.63009">
        <ele>728</ele>
        <time>2012-05-28T08:55:58Z</time>
      </trkpt>
      <trkpt lat="45.76394" lon="4.63011">
        <ele>728</ele>
        <time>2012-05-28T08:55:59Z</time>
      </trkpt>
      <trkpt lat="45.76395" lon="4.63013">
        <ele>728</ele>
        <time>2012-05-28T08:56:00Z</time>
      </trkpt>
      <trkpt lat="45.76405" lon="4.63023">
        <ele>729</ele>
        <time>2012-05-28T08:56:06Z</time>
      </trkpt>
      <trkpt lat="45.76407" lon="4.63024">
        <ele>729</ele>
        <time>2012-05-28T08:56:07Z</time>
      </trkpt>
      <trkpt lat="45.76408" lon="4.63025">
        <ele>729</ele>
        <time>2012-05-28T08:56:08Z</time>
      </trkpt>
      <trkpt lat="45.76414" lon="4.63031">
        <ele>729</ele>
        <time>2012-05-28T08:56:14Z</time>
      </trkpt>
      <trkpt lat="45.76425" lon="4.63037">
        <ele>728</ele>
        <time>2012-05-28T08:56:20Z</time>
      </trkpt>
      <trkpt lat="45.76433" lon="4.63039">
        <ele>728</ele>
        <time>2012-05-28T08:56:26Z</time>
      </trkpt>
      <trkpt lat="45.76434" lon="4.63038">
        <ele>728</ele>
        <time>2012-05-28T08:56:34Z</time>
      </trkpt>
      <trkpt lat="45.76434" lon="4.6304">
        <ele>728</ele>
        <time>2012-05-28T08:56:41Z</time>
      </trkpt>
      <trkpt lat="45.76438" lon="4.6304">
        <ele>728</ele>
        <time>2012-05-28T08:56:58Z</time>
      </trkpt>
      <trkpt lat="45.76437" lon="4.63039">
        <ele>728</ele>
        <time>2012-05-28T08:57:18Z</time>
      </trkpt>
      <trkpt lat="45.76434" lon="4.6304">
        <ele>728</ele>
        <time>2012-05-28T08:57:36Z</time>
      </trkpt>
      <trkpt lat="45.76434" lon="4.63035">
        <ele>728</ele>
        <time>2012-05-28T08:57:55Z</time>
      </trkpt>
      <trkpt lat="45.76434" lon="4.63035">
        <ele>728</ele>
        <time>2012-05-28T08:58:12Z</time>
      </trkpt>
      <trkpt lat="45.76434" lon="4.63036">
        <ele>728</ele>
        <time>2012-05-28T08:58:33Z</time>
      </trkpt>
      <trkpt lat="45.76435" lon="4.63037">
        <ele>728</ele>
        <time>2012-05-28T08:58:51Z</time>
      </trkpt>
      <trkpt lat="45.76435" lon="4.63037">
        <ele>728</ele>
        <time>2012-05-28T08:59:12Z</time>
      </trkpt>
      <trkpt lat="45.76435" lon="4.63037">
        <ele>728</ele>
        <time>2012-05-28T08:59:34Z</time>
      </trkpt>
      <trkpt lat="45.76434" lon="4.63036">
        <ele>728</ele>
        <time>2012-05-28T08:59:53Z</time>
      </trkpt>
      <trkpt lat="45.76433" lon="4.63038">
        <ele>728</ele>
        <time>2012-05-28T09:00:10Z</time>
      </trkpt>
      <trkpt lat="45.76433" lon="4.63039">
        <ele>728</ele>
        <time>2012-05-28T09:00:30Z</time>
      </trkpt>
      <trkpt lat="45.76433" lon="4.63039">
        <ele>729</ele>
        <time>2012-05-28T09:00:51Z</time>
      </trkpt>
      <trkpt lat="45.76434" lon="4.63038">
        <ele>728</ele>
        <time>2012-05-28T09:01:06Z</time>
      </trkpt>
      <trkpt lat="45.76434" lon="4.63039">
        <ele>728</ele>
        <time>2012-05-28T09:01:26Z</time>
      </trkpt>
      <trkpt lat="45.76436" lon="4.6304">
        <ele>728</ele>
        <time>2012-05-28T09:01:47Z</time>
      </trkpt>
      <trkpt lat="45.76436" lon="4.63041">
        <ele>728</ele>
        <time>2012-05-28T09:02:04Z</time>
      </trkpt>
      <trkpt lat="45.76436" lon="4.6304">
        <ele>729</ele>
        <time>2012-05-28T09:02:22Z</time>
      </trkpt>
      <trkpt lat="45.76436" lon="4.63039">
        <ele>728</ele>
        <time>2012-05-28T09:02:39Z</time>
      </trkpt>
      <trkpt lat="45.76436" lon="4.6304">
        <ele>729</ele>
        <time>2012-05-28T09:02:56Z</time>
      </trkpt>
      <trkpt lat="45.76436" lon="4.63039">
        <ele>729</ele>
        <time>2012-05-28T09:03:14Z</time>
      </trkpt>
      <trkpt lat="45.76437" lon="4.63039">
        <ele>729</ele>
        <time>2012-05-28T09:03:32Z</time>
      </trkpt>
      <trkpt lat="45.76437" lon="4.6304">
        <ele>729</ele>
        <time>2012-05-28T09:03:53Z</time>
      </trkpt>
      <trkpt lat="45.76437" lon="4.6304">
        <ele>729</ele>
        <time>2012-05-28T09:04:13Z</time>
      </trkpt>
      <trkpt lat="45.76436" lon="4.63041">
        <ele>729</ele>
        <time>2012-05-28T09:04:33Z</time>
      </trkpt>
      <trkpt lat="45.76435" lon="4.6304">
        <ele>729</ele>
        <time>2012-05-28T09:04:53Z</time>
      </trkpt>
      <trkpt lat="45.76435" lon="4.63039">
        <ele>729</ele>
        <time>2012-05-28T09:05:13Z</time>
      </trkpt>
      <trkpt lat="45.76435" lon="4.63039">
        <ele>729</ele>
        <time>2012-05-28T09:05:29Z</time>
      </trkpt>
      <trkpt lat="45.76436" lon="4.6304">
        <ele>729</ele>
        <time>2012-05-28T09:05:48Z</time>
      </trkpt>
      <trkpt lat="45.76437" lon="4.63038">
        <ele>729</ele>
        <time>2012-05-28T09:06:07Z</time>
      </trkpt>
      <trkpt lat="45.76437" lon="4.63038">
        <ele>729</ele>
        <time>2012-05-28T09:06:26Z</time>
      </trkpt>
      <trkpt lat="45.76436" lon="4.6304">
        <ele>729</ele>
        <time>2012-05-28T09:06:46Z</time>
      </trkpt>
      <trkpt lat="45.76437" lon="4.6304">
        <ele>729</ele>
        <time>2012-05-28T09:07:04Z</time>
      </trkpt>
      <trkpt lat="45.76438" lon="4.6304">
        <ele>729</ele>
        <time>2012-05-28T09:07:23Z</time>
      </trkpt>
      <trkpt lat="45.76438" lon="4.6304">
        <ele>729</ele>
        <time>2012-05-28T09:07:41Z</time>
      </trkpt>
      <trkpt lat="45.76437" lon="4.6304">
        <ele>729</ele>
        <time>2012-05-28T09:08:03Z</time>
      </trkpt>
      <trkpt lat="45.76437" lon="4.6304">
        <ele>729</ele>
        <time>2012-05-28T09:08:21Z</time>
      </trkpt>
      <trkpt lat="45.76437" lon="4.6304">
        <ele>730</ele>
        <time>2012-05-28T09:08:42Z</time>
      </trkpt>
      <trkpt lat="45.76437" lon="4.6304">
        <ele>730</ele>
        <time>2012-05-28T09:09:00Z</time>
      </trkpt>
      <trkpt lat="45.76437" lon="4.6304">
        <ele>730</ele>
        <time>2012-05-28T09:09:20Z</time>
      </trkpt>
      <trkpt lat="45.76436" lon="4.63039">
        <ele>729</ele>
        <time>2012-05-28T09:09:37Z</time>
      </trkpt>
      <trkpt lat="45.76435" lon="4.63039">
        <ele>729</ele>
        <time>2012-05-28T09:09:54Z</time>
      </trkpt>
      <trkpt lat="45.76436" lon="4.63039">
        <ele>730</ele>
        <time>2012-05-28T09:10:11Z</time>
      </trkpt>
      <trkpt lat="45.76435" lon="4.63039">
        <ele>729</ele>
        <time>2012-05-28T09:10:27Z</time>
      </trkpt>
      <trkpt lat="45.76435" lon="4.6304">
        <ele>729</ele>
        <time>2012-05-28T09:10:41Z</time>
      </trkpt>
      <trkpt lat="45.76435" lon="4.63039">
        <ele>729</ele>
        <time>2012-05-28T09:10:59Z</time>
      </trkpt>
      <trkpt lat="45.76435" lon="4.63039">
        <ele>730</ele>
        <time>2012-05-28T09:11:15Z</time>
      </trkpt>
      <trkpt lat="45.76435" lon="4.6304">
        <ele>730</ele>
        <time>2012-05-28T09:11:25Z</time>
      </trkpt>
      <trkpt lat="45.76435" lon="4.63041">
        <ele>730</ele>
        <time>2012-05-28T09:11:32Z</time>
      </trkpt>
      <trkpt lat="45.76435" lon="4.63041">
        <ele>729</ele>
        <time>2012-05-28T09:11:43Z</time>
      </trkpt>
      <trkpt lat="45.76433" lon="4.63046">
        <ele>730</ele>
        <time>2012-05-28T09:11:50Z</time>
      </trkpt>
      <trkpt lat="45.76432" lon="4.63045">
        <ele>730</ele>
        <time>2012-05-28T09:11:52Z</time>
      </trkpt>
      <trkpt lat="45.76431" lon="4.63044">
        <ele>730</ele>
        <time>2012-05-28T09:11:53Z</time>
      </trkpt>
      <trkpt lat="45.76433" lon="4.63041">
        <ele>730</ele>
        <time>2012-05-28T09:11:56Z</time>
      </trkpt>
      <trkpt lat="45.76438" lon="4.63035">
        <ele>729</ele>
        <time>2012-05-28T09:12:03Z</time>
      </trkpt>
      <trkpt lat="45.76443" lon="4.63028">
        <ele>729</ele>
        <time>2012-05-28T09:12:10Z</time>
      </trkpt>
      <trkpt lat="45.76445" lon="4.63026">
        <ele>729</ele>
        <time>2012-05-28T09:12:17Z</time>
      </trkpt>
      <trkpt lat="45.76444" lon="4.63027">
        <ele>730</ele>
        <time>2012-05-28T09:12:19Z</time>
      </trkpt>
      <trkpt lat="45.76441" lon="4.63037">
        <ele>730</ele>
        <time>2012-05-28T09:12:24Z</time>
      </trkpt>
      <trkpt lat="45.76441" lon="4.63039">
        <ele>730</ele>
        <time>2012-05-28T09:12:25Z</time>
      </trkpt>
      <trkpt lat="45.76443" lon="4.63054">
        <ele>729</ele>
        <time>2012-05-28T09:12:32Z</time>
      </trkpt>
      <trkpt lat="45.76444" lon="4.63055">
        <ele>729</ele>
        <time>2012-05-28T09:12:33Z</time>
      </trkpt>
      <trkpt lat="45.76455" lon="4.63061">
        <ele>729</ele>
        <time>2012-05-28T09:12:39Z</time>
      </trkpt>
      <trkpt lat="45.76476" lon="4.63065">
        <ele>728</ele>
        <time>2012-05-28T09:12:45Z</time>
      </trkpt>
      <trkpt lat="45.76481" lon="4.63066">
        <ele>728</ele>
        <time>2012-05-28T09:12:46Z</time>
      </trkpt>
      <trkpt lat="45.76485" lon="4.63066">
        <ele>728</ele>
        <time>2012-05-28T09:12:47Z</time>
      </trkpt>
      <trkpt lat="45.76489" lon="4.63065">
        <ele>727</ele>
        <time>2012-05-28T09:12:48Z</time>
      </trkpt>
      <trkpt lat="45.76492" lon="4.63065">
        <ele>727</ele>
        <time>2012-05-28T09:12:49Z</time>
      </trkpt>
      <trkpt lat="45.76496" lon="4.63065">
        <ele>727</ele>
        <time>2012-05-28T09:12:50Z</time>
      </trkpt>
      <trkpt lat="45.765" lon="4.63065">
        <ele>727</ele>
        <time>2012-05-28T09:12:51Z</time>
      </trkpt>
      <trkpt lat="45.76504" lon="4.63066">
        <ele>727</ele>
        <time>2012-05-28T09:12:52Z</time>
      </trkpt>
      <trkpt lat="45.76509" lon="4.63066">
        <ele>727</ele>
        <time>2012-05-28T09:12:53Z</time>
      </trkpt>
      <trkpt lat="45.76513" lon="4.63066">
        <ele>727</ele>
        <time>2012-05-28T09:12:54Z</time>
      </trkpt>
      <trkpt lat="45.76519" lon="4.63066">
        <ele>728</ele>
        <time>2012-05-28T09:12:55Z</time>
      </trkpt>
      <trkpt lat="45.7653" lon="4.63064">
        <ele>727</ele>
        <time>2012-05-28T09:12:57Z</time>
      </trkpt>
      <trkpt lat="45.76542" lon="4.6306">
        <ele>727</ele>
        <time>2012-05-28T09:12:59Z</time>
      </trkpt>
      <trkpt lat="45.7656" lon="4.63057">
        <ele>728</ele>
        <time>2012-05-28T09:13:02Z</time>
      </trkpt>
      <trkpt lat="45.76565" lon="4.63056">
        <ele>729</ele>
        <time>2012-05-28T09:13:03Z</time>
      </trkpt>
      <trkpt lat="45.76571" lon="4.63057">
        <ele>729</ele>
        <time>2012-05-28T09:13:04Z</time>
      </trkpt>
      <trkpt lat="45.76582" lon="4.63061">
        <ele>729</ele>
        <time>2012-05-28T09:13:06Z</time>
      </trkpt>
      <trkpt lat="45.76588" lon="4.63063">
        <ele>729</ele>
        <time>2012-05-28T09:13:07Z</time>
      </trkpt>
      <trkpt lat="45.76594" lon="4.63066">
        <ele>728</ele>
        <time>2012-05-28T09:13:08Z</time>
      </trkpt>
      <trkpt lat="45.766" lon="4.63068">
        <ele>727</ele>
        <time>2012-05-28T09:13:09Z</time>
      </trkpt>
      <trkpt lat="45.76606" lon="4.6307">
        <ele>727</ele>
        <time>2012-05-28T09:13:10Z</time>
      </trkpt>
      <trkpt lat="45.76618" lon="4.63076">
        <ele>727</ele>
        <time>2012-05-28T09:13:12Z</time>
      </trkpt>
      <trkpt lat="45.76641" lon="4.6309">
        <ele>725</ele>
        <time>2012-05-28T09:13:16Z</time>
      </trkpt>
      <trkpt lat="45.76647" lon="4.63094">
        <ele>725</ele>
        <time>2012-05-28T09:13:17Z</time>
      </trkpt>
      <trkpt lat="45.76671" lon="4.63107">
        <ele>724</ele>
        <time>2012-05-28T09:13:22Z</time>
      </trkpt>
      <trkpt lat="45.76674" lon="4.63109">
        <ele>725</ele>
        <time>2012-05-28T09:13:23Z</time>
      </trkpt>
      <trkpt lat="45.76676" lon="4.63111">
        <ele>725</ele>
        <time>2012-05-28T09:13:24Z</time>
      </trkpt>
      <trkpt lat="45.76682" lon="4.63114">
        <ele>725</ele>
        <time>2012-05-28T09:13:29Z</time>
      </trkpt>
      <trkpt lat="45.76685" lon="4.63119">
        <ele>724</ele>
        <time>2012-05-28T09:13:40Z</time>
      </trkpt>
      <trkpt lat="45.76685" lon="4.63123">
        <ele>724</ele>
        <time>2012-05-28T09:13:41Z</time>
      </trkpt>
      <trkpt lat="45.76687" lon="4.63127">
        <ele>723</ele>
        <time>2012-05-28T09:13:42Z</time>
      </trkpt>
      <trkpt lat="45.76688" lon="4.6313">
        <ele>721</ele>
        <time>2012-05-28T09:13:43Z</time>
      </trkpt>
      <trkpt lat="45.76689" lon="4.63133">
        <ele>721</ele>
        <time>2012-05-28T09:13:44Z</time>
      </trkpt>
      <trkpt lat="45.76691" lon="4.63141">
        <ele>720</ele>
        <time>2012-05-28T09:13:46Z</time>
      </trkpt>
      <trkpt lat="45.76691" lon="4.63145">
        <ele>720</ele>
        <time>2012-05-28T09:13:47Z</time>
      </trkpt>
      <trkpt lat="45.76693" lon="4.63149">
        <ele>719</ele>
        <time>2012-05-28T09:13:48Z</time>
      </trkpt>
      <trkpt lat="45.76695" lon="4.63155">
        <ele>718</ele>
        <time>2012-05-28T09:13:49Z</time>
      </trkpt>
      <trkpt lat="45.76697" lon="4.6316">
        <ele>718</ele>
        <time>2012-05-28T09:13:50Z</time>
      </trkpt>
      <trkpt lat="45.76699" lon="4.63164">
        <ele>718</ele>
        <time>2012-05-28T09:13:51Z</time>
      </trkpt>
      <trkpt lat="45.76699" lon="4.63167">
        <ele>717</ele>
        <time>2012-05-28T09:13:52Z</time>
      </trkpt>
      <trkpt lat="45.76699" lon="4.6317">
        <ele>717</ele>
        <time>2012-05-28T09:13:53Z</time>
      </trkpt>
      <trkpt lat="45.767" lon="4.63173">
        <ele>716</ele>
        <time>2012-05-28T09:13:54Z</time>
      </trkpt>
      <trkpt lat="45.76701" lon="4.63175">
        <ele>715</ele>
        <time>2012-05-28T09:13:55Z</time>
      </trkpt>
      <trkpt lat="45.76702" lon="4.63179">
        <ele>716</ele>
        <time>2012-05-28T09:13:56Z</time>
      </trkpt>
      <trkpt lat="45.76703" lon="4.63182">
        <ele>716</ele>
        <time>2012-05-28T09:13:57Z</time>
      </trkpt>
      <trkpt lat="45.76704" lon="4.63186">
        <ele>716</ele>
        <time>2012-05-28T09:13:58Z</time>
      </trkpt>
      <trkpt lat="45.76707" lon="4.63212">
        <ele>713</ele>
        <time>2012-05-28T09:14:03Z</time>
      </trkpt>
      <trkpt lat="45.76709" lon="4.63217">
        <ele>713</ele>
        <time>2012-05-28T09:14:04Z</time>
      </trkpt>
      <trkpt lat="45.76716" lon="4.63246">
        <ele>709</ele>
        <time>2012-05-28T09:14:09Z</time>
      </trkpt>
      <trkpt lat="45.76717" lon="4.63259">
        <ele>707</ele>
        <time>2012-05-28T09:14:12Z</time>
      </trkpt>
      <trkpt lat="45.76717" lon="4.63269">
        <ele>705</ele>
        <time>2012-05-28T09:14:14Z</time>
      </trkpt>
      <trkpt lat="45.76718" lon="4.63274">
        <ele>704</ele>
        <time>2012-05-28T09:14:15Z</time>
      </trkpt>
      <trkpt lat="45.76717" lon="4.63279">
        <ele>704</ele>
        <time>2012-05-28T09:14:16Z</time>
      </trkpt>
      <trkpt lat="45.76718" lon="4.63285">
        <ele>704</ele>
        <time>2012-05-28T09:14:17Z</time>
      </trkpt>
      <trkpt lat="45.7672" lon="4.6329">
        <ele>703</ele>
        <time>2012-05-28T09:14:18Z</time>
      </trkpt>
      <trkpt lat="45.76722" lon="4.63301">
        <ele>702</ele>
        <time>2012-05-28T09:14:20Z</time>
      </trkpt>
      <trkpt lat="45.76722" lon="4.63307">
        <ele>701</ele>
        <time>2012-05-28T09:14:21Z</time>
      </trkpt>
      <trkpt lat="45.76722" lon="4.63311">
        <ele>701</ele>
        <time>2012-05-28T09:14:22Z</time>
      </trkpt>
      <trkpt lat="45.76725" lon="4.63323">
        <ele>698</ele>
        <time>2012-05-28T09:14:25Z</time>
      </trkpt>
      <trkpt lat="45.76731" lon="4.63335">
        <ele>696</ele>
        <time>2012-05-28T09:14:28Z</time>
      </trkpt>
      <trkpt lat="45.76737" lon="4.63341">
        <ele>696</ele>
        <time>2012-05-28T09:14:30Z</time>
      </trkpt>
      <trkpt lat="45.76739" lon="4.63343">
        <ele>696</ele>
        <time>2012-05-28T09:14:32Z</time>
      </trkpt>
      <trkpt lat="45.7675" lon="4.63355">
        <ele>694</ele>
        <time>2012-05-28T09:14:37Z</time>
      </trkpt>
      <trkpt lat="45.76752" lon="4.6336">
        <ele>694</ele>
        <time>2012-05-28T09:14:38Z</time>
      </trkpt>
      <trkpt lat="45.76769" lon="4.63392">
        <ele>693</ele>
        <time>2012-05-28T09:14:45Z</time>
      </trkpt>
      <trkpt lat="45.76769" lon="4.63397">
        <ele>693</ele>
        <time>2012-05-28T09:14:46Z</time>
      </trkpt>
      <trkpt lat="45.76777" lon="4.63416">
        <ele>693</ele>
        <time>2012-05-28T09:14:51Z</time>
      </trkpt>
      <trkpt lat="45.76779" lon="4.63419">
        <ele>693</ele>
        <time>2012-05-28T09:14:52Z</time>
      </trkpt>
      <trkpt lat="45.76783" lon="4.63437">
        <ele>694</ele>
        <time>2012-05-28T09:14:58Z</time>
      </trkpt>
      <trkpt lat="45.7679" lon="4.63453">
        <ele>695</ele>
        <time>2012-05-28T09:15:06Z</time>
      </trkpt>
      <trkpt lat="45.76792" lon="4.63459">
        <ele>695</ele>
        <time>2012-05-28T09:15:08Z</time>
      </trkpt>
      <trkpt lat="45.76794" lon="4.63482">
        <ele>696</ele>
        <time>2012-05-28T09:15:16Z</time>
      </trkpt>
      <trkpt lat="45.76795" lon="4.63493">
        <ele>695</ele>
        <time>2012-05-28T09:15:20Z</time>
      </trkpt>
      <trkpt lat="45.76793" lon="4.635">
        <ele>693</ele>
        <time>2012-05-28T09:15:23Z</time>
      </trkpt>
      <trkpt lat="45.76793" lon="4.63504">
        <ele>692</ele>
        <time>2012-05-28T09:15:25Z</time>
      </trkpt>
      <trkpt lat="45.76788" lon="4.63511">
        <ele>689</ele>
        <time>2012-05-28T09:15:28Z</time>
      </trkpt>
      <trkpt lat="45.76784" lon="4.63513">
        <ele>686</ele>
        <time>2012-05-28T09:15:30Z</time>
      </trkpt>
      <trkpt lat="45.76783" lon="4.63515">
        <ele>685</ele>
        <time>2012-05-28T09:15:31Z</time>
      </trkpt>
      <trkpt lat="45.76785" lon="4.63533">
        <ele>684</ele>
        <time>2012-05-28T09:15:37Z</time>
      </trkpt>
      <trkpt lat="45.76788" lon="4.63556">
        <ele>685</ele>
        <time>2012-05-28T09:15:44Z</time>
      </trkpt>
      <trkpt lat="45.76788" lon="4.63566">
        <ele>686</ele>
        <time>2012-05-28T09:15:50Z</time>
      </trkpt>
      <trkpt lat="45.76787" lon="4.63571">
        <ele>686</ele>
        <time>2012-05-28T09:15:57Z</time>
      </trkpt>
      <trkpt lat="45.7679" lon="4.63579">
        <ele>687</ele>
        <time>2012-05-28T09:16:03Z</time>
      </trkpt>
      <trkpt lat="45.76792" lon="4.63583">
        <ele>688</ele>
        <time>2012-05-28T09:16:05Z</time>
      </trkpt>
      <trkpt lat="45.76792" lon="4.63594">
        <ele>688</ele>
        <time>2012-05-28T09:16:12Z</time>
      </trkpt>
      <trkpt lat="45.76791" lon="4.63599">
        <ele>688</ele>
        <time>2012-05-28T09:16:14Z</time>
      </trkpt>
      <trkpt lat="45.76792" lon="4.63611">
        <ele>687</ele>
        <time>2012-05-28T09:16:22Z</time>
      </trkpt>
      <trkpt lat="45.76791" lon="4.63619">
        <ele>687</ele>
        <time>2012-05-28T09:16:37Z</time>
      </trkpt>
      <trkpt lat="45.76788" lon="4.63629">
        <ele>687</ele>
        <time>2012-05-28T09:16:48Z</time>
      </trkpt>
      <trkpt lat="45.76787" lon="4.63633">
        <ele>687</ele>
        <time>2012-05-28T09:16:49Z</time>
      </trkpt>
      <trkpt lat="45.76781" lon="4.63643">
        <ele>686</ele>
        <time>2012-05-28T09:16:52Z</time>
      </trkpt>
      <trkpt lat="45.76777" lon="4.63649">
        <ele>685</ele>
        <time>2012-05-28T09:16:54Z</time>
      </trkpt>
      <trkpt lat="45.76776" lon="4.63652">
        <ele>684</ele>
        <time>2012-05-28T09:16:55Z</time>
      </trkpt>
      <trkpt lat="45.76774" lon="4.63658">
        <ele>683</ele>
        <time>2012-05-28T09:16:57Z</time>
      </trkpt>
      <trkpt lat="45.76775" lon="4.63673">
        <ele>682</ele>
        <time>2012-05-28T09:17:02Z</time>
      </trkpt>
      <trkpt lat="45.76775" lon="4.63677">
        <ele>683</ele>
        <time>2012-05-28T09:17:03Z</time>
      </trkpt>
      <trkpt lat="45.76765" lon="4.63696">
        <ele>680</ele>
        <time>2012-05-28T09:17:08Z</time>
      </trkpt>
      <trkpt lat="45.7676" lon="4.63707">
        <ele>678</ele>
        <time>2012-05-28T09:17:11Z</time>
      </trkpt>
      <trkpt lat="45.76756" lon="4.63716">
        <ele>675</ele>
        <time>2012-05-28T09:17:15Z</time>
      </trkpt>
      <trkpt lat="45.76755" lon="4.6372">
        <ele>675</ele>
        <time>2012-05-28T09:17:17Z</time>
      </trkpt>
      <trkpt lat="45.76751" lon="4.63722">
        <ele>674</ele>
        <time>2012-05-28T09:17:21Z</time>
      </trkpt>
      <trkpt lat="45.76742" lon="4.63724">
        <ele>670</ele>
        <time>2012-05-28T09:17:26Z</time>
      </trkpt>
      <trkpt lat="45.76737" lon="4.63722">
        <ele>668</ele>
        <time>2012-05-28T09:17:30Z</time>
      </trkpt>
      <trkpt lat="45.76726" lon="4.63723">
        <ele>665</ele>
        <time>2012-05-28T09:17:35Z</time>
      </trkpt>
      <trkpt lat="45.76716" lon="4.63726">
        <ele>662</ele>
        <time>2012-05-28T09:17:39Z</time>
      </trkpt>
      <trkpt lat="45.76711" lon="4.63729">
        <ele>660</ele>
        <time>2012-05-28T09:17:42Z</time>
      </trkpt>
      <trkpt lat="45.76703" lon="4.63727">
        <ele>657</ele>
        <time>2012-05-28T09:17:46Z</time>
      </trkpt>
      <trkpt lat="45.76697" lon="4.63724">
        <ele>654</ele>
        <time>2012-05-28T09:17:49Z</time>
      </trkpt>
      <trkpt lat="45.76687" lon="4.63725">
        <ele>650</ele>
        <time>2012-05-28T09:17:54Z</time>
      </trkpt>
      <trkpt lat="45.76678" lon="4.63724">
        <ele>647</ele>
        <time>2012-05-28T09:17:57Z</time>
      </trkpt>
      <trkpt lat="45.76676" lon="4.63724">
        <ele>646</ele>
        <time>2012-05-28T09:17:58Z</time>
      </trkpt>
      <trkpt lat="45.76671" lon="4.63723">
        <ele>644</ele>
        <time>2012-05-28T09:18:01Z</time>
      </trkpt>
      <trkpt lat="45.76662" lon="4.63714">
        <ele>640</ele>
        <time>2012-05-28T09:18:06Z</time>
      </trkpt>
      <trkpt lat="45.7665" lon="4.63713">
        <ele>637</ele>
        <time>2012-05-28T09:18:12Z</time>
      </trkpt>
      <trkpt lat="45.76649" lon="4.63715">
        <ele>637</ele>
        <time>2012-05-28T09:18:13Z</time>
      </trkpt>
      <trkpt lat="45.76636" lon="4.63722">
        <ele>632</ele>
        <time>2012-05-28T09:18:19Z</time>
      </trkpt>
      <trkpt lat="45.76631" lon="4.63725">
        <ele>630</ele>
        <time>2012-05-28T09:18:22Z</time>
      </trkpt>
      <trkpt lat="45.76629" lon="4.63735">
        <ele>628</ele>
        <time>2012-05-28T09:18:25Z</time>
      </trkpt>
      <trkpt lat="45.76629" lon="4.63737">
        <ele>628</ele>
        <time>2012-05-28T09:18:26Z</time>
      </trkpt>
      <trkpt lat="45.76628" lon="4.63746">
        <ele>627</ele>
        <time>2012-05-28T09:18:32Z</time>
      </trkpt>
      <trkpt lat="45.76628" lon="4.63747">
        <ele>627</ele>
        <time>2012-05-28T09:18:46Z</time>
      </trkpt>
      <trkpt lat="45.76628" lon="4.63748">
        <ele>627</ele>
        <time>2012-05-28T09:19:01Z</time>
      </trkpt>
      <trkpt lat="45.76628" lon="4.63748">
        <ele>627</ele>
        <time>2012-05-28T09:19:18Z</time>
      </trkpt>
      <trkpt lat="45.76625" lon="4.63748">
        <ele>627</ele>
        <time>2012-05-28T09:19:36Z</time>
      </trkpt>
      <trkpt lat="45.76624" lon="4.63748">
        <ele>627</ele>
        <time>2012-05-28T09:19:51Z</time>
      </trkpt>
      <trkpt lat="45.76624" lon="4.63748">
        <ele>627</ele>
        <time>2012-05-28T09:20:06Z</time>
      </trkpt>
      <trkpt lat="45.76623" lon="4.63747">
        <ele>627</ele>
        <time>2012-05-28T09:20:25Z</time>
      </trkpt>
      <trkpt lat="45.76623" lon="4.63747">
        <ele>627</ele>
        <time>2012-05-28T09:20:36Z</time>
      </trkpt>
      <trkpt lat="45.76623" lon="4.63747">
        <ele>627</ele>
        <time>2012-05-28T09:20:47Z</time>
      </trkpt>
      <trkpt lat="45.76624" lon="4.63747">
        <ele>627</ele>
        <time>2012-05-28T09:21:02Z</time>
      </trkpt>
      <trkpt lat="45.76624" lon="4.63747">
        <ele>627</ele>
        <time>2012-05-28T09:21:15Z</time>
      </trkpt>
      <trkpt lat="45.76624" lon="4.63747">
        <ele>627</ele>
        <time>2012-05-28T09:21:25Z</time>
      </trkpt>
      <trkpt lat="45.76624" lon="4.63748">
        <ele>627</ele>
        <time>2012-05-28T09:21:40Z</time>
      </trkpt>
      <trkpt lat="45.76624" lon="4.63748">
        <ele>627</ele>
        <time>2012-05-28T09:21:54Z</time>
      </trkpt>
      <trkpt lat="45.76624" lon="4.63748">
        <ele>627</ele>
        <time>2012-05-28T09:21:59Z</time>
      </trkpt>
      <trkpt lat="45.76626" lon="4.63755">
        <ele>626</ele>
        <time>2012-05-28T09:22:04Z</time>
      </trkpt>
      <trkpt lat="45.76624" lon="4.63763">
        <ele>626</ele>
        <time>2012-05-28T09:22:08Z</time>
      </trkpt>
      <trkpt lat="45.76622" lon="4.63785">
        <ele>624</ele>
        <time>2012-05-28T09:22:14Z</time>
      </trkpt>
      <trkpt lat="45.76623" lon="4.63797">
        <ele>623</ele>
        <time>2012-05-28T09:22:17Z</time>
      </trkpt>
      <trkpt lat="45.76621" lon="4.6382">
        <ele>621</ele>
        <time>2012-05-28T09:22:23Z</time>
      </trkpt>
      <trkpt lat="45.76621" lon="4.63823">
        <ele>621</ele>
        <time>2012-05-28T09:22:24Z</time>
      </trkpt>
      <trkpt lat="45.76618" lon="4.63839">
        <ele>618</ele>
        <time>2012-05-28T09:22:28Z</time>
      </trkpt>
      <trkpt lat="45.76618" lon="4.63867">
        <ele>616</ele>
        <time>2012-05-28T09:22:33Z</time>
      </trkpt>
      <trkpt lat="45.76614" lon="4.63878">
        <ele>614</ele>
        <time>2012-05-28T09:22:38Z</time>
      </trkpt>
      <trkpt lat="45.76611" lon="4.63879">
        <ele>613</ele>
        <time>2012-05-28T09:22:41Z</time>
      </trkpt>
      <trkpt lat="45.76614" lon="4.63898">
        <ele>611</ele>
        <time>2012-05-28T09:22:48Z</time>
      </trkpt>
      <trkpt lat="45.76615" lon="4.63915">
        <ele>608</ele>
        <time>2012-05-28T09:22:53Z</time>
      </trkpt>
      <trkpt lat="45.76619" lon="4.63933">
        <ele>607</ele>
        <time>2012-05-28T09:22:57Z</time>
      </trkpt>
      <trkpt lat="45.76621" lon="4.63947">
        <ele>604</ele>
        <time>2012-05-28T09:23:01Z</time>
      </trkpt>
      <trkpt lat="45.76621" lon="4.63951">
        <ele>603</ele>
        <time>2012-05-28T09:23:02Z</time>
      </trkpt>
      <trkpt lat="45.7662" lon="4.63963">
        <ele>602</ele>
        <time>2012-05-28T09:23:05Z</time>
      </trkpt>
      <trkpt lat="45.76632" lon="4.6399">
        <ele>601</ele>
        <time>2012-05-28T09:23:11Z</time>
      </trkpt>
      <trkpt lat="45.76632" lon="4.63993">
        <ele>601</ele>
        <time>2012-05-28T09:23:12Z</time>
      </trkpt>
      <trkpt lat="45.76633" lon="4.64002">
        <ele>601</ele>
        <time>2012-05-28T09:23:15Z</time>
      </trkpt>
      <trkpt lat="45.76627" lon="4.64013">
        <ele>598</ele>
        <time>2012-05-28T09:23:20Z</time>
      </trkpt>
      <trkpt lat="45.76621" lon="4.6402">
        <ele>596</ele>
        <time>2012-05-28T09:23:23Z</time>
      </trkpt>
      <trkpt lat="45.7662" lon="4.64023">
        <ele>595</ele>
        <time>2012-05-28T09:23:24Z</time>
      </trkpt>
      <trkpt lat="45.76615" lon="4.64025">
        <ele>593</ele>
        <time>2012-05-28T09:23:27Z</time>
      </trkpt>
      <trkpt lat="45.76611" lon="4.64035">
        <ele>591</ele>
        <time>2012-05-28T09:23:31Z</time>
      </trkpt>
      <trkpt lat="45.76607" lon="4.64047">
        <ele>588</ele>
        <time>2012-05-28T09:23:35Z</time>
      </trkpt>
      <trkpt lat="45.7661" lon="4.6406">
        <ele>588</ele>
        <time>2012-05-28T09:23:40Z</time>
      </trkpt>
      <trkpt lat="45.7661" lon="4.64062">
        <ele>587</ele>
        <time>2012-05-28T09:23:42Z</time>
      </trkpt>
      <trkpt lat="45.76615" lon="4.64088">
        <ele>586</ele>
        <time>2012-05-28T09:23:46Z</time>
      </trkpt>
      <trkpt lat="45.76619" lon="4.64108">
        <ele>583</ele>
        <time>2012-05-28T09:23:50Z</time>
      </trkpt>
      <trkpt lat="45.76618" lon="4.64127">
        <ele>580</ele>
        <time>2012-05-28T09:23:53Z</time>
      </trkpt>
      <trkpt lat="45.76618" lon="4.64133">
        <ele>580</ele>
        <time>2012-05-28T09:23:54Z</time>
      </trkpt>
      <trkpt lat="45.76618" lon="4.64139">
        <ele>579</ele>
        <time>2012-05-28T09:23:55Z</time>
      </trkpt>
      <trkpt lat="45.76619" lon="4.64151">
        <ele>577</ele>
        <time>2012-05-28T09:23:57Z</time>
      </trkpt>
      <trkpt lat="45.76622" lon="4.64166">
        <ele>576</ele>
        <time>2012-05-28T09:23:59Z</time>
      </trkpt>
      <trkpt lat="45.76628" lon="4.64182">
        <ele>575</ele>
        <time>2012-05-28T09:24:01Z</time>
      </trkpt>
      <trkpt lat="45.7663" lon="4.64189">
        <ele>576</ele>
        <time>2012-05-28T09:24:02Z</time>
      </trkpt>
      <trkpt lat="45.76632" lon="4.64196">
        <ele>575</ele>
        <time>2012-05-28T09:24:03Z</time>
      </trkpt>
      <trkpt lat="45.76635" lon="4.64214">
        <ele>574</ele>
        <time>2012-05-28T09:24:05Z</time>
      </trkpt>
      <trkpt lat="45.76638" lon="4.64235">
        <ele>573</ele>
        <time>2012-05-28T09:24:07Z</time>
      </trkpt>
      <trkpt lat="45.76639" lon="4.64251">
        <ele>571</ele>
        <time>2012-05-28T09:24:09Z</time>
      </trkpt>
      <trkpt lat="45.76641" lon="4.64263">
        <ele>570</ele>
        <time>2012-05-28T09:24:10Z</time>
      </trkpt>
      <trkpt lat="45.76643" lon="4.64282">
        <ele>568</ele>
        <time>2012-05-28T09:24:12Z</time>
      </trkpt>
      <trkpt lat="45.76646" lon="4.64291">
        <ele>567</ele>
        <time>2012-05-28T09:24:13Z</time>
      </trkpt>
      <trkpt lat="45.76646" lon="4.64296">
        <ele>567</ele>
        <time>2012-05-28T09:24:14Z</time>
      </trkpt>
      <trkpt lat="45.76646" lon="4.64299">
        <ele>566</ele>
        <time>2012-05-28T09:24:15Z</time>
      </trkpt>
      <trkpt lat="45.76648" lon="4.64304">
        <ele>566</ele>
        <time>2012-05-28T09:24:16Z</time>
      </trkpt>
      <trkpt lat="45.7665" lon="4.64307">
        <ele>566</ele>
        <time>2012-05-28T09:24:17Z</time>
      </trkpt>
      <trkpt lat="45.7665" lon="4.6431">
        <ele>565</ele>
        <time>2012-05-28T09:24:18Z</time>
      </trkpt>
      <trkpt lat="45.7665" lon="4.64313">
        <ele>565</ele>
        <time>2012-05-28T09:24:19Z</time>
      </trkpt>
      <trkpt lat="45.76652" lon="4.64319">
        <ele>565</ele>
        <time>2012-05-28T09:24:20Z</time>
      </trkpt>
      <trkpt lat="45.76652" lon="4.64322">
        <ele>565</ele>
        <time>2012-05-28T09:24:21Z</time>
      </trkpt>
      <trkpt lat="45.76652" lon="4.64326">
        <ele>565</ele>
        <time>2012-05-28T09:24:22Z</time>
      </trkpt>
      <trkpt lat="45.76651" lon="4.6433">
        <ele>565</ele>
        <time>2012-05-28T09:24:23Z</time>
      </trkpt>
      <trkpt lat="45.76648" lon="4.64346">
        <ele>562</ele>
        <time>2012-05-28T09:24:27Z</time>
      </trkpt>
      <trkpt lat="45.76644" lon="4.64373">
        <ele>559</ele>
        <time>2012-05-28T09:24:32Z</time>
      </trkpt>
      <trkpt lat="45.76644" lon="4.6438">
        <ele>559</ele>
        <time>2012-05-28T09:24:33Z</time>
      </trkpt>
      <trkpt lat="45.76644" lon="4.64387">
        <ele>557</ele>
        <time>2012-05-28T09:24:34Z</time>
      </trkpt>
      <trkpt lat="45.76644" lon="4.64393">
        <ele>557</ele>
        <time>2012-05-28T09:24:35Z</time>
      </trkpt>
      <trkpt lat="45.76643" lon="4.64404">
        <ele>556</ele>
        <time>2012-05-28T09:24:37Z</time>
      </trkpt>
      <trkpt lat="45.76643" lon="4.64408">
        <ele>555</ele>
        <time>2012-05-28T09:24:38Z</time>
      </trkpt>
      <trkpt lat="45.76643" lon="4.64413">
        <ele>554</ele>
        <time>2012-05-28T09:24:39Z</time>
      </trkpt>
      <trkpt lat="45.76644" lon="4.64419">
        <ele>554</ele>
        <time>2012-05-28T09:24:40Z</time>
      </trkpt>
      <trkpt lat="45.76643" lon="4.64424">
        <ele>553</ele>
        <time>2012-05-28T09:24:41Z</time>
      </trkpt>
      <trkpt lat="45.76643" lon="4.64429">
        <ele>551</ele>
        <time>2012-05-28T09:24:42Z</time>
      </trkpt>
      <trkpt lat="45.76642" lon="4.64434">
        <ele>551</ele>
        <time>2012-05-28T09:24:43Z</time>
      </trkpt>
      <trkpt lat="45.76642" lon="4.64437">
        <ele>550</ele>
        <time>2012-05-28T09:24:44Z</time>
      </trkpt>
      <trkpt lat="45.76643" lon="4.64442">
        <ele>550</ele>
        <time>2012-05-28T09:24:45Z</time>
      </trkpt>
      <trkpt lat="45.76641" lon="4.64453">
        <ele>549</ele>
        <time>2012-05-28T09:24:48Z</time>
      </trkpt>
      <trkpt lat="45.7664" lon="4.64455">
        <ele>548</ele>
        <time>2012-05-28T09:24:49Z</time>
      </trkpt>
      <trkpt lat="45.76639" lon="4.64458">
        <ele>547</ele>
        <time>2012-05-28T09:24:50Z</time>
      </trkpt>
      <trkpt lat="45.76638" lon="4.64463">
        <ele>546</ele>
        <time>2012-05-28T09:24:56Z</time>
      </trkpt>
      <trkpt lat="45.76638" lon="4.64466">
        <ele>547</ele>
        <time>2012-05-28T09:25:11Z</time>
      </trkpt>
      <trkpt lat="45.76638" lon="4.64468">
        <ele>546</ele>
        <time>2012-05-28T09:25:25Z</time>
      </trkpt>
      <trkpt lat="45.76637" lon="4.64468">
        <ele>547</ele>
        <time>2012-05-28T09:25:26Z</time>
      </trkpt>
      <trkpt lat="45.76633" lon="4.6447">
        <ele>546</ele>
        <time>2012-05-28T09:25:28Z</time>
      </trkpt>
      <trkpt lat="45.76631" lon="4.64472">
        <ele>546</ele>
        <time>2012-05-28T09:25:29Z</time>
      </trkpt>
      <trkpt lat="45.76628" lon="4.64473">
        <ele>546</ele>
        <time>2012-05-28T09:25:30Z</time>
      </trkpt>
      <trkpt lat="45.76626" lon="4.64474">
        <ele>546</ele>
        <time>2012-05-28T09:25:31Z</time>
      </trkpt>
      <trkpt lat="45.76624" lon="4.64476">
        <ele>545</ele>
        <time>2012-05-28T09:25:32Z</time>
      </trkpt>
      <trkpt lat="45.76624" lon="4.64479">
        <ele>545</ele>
        <time>2012-05-28T09:25:33Z</time>
      </trkpt>
      <trkpt lat="45.76621" lon="4.64488">
        <ele>544</ele>
        <time>2012-05-28T09:25:38Z</time>
      </trkpt>
      <trkpt lat="45.76624" lon="4.64505">
        <ele>544</ele>
        <time>2012-05-28T09:25:45Z</time>
      </trkpt>
      <trkpt lat="45.7663" lon="4.64535">
        <ele>543</ele>
        <time>2012-05-28T09:25:51Z</time>
      </trkpt>
      <trkpt lat="45.76638" lon="4.64566">
        <ele>542</ele>
        <time>2012-05-28T09:25:57Z</time>
      </trkpt>
      <trkpt lat="45.76647" lon="4.64595">
        <ele>540</ele>
        <time>2012-05-28T09:26:03Z</time>
      </trkpt>
      <trkpt lat="45.7665" lon="4.64615">
        <ele>539</ele>
        <time>2012-05-28T09:26:08Z</time>
      </trkpt>
      <trkpt lat="45.7665" lon="4.64617">
        <ele>538</ele>
        <time>2012-05-28T09:26:09Z</time>
      </trkpt>
      <trkpt lat="45.76651" lon="4.64634">
        <ele>537</ele>
        <time>2012-05-28T09:26:13Z</time>
      </trkpt>
      <trkpt lat="45.76652" lon="4.64668">
        <ele>535</ele>
        <time>2012-05-28T09:26:18Z</time>
      </trkpt>
      <trkpt lat="45.76655" lon="4.64692">
        <ele>533</ele>
        <time>2012-05-28T09:26:22Z</time>
      </trkpt>
      <trkpt lat="45.76654" lon="4.64696">
        <ele>533</ele>
        <time>2012-05-28T09:26:23Z</time>
      </trkpt>
      <trkpt lat="45.76649" lon="4.64704">
        <ele>532</ele>
        <time>2012-05-28T09:26:25Z</time>
      </trkpt>
      <trkpt lat="45.76646" lon="4.64707">
        <ele>531</ele>
        <time>2012-05-28T09:26:26Z</time>
      </trkpt>
      <trkpt lat="45.76635" lon="4.64724">
        <ele>527</ele>
        <time>2012-05-28T09:26:30Z</time>
      </trkpt>
      <trkpt lat="45.76634" lon="4.64728">
        <ele>526</ele>
        <time>2012-05-28T09:26:31Z</time>
      </trkpt>
      <trkpt lat="45.76635" lon="4.64741">
        <ele>525</ele>
        <time>2012-05-28T09:26:35Z</time>
      </trkpt>
      <trkpt lat="45.76635" lon="4.64744">
        <ele>525</ele>
        <time>2012-05-28T09:26:53Z</time>
      </trkpt>
      <trkpt lat="45.76633" lon="4.64742">
        <ele>525</ele>
        <time>2012-05-28T09:27:16Z</time>
      </trkpt>
      <trkpt lat="45.76634" lon="4.64743">
        <ele>525</ele>
        <time>2012-05-28T09:27:38Z</time>
      </trkpt>
      <trkpt lat="45.76635" lon="4.64743">
        <ele>526</ele>
        <time>2012-05-28T09:27:57Z</time>
      </trkpt>
      <trkpt lat="45.76636" lon="4.64744">
        <ele>525</ele>
        <time>2012-05-28T09:28:14Z</time>
      </trkpt>
      <trkpt lat="45.76636" lon="4.64745">
        <ele>526</ele>
        <time>2012-05-28T09:28:21Z</time>
      </trkpt>
      <trkpt lat="45.76635" lon="4.64748">
        <ele>526</ele>
        <time>2012-05-28T09:28:29Z</time>
      </trkpt>
      <trkpt lat="45.76639" lon="4.64767">
        <ele>525</ele>
        <time>2012-05-28T09:28:37Z</time>
      </trkpt>
      <trkpt lat="45.76641" lon="4.64784">
        <ele>524</ele>
        <time>2012-05-28T09:28:42Z</time>
      </trkpt>
      <trkpt lat="45.76644" lon="4.64807">
        <ele>522</ele>
        <time>2012-05-28T09:28:48Z</time>
      </trkpt>
      <trkpt lat="45.76645" lon="4.64835">
        <ele>519</ele>
        <time>2012-05-28T09:28:53Z</time>
      </trkpt>
      <trkpt lat="45.76646" lon="4.64866">
        <ele>515</ele>
        <time>2012-05-28T09:28:57Z</time>
      </trkpt>
      <trkpt lat="45.76647" lon="4.64876">
        <ele>515</ele>
        <time>2012-05-28T09:28:58Z</time>
      </trkpt>
      <trkpt lat="45.76649" lon="4.64911">
        <ele>512</ele>
        <time>2012-05-28T09:29:01Z</time>
      </trkpt>
      <trkpt lat="45.76652" lon="4.64943">
        <ele>508</ele>
        <time>2012-05-28T09:29:04Z</time>
      </trkpt>
      <trkpt lat="45.76652" lon="4.64972">
        <ele>504</ele>
        <time>2012-05-28T09:29:07Z</time>
      </trkpt>
      <trkpt lat="45.76652" lon="4.64983">
        <ele>502</ele>
        <time>2012-05-28T09:29:08Z</time>
      </trkpt>
      <trkpt lat="45.76652" lon="4.64993">
        <ele>502</ele>
        <time>2012-05-28T09:29:09Z</time>
      </trkpt>
      <trkpt lat="45.76653" lon="4.65002">
        <ele>501</ele>
        <time>2012-05-28T09:29:10Z</time>
      </trkpt>
      <trkpt lat="45.76654" lon="4.6501">
        <ele>500</ele>
        <time>2012-05-28T09:29:11Z</time>
      </trkpt>
      <trkpt lat="45.76656" lon="4.65029">
        <ele>499</ele>
        <time>2012-05-28T09:29:15Z</time>
      </trkpt>
      <trkpt lat="45.76656" lon="4.65033">
        <ele>498</ele>
        <time>2012-05-28T09:29:17Z</time>
      </trkpt>
      <trkpt lat="45.76657" lon="4.65034">
        <ele>498</ele>
        <time>2012-05-28T09:29:18Z</time>
      </trkpt>
      <trkpt lat="45.76658" lon="4.65036">
        <ele>498</ele>
        <time>2012-05-28T09:29:19Z</time>
      </trkpt>
      <trkpt lat="45.76659" lon="4.65037">
        <ele>498</ele>
        <time>2012-05-28T09:29:20Z</time>
      </trkpt>
      <trkpt lat="45.76661" lon="4.65038">
        <ele>498</ele>
        <time>2012-05-28T09:29:21Z</time>
      </trkpt>
      <trkpt lat="45.76663" lon="4.65037">
        <ele>498</ele>
        <time>2012-05-28T09:29:22Z</time>
      </trkpt>
      <trkpt lat="45.76664" lon="4.65034">
        <ele>498</ele>
        <time>2012-05-28T09:29:23Z</time>
      </trkpt>
      <trkpt lat="45.76666" lon="4.65032">
        <ele>498</ele>
        <time>2012-05-28T09:29:24Z</time>
      </trkpt>
      <trkpt lat="45.76673" lon="4.65016">
        <ele>499</ele>
        <time>2012-05-28T09:29:30Z</time>
      </trkpt>
      <trkpt lat="45.76683" lon="4.64994">
        <ele>501</ele>
        <time>2012-05-28T09:29:38Z</time>
      </trkpt>
      <trkpt lat="45.76691" lon="4.64977">
        <ele>502</ele>
        <time>2012-05-28T09:29:45Z</time>
      </trkpt>
      <trkpt lat="45.76697" lon="4.64961">
        <ele>503</ele>
        <time>2012-05-28T09:29:51Z</time>
      </trkpt>
      <trkpt lat="45.76705" lon="4.64944">
        <ele>504</ele>
        <time>2012-05-28T09:29:57Z</time>
      </trkpt>
      <trkpt lat="45.76712" lon="4.64928">
        <ele>505</ele>
        <time>2012-05-28T09:30:03Z</time>
      </trkpt>
      <trkpt lat="45.76722" lon="4.64906">
        <ele>506</ele>
        <time>2012-05-28T09:30:11Z</time>
      </trkpt>
      <trkpt lat="45.76722" lon="4.64904">
        <ele>506</ele>
        <time>2012-05-28T09:30:12Z</time>
      </trkpt>
      <trkpt lat="45.76722" lon="4.64901">
        <ele>506</ele>
        <time>2012-05-28T09:30:13Z</time>
      </trkpt>
      <trkpt lat="45.76723" lon="4.64897">
        <ele>507</ele>
        <time>2012-05-28T09:30:14Z</time>
      </trkpt>
      <trkpt lat="45.76724" lon="4.64894">
        <ele>506</ele>
        <time>2012-05-28T09:30:15Z</time>
      </trkpt>
      <trkpt lat="45.76725" lon="4.64891">
        <ele>507</ele>
        <time>2012-05-28T09:30:16Z</time>
      </trkpt>
      <trkpt lat="45.76726" lon="4.64889">
        <ele>507</ele>
        <time>2012-05-28T09:30:17Z</time>
      </trkpt>
      <trkpt lat="45.76727" lon="4.64887">
        <ele>507</ele>
        <time>2012-05-28T09:30:18Z</time>
      </trkpt>
      <trkpt lat="45.76728" lon="4.64885">
        <ele>507</ele>
        <time>2012-05-28T09:30:19Z</time>
      </trkpt>
      <trkpt lat="45.76736" lon="4.64865">
        <ele>508</ele>
        <time>2012-05-28T09:30:26Z</time>
      </trkpt>
      <trkpt lat="45.76748" lon="4.64849">
        <ele>509</ele>
        <time>2012-05-28T09:30:32Z</time>
      </trkpt>
      <trkpt lat="45.76758" lon="4.64829">
        <ele>510</ele>
        <time>2012-05-28T09:30:39Z</time>
      </trkpt>
      <trkpt lat="45.76771" lon="4.64812">
        <ele>512</ele>
        <time>2012-05-28T09:30:47Z</time>
      </trkpt>
      <trkpt lat="45.76787" lon="4.64813">
        <ele>513</ele>
        <time>2012-05-28T09:30:53Z</time>
      </trkpt>
      <trkpt lat="45.76792" lon="4.64817">
        <ele>513</ele>
        <time>2012-05-28T09:30:55Z</time>
      </trkpt>
      <trkpt lat="45.76794" lon="4.6482">
        <ele>513</ele>
        <time>2012-05-28T09:30:56Z</time>
      </trkpt>
      <trkpt lat="45.76794" lon="4.64824">
        <ele>513</ele>
        <time>2012-05-28T09:30:57Z</time>
      </trkpt>
      <trkpt lat="45.76802" lon="4.64853">
        <ele>514</ele>
        <time>2012-05-28T09:31:06Z</time>
      </trkpt>
      <trkpt lat="45.76814" lon="4.64881">
        <ele>516</ele>
        <time>2012-05-28T09:31:16Z</time>
      </trkpt>
      <trkpt lat="45.76831" lon="4.64892">
        <ele>517</ele>
        <time>2012-05-28T09:31:24Z</time>
      </trkpt>
      <trkpt lat="45.76844" lon="4.6489">
        <ele>518</ele>
        <time>2012-05-28T09:31:30Z</time>
      </trkpt>
      <trkpt lat="45.76856" lon="4.64887">
        <ele>519</ele>
        <time>2012-05-28T09:31:36Z</time>
      </trkpt>
      <trkpt lat="45.76865" lon="4.64884">
        <ele>520</ele>
        <time>2012-05-28T09:31:40Z</time>
      </trkpt>
      <trkpt lat="45.76866" lon="4.64884">
        <ele>520</ele>
        <time>2012-05-28T09:31:41Z</time>
      </trkpt>
      <trkpt lat="45.76868" lon="4.64883">
        <ele>520</ele>
        <time>2012-05-28T09:31:42Z</time>
      </trkpt>
      <trkpt lat="45.76872" lon="4.64882">
        <ele>520</ele>
        <time>2012-05-28T09:31:44Z</time>
      </trkpt>
      <trkpt lat="45.76874" lon="4.64881">
        <ele>520</ele>
        <time>2012-05-28T09:31:45Z</time>
      </trkpt>
      <trkpt lat="45.76875" lon="4.64881">
        <ele>521</ele>
        <time>2012-05-28T09:31:46Z</time>
      </trkpt>
      <trkpt lat="45.76877" lon="4.64882">
        <ele>521</ele>
        <time>2012-05-28T09:31:47Z</time>
      </trkpt>
      <trkpt lat="45.76879" lon="4.64882">
        <ele>521</ele>
        <time>2012-05-28T09:31:48Z</time>
      </trkpt>
      <trkpt lat="45.76881" lon="4.64882">
        <ele>521</ele>
        <time>2012-05-28T09:31:49Z</time>
      </trkpt>
      <trkpt lat="45.76889" lon="4.64884">
        <ele>522</ele>
        <time>2012-05-28T09:31:55Z</time>
      </trkpt>
      <trkpt lat="45.76902" lon="4.64887">
        <ele>523</ele>
        <time>2012-05-28T09:32:00Z</time>
      </trkpt>
      <trkpt lat="45.76926" lon="4.6489">
        <ele>525</ele>
        <time>2012-05-28T09:32:08Z</time>
      </trkpt>
      <trkpt lat="45.76942" lon="4.64891">
        <ele>525</ele>
        <time>2012-05-28T09:32:14Z</time>
      </trkpt>
      <trkpt lat="45.76955" lon="4.6489">
        <ele>526</ele>
        <time>2012-05-28T09:32:20Z</time>
      </trkpt>
      <trkpt lat="45.76966" lon="4.64886">
        <ele>526</ele>
        <time>2012-05-28T09:32:26Z</time>
      </trkpt>
      <trkpt lat="45.7697" lon="4.64888">
        <ele>526</ele>
        <time>2012-05-28T09:32:29Z</time>
      </trkpt>
      <trkpt lat="45.76972" lon="4.64889">
        <ele>526</ele>
        <time>2012-05-28T09:32:30Z</time>
      </trkpt>
      <trkpt lat="45.76973" lon="4.64892">
        <ele>526</ele>
        <time>2012-05-28T09:32:31Z</time>
      </trkpt>
      <trkpt lat="45.76976" lon="4.64894">
        <ele>526</ele>
        <time>2012-05-28T09:32:32Z</time>
      </trkpt>
      <trkpt lat="45.76977" lon="4.64898">
        <ele>526</ele>
        <time>2012-05-28T09:32:33Z</time>
      </trkpt>
      <trkpt lat="45.76985" lon="4.6492">
        <ele>523</ele>
        <time>2012-05-28T09:32:39Z</time>
      </trkpt>
      <trkpt lat="45.76992" lon="4.64944">
        <ele>521</ele>
        <time>2012-05-28T09:32:44Z</time>
      </trkpt>
      <trkpt lat="45.77003" lon="4.64975">
        <ele>518</ele>
        <time>2012-05-28T09:32:49Z</time>
      </trkpt>
      <trkpt lat="45.77007" lon="4.64984">
        <ele>517</ele>
        <time>2012-05-28T09:32:51Z</time>
      </trkpt>
      <trkpt lat="45.7701" lon="4.64988">
        <ele>516</ele>
        <time>2012-05-28T09:32:55Z</time>
      </trkpt>
      <trkpt lat="45.7701" lon="4.64987">
        <ele>516</ele>
        <time>2012-05-28T09:32:56Z</time>
      </trkpt>
      <trkpt lat="45.77011" lon="4.64986">
        <ele>516</ele>
        <time>2012-05-28T09:32:57Z</time>
      </trkpt>
      <trkpt lat="45.77012" lon="4.64984">
        <ele>516</ele>
        <time>2012-05-28T09:33:01Z</time>
      </trkpt>
      <trkpt lat="45.77018" lon="4.64979">
        <ele>516</ele>
        <time>2012-05-28T09:33:04Z</time>
      </trkpt>
      <trkpt lat="45.7702" lon="4.64976">
        <ele>516</ele>
        <time>2012-05-28T09:33:05Z</time>
      </trkpt>
      <trkpt lat="45.77021" lon="4.64974">
        <ele>516</ele>
        <time>2012-05-28T09:33:06Z</time>
      </trkpt>
      <trkpt lat="45.77023" lon="4.64971">
        <ele>517</ele>
        <time>2012-05-28T09:33:07Z</time>
      </trkpt>
      <trkpt lat="45.77024" lon="4.64969">
        <ele>517</ele>
        <time>2012-05-28T09:33:08Z</time>
      </trkpt>
      <trkpt lat="45.77026" lon="4.64967">
        <ele>517</ele>
        <time>2012-05-28T09:33:09Z</time>
      </trkpt>
      <trkpt lat="45.77027" lon="4.64961">
        <ele>517</ele>
        <time>2012-05-28T09:33:11Z</time>
      </trkpt>
      <trkpt lat="45.77034" lon="4.64946">
        <ele>518</ele>
        <time>2012-05-28T09:33:16Z</time>
      </trkpt>
      <trkpt lat="45.77037" lon="4.64942">
        <ele>518</ele>
        <time>2012-05-28T09:33:22Z</time>
      </trkpt>
      <trkpt lat="45.7704" lon="4.64935">
        <ele>518</ele>
        <time>2012-05-28T09:33:27Z</time>
      </trkpt>
      <trkpt lat="45.77042" lon="4.64936">
        <ele>518</ele>
        <time>2012-05-28T09:33:29Z</time>
      </trkpt>
      <trkpt lat="45.77044" lon="4.64937">
        <ele>518</ele>
        <time>2012-05-28T09:33:30Z</time>
      </trkpt>
      <trkpt lat="45.77047" lon="4.64937">
        <ele>516</ele>
        <time>2012-05-28T09:33:33Z</time>
      </trkpt>
      <trkpt lat="45.77057" lon="4.64916">
        <ele>516</ele>
        <time>2012-05-28T09:33:40Z</time>
      </trkpt>
      <trkpt lat="45.77061" lon="4.6489">
        <ele>516</ele>
        <time>2012-05-28T09:33:47Z</time>
      </trkpt>
      <trkpt lat="45.77066" lon="4.64868">
        <ele>516</ele>
        <time>2012-05-28T09:33:53Z</time>
      </trkpt>
      <trkpt lat="45.77065" lon="4.64853">
        <ele>516</ele>
        <time>2012-05-28T09:33:57Z</time>
      </trkpt>
      <trkpt lat="45.77068" lon="4.64836">
        <ele>516</ele>
        <time>2012-05-28T09:34:01Z</time>
      </trkpt>
      <trkpt lat="45.77076" lon="4.64807">
        <ele>514</ele>
        <time>2012-05-28T09:34:07Z</time>
      </trkpt>
      <trkpt lat="45.77091" lon="4.64774">
        <ele>512</ele>
        <time>2012-05-28T09:34:13Z</time>
      </trkpt>
      <trkpt lat="45.77093" lon="4.6477">
        <ele>512</ele>
        <time>2012-05-28T09:34:14Z</time>
      </trkpt>
      <trkpt lat="45.77094" lon="4.64766">
        <ele>511</ele>
        <time>2012-05-28T09:34:15Z</time>
      </trkpt>
      <trkpt lat="45.77095" lon="4.64761">
        <ele>511</ele>
        <time>2012-05-28T09:34:16Z</time>
      </trkpt>
      <trkpt lat="45.77098" lon="4.64757">
        <ele>510</ele>
        <time>2012-05-28T09:34:17Z</time>
      </trkpt>
      <trkpt lat="45.77102" lon="4.64752">
        <ele>509</ele>
        <time>2012-05-28T09:34:18Z</time>
      </trkpt>
      <trkpt lat="45.7711" lon="4.64746">
        <ele>508</ele>
        <time>2012-05-28T09:34:20Z</time>
      </trkpt>
      <trkpt lat="45.77115" lon="4.64745">
        <ele>508</ele>
        <time>2012-05-28T09:34:21Z</time>
      </trkpt>
      <trkpt lat="45.7712" lon="4.64746">
        <ele>507</ele>
        <time>2012-05-28T09:34:22Z</time>
      </trkpt>
      <trkpt lat="45.77143" lon="4.64756">
        <ele>507</ele>
        <time>2012-05-28T09:34:28Z</time>
      </trkpt>
      <trkpt lat="45.77148" lon="4.64758">
        <ele>508</ele>
        <time>2012-05-28T09:34:30Z</time>
      </trkpt>
      <trkpt lat="45.7715" lon="4.6476">
        <ele>507</ele>
        <time>2012-05-28T09:34:31Z</time>
      </trkpt>
      <trkpt lat="45.77152" lon="4.64761">
        <ele>508</ele>
        <time>2012-05-28T09:34:32Z</time>
      </trkpt>
      <trkpt lat="45.77166" lon="4.64767">
        <ele>508</ele>
        <time>2012-05-28T09:34:38Z</time>
      </trkpt>
      <trkpt lat="45.77168" lon="4.64767">
        <ele>508</ele>
        <time>2012-05-28T09:34:39Z</time>
      </trkpt>
      <trkpt lat="45.77175" lon="4.64767">
        <ele>509</ele>
        <time>2012-05-28T09:34:42Z</time>
      </trkpt>
      <trkpt lat="45.77179" lon="4.64766">
        <ele>509</ele>
        <time>2012-05-28T09:34:43Z</time>
      </trkpt>
      <trkpt lat="45.77181" lon="4.64765">
        <ele>509</ele>
        <time>2012-05-28T09:34:44Z</time>
      </trkpt>
      <trkpt lat="45.77198" lon="4.64757">
        <ele>510</ele>
        <time>2012-05-28T09:34:51Z</time>
      </trkpt>
      <trkpt lat="45.77206" lon="4.64752">
        <ele>511</ele>
        <time>2012-05-28T09:34:55Z</time>
      </trkpt>
      <trkpt lat="45.77207" lon="4.64751">
        <ele>511</ele>
        <time>2012-05-28T09:34:56Z</time>
      </trkpt>
      <trkpt lat="45.77219" lon="4.64738">
        <ele>513</ele>
        <time>2012-05-28T09:35:04Z</time>
      </trkpt>
      <trkpt lat="45.77222" lon="4.64736">
        <ele>513</ele>
        <time>2012-05-28T09:35:07Z</time>
      </trkpt>
      <trkpt lat="45.77224" lon="4.64735">
        <ele>513</ele>
        <time>2012-05-28T09:35:08Z</time>
      </trkpt>
      <trkpt lat="45.77226" lon="4.64733">
        <ele>513</ele>
        <time>2012-05-28T09:35:09Z</time>
      </trkpt>
      <trkpt lat="45.77232" lon="4.64724">
        <ele>514</ele>
        <time>2012-05-28T09:35:13Z</time>
      </trkpt>
      <trkpt lat="45.77233" lon="4.64722">
        <ele>514</ele>
        <time>2012-05-28T09:35:14Z</time>
      </trkpt>
      <trkpt lat="45.77234" lon="4.64719">
        <ele>514</ele>
        <time>2012-05-28T09:35:15Z</time>
      </trkpt>
      <trkpt lat="45.77234" lon="4.64717">
        <ele>515</ele>
        <time>2012-05-28T09:35:16Z</time>
      </trkpt>
      <trkpt lat="45.77235" lon="4.64715">
        <ele>515</ele>
        <time>2012-05-28T09:35:17Z</time>
      </trkpt>
      <trkpt lat="45.77236" lon="4.64713">
        <ele>515</ele>
        <time>2012-05-28T09:35:18Z</time>
      </trkpt>
      <trkpt lat="45.77238" lon="4.64711">
        <ele>515</ele>
        <time>2012-05-28T09:35:19Z</time>
      </trkpt>
      <trkpt lat="45.77245" lon="4.64698">
        <ele>516</ele>
        <time>2012-05-28T09:35:25Z</time>
      </trkpt>
      <trkpt lat="45.77245" lon="4.64696">
        <ele>515</ele>
        <time>2012-05-28T09:35:26Z</time>
      </trkpt>
      <trkpt lat="45.77246" lon="4.64693">
        <ele>516</ele>
        <time>2012-05-28T09:35:27Z</time>
      </trkpt>
      <trkpt lat="45.77247" lon="4.64692">
        <ele>515</ele>
        <time>2012-05-28T09:35:28Z</time>
      </trkpt>
      <trkpt lat="45.77248" lon="4.6469">
        <ele>516</ele>
        <time>2012-05-28T09:35:29Z</time>
      </trkpt>
      <trkpt lat="45.77249" lon="4.64688">
        <ele>516</ele>
        <time>2012-05-28T09:35:30Z</time>
      </trkpt>
      <trkpt lat="45.7725" lon="4.64686">
        <ele>516</ele>
        <time>2012-05-28T09:35:31Z</time>
      </trkpt>
      <trkpt lat="45.77251" lon="4.64682">
        <ele>516</ele>
        <time>2012-05-28T09:35:32Z</time>
      </trkpt>
      <trkpt lat="45.77252" lon="4.64679">
        <ele>516</ele>
        <time>2012-05-28T09:35:33Z</time>
      </trkpt>
      <trkpt lat="45.77253" lon="4.64676">
        <ele>516</ele>
        <time>2012-05-28T09:35:34Z</time>
      </trkpt>
      <trkpt lat="45.77253" lon="4.64672">
        <ele>516</ele>
        <time>2012-05-28T09:35:35Z</time>
      </trkpt>
      <trkpt lat="45.77253" lon="4.64667">
        <ele>516</ele>
        <time>2012-05-28T09:35:36Z</time>
      </trkpt>
      <trkpt lat="45.77255" lon="4.64647">
        <ele>516</ele>
        <time>2012-05-28T09:35:41Z</time>
      </trkpt>
      <trkpt lat="45.77261" lon="4.64627">
        <ele>516</ele>
        <time>2012-05-28T09:35:46Z</time>
      </trkpt>
      <trkpt lat="45.77263" lon="4.64615">
        <ele>516</ele>
        <time>2012-05-28T09:35:49Z</time>
      </trkpt>
      <trkpt lat="45.77263" lon="4.64611">
        <ele>515</ele>
        <time>2012-05-28T09:35:50Z</time>
      </trkpt>
      <trkpt lat="45.77263" lon="4.64607">
        <ele>516</ele>
        <time>2012-05-28T09:35:51Z</time>
      </trkpt>
      <trkpt lat="45.77261" lon="4.64584">
        <ele>516</ele>
        <time>2012-05-28T09:35:56Z</time>
      </trkpt>
      <trkpt lat="45.77254" lon="4.64566">
        <ele>515</ele>
        <time>2012-05-28T09:36:01Z</time>
      </trkpt>
      <trkpt lat="45.77253" lon="4.64564">
        <ele>514</ele>
        <time>2012-05-28T09:36:02Z</time>
      </trkpt>
      <trkpt lat="45.7725" lon="4.64552">
        <ele>514</ele>
        <time>2012-05-28T09:36:08Z</time>
      </trkpt>
      <trkpt lat="45.77251" lon="4.64539">
        <ele>513</ele>
        <time>2012-05-28T09:36:15Z</time>
      </trkpt>
      <trkpt lat="45.77252" lon="4.64537">
        <ele>513</ele>
        <time>2012-05-28T09:36:16Z</time>
      </trkpt>
      <trkpt lat="45.77255" lon="4.64532">
        <ele>514</ele>
        <time>2012-05-28T09:36:22Z</time>
      </trkpt>
      <trkpt lat="45.77259" lon="4.6453">
        <ele>516</ele>
        <time>2012-05-28T09:36:27Z</time>
      </trkpt>
      <trkpt lat="45.77266" lon="4.64524">
        <ele>517</ele>
        <time>2012-05-28T09:36:34Z</time>
      </trkpt>
      <trkpt lat="45.77269" lon="4.64524">
        <ele>517</ele>
        <time>2012-05-28T09:36:42Z</time>
      </trkpt>
      <trkpt lat="45.77275" lon="4.64529">
        <ele>517</ele>
        <time>2012-05-28T09:36:49Z</time>
      </trkpt>
      <trkpt lat="45.77279" lon="4.6453">
        <ele>517</ele>
        <time>2012-05-28T09:36:51Z</time>
      </trkpt>
      <trkpt lat="45.7728" lon="4.64531">
        <ele>517</ele>
        <time>2012-05-28T09:36:52Z</time>
      </trkpt>
      <trkpt lat="45.77282" lon="4.64533">
        <ele>517</ele>
        <time>2012-05-28T09:36:53Z</time>
      </trkpt>
      <trkpt lat="45.77284" lon="4.64534">
        <ele>518</ele>
        <time>2012-05-28T09:36:54Z</time>
      </trkpt>
      <trkpt lat="45.77287" lon="4.64534">
        <ele>517</ele>
        <time>2012-05-28T09:36:55Z</time>
      </trkpt>
      <trkpt lat="45.7729" lon="4.64535">
        <ele>517</ele>
        <time>2012-05-28T09:36:56Z</time>
      </trkpt>
      <trkpt lat="45.77293" lon="4.64535">
        <ele>516</ele>
        <time>2012-05-28T09:36:57Z</time>
      </trkpt>
      <trkpt lat="45.7731" lon="4.64537">
        <ele>515</ele>
        <time>2012-05-28T09:37:04Z</time>
      </trkpt>
      <trkpt lat="45.77319" lon="4.64533">
        <ele>516</ele>
        <time>2012-05-28T09:37:10Z</time>
      </trkpt>
      <trkpt lat="45.77323" lon="4.64535">
        <ele>516</ele>
        <time>2012-05-28T09:37:15Z</time>
      </trkpt>
      <trkpt lat="45.77325" lon="4.64538">
        <ele>517</ele>
        <time>2012-05-28T09:37:17Z</time>
      </trkpt>
      <trkpt lat="45.77328" lon="4.64539">
        <ele>518</ele>
        <time>2012-05-28T09:37:18Z</time>
      </trkpt>
      <trkpt lat="45.77331" lon="4.6454">
        <ele>517</ele>
        <time>2012-05-28T09:37:19Z</time>
      </trkpt>
      <trkpt lat="45.77334" lon="4.64541">
        <ele>517</ele>
        <time>2012-05-28T09:37:20Z</time>
      </trkpt>
      <trkpt lat="45.77336" lon="4.64542">
        <ele>518</ele>
        <time>2012-05-28T09:37:21Z</time>
      </trkpt>
      <trkpt lat="45.7734" lon="4.64543">
        <ele>518</ele>
        <time>2012-05-28T09:37:23Z</time>
      </trkpt>
      <trkpt lat="45.77343" lon="4.64542">
        <ele>518</ele>
        <time>2012-05-28T09:37:25Z</time>
      </trkpt>
      <trkpt lat="45.77345" lon="4.64541">
        <ele>518</ele>
        <time>2012-05-28T09:37:26Z</time>
      </trkpt>
      <trkpt lat="45.77346" lon="4.64539">
        <ele>518</ele>
        <time>2012-05-28T09:37:27Z</time>
      </trkpt>
      <trkpt lat="45.77355" lon="4.64529">
        <ele>520</ele>
        <time>2012-05-28T09:37:32Z</time>
      </trkpt>
      <trkpt lat="45.77359" lon="4.6452">
        <ele>521</ele>
        <time>2012-05-28T09:37:37Z</time>
      </trkpt>
      <trkpt lat="45.7736" lon="4.64519">
        <ele>522</ele>
        <time>2012-05-28T09:37:38Z</time>
      </trkpt>
      <trkpt lat="45.77363" lon="4.64518">
        <ele>522</ele>
        <time>2012-05-28T09:37:39Z</time>
      </trkpt>
      <trkpt lat="45.77374" lon="4.64511">
        <ele>522</ele>
        <time>2012-05-28T09:37:45Z</time>
      </trkpt>
      <trkpt lat="45.77375" lon="4.64507">
        <ele>523</ele>
        <time>2012-05-28T09:37:47Z</time>
      </trkpt>
      <trkpt lat="45.77378" lon="4.64502">
        <ele>523</ele>
        <time>2012-05-28T09:37:53Z</time>
      </trkpt>
      <trkpt lat="45.77381" lon="4.64494">
        <ele>524</ele>
        <time>2012-05-28T09:37:59Z</time>
      </trkpt>
      <trkpt lat="45.77382" lon="4.64491">
        <ele>525</ele>
        <time>2012-05-28T09:38:01Z</time>
      </trkpt>
      <trkpt lat="45.77387" lon="4.64485">
        <ele>525</ele>
        <time>2012-05-28T09:38:05Z</time>
      </trkpt>
      <trkpt lat="45.77393" lon="4.64481">
        <ele>525</ele>
        <time>2012-05-28T09:38:12Z</time>
      </trkpt>
      <trkpt lat="45.77393" lon="4.64482">
        <ele>525</ele>
        <time>2012-05-28T09:38:26Z</time>
      </trkpt>
      <trkpt lat="45.77398" lon="4.6448">
        <ele>525</ele>
        <time>2012-05-28T09:38:34Z</time>
      </trkpt>
      <trkpt lat="45.77398" lon="4.64481">
        <ele>525</ele>
        <time>2012-05-28T09:38:40Z</time>
      </trkpt>
      <trkpt lat="45.77397" lon="4.64482">
        <ele>525</ele>
        <time>2012-05-28T09:38:41Z</time>
      </trkpt>
      <trkpt lat="45.77393" lon="4.64487">
        <ele>525</ele>
        <time>2012-05-28T09:38:45Z</time>
      </trkpt>
      <trkpt lat="45.77391" lon="4.64489">
        <ele>524</ele>
        <time>2012-05-28T09:38:46Z</time>
      </trkpt>
      <trkpt lat="45.7739" lon="4.64491">
        <ele>524</ele>
        <time>2012-05-28T09:38:47Z</time>
      </trkpt>
      <trkpt lat="45.77377" lon="4.64508">
        <ele>522</ele>
        <time>2012-05-28T09:38:53Z</time>
      </trkpt>
      <trkpt lat="45.77373" lon="4.64508">
        <ele>522</ele>
        <time>2012-05-28T09:38:59Z</time>
      </trkpt>
      <trkpt lat="45.77374" lon="4.64507">
        <ele>522</ele>
        <time>2012-05-28T09:39:00Z</time>
      </trkpt>
      <trkpt lat="45.77373" lon="4.64506">
        <ele>522</ele>
        <time>2012-05-28T09:39:01Z</time>
      </trkpt>
      <trkpt lat="45.77373" lon="4.64504">
        <ele>523</ele>
        <time>2012-05-28T09:39:02Z</time>
      </trkpt>
      <trkpt lat="45.77373" lon="4.64495">
        <ele>524</ele>
        <time>2012-05-28T09:39:08Z</time>
      </trkpt>
      <trkpt lat="45.77372" lon="4.64493">
        <ele>525</ele>
        <time>2012-05-28T09:39:15Z</time>
      </trkpt>
      <trkpt lat="45.77373" lon="4.64483">
        <ele>526</ele>
        <time>2012-05-28T09:39:22Z</time>
      </trkpt>
      <trkpt lat="45.77376" lon="4.64477">
        <ele>527</ele>
        <time>2012-05-28T09:39:27Z</time>
      </trkpt>
      <trkpt lat="45.77379" lon="4.64471">
        <ele>528</ele>
        <time>2012-05-28T09:39:34Z</time>
      </trkpt>
      <trkpt lat="45.7738" lon="4.64469">
        <ele>528</ele>
        <time>2012-05-28T09:39:39Z</time>
      </trkpt>
      <trkpt lat="45.77382" lon="4.64466">
        <ele>529</ele>
        <time>2012-05-28T09:39:41Z</time>
      </trkpt>
      <trkpt lat="45.77383" lon="4.64464">
        <ele>529</ele>
        <time>2012-05-28T09:39:42Z</time>
      </trkpt>
      <trkpt lat="45.77383" lon="4.64461">
        <ele>529</ele>
        <time>2012-05-28T09:39:43Z</time>
      </trkpt>
      <trkpt lat="45.77384" lon="4.64459">
        <ele>529</ele>
        <time>2012-05-28T09:39:44Z</time>
      </trkpt>
      <trkpt lat="45.77384" lon="4.64456">
        <ele>530</ele>
        <time>2012-05-28T09:39:45Z</time>
      </trkpt>
      <trkpt lat="45.77385" lon="4.64454">
        <ele>530</ele>
        <time>2012-05-28T09:39:46Z</time>
      </trkpt>
      <trkpt lat="45.77386" lon="4.64452">
        <ele>530</ele>
        <time>2012-05-28T09:39:47Z</time>
      </trkpt>
      <trkpt lat="45.77389" lon="4.64448">
        <ele>530</ele>
        <time>2012-05-28T09:39:50Z</time>
      </trkpt>
      <trkpt lat="45.77389" lon="4.64447">
        <ele>531</ele>
        <time>2012-05-28T09:39:51Z</time>
      </trkpt>
      <trkpt lat="45.77393" lon="4.64437">
        <ele>532</ele>
        <time>2012-05-28T09:39:58Z</time>
      </trkpt>
      <trkpt lat="45.77396" lon="4.64433">
        <ele>532</ele>
        <time>2012-05-28T09:40:02Z</time>
      </trkpt>
      <trkpt lat="45.774" lon="4.64424">
        <ele>533</ele>
        <time>2012-05-28T09:40:07Z</time>
      </trkpt>
      <trkpt lat="45.77401" lon="4.64422">
        <ele>533</ele>
        <time>2012-05-28T09:40:08Z</time>
      </trkpt>
      <trkpt lat="45.77405" lon="4.64409">
        <ele>534</ele>
        <time>2012-05-28T09:40:14Z</time>
      </trkpt>
      <trkpt lat="45.77408" lon="4.644">
        <ele>536</ele>
        <time>2012-05-28T09:40:21Z</time>
      </trkpt>
      <trkpt lat="45.7741" lon="4.64396">
        <ele>535</ele>
        <time>2012-05-28T09:40:23Z</time>
      </trkpt>
      <trkpt lat="45.77413" lon="4.64384">
        <ele>537</ele>
        <time>2012-05-28T09:40:30Z</time>
      </trkpt>
      <trkpt lat="45.77416" lon="4.64375">
        <ele>537</ele>
        <time>2012-05-28T09:40:35Z</time>
      </trkpt>
      <trkpt lat="45.77416" lon="4.64372">
        <ele>537</ele>
        <time>2012-05-28T09:40:36Z</time>
      </trkpt>
      <trkpt lat="45.77417" lon="4.64367">
        <ele>537</ele>
        <time>2012-05-28T09:40:39Z</time>
      </trkpt>
      <trkpt lat="45.77423" lon="4.6436">
        <ele>538</ele>
        <time>2012-05-28T09:40:44Z</time>
      </trkpt>
      <trkpt lat="45.77425" lon="4.64357">
        <ele>538</ele>
        <time>2012-05-28T09:40:45Z</time>
      </trkpt>
      <trkpt lat="45.77429" lon="4.64346">
        <ele>538</ele>
        <time>2012-05-28T09:40:50Z</time>
      </trkpt>
      <trkpt lat="45.77429" lon="4.64339">
        <ele>538</ele>
        <time>2012-05-28T09:40:56Z</time>
      </trkpt>
      <trkpt lat="45.77435" lon="4.64333">
        <ele>539</ele>
        <time>2012-05-28T09:41:02Z</time>
      </trkpt>
      <trkpt lat="45.77445" lon="4.64322">
        <ele>540</ele>
        <time>2012-05-28T09:41:09Z</time>
      </trkpt>
      <trkpt lat="45.77452" lon="4.64312">
        <ele>541</ele>
        <time>2012-05-28T09:41:14Z</time>
      </trkpt>
      <trkpt lat="45.77459" lon="4.64304">
        <ele>542</ele>
        <time>2012-05-28T09:41:18Z</time>
      </trkpt>
      <trkpt lat="45.77459" lon="4.64302">
        <ele>542</ele>
        <time>2012-05-28T09:41:19Z</time>
      </trkpt>
      <trkpt lat="45.7746" lon="4.64299">
        <ele>542</ele>
        <time>2012-05-28T09:41:20Z</time>
      </trkpt>
      <trkpt lat="45.77466" lon="4.64284">
        <ele>544</ele>
        <time>2012-05-28T09:41:26Z</time>
      </trkpt>
      <trkpt lat="45.77467" lon="4.64281">
        <ele>546</ele>
        <time>2012-05-28T09:41:34Z</time>
      </trkpt>
      <trkpt lat="45.7747" lon="4.64277">
        <ele>546</ele>
        <time>2012-05-28T09:41:41Z</time>
      </trkpt>
      <trkpt lat="45.77471" lon="4.64272">
        <ele>546</ele>
        <time>2012-05-28T09:41:47Z</time>
      </trkpt>
      <trkpt lat="45.77473" lon="4.6427">
        <ele>547</ele>
        <time>2012-05-28T09:41:55Z</time>
      </trkpt>
      <trkpt lat="45.77473" lon="4.6427">
        <ele>547</ele>
        <time>2012-05-28T09:42:03Z</time>
      </trkpt>
      <trkpt lat="45.77474" lon="4.64269">
        <ele>547</ele>
        <time>2012-05-28T09:42:11Z</time>
      </trkpt>
      <trkpt lat="45.77475" lon="4.64266">
        <ele>547</ele>
        <time>2012-05-28T09:42:13Z</time>
      </trkpt>
      <trkpt lat="45.77477" lon="4.64264">
        <ele>547</ele>
        <time>2012-05-28T09:42:14Z</time>
      </trkpt>
      <trkpt lat="45.77477" lon="4.64262">
        <ele>547</ele>
        <time>2012-05-28T09:42:15Z</time>
      </trkpt>
      <trkpt lat="45.77478" lon="4.6426">
        <ele>548</ele>
        <time>2012-05-28T09:42:16Z</time>
      </trkpt>
      <trkpt lat="45.77479" lon="4.64258">
        <ele>548</ele>
        <time>2012-05-28T09:42:17Z</time>
      </trkpt>
      <trkpt lat="45.77479" lon="4.64256">
        <ele>548</ele>
        <time>2012-05-28T09:42:18Z</time>
      </trkpt>
      <trkpt lat="45.77482" lon="4.64249">
        <ele>549</ele>
        <time>2012-05-28T09:42:22Z</time>
      </trkpt>
      <trkpt lat="45.77482" lon="4.64246">
        <ele>550</ele>
        <time>2012-05-28T09:42:23Z</time>
      </trkpt>
      <trkpt lat="45.77483" lon="4.64244">
        <ele>550</ele>
        <time>2012-05-28T09:42:24Z</time>
      </trkpt>
      <trkpt lat="45.77485" lon="4.64227">
        <ele>551</ele>
        <time>2012-05-28T09:42:32Z</time>
      </trkpt>
      <trkpt lat="45.77489" lon="4.64217">
        <ele>553</ele>
        <time>2012-05-28T09:42:37Z</time>
      </trkpt>
      <trkpt lat="45.7749" lon="4.64215">
        <ele>553</ele>
        <time>2012-05-28T09:42:38Z</time>
      </trkpt>
      <trkpt lat="45.7749" lon="4.64214">
        <ele>553</ele>
        <time>2012-05-28T09:42:39Z</time>
      </trkpt>
      <trkpt lat="45.77491" lon="4.64212">
        <ele>553</ele>
        <time>2012-05-28T09:42:40Z</time>
      </trkpt>
      <trkpt lat="45.77491" lon="4.64209">
        <ele>553</ele>
        <time>2012-05-28T09:42:41Z</time>
      </trkpt>
      <trkpt lat="45.77491" lon="4.64207">
        <ele>554</ele>
        <time>2012-05-28T09:42:42Z</time>
      </trkpt>
      <trkpt lat="45.77492" lon="4.64206">
        <ele>554</ele>
        <time>2012-05-28T09:42:43Z</time>
      </trkpt>
      <trkpt lat="45.77493" lon="4.64204">
        <ele>554</ele>
        <time>2012-05-28T09:42:44Z</time>
      </trkpt>
      <trkpt lat="45.77494" lon="4.64202">
        <ele>554</ele>
        <time>2012-05-28T09:42:45Z</time>
      </trkpt>
      <trkpt lat="45.77495" lon="4.642">
        <ele>554</ele>
        <time>2012-05-28T09:42:46Z</time>
      </trkpt>
      <trkpt lat="45.77495" lon="4.64199">
        <ele>555</ele>
        <time>2012-05-28T09:42:47Z</time>
      </trkpt>
      <trkpt lat="45.77496" lon="4.64197">
        <ele>555</ele>
        <time>2012-05-28T09:42:48Z</time>
      </trkpt>
      <trkpt lat="45.77496" lon="4.64195">
        <ele>555</ele>
        <time>2012-05-28T09:42:49Z</time>
      </trkpt>
      <trkpt lat="45.77496" lon="4.64187">
        <ele>555</ele>
        <time>2012-05-28T09:42:54Z</time>
      </trkpt>
      <trkpt lat="45.77497" lon="4.64181">
        <ele>556</ele>
        <time>2012-05-28T09:42:58Z</time>
      </trkpt>
      <trkpt lat="45.77497" lon="4.64173">
        <ele>557</ele>
        <time>2012-05-28T09:43:04Z</time>
      </trkpt>
      <trkpt lat="45.77497" lon="4.64171">
        <ele>557</ele>
        <time>2012-05-28T09:43:09Z</time>
      </trkpt>
      <trkpt lat="45.77496" lon="4.64165">
        <ele>558</ele>
        <time>2012-05-28T09:43:16Z</time>
      </trkpt>
      <trkpt lat="45.77495" lon="4.64157">
        <ele>560</ele>
        <time>2012-05-28T09:43:23Z</time>
      </trkpt>
      <trkpt lat="45.77493" lon="4.6415">
        <ele>560</ele>
        <time>2012-05-28T09:43:28Z</time>
      </trkpt>
      <trkpt lat="45.77491" lon="4.64146">
        <ele>561</ele>
        <time>2012-05-28T09:43:33Z</time>
      </trkpt>
      <trkpt lat="45.7749" lon="4.64143">
        <ele>561</ele>
        <time>2012-05-28T09:43:40Z</time>
      </trkpt>
      <trkpt lat="45.77488" lon="4.64138">
        <ele>561</ele>
        <time>2012-05-28T09:43:49Z</time>
      </trkpt>
      <trkpt lat="45.77486" lon="4.64127">
        <ele>562</ele>
        <time>2012-05-28T09:43:55Z</time>
      </trkpt>
      <trkpt lat="45.77486" lon="4.64125">
        <ele>562</ele>
        <time>2012-05-28T09:43:56Z</time>
      </trkpt>
      <trkpt lat="45.77487" lon="4.64117">
        <ele>562</ele>
        <time>2012-05-28T09:44:00Z</time>
      </trkpt>
      <trkpt lat="45.77489" lon="4.64108">
        <ele>563</ele>
        <time>2012-05-28T09:44:07Z</time>
      </trkpt>
      <trkpt lat="45.77494" lon="4.64097">
        <ele>564</ele>
        <time>2012-05-28T09:44:14Z</time>
      </trkpt>
      <trkpt lat="45.77496" lon="4.64086">
        <ele>564</ele>
        <time>2012-05-28T09:44:21Z</time>
      </trkpt>
      <trkpt lat="45.77498" lon="4.6408">
        <ele>565</ele>
        <time>2012-05-28T09:44:27Z</time>
      </trkpt>
      <trkpt lat="45.77502" lon="4.64073">
        <ele>566</ele>
        <time>2012-05-28T09:44:32Z</time>
      </trkpt>
      <trkpt lat="45.77515" lon="4.64064">
        <ele>568</ele>
        <time>2012-05-28T09:44:38Z</time>
      </trkpt>
      <trkpt lat="45.77522" lon="4.64058">
        <ele>568</ele>
        <time>2012-05-28T09:44:42Z</time>
      </trkpt>
      <trkpt lat="45.77532" lon="4.64049">
        <ele>569</ele>
        <time>2012-05-28T09:44:49Z</time>
      </trkpt>
      <trkpt lat="45.77542" lon="4.64042">
        <ele>570</ele>
        <time>2012-05-28T09:44:57Z</time>
      </trkpt>
      <trkpt lat="45.77548" lon="4.64041">
        <ele>571</ele>
        <time>2012-05-28T09:45:04Z</time>
      </trkpt>
      <trkpt lat="45.77561" lon="4.64038">
        <ele>571</ele>
        <time>2012-05-28T09:45:10Z</time>
      </trkpt>
      <trkpt lat="45.77566" lon="4.64042">
        <ele>572</ele>
        <time>2012-05-28T09:45:17Z</time>
      </trkpt>
      <trkpt lat="45.77571" lon="4.64042">
        <ele>572</ele>
        <time>2012-05-28T09:45:19Z</time>
      </trkpt>
      <trkpt lat="45.77573" lon="4.64043">
        <ele>572</ele>
        <time>2012-05-28T09:45:20Z</time>
      </trkpt>
      <trkpt lat="45.77581" lon="4.64049">
        <ele>572</ele>
        <time>2012-05-28T09:45:25Z</time>
      </trkpt>
      <trkpt lat="45.77597" lon="4.64059">
        <ele>573</ele>
        <time>2012-05-28T09:45:31Z</time>
      </trkpt>
      <trkpt lat="45.77607" lon="4.64065">
        <ele>574</ele>
        <time>2012-05-28T09:45:37Z</time>
      </trkpt>
      <trkpt lat="45.77622" lon="4.64069">
        <ele>575</ele>
        <time>2012-05-28T09:45:45Z</time>
      </trkpt>
      <trkpt lat="45.77625" lon="4.64068">
        <ele>575</ele>
        <time>2012-05-28T09:45:48Z</time>
      </trkpt>
      <trkpt lat="45.77627" lon="4.64068">
        <ele>575</ele>
        <time>2012-05-28T09:45:49Z</time>
      </trkpt>
      <trkpt lat="45.77629" lon="4.64068">
        <ele>575</ele>
        <time>2012-05-28T09:45:50Z</time>
      </trkpt>
      <trkpt lat="45.7763" lon="4.64068">
        <ele>575</ele>
        <time>2012-05-28T09:45:51Z</time>
      </trkpt>
      <trkpt lat="45.77632" lon="4.64067">
        <ele>576</ele>
        <time>2012-05-28T09:45:52Z</time>
      </trkpt>
      <trkpt lat="45.77636" lon="4.64066">
        <ele>576</ele>
        <time>2012-05-28T09:45:55Z</time>
      </trkpt>
      <trkpt lat="45.77637" lon="4.64065">
        <ele>577</ele>
        <time>2012-05-28T09:45:56Z</time>
      </trkpt>
      <trkpt lat="45.77648" lon="4.64062">
        <ele>578</ele>
        <time>2012-05-28T09:46:03Z</time>
      </trkpt>
      <trkpt lat="45.77655" lon="4.6406">
        <ele>579</ele>
        <time>2012-05-28T09:46:08Z</time>
      </trkpt>
      <trkpt lat="45.77656" lon="4.64059">
        <ele>579</ele>
        <time>2012-05-28T09:46:09Z</time>
      </trkpt>
      <trkpt lat="45.77661" lon="4.64058">
        <ele>580</ele>
        <time>2012-05-28T09:46:13Z</time>
      </trkpt>
      <trkpt lat="45.77667" lon="4.64058">
        <ele>580</ele>
        <time>2012-05-28T09:46:18Z</time>
      </trkpt>
      <trkpt lat="45.77677" lon="4.64054">
        <ele>581</ele>
        <time>2012-05-28T09:46:25Z</time>
      </trkpt>
      <trkpt lat="45.77687" lon="4.64046">
        <ele>583</ele>
        <time>2012-05-28T09:46:32Z</time>
      </trkpt>
      <trkpt lat="45.77695" lon="4.64043">
        <ele>585</ele>
        <time>2012-05-28T09:46:38Z</time>
      </trkpt>
      <trkpt lat="45.77701" lon="4.64043">
        <ele>587</ele>
        <time>2012-05-28T09:46:43Z</time>
      </trkpt>
      <trkpt lat="45.77703" lon="4.64042">
        <ele>587</ele>
        <time>2012-05-28T09:46:51Z</time>
      </trkpt>
      <trkpt lat="45.77703" lon="4.64042">
        <ele>587</ele>
        <time>2012-05-28T09:46:58Z</time>
      </trkpt>
      <trkpt lat="45.77703" lon="4.64041">
        <ele>587</ele>
        <time>2012-05-28T09:47:08Z</time>
      </trkpt>
      <trkpt lat="45.77704" lon="4.64039">
        <ele>587</ele>
        <time>2012-05-28T09:47:22Z</time>
      </trkpt>
      <trkpt lat="45.77711" lon="4.64036">
        <ele>589</ele>
        <time>2012-05-28T09:47:32Z</time>
      </trkpt>
      <trkpt lat="45.77715" lon="4.64032">
        <ele>592</ele>
        <time>2012-05-28T09:47:41Z</time>
      </trkpt>
      <trkpt lat="45.77717" lon="4.64032">
        <ele>593</ele>
        <time>2012-05-28T09:47:47Z</time>
      </trkpt>
      <trkpt lat="45.7772" lon="4.64031">
        <ele>594</ele>
        <time>2012-05-28T09:47:53Z</time>
      </trkpt>
      <trkpt lat="45.77723" lon="4.64031">
        <ele>595</ele>
        <time>2012-05-28T09:48:00Z</time>
      </trkpt>
      <trkpt lat="45.77729" lon="4.64028">
        <ele>597</ele>
        <time>2012-05-28T09:48:07Z</time>
      </trkpt>
      <trkpt lat="45.77733" lon="4.64027">
        <ele>598</ele>
        <time>2012-05-28T09:48:14Z</time>
      </trkpt>
      <trkpt lat="45.77738" lon="4.64031">
        <ele>599</ele>
        <time>2012-05-28T09:48:20Z</time>
      </trkpt>
      <trkpt lat="45.77744" lon="4.64028">
        <ele>600</ele>
        <time>2012-05-28T09:48:26Z</time>
      </trkpt>
      <trkpt lat="45.77748" lon="4.64019">
        <ele>602</ele>
        <time>2012-05-28T09:48:34Z</time>
      </trkpt>
      <trkpt lat="45.77754" lon="4.64011">
        <ele>603</ele>
        <time>2012-05-28T09:48:42Z</time>
      </trkpt>
      <trkpt lat="45.77756" lon="4.64002">
        <ele>605</ele>
        <time>2012-05-28T09:48:48Z</time>
      </trkpt>
      <trkpt lat="45.77759" lon="4.63997">
        <ele>606</ele>
        <time>2012-05-28T09:48:56Z</time>
      </trkpt>
      <trkpt lat="45.77762" lon="4.63999">
        <ele>605</ele>
        <time>2012-05-28T09:49:04Z</time>
      </trkpt>
      <trkpt lat="45.77761" lon="4.63998">
        <ele>606</ele>
        <time>2012-05-28T09:49:16Z</time>
      </trkpt>
      <trkpt lat="45.77761" lon="4.63998">
        <ele>606</ele>
        <time>2012-05-28T09:49:24Z</time>
      </trkpt>
      <trkpt lat="45.77762" lon="4.63998">
        <ele>605</ele>
        <time>2012-05-28T09:49:30Z</time>
      </trkpt>
      <trkpt lat="45.77763" lon="4.63997">
        <ele>606</ele>
        <time>2012-05-28T09:49:31Z</time>
      </trkpt>
      <trkpt lat="45.77764" lon="4.63997">
        <ele>606</ele>
        <time>2012-05-28T09:49:32Z</time>
      </trkpt>
      <trkpt lat="45.77765" lon="4.63997">
        <ele>606</ele>
        <time>2012-05-28T09:49:33Z</time>
      </trkpt>
      <trkpt lat="45.77767" lon="4.63998">
        <ele>606</ele>
        <time>2012-05-28T09:49:34Z</time>
      </trkpt>
      <trkpt lat="45.77768" lon="4.63998">
        <ele>606</ele>
        <time>2012-05-28T09:49:35Z</time>
      </trkpt>
      <trkpt lat="45.77769" lon="4.63999">
        <ele>606</ele>
        <time>2012-05-28T09:49:36Z</time>
      </trkpt>
      <trkpt lat="45.77771" lon="4.63999">
        <ele>606</ele>
        <time>2012-05-28T09:49:37Z</time>
      </trkpt>
      <trkpt lat="45.77777" lon="4.64001">
        <ele>607</ele>
        <time>2012-05-28T09:49:42Z</time>
      </trkpt>
      <trkpt lat="45.77778" lon="4.64001">
        <ele>607</ele>
        <time>2012-05-28T09:49:43Z</time>
      </trkpt>
      <trkpt lat="45.77779" lon="4.64001">
        <ele>607</ele>
        <time>2012-05-28T09:49:44Z</time>
      </trkpt>
      <trkpt lat="45.77781" lon="4.64001">
        <ele>607</ele>
        <time>2012-05-28T09:49:45Z</time>
      </trkpt>
      <trkpt lat="45.77782" lon="4.64001">
        <ele>607</ele>
        <time>2012-05-28T09:49:46Z</time>
      </trkpt>
      <trkpt lat="45.77784" lon="4.64001">
        <ele>607</ele>
        <time>2012-05-28T09:49:47Z</time>
      </trkpt>
      <trkpt lat="45.77785" lon="4.64001">
        <ele>607</ele>
        <time>2012-05-28T09:49:48Z</time>
      </trkpt>
      <trkpt lat="45.77787" lon="4.64001">
        <ele>608</ele>
        <time>2012-05-28T09:49:49Z</time>
      </trkpt>
      <trkpt lat="45.77788" lon="4.64001">
        <ele>608</ele>
        <time>2012-05-28T09:49:50Z</time>
      </trkpt>
      <trkpt lat="45.77789" lon="4.64001">
        <ele>608</ele>
        <time>2012-05-28T09:49:51Z</time>
      </trkpt>
      <trkpt lat="45.7779" lon="4.64">
        <ele>609</ele>
        <time>2012-05-28T09:49:52Z</time>
      </trkpt>
      <trkpt lat="45.77792" lon="4.64">
        <ele>608</ele>
        <time>2012-05-28T09:49:53Z</time>
      </trkpt>
      <trkpt lat="45.77793" lon="4.63999">
        <ele>608</ele>
        <time>2012-05-28T09:49:54Z</time>
      </trkpt>
      <trkpt lat="45.77794" lon="4.63997">
        <ele>608</ele>
        <time>2012-05-28T09:49:55Z</time>
      </trkpt>
      <trkpt lat="45.77795" lon="4.63996">
        <ele>609</ele>
        <time>2012-05-28T09:49:56Z</time>
      </trkpt>
      <trkpt lat="45.77803" lon="4.63985">
        <ele>609</ele>
        <time>2012-05-28T09:50:04Z</time>
      </trkpt>
      <trkpt lat="45.77803" lon="4.63985">
        <ele>610</ele>
        <time>2012-05-28T09:50:11Z</time>
      </trkpt>
      <trkpt lat="45.77803" lon="4.63986">
        <ele>610</ele>
        <time>2012-05-28T09:50:26Z</time>
      </trkpt>
      <trkpt lat="45.77803" lon="4.63986">
        <ele>610</ele>
        <time>2012-05-28T09:50:46Z</time>
      </trkpt>
      <trkpt lat="45.77803" lon="4.63987">
        <ele>609</ele>
        <time>2012-05-28T09:51:07Z</time>
      </trkpt>
      <trkpt lat="45.77802" lon="4.63987">
        <ele>609</ele>
        <time>2012-05-28T09:51:24Z</time>
      </trkpt>
      <trkpt lat="45.77803" lon="4.63987">
        <ele>610</ele>
        <time>2012-05-28T09:51:46Z</time>
      </trkpt>
      <trkpt lat="45.77803" lon="4.63987">
        <ele>609</ele>
        <time>2012-05-28T09:52:04Z</time>
      </trkpt>
      <trkpt lat="45.77804" lon="4.63987">
        <ele>610</ele>
        <time>2012-05-28T09:52:20Z</time>
      </trkpt>
      <trkpt lat="45.77803" lon="4.63987">
        <ele>610</ele>
        <time>2012-05-28T09:52:39Z</time>
      </trkpt>
      <trkpt lat="45.77802" lon="4.63988">
        <ele>610</ele>
        <time>2012-05-28T09:52:59Z</time>
      </trkpt>
      <trkpt lat="45.77803" lon="4.63987">
        <ele>610</ele>
        <time>2012-05-28T09:53:19Z</time>
      </trkpt>
      <trkpt lat="45.77803" lon="4.63986">
        <ele>610</ele>
        <time>2012-05-28T09:53:40Z</time>
      </trkpt>
      <trkpt lat="45.77803" lon="4.63986">
        <ele>610</ele>
        <time>2012-05-28T09:54:00Z</time>
      </trkpt>
      <trkpt lat="45.77803" lon="4.63987">
        <ele>610</ele>
        <time>2012-05-28T09:54:21Z</time>
      </trkpt>
      <trkpt lat="45.77803" lon="4.63987">
        <ele>611</ele>
        <time>2012-05-28T09:54:42Z</time>
      </trkpt>
      <trkpt lat="45.77802" lon="4.63988">
        <ele>610</ele>
        <time>2012-05-28T09:55:03Z</time>
      </trkpt>
      <trkpt lat="45.77802" lon="4.63988">
        <ele>610</ele>
        <time>2012-05-28T09:55:20Z</time>
      </trkpt>
      <trkpt lat="45.77802" lon="4.63988">
        <ele>611</ele>
        <time>2012-05-28T09:55:40Z</time>
      </trkpt>
      <trkpt lat="45.77803" lon="4.63987">
        <ele>611</ele>
        <time>2012-05-28T09:56:00Z</time>
      </trkpt>
      <trkpt lat="45.77803" lon="4.63985">
        <ele>611</ele>
        <time>2012-05-28T09:56:23Z</time>
      </trkpt>
      <trkpt lat="45.77804" lon="4.63985">
        <ele>611</ele>
        <time>2012-05-28T09:56:48Z</time>
      </trkpt>
      <trkpt lat="45.77804" lon="4.63986">
        <ele>611</ele>
        <time>2012-05-28T09:57:07Z</time>
      </trkpt>
      <trkpt lat="45.77803" lon="4.63986">
        <ele>610</ele>
        <time>2012-05-28T09:57:20Z</time>
      </trkpt>
      <trkpt lat="45.77803" lon="4.63985">
        <ele>611</ele>
        <time>2012-05-28T09:57:40Z</time>
      </trkpt>
      <trkpt lat="45.77803" lon="4.63985">
        <ele>610</ele>
        <time>2012-05-28T09:58:02Z</time>
      </trkpt>
      <trkpt lat="45.77803" lon="4.63986">
        <ele>610</ele>
        <time>2012-05-28T09:58:20Z</time>
      </trkpt>
      <trkpt lat="45.77803" lon="4.63987">
        <ele>610</ele>
        <time>2012-05-28T09:58:39Z</time>
      </trkpt>
      <trkpt lat="45.77802" lon="4.63987">
        <ele>610</ele>
        <time>2012-05-28T09:59:02Z</time>
      </trkpt>
      <trkpt lat="45.77802" lon="4.63987">
        <ele>610</ele>
        <time>2012-05-28T09:59:22Z</time>
      </trkpt>
      <trkpt lat="45.77802" lon="4.63986">
        <ele>610</ele>
        <time>2012-05-28T09:59:40Z</time>
      </trkpt>
      <trkpt lat="45.77803" lon="4.63986">
        <ele>610</ele>
        <time>2012-05-28T10:00:00Z</time>
      </trkpt>
      <trkpt lat="45.77803" lon="4.63986">
        <ele>610</ele>
        <time>2012-05-28T10:00:16Z</time>
      </trkpt>
      <trkpt lat="45.77803" lon="4.63987">
        <ele>609</ele>
        <time>2012-05-28T10:00:39Z</time>
      </trkpt>
      <trkpt lat="45.77803" lon="4.63987">
        <ele>610</ele>
        <time>2012-05-28T10:00:58Z</time>
      </trkpt>
      <trkpt lat="45.77803" lon="4.63987">
        <ele>610</ele>
        <time>2012-05-28T10:01:20Z</time>
      </trkpt>
      <trkpt lat="45.77803" lon="4.63985">
        <ele>609</ele>
        <time>2012-05-28T10:01:33Z</time>
      </trkpt>
      <trkpt lat="45.77803" lon="4.63982">
        <ele>610</ele>
        <time>2012-05-28T10:01:42Z</time>
      </trkpt>
      <trkpt lat="45.77803" lon="4.63981">
        <ele>610</ele>
        <time>2012-05-28T10:01:43Z</time>
      </trkpt>
      <trkpt lat="45.77807" lon="4.63974">
        <ele>609</ele>
        <time>2012-05-28T10:01:51Z</time>
      </trkpt>
      <trkpt lat="45.77807" lon="4.63973">
        <ele>609</ele>
        <time>2012-05-28T10:01:58Z</time>
      </trkpt>
      <trkpt lat="45.77807" lon="4.63973">
        <ele>609</ele>
        <time>2012-05-28T10:02:12Z</time>
      </trkpt>
      <trkpt lat="45.77807" lon="4.63974">
        <ele>609</ele>
        <time>2012-05-28T10:02:13Z</time>
      </trkpt>
      <trkpt lat="45.77807" lon="4.63975">
        <ele>609</ele>
        <time>2012-05-28T10:02:19Z</time>
      </trkpt>
      <trkpt lat="45.77807" lon="4.63976">
        <ele>609</ele>
        <time>2012-05-28T10:02:38Z</time>
      </trkpt>
      <trkpt lat="45.77807" lon="4.63976">
        <ele>609</ele>
        <time>2012-05-28T10:03:04Z</time>
      </trkpt>
      <trkpt lat="45.77807" lon="4.63974">
        <ele>610</ele>
        <time>2012-05-28T10:03:22Z</time>
      </trkpt>
      <trkpt lat="45.77806" lon="4.63974">
        <ele>610</ele>
        <time>2012-05-28T10:03:40Z</time>
      </trkpt>
      <trkpt lat="45.77806" lon="4.63974">
        <ele>610</ele>
        <time>2012-05-28T10:03:59Z</time>
      </trkpt>
      <trkpt lat="45.77807" lon="4.63975">
        <ele>610</ele>
        <time>2012-05-28T10:04:15Z</time>
      </trkpt>
      <trkpt lat="45.77806" lon="4.63974">
        <ele>609</ele>
        <time>2012-05-28T10:04:31Z</time>
      </trkpt>
      <trkpt lat="45.77805" lon="4.63974">
        <ele>610</ele>
        <time>2012-05-28T10:04:37Z</time>
      </trkpt>
      <trkpt lat="45.77805" lon="4.63975">
        <ele>610</ele>
        <time>2012-05-28T10:04:38Z</time>
      </trkpt>
      <trkpt lat="45.77804" lon="4.63977">
        <ele>611</ele>
        <time>2012-05-28T10:04:39Z</time>
      </trkpt>
      <trkpt lat="45.77803" lon="4.63978">
        <ele>609</ele>
        <time>2012-05-28T10:04:40Z</time>
      </trkpt>
      <trkpt lat="45.77801" lon="4.6398">
        <ele>609</ele>
        <time>2012-05-28T10:04:42Z</time>
      </trkpt>
      <trkpt lat="45.77801" lon="4.63982">
        <ele>610</ele>
        <time>2012-05-28T10:04:43Z</time>
      </trkpt>
      <trkpt lat="45.778" lon="4.63984">
        <ele>610</ele>
        <time>2012-05-28T10:04:44Z</time>
      </trkpt>
      <trkpt lat="45.77799" lon="4.63986">
        <ele>609</ele>
        <time>2012-05-28T10:04:45Z</time>
      </trkpt>
      <trkpt lat="45.77797" lon="4.63986">
        <ele>610</ele>
        <time>2012-05-28T10:04:46Z</time>
      </trkpt>
      <trkpt lat="45.77794" lon="4.63986">
        <ele>609</ele>
        <time>2012-05-28T10:04:47Z</time>
      </trkpt>
      <trkpt lat="45.77792" lon="4.63983">
        <ele>610</ele>
        <time>2012-05-28T10:04:48Z</time>
      </trkpt>
      <trkpt lat="45.7779" lon="4.63982">
        <ele>609</ele>
        <time>2012-05-28T10:04:49Z</time>
      </trkpt>
      <trkpt lat="45.77783" lon="4.63974">
        <ele>611</ele>
        <time>2012-05-28T10:04:54Z</time>
      </trkpt>
      <trkpt lat="45.77775" lon="4.63965">
        <ele>610</ele>
        <time>2012-05-28T10:05:00Z</time>
      </trkpt>
      <trkpt lat="45.77764" lon="4.63956">
        <ele>610</ele>
        <time>2012-05-28T10:05:07Z</time>
      </trkpt>
      <trkpt lat="45.7775" lon="4.6394">
        <ele>611</ele>
        <time>2012-05-28T10:05:14Z</time>
      </trkpt>
      <trkpt lat="45.77737" lon="4.63931">
        <ele>611</ele>
        <time>2012-05-28T10:05:20Z</time>
      </trkpt>
      <trkpt lat="45.7772" lon="4.63931">
        <ele>612</ele>
        <time>2012-05-28T10:05:27Z</time>
      </trkpt>
      <trkpt lat="45.777" lon="4.63926">
        <ele>612</ele>
        <time>2012-05-28T10:05:35Z</time>
      </trkpt>
      <trkpt lat="45.77688" lon="4.63916">
        <ele>613</ele>
        <time>2012-05-28T10:05:41Z</time>
      </trkpt>
      <trkpt lat="45.77674" lon="4.63907">
        <ele>612</ele>
        <time>2012-05-28T10:05:47Z</time>
      </trkpt>
      <trkpt lat="45.77651" lon="4.63895">
        <ele>611</ele>
        <time>2012-05-28T10:05:52Z</time>
      </trkpt>
      <trkpt lat="45.77622" lon="4.63879">
        <ele>610</ele>
        <time>2012-05-28T10:05:58Z</time>
      </trkpt>
      <trkpt lat="45.77605" lon="4.63866">
        <ele>609</ele>
        <time>2012-05-28T10:06:03Z</time>
      </trkpt>
      <trkpt lat="45.77596" lon="4.63857">
        <ele>610</ele>
        <time>2012-05-28T10:06:08Z</time>
      </trkpt>
      <trkpt lat="45.77589" lon="4.63852">
        <ele>610</ele>
        <time>2012-05-28T10:06:16Z</time>
      </trkpt>
      <trkpt lat="45.77583" lon="4.6385">
        <ele>610</ele>
        <time>2012-05-28T10:06:21Z</time>
      </trkpt>
      <trkpt lat="45.77575" lon="4.63846">
        <ele>611</ele>
        <time>2012-05-28T10:06:27Z</time>
      </trkpt>
      <trkpt lat="45.77575" lon="4.63845">
        <ele>612</ele>
        <time>2012-05-28T10:06:28Z</time>
      </trkpt>
      <trkpt lat="45.77567" lon="4.63836">
        <ele>612</ele>
        <time>2012-05-28T10:06:36Z</time>
      </trkpt>
      <trkpt lat="45.77564" lon="4.6383">
        <ele>613</ele>
        <time>2012-05-28T10:06:40Z</time>
      </trkpt>
      <trkpt lat="45.77561" lon="4.63827">
        <ele>614</ele>
        <time>2012-05-28T10:06:43Z</time>
      </trkpt>
      <trkpt lat="45.77557" lon="4.63822">
        <ele>614</ele>
        <time>2012-05-28T10:06:46Z</time>
      </trkpt>
      <trkpt lat="45.77556" lon="4.6382">
        <ele>615</ele>
        <time>2012-05-28T10:06:47Z</time>
      </trkpt>
      <trkpt lat="45.77555" lon="4.63818">
        <ele>615</ele>
        <time>2012-05-28T10:06:48Z</time>
      </trkpt>
      <trkpt lat="45.77554" lon="4.63816">
        <ele>615</ele>
        <time>2012-05-28T10:06:49Z</time>
      </trkpt>
      <trkpt lat="45.77554" lon="4.63814">
        <ele>615</ele>
        <time>2012-05-28T10:06:50Z</time>
      </trkpt>
      <trkpt lat="45.77545" lon="4.63805">
        <ele>617</ele>
        <time>2012-05-28T10:06:57Z</time>
      </trkpt>
      <trkpt lat="45.77542" lon="4.63802">
        <ele>617</ele>
        <time>2012-05-28T10:06:59Z</time>
      </trkpt>
      <trkpt lat="45.77541" lon="4.63802">
        <ele>617</ele>
        <time>2012-05-28T10:07:00Z</time>
      </trkpt>
      <trkpt lat="45.7754" lon="4.638">
        <ele>617</ele>
        <time>2012-05-28T10:07:01Z</time>
      </trkpt>
      <trkpt lat="45.77539" lon="4.63799">
        <ele>618</ele>
        <time>2012-05-28T10:07:02Z</time>
      </trkpt>
      <trkpt lat="45.77538" lon="4.63798">
        <ele>618</ele>
        <time>2012-05-28T10:07:03Z</time>
      </trkpt>
      <trkpt lat="45.77531" lon="4.63792">
        <ele>620</ele>
        <time>2012-05-28T10:07:09Z</time>
      </trkpt>
      <trkpt lat="45.77529" lon="4.63791">
        <ele>620</ele>
        <time>2012-05-28T10:07:10Z</time>
      </trkpt>
      <trkpt lat="45.77528" lon="4.63791">
        <ele>620</ele>
        <time>2012-05-28T10:07:11Z</time>
      </trkpt>
      <trkpt lat="45.77527" lon="4.6379">
        <ele>621</ele>
        <time>2012-05-28T10:07:12Z</time>
      </trkpt>
      <trkpt lat="45.77525" lon="4.63789">
        <ele>621</ele>
        <time>2012-05-28T10:07:13Z</time>
      </trkpt>
      <trkpt lat="45.77524" lon="4.63787">
        <ele>621</ele>
        <time>2012-05-28T10:07:14Z</time>
      </trkpt>
      <trkpt lat="45.77523" lon="4.63786">
        <ele>622</ele>
        <time>2012-05-28T10:07:15Z</time>
      </trkpt>
      <trkpt lat="45.77521" lon="4.63784">
        <ele>623</ele>
        <time>2012-05-28T10:07:16Z</time>
      </trkpt>
      <trkpt lat="45.7752" lon="4.63783">
        <ele>623</ele>
        <time>2012-05-28T10:07:17Z</time>
      </trkpt>
      <trkpt lat="45.77517" lon="4.63781">
        <ele>624</ele>
        <time>2012-05-28T10:07:20Z</time>
      </trkpt>
      <trkpt lat="45.77516" lon="4.6378">
        <ele>624</ele>
        <time>2012-05-28T10:07:21Z</time>
      </trkpt>
      <trkpt lat="45.77515" lon="4.63779">
        <ele>624</ele>
        <time>2012-05-28T10:07:22Z</time>
      </trkpt>
      <trkpt lat="45.77508" lon="4.63772">
        <ele>627</ele>
        <time>2012-05-28T10:07:29Z</time>
      </trkpt>
      <trkpt lat="45.77507" lon="4.63769">
        <ele>627</ele>
        <time>2012-05-28T10:07:32Z</time>
      </trkpt>
      <trkpt lat="45.77503" lon="4.63762">
        <ele>628</ele>
        <time>2012-05-28T10:07:37Z</time>
      </trkpt>
      <trkpt lat="45.77503" lon="4.63761">
        <ele>629</ele>
        <time>2012-05-28T10:07:38Z</time>
      </trkpt>
      <trkpt lat="45.77495" lon="4.63757">
        <ele>630</ele>
        <time>2012-05-28T10:07:45Z</time>
      </trkpt>
      <trkpt lat="45.77487" lon="4.63752">
        <ele>632</ele>
        <time>2012-05-28T10:07:52Z</time>
      </trkpt>
      <trkpt lat="45.77479" lon="4.63748">
        <ele>634</ele>
        <time>2012-05-28T10:07:59Z</time>
      </trkpt>
      <trkpt lat="45.77469" lon="4.63747">
        <ele>636</ele>
        <time>2012-05-28T10:08:07Z</time>
      </trkpt>
      <trkpt lat="45.77463" lon="4.63748">
        <ele>637</ele>
        <time>2012-05-28T10:08:13Z</time>
      </trkpt>
      <trkpt lat="45.77456" lon="4.63749">
        <ele>638</ele>
        <time>2012-05-28T10:08:20Z</time>
      </trkpt>
      <trkpt lat="45.77453" lon="4.63751">
        <ele>638</ele>
        <time>2012-05-28T10:08:23Z</time>
      </trkpt>
      <trkpt lat="45.77452" lon="4.63752">
        <ele>638</ele>
        <time>2012-05-28T10:08:24Z</time>
      </trkpt>
      <trkpt lat="45.7745" lon="4.63752">
        <ele>638</ele>
        <time>2012-05-28T10:08:25Z</time>
      </trkpt>
      <trkpt lat="45.77446" lon="4.63758">
        <ele>639</ele>
        <time>2012-05-28T10:08:31Z</time>
      </trkpt>
      <trkpt lat="45.77444" lon="4.6376">
        <ele>640</ele>
        <time>2012-05-28T10:08:34Z</time>
      </trkpt>
      <trkpt lat="45.77443" lon="4.63762">
        <ele>640</ele>
        <time>2012-05-28T10:08:35Z</time>
      </trkpt>
      <trkpt lat="45.77443" lon="4.63763">
        <ele>640</ele>
        <time>2012-05-28T10:08:36Z</time>
      </trkpt>
      <trkpt lat="45.7744" lon="4.63768">
        <ele>641</ele>
        <time>2012-05-28T10:08:41Z</time>
      </trkpt>
      <trkpt lat="45.77439" lon="4.6377">
        <ele>642</ele>
        <time>2012-05-28T10:08:42Z</time>
      </trkpt>
      <trkpt lat="45.77433" lon="4.63774">
        <ele>643</ele>
        <time>2012-05-28T10:08:48Z</time>
      </trkpt>
      <trkpt lat="45.77431" lon="4.63777">
        <ele>644</ele>
        <time>2012-05-28T10:08:56Z</time>
      </trkpt>
      <trkpt lat="45.77432" lon="4.63777">
        <ele>644</ele>
        <time>2012-05-28T10:09:17Z</time>
      </trkpt>
      <trkpt lat="45.7743" lon="4.63778">
        <ele>645</ele>
        <time>2012-05-28T10:09:26Z</time>
      </trkpt>
      <trkpt lat="45.77424" lon="4.6378">
        <ele>645</ele>
        <time>2012-05-28T10:09:31Z</time>
      </trkpt>
      <trkpt lat="45.77421" lon="4.63782">
        <ele>646</ele>
        <time>2012-05-28T10:09:34Z</time>
      </trkpt>
      <trkpt lat="45.77415" lon="4.63784">
        <ele>646</ele>
        <time>2012-05-28T10:09:42Z</time>
      </trkpt>
      <trkpt lat="45.77412" lon="4.63785">
        <ele>646</ele>
        <time>2012-05-28T10:09:58Z</time>
      </trkpt>
      <trkpt lat="45.77412" lon="4.63785">
        <ele>646</ele>
        <time>2012-05-28T10:10:10Z</time>
      </trkpt>
      <trkpt lat="45.77411" lon="4.63785">
        <ele>646</ele>
        <time>2012-05-28T10:10:23Z</time>
      </trkpt>
      <trkpt lat="45.77407" lon="4.63785">
        <ele>647</ele>
        <time>2012-05-28T10:10:27Z</time>
      </trkpt>
      <trkpt lat="45.77402" lon="4.63788">
        <ele>648</ele>
        <time>2012-05-28T10:10:32Z</time>
      </trkpt>
      <trkpt lat="45.77401" lon="4.63788">
        <ele>648</ele>
        <time>2012-05-28T10:10:33Z</time>
      </trkpt>
      <trkpt lat="45.77399" lon="4.63791">
        <ele>649</ele>
        <time>2012-05-28T10:10:35Z</time>
      </trkpt>
      <trkpt lat="45.77396" lon="4.63793">
        <ele>649</ele>
        <time>2012-05-28T10:10:37Z</time>
      </trkpt>
      <trkpt lat="45.77394" lon="4.63795">
        <ele>649</ele>
        <time>2012-05-28T10:10:38Z</time>
      </trkpt>
      <trkpt lat="45.77387" lon="4.63801">
        <ele>650</ele>
        <time>2012-05-28T10:10:45Z</time>
      </trkpt>
      <trkpt lat="45.77385" lon="4.63803">
        <ele>651</ele>
        <time>2012-05-28T10:10:46Z</time>
      </trkpt>
      <trkpt lat="45.77384" lon="4.63804">
        <ele>651</ele>
        <time>2012-05-28T10:10:47Z</time>
      </trkpt>
      <trkpt lat="45.77379" lon="4.63811">
        <ele>651</ele>
        <time>2012-05-28T10:10:53Z</time>
      </trkpt>
      <trkpt lat="45.77374" lon="4.63817">
        <ele>653</ele>
        <time>2012-05-28T10:11:00Z</time>
      </trkpt>
      <trkpt lat="45.77371" lon="4.63819">
        <ele>653</ele>
        <time>2012-05-28T10:11:02Z</time>
      </trkpt>
      <trkpt lat="45.77363" lon="4.63826">
        <ele>653</ele>
        <time>2012-05-28T10:11:08Z</time>
      </trkpt>
      <trkpt lat="45.7736" lon="4.6383">
        <ele>654</ele>
        <time>2012-05-28T10:11:10Z</time>
      </trkpt>
      <trkpt lat="45.77358" lon="4.63833">
        <ele>654</ele>
        <time>2012-05-28T10:11:13Z</time>
      </trkpt>
      <trkpt lat="45.77356" lon="4.63834">
        <ele>654</ele>
        <time>2012-05-28T10:11:14Z</time>
      </trkpt>
      <trkpt lat="45.77346" lon="4.63836">
        <ele>656</ele>
        <time>2012-05-28T10:11:21Z</time>
      </trkpt>
      <trkpt lat="45.77338" lon="4.63837">
        <ele>657</ele>
        <time>2012-05-28T10:11:28Z</time>
      </trkpt>
      <trkpt lat="45.77334" lon="4.63839">
        <ele>657</ele>
        <time>2012-05-28T10:11:31Z</time>
      </trkpt>
      <trkpt lat="45.77332" lon="4.6384">
        <ele>657</ele>
        <time>2012-05-28T10:11:32Z</time>
      </trkpt>
      <trkpt lat="45.7733" lon="4.6384">
        <ele>658</ele>
        <time>2012-05-28T10:11:33Z</time>
      </trkpt>
      <trkpt lat="45.77323" lon="4.63837">
        <ele>658</ele>
        <time>2012-05-28T10:11:39Z</time>
      </trkpt>
      <trkpt lat="45.77316" lon="4.63833">
        <ele>660</ele>
        <time>2012-05-28T10:11:45Z</time>
      </trkpt>
      <trkpt lat="45.77313" lon="4.63832">
        <ele>660</ele>
        <time>2012-05-28T10:11:47Z</time>
      </trkpt>
      <trkpt lat="45.77305" lon="4.63826">
        <ele>662</ele>
        <time>2012-05-28T10:11:54Z</time>
      </trkpt>
      <trkpt lat="45.77298" lon="4.63823">
        <ele>663</ele>
        <time>2012-05-28T10:12:00Z</time>
      </trkpt>
      <trkpt lat="45.7729" lon="4.63819">
        <ele>664</ele>
        <time>2012-05-28T10:12:07Z</time>
      </trkpt>
      <trkpt lat="45.77283" lon="4.63816">
        <ele>664</ele>
        <time>2012-05-28T10:12:13Z</time>
      </trkpt>
      <trkpt lat="45.77278" lon="4.63815">
        <ele>665</ele>
        <time>2012-05-28T10:12:18Z</time>
      </trkpt>
      <trkpt lat="45.77274" lon="4.63812">
        <ele>665</ele>
        <time>2012-05-28T10:12:22Z</time>
      </trkpt>
      <trkpt lat="45.77264" lon="4.63805">
        <ele>667</ele>
        <time>2012-05-28T10:12:28Z</time>
      </trkpt>
      <trkpt lat="45.77262" lon="4.63802">
        <ele>667</ele>
        <time>2012-05-28T10:12:30Z</time>
      </trkpt>
      <trkpt lat="45.7726" lon="4.63801">
        <ele>667</ele>
        <time>2012-05-28T10:12:31Z</time>
      </trkpt>
      <trkpt lat="45.77259" lon="4.63799">
        <ele>667</ele>
        <time>2012-05-28T10:12:32Z</time>
      </trkpt>
      <trkpt lat="45.77258" lon="4.63797">
        <ele>667</ele>
        <time>2012-05-28T10:12:33Z</time>
      </trkpt>
      <trkpt lat="45.77256" lon="4.63795">
        <ele>667</ele>
        <time>2012-05-28T10:12:34Z</time>
      </trkpt>
      <trkpt lat="45.77255" lon="4.63793">
        <ele>667</ele>
        <time>2012-05-28T10:12:35Z</time>
      </trkpt>
      <trkpt lat="45.77254" lon="4.63792">
        <ele>667</ele>
        <time>2012-05-28T10:12:36Z</time>
      </trkpt>
      <trkpt lat="45.7725" lon="4.63787">
        <ele>668</ele>
        <time>2012-05-28T10:12:40Z</time>
      </trkpt>
      <trkpt lat="45.77249" lon="4.63785">
        <ele>668</ele>
        <time>2012-05-28T10:12:41Z</time>
      </trkpt>
      <trkpt lat="45.77244" lon="4.63778">
        <ele>669</ele>
        <time>2012-05-28T10:12:45Z</time>
      </trkpt>
      <trkpt lat="45.77244" lon="4.63776">
        <ele>669</ele>
        <time>2012-05-28T10:12:46Z</time>
      </trkpt>
      <trkpt lat="45.77239" lon="4.63766">
        <ele>671</ele>
        <time>2012-05-28T10:12:52Z</time>
      </trkpt>
      <trkpt lat="45.77237" lon="4.63763">
        <ele>671</ele>
        <time>2012-05-28T10:12:54Z</time>
      </trkpt>
      <trkpt lat="45.77237" lon="4.63761">
        <ele>671</ele>
        <time>2012-05-28T10:12:55Z</time>
      </trkpt>
      <trkpt lat="45.77233" lon="4.63754">
        <ele>673</ele>
        <time>2012-05-28T10:13:01Z</time>
      </trkpt>
      <trkpt lat="45.7723" lon="4.63744">
        <ele>674</ele>
        <time>2012-05-28T10:13:06Z</time>
      </trkpt>
      <trkpt lat="45.77228" lon="4.63737">
        <ele>675</ele>
        <time>2012-05-28T10:13:12Z</time>
      </trkpt>
      <trkpt lat="45.77229" lon="4.63735">
        <ele>676</ele>
        <time>2012-05-28T10:13:14Z</time>
      </trkpt>
      <trkpt lat="45.7723" lon="4.63734">
        <ele>676</ele>
        <time>2012-05-28T10:13:15Z</time>
      </trkpt>
      <trkpt lat="45.77233" lon="4.63728">
        <ele>677</ele>
        <time>2012-05-28T10:13:20Z</time>
      </trkpt>
      <trkpt lat="45.77236" lon="4.6372">
        <ele>679</ele>
        <time>2012-05-28T10:13:26Z</time>
      </trkpt>
      <trkpt lat="45.77237" lon="4.63718">
        <ele>679</ele>
        <time>2012-05-28T10:13:27Z</time>
      </trkpt>
      <trkpt lat="45.77238" lon="4.63717">
        <ele>679</ele>
        <time>2012-05-28T10:13:28Z</time>
      </trkpt>
      <trkpt lat="45.7724" lon="4.63711">
        <ele>680</ele>
        <time>2012-05-28T10:13:33Z</time>
      </trkpt>
      <trkpt lat="45.77241" lon="4.63709">
        <ele>680</ele>
        <time>2012-05-28T10:13:34Z</time>
      </trkpt>
      <trkpt lat="45.77242" lon="4.63696">
        <ele>681</ele>
        <time>2012-05-28T10:13:41Z</time>
      </trkpt>
      <trkpt lat="45.77243" lon="4.63685">
        <ele>682</ele>
        <time>2012-05-28T10:13:48Z</time>
      </trkpt>
      <trkpt lat="45.77244" lon="4.63677">
        <ele>681</ele>
        <time>2012-05-28T10:13:55Z</time>
      </trkpt>
      <trkpt lat="45.77246" lon="4.63663">
        <ele>681</ele>
        <time>2012-05-28T10:14:03Z</time>
      </trkpt>
      <trkpt lat="45.77248" lon="4.63656">
        <ele>682</ele>
        <time>2012-05-28T10:14:09Z</time>
      </trkpt>
      <trkpt lat="45.77249" lon="4.63655">
        <ele>682</ele>
        <time>2012-05-28T10:14:19Z</time>
      </trkpt>
      <trkpt lat="45.77249" lon="4.63652">
        <ele>682</ele>
        <time>2012-05-28T10:14:32Z</time>
      </trkpt>
      <trkpt lat="45.7725" lon="4.63651">
        <ele>681</ele>
        <time>2012-05-28T10:14:45Z</time>
      </trkpt>
      <trkpt lat="45.7725" lon="4.63651">
        <ele>681</ele>
        <time>2012-05-28T10:15:06Z</time>
      </trkpt>
      <trkpt lat="45.7725" lon="4.6365">
        <ele>682</ele>
        <time>2012-05-28T10:15:23Z</time>
      </trkpt>
      <trkpt lat="45.77249" lon="4.6365">
        <ele>681</ele>
        <time>2012-05-28T10:15:43Z</time>
      </trkpt>
      <trkpt lat="45.77249" lon="4.6365">
        <ele>682</ele>
        <time>2012-05-28T10:16:04Z</time>
      </trkpt>
      <trkpt lat="45.77249" lon="4.63651">
        <ele>682</ele>
        <time>2012-05-28T10:16:11Z</time>
      </trkpt>
      <trkpt lat="45.77248" lon="4.63654">
        <ele>682</ele>
        <time>2012-05-28T10:16:17Z</time>
      </trkpt>
      <trkpt lat="45.77248" lon="4.63661">
        <ele>682</ele>
        <time>2012-05-28T10:16:22Z</time>
      </trkpt>
      <trkpt lat="45.77247" lon="4.63663">
        <ele>682</ele>
        <time>2012-05-28T10:16:23Z</time>
      </trkpt>
      <trkpt lat="45.77247" lon="4.63665">
        <ele>682</ele>
        <time>2012-05-28T10:16:24Z</time>
      </trkpt>
      <trkpt lat="45.77246" lon="4.63667">
        <ele>682</ele>
        <time>2012-05-28T10:16:25Z</time>
      </trkpt>
      <trkpt lat="45.77245" lon="4.6367">
        <ele>682</ele>
        <time>2012-05-28T10:16:26Z</time>
      </trkpt>
      <trkpt lat="45.77242" lon="4.63677">
        <ele>682</ele>
        <time>2012-05-28T10:16:32Z</time>
      </trkpt>
      <trkpt lat="45.77239" lon="4.63678">
        <ele>682</ele>
        <time>2012-05-28T10:16:35Z</time>
      </trkpt>
      <trkpt lat="45.77232" lon="4.63678">
        <ele>682</ele>
        <time>2012-05-28T10:16:41Z</time>
      </trkpt>
      <trkpt lat="45.77225" lon="4.63673">
        <ele>682</ele>
        <time>2012-05-28T10:16:47Z</time>
      </trkpt>
      <trkpt lat="45.77225" lon="4.63671">
        <ele>682</ele>
        <time>2012-05-28T10:16:49Z</time>
      </trkpt>
      <trkpt lat="45.77222" lon="4.63661">
        <ele>685</ele>
        <time>2012-05-28T10:16:55Z</time>
      </trkpt>
      <trkpt lat="45.7722" lon="4.63653">
        <ele>685</ele>
        <time>2012-05-28T10:17:00Z</time>
      </trkpt>
      <trkpt lat="45.7722" lon="4.6365">
        <ele>685</ele>
        <time>2012-05-28T10:17:01Z</time>
      </trkpt>
      <trkpt lat="45.7722" lon="4.63648">
        <ele>686</ele>
        <time>2012-05-28T10:17:04Z</time>
      </trkpt>
      <trkpt lat="45.7722" lon="4.63646">
        <ele>687</ele>
        <time>2012-05-28T10:17:05Z</time>
      </trkpt>
      <trkpt lat="45.77218" lon="4.63634">
        <ele>687</ele>
        <time>2012-05-28T10:17:12Z</time>
      </trkpt>
      <trkpt lat="45.77218" lon="4.63629">
        <ele>689</ele>
        <time>2012-05-28T10:17:17Z</time>
      </trkpt>
      <trkpt lat="45.77217" lon="4.63622">
        <ele>690</ele>
        <time>2012-05-28T10:17:21Z</time>
      </trkpt>
      <trkpt lat="45.77217" lon="4.63614">
        <ele>692</ele>
        <time>2012-05-28T10:17:26Z</time>
      </trkpt>
      <trkpt lat="45.77216" lon="4.63606">
        <ele>693</ele>
        <time>2012-05-28T10:17:30Z</time>
      </trkpt>
      <trkpt lat="45.77216" lon="4.63604">
        <ele>694</ele>
        <time>2012-05-28T10:17:31Z</time>
      </trkpt>
      <trkpt lat="45.77215" lon="4.63598">
        <ele>695</ele>
        <time>2012-05-28T10:17:33Z</time>
      </trkpt>
      <trkpt lat="45.77214" lon="4.63592">
        <ele>696</ele>
        <time>2012-05-28T10:17:35Z</time>
      </trkpt>
      <trkpt lat="45.77215" lon="4.6359">
        <ele>696</ele>
        <time>2012-05-28T10:17:36Z</time>
      </trkpt>
      <trkpt lat="45.77215" lon="4.63585">
        <ele>696</ele>
        <time>2012-05-28T10:17:38Z</time>
      </trkpt>
      <trkpt lat="45.77215" lon="4.63582">
        <ele>696</ele>
        <time>2012-05-28T10:17:39Z</time>
      </trkpt>
      <trkpt lat="45.77214" lon="4.63569">
        <ele>698</ele>
        <time>2012-05-28T10:17:45Z</time>
      </trkpt>
      <trkpt lat="45.77216" lon="4.6356">
        <ele>698</ele>
        <time>2012-05-28T10:17:50Z</time>
      </trkpt>
      <trkpt lat="45.77218" lon="4.6355">
        <ele>699</ele>
        <time>2012-05-28T10:17:56Z</time>
      </trkpt>
      <trkpt lat="45.7722" lon="4.63545">
        <ele>699</ele>
        <time>2012-05-28T10:17:59Z</time>
      </trkpt>
      <trkpt lat="45.77223" lon="4.63536">
        <ele>699</ele>
        <time>2012-05-28T10:18:05Z</time>
      </trkpt>
      <trkpt lat="45.77224" lon="4.63527">
        <ele>700</ele>
        <time>2012-05-28T10:18:11Z</time>
      </trkpt>
      <trkpt lat="45.77224" lon="4.63525">
        <ele>699</ele>
        <time>2012-05-28T10:18:12Z</time>
      </trkpt>
      <trkpt lat="45.77224" lon="4.63523">
        <ele>699</ele>
        <time>2012-05-28T10:18:13Z</time>
      </trkpt>
      <trkpt lat="45.77224" lon="4.63521">
        <ele>699</ele>
        <time>2012-05-28T10:18:14Z</time>
      </trkpt>
      <trkpt lat="45.77224" lon="4.63519">
        <ele>699</ele>
        <time>2012-05-28T10:18:15Z</time>
      </trkpt>
      <trkpt lat="45.77224" lon="4.63516">
        <ele>700</ele>
        <time>2012-05-28T10:18:16Z</time>
      </trkpt>
      <trkpt lat="45.77228" lon="4.63505">
        <ele>700</ele>
        <time>2012-05-28T10:18:22Z</time>
      </trkpt>
      <trkpt lat="45.77228" lon="4.63496">
        <ele>701</ele>
        <time>2012-05-28T10:18:28Z</time>
      </trkpt>
      <trkpt lat="45.77228" lon="4.63479">
        <ele>702</ele>
        <time>2012-05-28T10:18:35Z</time>
      </trkpt>
      <trkpt lat="45.77227" lon="4.63467">
        <ele>703</ele>
        <time>2012-05-28T10:18:41Z</time>
      </trkpt>
      <trkpt lat="45.77227" lon="4.63461">
        <ele>704</ele>
        <time>2012-05-28T10:18:45Z</time>
      </trkpt>
      <trkpt lat="45.77226" lon="4.6345">
        <ele>706</ele>
        <time>2012-05-28T10:18:51Z</time>
      </trkpt>
      <trkpt lat="45.77225" lon="4.6344">
        <ele>707</ele>
        <time>2012-05-28T10:18:58Z</time>
      </trkpt>
      <trkpt lat="45.77225" lon="4.63434">
        <ele>707</ele>
        <time>2012-05-28T10:19:04Z</time>
      </trkpt>
      <trkpt lat="45.77226" lon="4.63431">
        <ele>707</ele>
        <time>2012-05-28T10:19:06Z</time>
      </trkpt>
      <trkpt lat="45.77227" lon="4.63429">
        <ele>706</ele>
        <time>2012-05-28T10:19:07Z</time>
      </trkpt>
      <trkpt lat="45.77228" lon="4.63425">
        <ele>706</ele>
        <time>2012-05-28T10:19:08Z</time>
      </trkpt>
      <trkpt lat="45.77228" lon="4.63421">
        <ele>707</ele>
        <time>2012-05-28T10:19:09Z</time>
      </trkpt>
      <trkpt lat="45.7723" lon="4.63408">
        <ele>706</ele>
        <time>2012-05-28T10:19:14Z</time>
      </trkpt>
      <trkpt lat="45.77229" lon="4.63392">
        <ele>706</ele>
        <time>2012-05-28T10:19:18Z</time>
      </trkpt>
      <trkpt lat="45.77231" lon="4.63368">
        <ele>706</ele>
        <time>2012-05-28T10:19:25Z</time>
      </trkpt>
      <trkpt lat="45.77236" lon="4.63341">
        <ele>706</ele>
        <time>2012-05-28T10:19:32Z</time>
      </trkpt>
      <trkpt lat="45.77239" lon="4.63313">
        <ele>707</ele>
        <time>2012-05-28T10:19:38Z</time>
      </trkpt>
      <trkpt lat="45.7724" lon="4.63291">
        <ele>706</ele>
        <time>2012-05-28T10:19:45Z</time>
      </trkpt>
      <trkpt lat="45.7724" lon="4.63289">
        <ele>706</ele>
        <time>2012-05-28T10:19:46Z</time>
      </trkpt>
      <trkpt lat="45.77241" lon="4.63283">
        <ele>706</ele>
        <time>2012-05-28T10:19:49Z</time>
      </trkpt>
      <trkpt lat="45.7724" lon="4.6327">
        <ele>706</ele>
        <time>2012-05-28T10:19:53Z</time>
      </trkpt>
      <trkpt lat="45.7724" lon="4.63267">
        <ele>706</ele>
        <time>2012-05-28T10:19:54Z</time>
      </trkpt>
      <trkpt lat="45.7724" lon="4.63264">
        <ele>706</ele>
        <time>2012-05-28T10:19:55Z</time>
      </trkpt>
      <trkpt lat="45.77241" lon="4.63262">
        <ele>706</ele>
        <time>2012-05-28T10:19:56Z</time>
      </trkpt>
      <trkpt lat="45.77241" lon="4.6326">
        <ele>706</ele>
        <time>2012-05-28T10:19:57Z</time>
      </trkpt>
      <trkpt lat="45.77242" lon="4.63258">
        <ele>706</ele>
        <time>2012-05-28T10:19:58Z</time>
      </trkpt>
      <trkpt lat="45.77243" lon="4.63256">
        <ele>706</ele>
        <time>2012-05-28T10:19:59Z</time>
      </trkpt>
      <trkpt lat="45.77244" lon="4.63253">
        <ele>706</ele>
        <time>2012-05-28T10:20:00Z</time>
      </trkpt>
      <trkpt lat="45.77246" lon="4.63251">
        <ele>706</ele>
        <time>2012-05-28T10:20:01Z</time>
      </trkpt>
      <trkpt lat="45.77248" lon="4.63248">
        <ele>706</ele>
        <time>2012-05-28T10:20:02Z</time>
      </trkpt>
      <trkpt lat="45.77252" lon="4.63242">
        <ele>705</ele>
        <time>2012-05-28T10:20:07Z</time>
      </trkpt>
      <trkpt lat="45.77251" lon="4.63216">
        <ele>704</ele>
        <time>2012-05-28T10:20:13Z</time>
      </trkpt>
      <trkpt lat="45.77245" lon="4.63179">
        <ele>703</ele>
        <time>2012-05-28T10:20:20Z</time>
      </trkpt>
      <trkpt lat="45.77237" lon="4.63149">
        <ele>702</ele>
        <time>2012-05-28T10:20:26Z</time>
      </trkpt>
      <trkpt lat="45.7723" lon="4.63128">
        <ele>702</ele>
        <time>2012-05-28T10:20:30Z</time>
      </trkpt>
      <trkpt lat="45.77222" lon="4.63104">
        <ele>702</ele>
        <time>2012-05-28T10:20:36Z</time>
      </trkpt>
      <trkpt lat="45.77214" lon="4.63086">
        <ele>702</ele>
        <time>2012-05-28T10:20:42Z</time>
      </trkpt>
      <trkpt lat="45.77208" lon="4.63067">
        <ele>702</ele>
        <time>2012-05-28T10:20:50Z</time>
      </trkpt>
      <trkpt lat="45.77209" lon="4.63058">
        <ele>703</ele>
        <time>2012-05-28T10:20:52Z</time>
      </trkpt>
      <trkpt lat="45.77213" lon="4.63037">
        <ele>703</ele>
        <time>2012-05-28T10:20:58Z</time>
      </trkpt>
      <trkpt lat="45.77216" lon="4.63019">
        <ele>703</ele>
        <time>2012-05-28T10:21:04Z</time>
      </trkpt>
      <trkpt lat="45.77221" lon="4.63">
        <ele>703</ele>
        <time>2012-05-28T10:21:11Z</time>
      </trkpt>
      <trkpt lat="45.77222" lon="4.62996">
        <ele>703</ele>
        <time>2012-05-28T10:21:12Z</time>
      </trkpt>
      <trkpt lat="45.77233" lon="4.62973">
        <ele>703</ele>
        <time>2012-05-28T10:21:19Z</time>
      </trkpt>
      <trkpt lat="45.77236" lon="4.62966">
        <ele>703</ele>
        <time>2012-05-28T10:21:21Z</time>
      </trkpt>
      <trkpt lat="45.77244" lon="4.62938">
        <ele>702</ele>
        <time>2012-05-28T10:21:28Z</time>
      </trkpt>
      <trkpt lat="45.77254" lon="4.62912">
        <ele>699</ele>
        <time>2012-05-28T10:21:34Z</time>
      </trkpt>
      <trkpt lat="45.77257" lon="4.62908">
        <ele>699</ele>
        <time>2012-05-28T10:21:35Z</time>
      </trkpt>
      <trkpt lat="45.77268" lon="4.62902">
        <ele>695</ele>
        <time>2012-05-28T10:21:40Z</time>
      </trkpt>
      <trkpt lat="45.7728" lon="4.62896">
        <ele>691</ele>
        <time>2012-05-28T10:21:45Z</time>
      </trkpt>
      <trkpt lat="45.77289" lon="4.62887">
        <ele>687</ele>
        <time>2012-05-28T10:21:48Z</time>
      </trkpt>
      <trkpt lat="45.77298" lon="4.62869">
        <ele>684</ele>
        <time>2012-05-28T10:21:52Z</time>
      </trkpt>
      <trkpt lat="45.77301" lon="4.62864">
        <ele>684</ele>
        <time>2012-05-28T10:21:53Z</time>
      </trkpt>
      <trkpt lat="45.7731" lon="4.62847">
        <ele>680</ele>
        <time>2012-05-28T10:21:57Z</time>
      </trkpt>
      <trkpt lat="45.77312" lon="4.62842">
        <ele>679</ele>
        <time>2012-05-28T10:21:58Z</time>
      </trkpt>
      <trkpt lat="45.77326" lon="4.62826">
        <ele>674</ele>
        <time>2012-05-28T10:22:03Z</time>
      </trkpt>
      <trkpt lat="45.77336" lon="4.62817">
        <ele>670</ele>
        <time>2012-05-28T10:22:06Z</time>
      </trkpt>
      <trkpt lat="45.77339" lon="4.62816">
        <ele>670</ele>
        <time>2012-05-28T10:22:07Z</time>
      </trkpt>
      <trkpt lat="45.77348" lon="4.62814">
        <ele>669</ele>
        <time>2012-05-28T10:22:10Z</time>
      </trkpt>
      <trkpt lat="45.77355" lon="4.62816">
        <ele>667</ele>
        <time>2012-05-28T10:22:13Z</time>
      </trkpt>
      <trkpt lat="45.77358" lon="4.62812">
        <ele>665</ele>
        <time>2012-05-28T10:22:15Z</time>
      </trkpt>
      <trkpt lat="45.77361" lon="4.62811">
        <ele>663</ele>
        <time>2012-05-28T10:22:18Z</time>
      </trkpt>
      <trkpt lat="45.77366" lon="4.62806">
        <ele>663</ele>
        <time>2012-05-28T10:22:26Z</time>
      </trkpt>
      <trkpt lat="45.77369" lon="4.62804">
        <ele>663</ele>
        <time>2012-05-28T10:22:34Z</time>
      </trkpt>
      <trkpt lat="45.77371" lon="4.62805">
        <ele>663</ele>
        <time>2012-05-28T10:22:41Z</time>
      </trkpt>
      <trkpt lat="45.77373" lon="4.62803">
        <ele>663</ele>
        <time>2012-05-28T10:22:49Z</time>
      </trkpt>
      <trkpt lat="45.77374" lon="4.62803">
        <ele>662</ele>
        <time>2012-05-28T10:22:51Z</time>
      </trkpt>
      <trkpt lat="45.77382" lon="4.62803">
        <ele>660</ele>
        <time>2012-05-28T10:22:56Z</time>
      </trkpt>
      <trkpt lat="45.77384" lon="4.62803">
        <ele>659</ele>
        <time>2012-05-28T10:22:58Z</time>
      </trkpt>
      <trkpt lat="45.77387" lon="4.62802">
        <ele>658</ele>
        <time>2012-05-28T10:23:04Z</time>
      </trkpt>
      <trkpt lat="45.77396" lon="4.62799">
        <ele>654</ele>
        <time>2012-05-28T10:23:09Z</time>
      </trkpt>
      <trkpt lat="45.77404" lon="4.62795">
        <ele>651</ele>
        <time>2012-05-28T10:23:14Z</time>
      </trkpt>
      <trkpt lat="45.77415" lon="4.62786">
        <ele>648</ele>
        <time>2012-05-28T10:23:21Z</time>
      </trkpt>
      <trkpt lat="45.7742" lon="4.62785">
        <ele>646</ele>
        <time>2012-05-28T10:23:24Z</time>
      </trkpt>
      <trkpt lat="45.77425" lon="4.62782">
        <ele>645</ele>
        <time>2012-05-28T10:23:26Z</time>
      </trkpt>
      <trkpt lat="45.77436" lon="4.62781">
        <ele>641</ele>
        <time>2012-05-28T10:23:30Z</time>
      </trkpt>
      <trkpt lat="45.77438" lon="4.62781">
        <ele>641</ele>
        <time>2012-05-28T10:23:31Z</time>
      </trkpt>
      <trkpt lat="45.77447" lon="4.62775">
        <ele>638</ele>
        <time>2012-05-28T10:23:35Z</time>
      </trkpt>
      <trkpt lat="45.77448" lon="4.62772">
        <ele>637</ele>
        <time>2012-05-28T10:23:36Z</time>
      </trkpt>
      <trkpt lat="45.77453" lon="4.62764">
        <ele>637</ele>
        <time>2012-05-28T10:23:38Z</time>
      </trkpt>
      <trkpt lat="45.77461" lon="4.62756">
        <ele>633</ele>
        <time>2012-05-28T10:23:42Z</time>
      </trkpt>
      <trkpt lat="45.77469" lon="4.62755">
        <ele>631</ele>
        <time>2012-05-28T10:23:45Z</time>
      </trkpt>
      <trkpt lat="45.77471" lon="4.62754">
        <ele>629</ele>
        <time>2012-05-28T10:23:46Z</time>
      </trkpt>
      <trkpt lat="45.77474" lon="4.62754">
        <ele>628</ele>
        <time>2012-05-28T10:23:47Z</time>
      </trkpt>
      <trkpt lat="45.77482" lon="4.62748">
        <ele>625</ele>
        <time>2012-05-28T10:23:50Z</time>
      </trkpt>
      <trkpt lat="45.77487" lon="4.62742">
        <ele>623</ele>
        <time>2012-05-28T10:23:52Z</time>
      </trkpt>
      <trkpt lat="45.77492" lon="4.62737">
        <ele>621</ele>
        <time>2012-05-28T10:23:54Z</time>
      </trkpt>
      <trkpt lat="45.77507" lon="4.62729">
        <ele>618</ele>
        <time>2012-05-28T10:23:58Z</time>
      </trkpt>
      <trkpt lat="45.7751" lon="4.62726">
        <ele>616</ele>
        <time>2012-05-28T10:23:59Z</time>
      </trkpt>
      <trkpt lat="45.77521" lon="4.62707">
        <ele>614</ele>
        <time>2012-05-28T10:24:04Z</time>
      </trkpt>
      <trkpt lat="45.77525" lon="4.62701">
        <ele>614</ele>
        <time>2012-05-28T10:24:09Z</time>
      </trkpt>
      <trkpt lat="45.77526" lon="4.62698">
        <ele>614</ele>
        <time>2012-05-28T10:24:25Z</time>
      </trkpt>
      <trkpt lat="45.77527" lon="4.62697">
        <ele>614</ele>
        <time>2012-05-28T10:24:39Z</time>
      </trkpt>
      <trkpt lat="45.77528" lon="4.62695">
        <ele>614</ele>
        <time>2012-05-28T10:24:53Z</time>
      </trkpt>
      <trkpt lat="45.77528" lon="4.62689">
        <ele>615</ele>
        <time>2012-05-28T10:25:13Z</time>
      </trkpt>
      <trkpt lat="45.77527" lon="4.62689">
        <ele>614</ele>
        <time>2012-05-28T10:25:28Z</time>
      </trkpt>
      <trkpt lat="45.77529" lon="4.62688">
        <ele>615</ele>
        <time>2012-05-28T10:25:37Z</time>
      </trkpt>
      <trkpt lat="45.77534" lon="4.62684">
        <ele>613</ele>
        <time>2012-05-28T10:25:40Z</time>
      </trkpt>
      <trkpt lat="45.77545" lon="4.62682">
        <ele>611</ele>
        <time>2012-05-28T10:25:44Z</time>
      </trkpt>
      <trkpt lat="45.77548" lon="4.6268">
        <ele>610</ele>
        <time>2012-05-28T10:25:45Z</time>
      </trkpt>
      <trkpt lat="45.77552" lon="4.62678">
        <ele>610</ele>
        <time>2012-05-28T10:25:46Z</time>
      </trkpt>
      <trkpt lat="45.77562" lon="4.62672">
        <ele>607</ele>
        <time>2012-05-28T10:25:50Z</time>
      </trkpt>
      <trkpt lat="45.77567" lon="4.6267">
        <ele>605</ele>
        <time>2012-05-28T10:25:52Z</time>
      </trkpt>
      <trkpt lat="45.7757" lon="4.6267">
        <ele>604</ele>
        <time>2012-05-28T10:25:53Z</time>
      </trkpt>
      <trkpt lat="45.77576" lon="4.6267">
        <ele>602</ele>
        <time>2012-05-28T10:25:55Z</time>
      </trkpt>
      <trkpt lat="45.77577" lon="4.6267">
        <ele>601</ele>
        <time>2012-05-28T10:25:56Z</time>
      </trkpt>
      <trkpt lat="45.77585" lon="4.62671">
        <ele>599</ele>
        <time>2012-05-28T10:26:00Z</time>
      </trkpt>
      <trkpt lat="45.77594" lon="4.62671">
        <ele>595</ele>
        <time>2012-05-28T10:26:04Z</time>
      </trkpt>
      <trkpt lat="45.77596" lon="4.62673">
        <ele>594</ele>
        <time>2012-05-28T10:26:05Z</time>
      </trkpt>
      <trkpt lat="45.776" lon="4.62673">
        <ele>593</ele>
        <time>2012-05-28T10:26:06Z</time>
      </trkpt>
      <trkpt lat="45.77602" lon="4.62674">
        <ele>592</ele>
        <time>2012-05-28T10:26:07Z</time>
      </trkpt>
      <trkpt lat="45.77604" lon="4.62675">
        <ele>591</ele>
        <time>2012-05-28T10:26:08Z</time>
      </trkpt>
      <trkpt lat="45.77606" lon="4.62676">
        <ele>591</ele>
        <time>2012-05-28T10:26:09Z</time>
      </trkpt>
      <trkpt lat="45.77611" lon="4.62676">
        <ele>590</ele>
        <time>2012-05-28T10:26:11Z</time>
      </trkpt>
      <trkpt lat="45.77613" lon="4.62682">
        <ele>589</ele>
        <time>2012-05-28T10:26:13Z</time>
      </trkpt>
      <trkpt lat="45.77613" lon="4.62689">
        <ele>586</ele>
        <time>2012-05-28T10:26:15Z</time>
      </trkpt>
      <trkpt lat="45.77613" lon="4.62692">
        <ele>586</ele>
        <time>2012-05-28T10:26:16Z</time>
      </trkpt>
      <trkpt lat="45.77607" lon="4.62711">
        <ele>582</ele>
        <time>2012-05-28T10:26:20Z</time>
      </trkpt>
      <trkpt lat="45.77604" lon="4.62721">
        <ele>579</ele>
        <time>2012-05-28T10:26:22Z</time>
      </trkpt>
      <trkpt lat="45.77599" lon="4.62734">
        <ele>575</ele>
        <time>2012-05-28T10:26:25Z</time>
      </trkpt>
      <trkpt lat="45.77596" lon="4.62753">
        <ele>573</ele>
        <time>2012-05-28T10:26:28Z</time>
      </trkpt>
      <trkpt lat="45.77594" lon="4.62759">
        <ele>571</ele>
        <time>2012-05-28T10:26:29Z</time>
      </trkpt>
      <trkpt lat="45.77592" lon="4.6277">
        <ele>569</ele>
        <time>2012-05-28T10:26:31Z</time>
      </trkpt>
      <trkpt lat="45.77591" lon="4.62775">
        <ele>568</ele>
        <time>2012-05-28T10:26:32Z</time>
      </trkpt>
      <trkpt lat="45.77591" lon="4.62796">
        <ele>564</ele>
        <time>2012-05-28T10:26:36Z</time>
      </trkpt>
      <trkpt lat="45.77594" lon="4.62802">
        <ele>563</ele>
        <time>2012-05-28T10:26:38Z</time>
      </trkpt>
      <trkpt lat="45.77597" lon="4.62802">
        <ele>562</ele>
        <time>2012-05-28T10:26:40Z</time>
      </trkpt>
      <trkpt lat="45.77599" lon="4.62801">
        <ele>562</ele>
        <time>2012-05-28T10:26:41Z</time>
      </trkpt>
      <trkpt lat="45.776" lon="4.62801">
        <ele>562</ele>
        <time>2012-05-28T10:26:42Z</time>
      </trkpt>
      <trkpt lat="45.77603" lon="4.628">
        <ele>562</ele>
        <time>2012-05-28T10:26:44Z</time>
      </trkpt>
      <trkpt lat="45.77604" lon="4.62798">
        <ele>561</ele>
        <time>2012-05-28T10:26:45Z</time>
      </trkpt>
      <trkpt lat="45.77605" lon="4.62797">
        <ele>561</ele>
        <time>2012-05-28T10:26:46Z</time>
      </trkpt>
      <trkpt lat="45.77607" lon="4.62795">
        <ele>561</ele>
        <time>2012-05-28T10:26:47Z</time>
      </trkpt>
      <trkpt lat="45.77615" lon="4.62788">
        <ele>560</ele>
        <time>2012-05-28T10:26:52Z</time>
      </trkpt>
      <trkpt lat="45.77619" lon="4.62784">
        <ele>560</ele>
        <time>2012-05-28T10:26:54Z</time>
      </trkpt>
      <trkpt lat="45.7762" lon="4.62782">
        <ele>559</ele>
        <time>2012-05-28T10:26:55Z</time>
      </trkpt>
      <trkpt lat="45.77622" lon="4.6278">
        <ele>559</ele>
        <time>2012-05-28T10:26:56Z</time>
      </trkpt>
      <trkpt lat="45.77637" lon="4.6277">
        <ele>557</ele>
        <time>2012-05-28T10:27:02Z</time>
      </trkpt>
      <trkpt lat="45.77656" lon="4.62755">
        <ele>553</ele>
        <time>2012-05-28T10:27:06Z</time>
      </trkpt>
      <trkpt lat="45.77665" lon="4.62748">
        <ele>552</ele>
        <time>2012-05-28T10:27:08Z</time>
      </trkpt>
      <trkpt lat="45.77669" lon="4.62746">
        <ele>550</ele>
        <time>2012-05-28T10:27:09Z</time>
      </trkpt>
      <trkpt lat="45.77672" lon="4.62745">
        <ele>550</ele>
        <time>2012-05-28T10:27:10Z</time>
      </trkpt>
      <trkpt lat="45.77675" lon="4.62743">
        <ele>549</ele>
        <time>2012-05-28T10:27:11Z</time>
      </trkpt>
      <trkpt lat="45.77678" lon="4.62741">
        <ele>548</ele>
        <time>2012-05-28T10:27:12Z</time>
      </trkpt>
      <trkpt lat="45.77682" lon="4.62739">
        <ele>547</ele>
        <time>2012-05-28T10:27:13Z</time>
      </trkpt>
      <trkpt lat="45.7769" lon="4.62736">
        <ele>547</ele>
        <time>2012-05-28T10:27:15Z</time>
      </trkpt>
      <trkpt lat="45.77699" lon="4.62733">
        <ele>543</ele>
        <time>2012-05-28T10:27:17Z</time>
      </trkpt>
      <trkpt lat="45.7771" lon="4.62729">
        <ele>541</ele>
        <time>2012-05-28T10:27:19Z</time>
      </trkpt>
      <trkpt lat="45.77716" lon="4.62728">
        <ele>540</ele>
        <time>2012-05-28T10:27:20Z</time>
      </trkpt>
      <trkpt lat="45.77721" lon="4.62728">
        <ele>538</ele>
        <time>2012-05-28T10:27:21Z</time>
      </trkpt>
      <trkpt lat="45.77725" lon="4.62729">
        <ele>537</ele>
        <time>2012-05-28T10:27:22Z</time>
      </trkpt>
      <trkpt lat="45.77733" lon="4.62733">
        <ele>537</ele>
        <time>2012-05-28T10:27:25Z</time>
      </trkpt>
      <trkpt lat="45.77732" lon="4.62734">
        <ele>537</ele>
        <time>2012-05-28T10:27:26Z</time>
      </trkpt>
      <trkpt lat="45.7773" lon="4.62735">
        <ele>537</ele>
        <time>2012-05-28T10:27:27Z</time>
      </trkpt>
      <trkpt lat="45.77728" lon="4.62736">
        <ele>536</ele>
        <time>2012-05-28T10:27:28Z</time>
      </trkpt>
      <trkpt lat="45.77726" lon="4.62738">
        <ele>536</ele>
        <time>2012-05-28T10:27:29Z</time>
      </trkpt>
      <trkpt lat="45.77724" lon="4.6274">
        <ele>537</ele>
        <time>2012-05-28T10:27:30Z</time>
      </trkpt>
      <trkpt lat="45.77721" lon="4.62742">
        <ele>537</ele>
        <time>2012-05-28T10:27:31Z</time>
      </trkpt>
      <trkpt lat="45.77715" lon="4.62746">
        <ele>537</ele>
        <time>2012-05-28T10:27:35Z</time>
      </trkpt>
      <trkpt lat="45.77714" lon="4.62747">
        <ele>537</ele>
        <time>2012-05-28T10:27:36Z</time>
      </trkpt>
      <trkpt lat="45.77713" lon="4.62748">
        <ele>537</ele>
        <time>2012-05-28T10:27:37Z</time>
      </trkpt>
      <trkpt lat="45.7771" lon="4.62751">
        <ele>537</ele>
        <time>2012-05-28T10:27:42Z</time>
      </trkpt>
      <trkpt lat="45.77703" lon="4.62754">
        <ele>538</ele>
        <time>2012-05-28T10:27:46Z</time>
      </trkpt>
      <trkpt lat="45.77701" lon="4.62755">
        <ele>538</ele>
        <time>2012-05-28T10:27:47Z</time>
      </trkpt>
      <trkpt lat="45.777" lon="4.62756">
        <ele>539</ele>
        <time>2012-05-28T10:27:48Z</time>
      </trkpt>
      <trkpt lat="45.77699" lon="4.62758">
        <ele>538</ele>
        <time>2012-05-28T10:27:49Z</time>
      </trkpt>
      <trkpt lat="45.77697" lon="4.62759">
        <ele>539</ele>
        <time>2012-05-28T10:27:50Z</time>
      </trkpt>
      <trkpt lat="45.77689" lon="4.62767">
        <ele>539</ele>
        <time>2012-05-28T10:27:56Z</time>
      </trkpt>
      <trkpt lat="45.7768" lon="4.62774">
        <ele>540</ele>
        <time>2012-05-28T10:28:03Z</time>
      </trkpt>
      <trkpt lat="45.77679" lon="4.62776">
        <ele>541</ele>
        <time>2012-05-28T10:28:04Z</time>
      </trkpt>
      <trkpt lat="45.77678" lon="4.62777">
        <ele>541</ele>
        <time>2012-05-28T10:28:05Z</time>
      </trkpt>
      <trkpt lat="45.77677" lon="4.62778">
        <ele>541</ele>
        <time>2012-05-28T10:28:06Z</time>
      </trkpt>
      <trkpt lat="45.77675" lon="4.62779">
        <ele>541</ele>
        <time>2012-05-28T10:28:07Z</time>
      </trkpt>
      <trkpt lat="45.77672" lon="4.62782">
        <ele>541</ele>
        <time>2012-05-28T10:28:09Z</time>
      </trkpt>
      <trkpt lat="45.77671" lon="4.62783">
        <ele>542</ele>
        <time>2012-05-28T10:28:10Z</time>
      </trkpt>
      <trkpt lat="45.7767" lon="4.62785">
        <ele>542</ele>
        <time>2012-05-28T10:28:11Z</time>
      </trkpt>
      <trkpt lat="45.77667" lon="4.6279">
        <ele>542</ele>
        <time>2012-05-28T10:28:14Z</time>
      </trkpt>
      <trkpt lat="45.77661" lon="4.62802">
        <ele>543</ele>
        <time>2012-05-28T10:28:23Z</time>
      </trkpt>
      <trkpt lat="45.77653" lon="4.62812">
        <ele>543</ele>
        <time>2012-05-28T10:28:30Z</time>
      </trkpt>
      <trkpt lat="45.77648" lon="4.62825">
        <ele>545</ele>
        <time>2012-05-28T10:28:37Z</time>
      </trkpt>
      <trkpt lat="45.77646" lon="4.62833">
        <ele>545</ele>
        <time>2012-05-28T10:28:43Z</time>
      </trkpt>
      <trkpt lat="45.77646" lon="4.62839">
        <ele>546</ele>
        <time>2012-05-28T10:28:46Z</time>
      </trkpt>
      <trkpt lat="45.77646" lon="4.62842">
        <ele>546</ele>
        <time>2012-05-28T10:28:47Z</time>
      </trkpt>
      <trkpt lat="45.77645" lon="4.62849">
        <ele>547</ele>
        <time>2012-05-28T10:28:53Z</time>
      </trkpt>
      <trkpt lat="45.77646" lon="4.6286">
        <ele>548</ele>
        <time>2012-05-28T10:29:00Z</time>
      </trkpt>
      <trkpt lat="45.77646" lon="4.62863">
        <ele>548</ele>
        <time>2012-05-28T10:29:02Z</time>
      </trkpt>
      <trkpt lat="45.77645" lon="4.62876">
        <ele>550</ele>
        <time>2012-05-28T10:29:09Z</time>
      </trkpt>
      <trkpt lat="45.77645" lon="4.62878">
        <ele>550</ele>
        <time>2012-05-28T10:29:10Z</time>
      </trkpt>
      <trkpt lat="45.77647" lon="4.62888">
        <ele>550</ele>
        <time>2012-05-28T10:29:16Z</time>
      </trkpt>
      <trkpt lat="45.77652" lon="4.62903">
        <ele>551</ele>
        <time>2012-05-28T10:29:23Z</time>
      </trkpt>
      <trkpt lat="45.77654" lon="4.62913">
        <ele>552</ele>
        <time>2012-05-28T10:29:30Z</time>
      </trkpt>
      <trkpt lat="45.77658" lon="4.62921">
        <ele>553</ele>
        <time>2012-05-28T10:29:35Z</time>
      </trkpt>
      <trkpt lat="45.77661" lon="4.62934">
        <ele>554</ele>
        <time>2012-05-28T10:29:40Z</time>
      </trkpt>
      <trkpt lat="45.77662" lon="4.62936">
        <ele>554</ele>
        <time>2012-05-28T10:29:41Z</time>
      </trkpt>
      <trkpt lat="45.77666" lon="4.62952">
        <ele>556</ele>
        <time>2012-05-28T10:29:49Z</time>
      </trkpt>
      <trkpt lat="45.77667" lon="4.62955">
        <ele>556</ele>
        <time>2012-05-28T10:29:50Z</time>
      </trkpt>
      <trkpt lat="45.77667" lon="4.62957">
        <ele>556</ele>
        <time>2012-05-28T10:29:51Z</time>
      </trkpt>
      <trkpt lat="45.77672" lon="4.6297">
        <ele>557</ele>
        <time>2012-05-28T10:29:59Z</time>
      </trkpt>
      <trkpt lat="45.77674" lon="4.62975">
        <ele>558</ele>
        <time>2012-05-28T10:30:03Z</time>
      </trkpt>
      <trkpt lat="45.77677" lon="4.6298">
        <ele>559</ele>
        <time>2012-05-28T10:30:06Z</time>
      </trkpt>
      <trkpt lat="45.77678" lon="4.62982">
        <ele>559</ele>
        <time>2012-05-28T10:30:07Z</time>
      </trkpt>
      <trkpt lat="45.77681" lon="4.62991">
        <ele>561</ele>
        <time>2012-05-28T10:30:13Z</time>
      </trkpt>
      <trkpt lat="45.77686" lon="4.62999">
        <ele>562</ele>
        <time>2012-05-28T10:30:19Z</time>
      </trkpt>
      <trkpt lat="45.77691" lon="4.6301">
        <ele>563</ele>
        <time>2012-05-28T10:30:26Z</time>
      </trkpt>
      <trkpt lat="45.77692" lon="4.63014">
        <ele>563</ele>
        <time>2012-05-28T10:30:29Z</time>
      </trkpt>
      <trkpt lat="45.77695" lon="4.63021">
        <ele>565</ele>
        <time>2012-05-28T10:30:35Z</time>
      </trkpt>
      <trkpt lat="45.77695" lon="4.63023">
        <ele>565</ele>
        <time>2012-05-28T10:30:36Z</time>
      </trkpt>
      <trkpt lat="45.77696" lon="4.63025">
        <ele>566</ele>
        <time>2012-05-28T10:30:37Z</time>
      </trkpt>
      <trkpt lat="45.77698" lon="4.6303">
        <ele>566</ele>
        <time>2012-05-28T10:30:40Z</time>
      </trkpt>
      <trkpt lat="45.77701" lon="4.63037">
        <ele>567</ele>
        <time>2012-05-28T10:30:46Z</time>
      </trkpt>
      <trkpt lat="45.77704" lon="4.63044">
        <ele>568</ele>
        <time>2012-05-28T10:30:53Z</time>
      </trkpt>
      <trkpt lat="45.77707" lon="4.63052">
        <ele>569</ele>
        <time>2012-05-28T10:30:59Z</time>
      </trkpt>
      <trkpt lat="45.77707" lon="4.63064">
        <ele>571</ele>
        <time>2012-05-28T10:31:08Z</time>
      </trkpt>
      <trkpt lat="45.77707" lon="4.63073">
        <ele>573</ele>
        <time>2012-05-28T10:31:14Z</time>
      </trkpt>
      <trkpt lat="45.77708" lon="4.63084">
        <ele>573</ele>
        <time>2012-05-28T10:31:21Z</time>
      </trkpt>
      <trkpt lat="45.7771" lon="4.63094">
        <ele>574</ele>
        <time>2012-05-28T10:31:28Z</time>
      </trkpt>
      <trkpt lat="45.77711" lon="4.63104">
        <ele>575</ele>
        <time>2012-05-28T10:31:34Z</time>
      </trkpt>
      <trkpt lat="45.77711" lon="4.63108">
        <ele>575</ele>
        <time>2012-05-28T10:31:36Z</time>
      </trkpt>
      <trkpt lat="45.7771" lon="4.63121">
        <ele>576</ele>
        <time>2012-05-28T10:31:43Z</time>
      </trkpt>
      <trkpt lat="45.7771" lon="4.63125">
        <ele>576</ele>
        <time>2012-05-28T10:31:45Z</time>
      </trkpt>
      <trkpt lat="45.77712" lon="4.63136">
        <ele>577</ele>
        <time>2012-05-28T10:31:51Z</time>
      </trkpt>
      <trkpt lat="45.77714" lon="4.63152">
        <ele>579</ele>
        <time>2012-05-28T10:31:58Z</time>
      </trkpt>
      <trkpt lat="45.77715" lon="4.63164">
        <ele>580</ele>
        <time>2012-05-28T10:32:05Z</time>
      </trkpt>
      <trkpt lat="45.77717" lon="4.63175">
        <ele>581</ele>
        <time>2012-05-28T10:32:11Z</time>
      </trkpt>
      <trkpt lat="45.77718" lon="4.63191">
        <ele>581</ele>
        <time>2012-05-28T10:32:19Z</time>
      </trkpt>
      <trkpt lat="45.77719" lon="4.63204">
        <ele>582</ele>
        <time>2012-05-28T10:32:25Z</time>
      </trkpt>
      <trkpt lat="45.77718" lon="4.6321">
        <ele>583</ele>
        <time>2012-05-28T10:32:28Z</time>
      </trkpt>
      <trkpt lat="45.77717" lon="4.63212">
        <ele>583</ele>
        <time>2012-05-28T10:32:29Z</time>
      </trkpt>
      <trkpt lat="45.77716" lon="4.63215">
        <ele>583</ele>
        <time>2012-05-28T10:32:32Z</time>
      </trkpt>
      <trkpt lat="45.77713" lon="4.63218">
        <ele>583</ele>
        <time>2012-05-28T10:32:38Z</time>
      </trkpt>
      <trkpt lat="45.77713" lon="4.6322">
        <ele>583</ele>
        <time>2012-05-28T10:32:50Z</time>
      </trkpt>
      <trkpt lat="45.77714" lon="4.63222">
        <ele>583</ele>
        <time>2012-05-28T10:32:57Z</time>
      </trkpt>
      <trkpt lat="45.77713" lon="4.63232">
        <ele>584</ele>
        <time>2012-05-28T10:33:03Z</time>
      </trkpt>
      <trkpt lat="45.77712" lon="4.63234">
        <ele>584</ele>
        <time>2012-05-28T10:33:07Z</time>
      </trkpt>
      <trkpt lat="45.7771" lon="4.6324">
        <ele>583</ele>
        <time>2012-05-28T10:33:10Z</time>
      </trkpt>
      <trkpt lat="45.77705" lon="4.63251">
        <ele>584</ele>
        <time>2012-05-28T10:33:15Z</time>
      </trkpt>
      <trkpt lat="45.77704" lon="4.63253">
        <ele>584</ele>
        <time>2012-05-28T10:33:16Z</time>
      </trkpt>
      <trkpt lat="45.77703" lon="4.63255">
        <ele>584</ele>
        <time>2012-05-28T10:33:17Z</time>
      </trkpt>
      <trkpt lat="45.77702" lon="4.63256">
        <ele>585</ele>
        <time>2012-05-28T10:33:18Z</time>
      </trkpt>
      <trkpt lat="45.77701" lon="4.63258">
        <ele>585</ele>
        <time>2012-05-28T10:33:19Z</time>
      </trkpt>
      <trkpt lat="45.77698" lon="4.63265">
        <ele>585</ele>
        <time>2012-05-28T10:33:22Z</time>
      </trkpt>
      <trkpt lat="45.77684" lon="4.63283">
        <ele>587</ele>
        <time>2012-05-28T10:33:31Z</time>
      </trkpt>
      <trkpt lat="45.77676" lon="4.63293">
        <ele>587</ele>
        <time>2012-05-28T10:33:38Z</time>
      </trkpt>
      <trkpt lat="45.77674" lon="4.63295">
        <ele>586</ele>
        <time>2012-05-28T10:33:39Z</time>
      </trkpt>
      <trkpt lat="45.77672" lon="4.63298">
        <ele>586</ele>
        <time>2012-05-28T10:33:40Z</time>
      </trkpt>
      <trkpt lat="45.77662" lon="4.63309">
        <ele>586</ele>
        <time>2012-05-28T10:33:45Z</time>
      </trkpt>
      <trkpt lat="45.77653" lon="4.63318">
        <ele>585</ele>
        <time>2012-05-28T10:33:49Z</time>
      </trkpt>
      <trkpt lat="45.77651" lon="4.6332">
        <ele>585</ele>
        <time>2012-05-28T10:33:50Z</time>
      </trkpt>
      <trkpt lat="45.77637" lon="4.63332">
        <ele>586</ele>
        <time>2012-05-28T10:33:56Z</time>
      </trkpt>
      <trkpt lat="45.7762" lon="4.63345">
        <ele>586</ele>
        <time>2012-05-28T10:34:03Z</time>
      </trkpt>
      <trkpt lat="45.77616" lon="4.63347">
        <ele>586</ele>
        <time>2012-05-28T10:34:05Z</time>
      </trkpt>
      <trkpt lat="45.7761" lon="4.63351">
        <ele>587</ele>
        <time>2012-05-28T10:34:10Z</time>
      </trkpt>
      <trkpt lat="45.77602" lon="4.63357">
        <ele>587</ele>
        <time>2012-05-28T10:34:16Z</time>
      </trkpt>
      <trkpt lat="45.77601" lon="4.63358">
        <ele>588</ele>
        <time>2012-05-28T10:34:17Z</time>
      </trkpt>
      <trkpt lat="45.77598" lon="4.6336">
        <ele>588</ele>
        <time>2012-05-28T10:34:19Z</time>
      </trkpt>
      <trkpt lat="45.77596" lon="4.63361">
        <ele>588</ele>
        <time>2012-05-28T10:34:20Z</time>
      </trkpt>
      <trkpt lat="45.77594" lon="4.63361">
        <ele>588</ele>
        <time>2012-05-28T10:34:21Z</time>
      </trkpt>
      <trkpt lat="45.77593" lon="4.63362">
        <ele>589</ele>
        <time>2012-05-28T10:34:22Z</time>
      </trkpt>
      <trkpt lat="45.77588" lon="4.63363">
        <ele>589</ele>
        <time>2012-05-28T10:34:28Z</time>
      </trkpt>
      <trkpt lat="45.77578" lon="4.63364">
        <ele>591</ele>
        <time>2012-05-28T10:34:35Z</time>
      </trkpt>
      <trkpt lat="45.77573" lon="4.63366">
        <ele>592</ele>
        <time>2012-05-28T10:34:40Z</time>
      </trkpt>
      <trkpt lat="45.77571" lon="4.63367">
        <ele>592</ele>
        <time>2012-05-28T10:34:41Z</time>
      </trkpt>
      <trkpt lat="45.7757" lon="4.63367">
        <ele>593</ele>
        <time>2012-05-28T10:34:42Z</time>
      </trkpt>
      <trkpt lat="45.77567" lon="4.63368">
        <ele>593</ele>
        <time>2012-05-28T10:34:43Z</time>
      </trkpt>
      <trkpt lat="45.77566" lon="4.63369">
        <ele>593</ele>
        <time>2012-05-28T10:34:44Z</time>
      </trkpt>
      <trkpt lat="45.77564" lon="4.63371">
        <ele>593</ele>
        <time>2012-05-28T10:34:45Z</time>
      </trkpt>
      <trkpt lat="45.77562" lon="4.63372">
        <ele>593</ele>
        <time>2012-05-28T10:34:46Z</time>
      </trkpt>
      <trkpt lat="45.77558" lon="4.63374">
        <ele>594</ele>
        <time>2012-05-28T10:34:48Z</time>
      </trkpt>
      <trkpt lat="45.77557" lon="4.63375">
        <ele>594</ele>
        <time>2012-05-28T10:34:49Z</time>
      </trkpt>
      <trkpt lat="45.77549" lon="4.6338">
        <ele>594</ele>
        <time>2012-05-28T10:34:53Z</time>
      </trkpt>
      <trkpt lat="45.77546" lon="4.63381">
        <ele>595</ele>
        <time>2012-05-28T10:34:55Z</time>
      </trkpt>
      <trkpt lat="45.77545" lon="4.63381">
        <ele>594</ele>
        <time>2012-05-28T10:34:56Z</time>
      </trkpt>
      <trkpt lat="45.77543" lon="4.63382">
        <ele>594</ele>
        <time>2012-05-28T10:34:57Z</time>
      </trkpt>
      <trkpt lat="45.77542" lon="4.63383">
        <ele>594</ele>
        <time>2012-05-28T10:34:58Z</time>
      </trkpt>
      <trkpt lat="45.7754" lon="4.63385">
        <ele>595</ele>
        <time>2012-05-28T10:34:59Z</time>
      </trkpt>
      <trkpt lat="45.77538" lon="4.63387">
        <ele>595</ele>
        <time>2012-05-28T10:35:00Z</time>
      </trkpt>
      <trkpt lat="45.77536" lon="4.63389">
        <ele>595</ele>
        <time>2012-05-28T10:35:01Z</time>
      </trkpt>
      <trkpt lat="45.77534" lon="4.63392">
        <ele>595</ele>
        <time>2012-05-28T10:35:02Z</time>
      </trkpt>
      <trkpt lat="45.77532" lon="4.63394">
        <ele>595</ele>
        <time>2012-05-28T10:35:03Z</time>
      </trkpt>
      <trkpt lat="45.77531" lon="4.63394">
        <ele>595</ele>
        <time>2012-05-28T10:35:04Z</time>
      </trkpt>
      <trkpt lat="45.77529" lon="4.63394">
        <ele>596</ele>
        <time>2012-05-28T10:35:05Z</time>
      </trkpt>
      <trkpt lat="45.77527" lon="4.63395">
        <ele>596</ele>
        <time>2012-05-28T10:35:06Z</time>
      </trkpt>
      <trkpt lat="45.77517" lon="4.63407">
        <ele>596</ele>
        <time>2012-05-28T10:35:12Z</time>
      </trkpt>
      <trkpt lat="45.77512" lon="4.63417">
        <ele>596</ele>
        <time>2012-05-28T10:35:15Z</time>
      </trkpt>
      <trkpt lat="45.7751" lon="4.6342">
        <ele>596</ele>
        <time>2012-05-28T10:35:16Z</time>
      </trkpt>
      <trkpt lat="45.77509" lon="4.63423">
        <ele>596</ele>
        <time>2012-05-28T10:35:17Z</time>
      </trkpt>
      <trkpt lat="45.77503" lon="4.63447">
        <ele>596</ele>
        <time>2012-05-28T10:35:23Z</time>
      </trkpt>
      <trkpt lat="45.77503" lon="4.6346">
        <ele>597</ele>
        <time>2012-05-28T10:35:27Z</time>
      </trkpt>
      <trkpt lat="45.77509" lon="4.63478">
        <ele>598</ele>
        <time>2012-05-28T10:35:34Z</time>
      </trkpt>
      <trkpt lat="45.77515" lon="4.63495">
        <ele>599</ele>
        <time>2012-05-28T10:35:40Z</time>
      </trkpt>
      <trkpt lat="45.77517" lon="4.63507">
        <ele>599</ele>
        <time>2012-05-28T10:35:45Z</time>
      </trkpt>
      <trkpt lat="45.77516" lon="4.63512">
        <ele>599</ele>
        <time>2012-05-28T10:35:48Z</time>
      </trkpt>
      <trkpt lat="45.77517" lon="4.63518">
        <ele>600</ele>
        <time>2012-05-28T10:35:51Z</time>
      </trkpt>
      <trkpt lat="45.77521" lon="4.63531">
        <ele>601</ele>
        <time>2012-05-28T10:35:57Z</time>
      </trkpt>
      <trkpt lat="45.77521" lon="4.63536">
        <ele>601</ele>
        <time>2012-05-28T10:35:59Z</time>
      </trkpt>
      <trkpt lat="45.77523" lon="4.63548">
        <ele>601</ele>
        <time>2012-05-28T10:36:03Z</time>
      </trkpt>
      <trkpt lat="45.77527" lon="4.6356">
        <ele>602</ele>
        <time>2012-05-28T10:36:07Z</time>
      </trkpt>
      <trkpt lat="45.77527" lon="4.63564">
        <ele>602</ele>
        <time>2012-05-28T10:36:09Z</time>
      </trkpt>
      <trkpt lat="45.77535" lon="4.6358">
        <ele>602</ele>
        <time>2012-05-28T10:36:15Z</time>
      </trkpt>
      <trkpt lat="45.77539" lon="4.63594">
        <ele>602</ele>
        <time>2012-05-28T10:36:20Z</time>
      </trkpt>
      <trkpt lat="45.77541" lon="4.63614">
        <ele>604</ele>
        <time>2012-05-28T10:36:26Z</time>
      </trkpt>
      <trkpt lat="45.77542" lon="4.63624">
        <ele>604</ele>
        <time>2012-05-28T10:36:28Z</time>
      </trkpt>
      <trkpt lat="45.77548" lon="4.63651">
        <ele>606</ele>
        <time>2012-05-28T10:36:36Z</time>
      </trkpt>
      <trkpt lat="45.77553" lon="4.6367">
        <ele>606</ele>
        <time>2012-05-28T10:36:43Z</time>
      </trkpt>
      <trkpt lat="45.77558" lon="4.6369">
        <ele>608</ele>
        <time>2012-05-28T10:36:51Z</time>
      </trkpt>
      <trkpt lat="45.77558" lon="4.63707">
        <ele>609</ele>
        <time>2012-05-28T10:36:57Z</time>
      </trkpt>
      <trkpt lat="45.77559" lon="4.63708">
        <ele>609</ele>
        <time>2012-05-28T10:36:58Z</time>
      </trkpt>
      <trkpt lat="45.77559" lon="4.6372">
        <ele>610</ele>
        <time>2012-05-28T10:37:03Z</time>
      </trkpt>
      <trkpt lat="45.77559" lon="4.63724">
        <ele>610</ele>
        <time>2012-05-28T10:37:05Z</time>
      </trkpt>
      <trkpt lat="45.77561" lon="4.63734">
        <ele>611</ele>
        <time>2012-05-28T10:37:09Z</time>
      </trkpt>
      <trkpt lat="45.77565" lon="4.63752">
        <ele>612</ele>
        <time>2012-05-28T10:37:15Z</time>
      </trkpt>
      <trkpt lat="45.77567" lon="4.63759">
        <ele>612</ele>
        <time>2012-05-28T10:37:18Z</time>
      </trkpt>
      <trkpt lat="45.77572" lon="4.63774">
        <ele>613</ele>
        <time>2012-05-28T10:37:25Z</time>
      </trkpt>
      <trkpt lat="45.77577" lon="4.63797">
        <ele>614</ele>
        <time>2012-05-28T10:37:32Z</time>
      </trkpt>
      <trkpt lat="45.7758" lon="4.63806">
        <ele>615</ele>
        <time>2012-05-28T10:37:35Z</time>
      </trkpt>
      <trkpt lat="45.77584" lon="4.6383">
        <ele>616</ele>
        <time>2012-05-28T10:37:43Z</time>
      </trkpt>
      <trkpt lat="45.77591" lon="4.63847">
        <ele>616</ele>
        <time>2012-05-28T10:37:51Z</time>
      </trkpt>
      <trkpt lat="45.77601" lon="4.6386">
        <ele>615</ele>
        <time>2012-05-28T10:37:56Z</time>
      </trkpt>
      <trkpt lat="45.77603" lon="4.63863">
        <ele>616</ele>
        <time>2012-05-28T10:37:57Z</time>
      </trkpt>
      <trkpt lat="45.77612" lon="4.63871">
        <ele>615</ele>
        <time>2012-05-28T10:38:02Z</time>
      </trkpt>
      <trkpt lat="45.77626" lon="4.63881">
        <ele>615</ele>
        <time>2012-05-28T10:38:08Z</time>
      </trkpt>
      <trkpt lat="45.77636" lon="4.63885">
        <ele>616</ele>
        <time>2012-05-28T10:38:12Z</time>
      </trkpt>
      <trkpt lat="45.77662" lon="4.63898">
        <ele>617</ele>
        <time>2012-05-28T10:38:22Z</time>
      </trkpt>
      <trkpt lat="45.77664" lon="4.639">
        <ele>618</ele>
        <time>2012-05-28T10:38:23Z</time>
      </trkpt>
      <trkpt lat="45.77685" lon="4.63913">
        <ele>619</ele>
        <time>2012-05-28T10:38:32Z</time>
      </trkpt>
      <trkpt lat="45.777" lon="4.63927">
        <ele>618</ele>
        <time>2012-05-28T10:38:40Z</time>
      </trkpt>
      <trkpt lat="45.77701" lon="4.63928">
        <ele>618</ele>
        <time>2012-05-28T10:38:41Z</time>
      </trkpt>
      <trkpt lat="45.77723" lon="4.6393">
        <ele>617</ele>
        <time>2012-05-28T10:38:49Z</time>
      </trkpt>
      <trkpt lat="45.77739" lon="4.63937">
        <ele>617</ele>
        <time>2012-05-28T10:38:54Z</time>
      </trkpt>
      <trkpt lat="45.77746" lon="4.63943">
        <ele>616</ele>
        <time>2012-05-28T10:38:56Z</time>
      </trkpt>
      <trkpt lat="45.7775" lon="4.63947">
        <ele>616</ele>
        <time>2012-05-28T10:38:57Z</time>
      </trkpt>
      <trkpt lat="45.77754" lon="4.6395">
        <ele>616</ele>
        <time>2012-05-28T10:38:58Z</time>
      </trkpt>
      <trkpt lat="45.77762" lon="4.63957">
        <ele>615</ele>
        <time>2012-05-28T10:39:00Z</time>
      </trkpt>
      <trkpt lat="45.77784" lon="4.63975">
        <ele>616</ele>
        <time>2012-05-28T10:39:07Z</time>
      </trkpt>
      <trkpt lat="45.77791" lon="4.63983">
        <ele>615</ele>
        <time>2012-05-28T10:39:11Z</time>
      </trkpt>
      <trkpt lat="45.77793" lon="4.63983">
        <ele>614</ele>
        <time>2012-05-28T10:39:12Z</time>
      </trkpt>
      <trkpt lat="45.77794" lon="4.63983">
        <ele>614</ele>
        <time>2012-05-28T10:39:13Z</time>
      </trkpt>
      <trkpt lat="45.77794" lon="4.63984">
        <ele>614</ele>
        <time>2012-05-28T10:39:19Z</time>
      </trkpt>
      <trkpt lat="45.77795" lon="4.63983">
        <ele>615</ele>
        <time>2012-05-28T10:39:32Z</time>
      </trkpt>
      <trkpt lat="45.77796" lon="4.63983">
        <ele>614</ele>
        <time>2012-05-28T10:39:53Z</time>
      </trkpt>
      <trkpt lat="45.77796" lon="4.63984">
        <ele>614</ele>
        <time>2012-05-28T10:40:11Z</time>
      </trkpt>
      <trkpt lat="45.77796" lon="4.63983">
        <ele>614</ele>
        <time>2012-05-28T10:40:29Z</time>
      </trkpt>
      <trkpt lat="45.77796" lon="4.63984">
        <ele>614</ele>
        <time>2012-05-28T10:40:40Z</time>
      </trkpt>
      <trkpt lat="45.77796" lon="4.63984">
        <ele>614</ele>
        <time>2012-05-28T10:40:56Z</time>
      </trkpt>
      <trkpt lat="45.77796" lon="4.63984">
        <ele>614</ele>
        <time>2012-05-28T10:41:12Z</time>
      </trkpt>
      <trkpt lat="45.77796" lon="4.63983">
        <ele>614</ele>
        <time>2012-05-28T10:41:28Z</time>
      </trkpt>
      <trkpt lat="45.77796" lon="4.63983">
        <ele>613</ele>
        <time>2012-05-28T10:41:43Z</time>
      </trkpt>
      <trkpt lat="45.77796" lon="4.63983">
        <ele>614</ele>
        <time>2012-05-28T10:42:00Z</time>
      </trkpt>
      <trkpt lat="45.77797" lon="4.63983">
        <ele>614</ele>
        <time>2012-05-28T10:42:12Z</time>
      </trkpt>
      <trkpt lat="45.77797" lon="4.63985">
        <ele>614</ele>
        <time>2012-05-28T10:42:23Z</time>
      </trkpt>
      <trkpt lat="45.77797" lon="4.63987">
        <ele>614</ele>
        <time>2012-05-28T10:42:24Z</time>
      </trkpt>
      <trkpt lat="45.77797" lon="4.6399">
        <ele>614</ele>
        <time>2012-05-28T10:42:25Z</time>
      </trkpt>
      <trkpt lat="45.77798" lon="4.63992">
        <ele>613</ele>
        <time>2012-05-28T10:42:26Z</time>
      </trkpt>
      <trkpt lat="45.77799" lon="4.63995">
        <ele>613</ele>
        <time>2012-05-28T10:42:27Z</time>
      </trkpt>
      <trkpt lat="45.77801" lon="4.63998">
        <ele>614</ele>
        <time>2012-05-28T10:42:28Z</time>
      </trkpt>
      <trkpt lat="45.77802" lon="4.64001">
        <ele>613</ele>
        <time>2012-05-28T10:42:29Z</time>
      </trkpt>
      <trkpt lat="45.77812" lon="4.64014">
        <ele>613</ele>
        <time>2012-05-28T10:42:35Z</time>
      </trkpt>
      <trkpt lat="45.77823" lon="4.64031">
        <ele>614</ele>
        <time>2012-05-28T10:42:42Z</time>
      </trkpt>
      <trkpt lat="45.77831" lon="4.64051">
        <ele>615</ele>
        <time>2012-05-28T10:42:49Z</time>
      </trkpt>
      <trkpt lat="45.77842" lon="4.64077">
        <ele>616</ele>
        <time>2012-05-28T10:42:58Z</time>
      </trkpt>
      <trkpt lat="45.77847" lon="4.64091">
        <ele>617</ele>
        <time>2012-05-28T10:43:04Z</time>
      </trkpt>
      <trkpt lat="45.77849" lon="4.64095">
        <ele>617</ele>
        <time>2012-05-28T10:43:07Z</time>
      </trkpt>
      <trkpt lat="45.7785" lon="4.64097">
        <ele>617</ele>
        <time>2012-05-28T10:43:08Z</time>
      </trkpt>
      <trkpt lat="45.7785" lon="4.64099">
        <ele>618</ele>
        <time>2012-05-28T10:43:09Z</time>
      </trkpt>
      <trkpt lat="45.77851" lon="4.64101">
        <ele>618</ele>
        <time>2012-05-28T10:43:10Z</time>
      </trkpt>
      <trkpt lat="45.77851" lon="4.64103">
        <ele>618</ele>
        <time>2012-05-28T10:43:11Z</time>
      </trkpt>
      <trkpt lat="45.77851" lon="4.64105">
        <ele>618</ele>
        <time>2012-05-28T10:43:12Z</time>
      </trkpt>
      <trkpt lat="45.77851" lon="4.64107">
        <ele>618</ele>
        <time>2012-05-28T10:43:13Z</time>
      </trkpt>
      <trkpt lat="45.77851" lon="4.64109">
        <ele>618</ele>
        <time>2012-05-28T10:43:14Z</time>
      </trkpt>
      <trkpt lat="45.77852" lon="4.64111">
        <ele>619</ele>
        <time>2012-05-28T10:43:15Z</time>
      </trkpt>
      <trkpt lat="45.77852" lon="4.64114">
        <ele>618</ele>
        <time>2012-05-28T10:43:16Z</time>
      </trkpt>
      <trkpt lat="45.77853" lon="4.64116">
        <ele>619</ele>
        <time>2012-05-28T10:43:17Z</time>
      </trkpt>
      <trkpt lat="45.77854" lon="4.64118">
        <ele>618</ele>
        <time>2012-05-28T10:43:18Z</time>
      </trkpt>
      <trkpt lat="45.77854" lon="4.64121">
        <ele>618</ele>
        <time>2012-05-28T10:43:19Z</time>
      </trkpt>
      <trkpt lat="45.77855" lon="4.64123">
        <ele>619</ele>
        <time>2012-05-28T10:43:20Z</time>
      </trkpt>
      <trkpt lat="45.77855" lon="4.64125">
        <ele>619</ele>
        <time>2012-05-28T10:43:21Z</time>
      </trkpt>
      <trkpt lat="45.77856" lon="4.64127">
        <ele>619</ele>
        <time>2012-05-28T10:43:22Z</time>
      </trkpt>
      <trkpt lat="45.77857" lon="4.64129">
        <ele>620</ele>
        <time>2012-05-28T10:43:23Z</time>
      </trkpt>
      <trkpt lat="45.77864" lon="4.6414">
        <ele>621</ele>
        <time>2012-05-28T10:43:30Z</time>
      </trkpt>
      <trkpt lat="45.77868" lon="4.64144">
        <ele>622</ele>
        <time>2012-05-28T10:43:34Z</time>
      </trkpt>
      <trkpt lat="45.77869" lon="4.64146">
        <ele>622</ele>
        <time>2012-05-28T10:43:35Z</time>
      </trkpt>
      <trkpt lat="45.7787" lon="4.64147">
        <ele>622</ele>
        <time>2012-05-28T10:43:36Z</time>
      </trkpt>
      <trkpt lat="45.77878" lon="4.64158">
        <ele>624</ele>
        <time>2012-05-28T10:43:43Z</time>
      </trkpt>
      <trkpt lat="45.77878" lon="4.6416">
        <ele>623</ele>
        <time>2012-05-28T10:43:44Z</time>
      </trkpt>
      <trkpt lat="45.77878" lon="4.64162">
        <ele>624</ele>
        <time>2012-05-28T10:43:45Z</time>
      </trkpt>
      <trkpt lat="45.77884" lon="4.64174">
        <ele>624</ele>
        <time>2012-05-28T10:43:52Z</time>
      </trkpt>
      <trkpt lat="45.77885" lon="4.64175">
        <ele>624</ele>
        <time>2012-05-28T10:43:53Z</time>
      </trkpt>
      <trkpt lat="45.77886" lon="4.64177">
        <ele>625</ele>
        <time>2012-05-28T10:43:54Z</time>
      </trkpt>
      <trkpt lat="45.77887" lon="4.64179">
        <ele>624</ele>
        <time>2012-05-28T10:43:55Z</time>
      </trkpt>
      <trkpt lat="45.77891" lon="4.64185">
        <ele>625</ele>
        <time>2012-05-28T10:43:59Z</time>
      </trkpt>
      <trkpt lat="45.77892" lon="4.64186">
        <ele>624</ele>
        <time>2012-05-28T10:44:00Z</time>
      </trkpt>
      <trkpt lat="45.77892" lon="4.64188">
        <ele>625</ele>
        <time>2012-05-28T10:44:01Z</time>
      </trkpt>
      <trkpt lat="45.77893" lon="4.6419">
        <ele>625</ele>
        <time>2012-05-28T10:44:02Z</time>
      </trkpt>
      <trkpt lat="45.77894" lon="4.64193">
        <ele>625</ele>
        <time>2012-05-28T10:44:04Z</time>
      </trkpt>
      <trkpt lat="45.77894" lon="4.64195">
        <ele>625</ele>
        <time>2012-05-28T10:44:05Z</time>
      </trkpt>
      <trkpt lat="45.77895" lon="4.64196">
        <ele>625</ele>
        <time>2012-05-28T10:44:06Z</time>
      </trkpt>
      <trkpt lat="45.77896" lon="4.64198">
        <ele>626</ele>
        <time>2012-05-28T10:44:07Z</time>
      </trkpt>
      <trkpt lat="45.77897" lon="4.64199">
        <ele>626</ele>
        <time>2012-05-28T10:44:08Z</time>
      </trkpt>
      <trkpt lat="45.77898" lon="4.64201">
        <ele>626</ele>
        <time>2012-05-28T10:44:09Z</time>
      </trkpt>
      <trkpt lat="45.77898" lon="4.64202">
        <ele>626</ele>
        <time>2012-05-28T10:44:10Z</time>
      </trkpt>
      <trkpt lat="45.77899" lon="4.64204">
        <ele>626</ele>
        <time>2012-05-28T10:44:11Z</time>
      </trkpt>
      <trkpt lat="45.779" lon="4.64206">
        <ele>626</ele>
        <time>2012-05-28T10:44:12Z</time>
      </trkpt>
      <trkpt lat="45.77901" lon="4.64207">
        <ele>626</ele>
        <time>2012-05-28T10:44:13Z</time>
      </trkpt>
      <trkpt lat="45.77903" lon="4.64211">
        <ele>626</ele>
        <time>2012-05-28T10:44:15Z</time>
      </trkpt>
      <trkpt lat="45.77903" lon="4.64212">
        <ele>626</ele>
        <time>2012-05-28T10:44:16Z</time>
      </trkpt>
      <trkpt lat="45.77907" lon="4.6422">
        <ele>627</ele>
        <time>2012-05-28T10:44:21Z</time>
      </trkpt>
      <trkpt lat="45.77911" lon="4.64233">
        <ele>628</ele>
        <time>2012-05-28T10:44:27Z</time>
      </trkpt>
      <trkpt lat="45.77913" lon="4.64235">
        <ele>627</ele>
        <time>2012-05-28T10:44:28Z</time>
      </trkpt>
      <trkpt lat="45.77914" lon="4.64238">
        <ele>628</ele>
        <time>2012-05-28T10:44:29Z</time>
      </trkpt>
      <trkpt lat="45.77915" lon="4.6424">
        <ele>628</ele>
        <time>2012-05-28T10:44:30Z</time>
      </trkpt>
      <trkpt lat="45.77917" lon="4.64242">
        <ele>628</ele>
        <time>2012-05-28T10:44:31Z</time>
      </trkpt>
      <trkpt lat="45.77918" lon="4.64244">
        <ele>628</ele>
        <time>2012-05-28T10:44:32Z</time>
      </trkpt>
      <trkpt lat="45.7792" lon="4.64246">
        <ele>628</ele>
        <time>2012-05-28T10:44:33Z</time>
      </trkpt>
      <trkpt lat="45.77921" lon="4.64247">
        <ele>628</ele>
        <time>2012-05-28T10:44:34Z</time>
      </trkpt>
      <trkpt lat="45.77922" lon="4.64249">
        <ele>629</ele>
        <time>2012-05-28T10:44:35Z</time>
      </trkpt>
      <trkpt lat="45.77927" lon="4.64259">
        <ele>629</ele>
        <time>2012-05-28T10:44:41Z</time>
      </trkpt>
      <trkpt lat="45.77928" lon="4.64262">
        <ele>629</ele>
        <time>2012-05-28T10:44:42Z</time>
      </trkpt>
      <trkpt lat="45.77929" lon="4.64264">
        <ele>630</ele>
        <time>2012-05-28T10:44:43Z</time>
      </trkpt>
      <trkpt lat="45.77929" lon="4.64267">
        <ele>630</ele>
        <time>2012-05-28T10:44:44Z</time>
      </trkpt>
      <trkpt lat="45.7793" lon="4.64269">
        <ele>630</ele>
        <time>2012-05-28T10:44:45Z</time>
      </trkpt>
      <trkpt lat="45.77934" lon="4.64276">
        <ele>631</ele>
        <time>2012-05-28T10:44:49Z</time>
      </trkpt>
      <trkpt lat="45.77934" lon="4.64278">
        <ele>631</ele>
        <time>2012-05-28T10:44:50Z</time>
      </trkpt>
      <trkpt lat="45.77935" lon="4.6428">
        <ele>631</ele>
        <time>2012-05-28T10:44:51Z</time>
      </trkpt>
      <trkpt lat="45.77936" lon="4.64284">
        <ele>632</ele>
        <time>2012-05-28T10:44:53Z</time>
      </trkpt>
      <trkpt lat="45.77937" lon="4.64285">
        <ele>632</ele>
        <time>2012-05-28T10:44:54Z</time>
      </trkpt>
      <trkpt lat="45.77938" lon="4.64288">
        <ele>632</ele>
        <time>2012-05-28T10:44:56Z</time>
      </trkpt>
      <trkpt lat="45.7794" lon="4.64289">
        <ele>633</ele>
        <time>2012-05-28T10:44:57Z</time>
      </trkpt>
      <trkpt lat="45.77941" lon="4.64292">
        <ele>633</ele>
        <time>2012-05-28T10:44:59Z</time>
      </trkpt>
      <trkpt lat="45.77942" lon="4.64294">
        <ele>633</ele>
        <time>2012-05-28T10:45:00Z</time>
      </trkpt>
      <trkpt lat="45.77943" lon="4.64297">
        <ele>634</ele>
        <time>2012-05-28T10:45:02Z</time>
      </trkpt>
      <trkpt lat="45.77944" lon="4.64298">
        <ele>634</ele>
        <time>2012-05-28T10:45:03Z</time>
      </trkpt>
      <trkpt lat="45.77945" lon="4.643">
        <ele>634</ele>
        <time>2012-05-28T10:45:04Z</time>
      </trkpt>
      <trkpt lat="45.77946" lon="4.64301">
        <ele>635</ele>
        <time>2012-05-28T10:45:05Z</time>
      </trkpt>
      <trkpt lat="45.77947" lon="4.64303">
        <ele>635</ele>
        <time>2012-05-28T10:45:06Z</time>
      </trkpt>
      <trkpt lat="45.77949" lon="4.64305">
        <ele>635</ele>
        <time>2012-05-28T10:45:07Z</time>
      </trkpt>
      <trkpt lat="45.77953" lon="4.64314">
        <ele>635</ele>
        <time>2012-05-28T10:45:12Z</time>
      </trkpt>
      <trkpt lat="45.77956" lon="4.64323">
        <ele>637</ele>
        <time>2012-05-28T10:45:17Z</time>
      </trkpt>
      <trkpt lat="45.77962" lon="4.64337">
        <ele>638</ele>
        <time>2012-05-28T10:45:25Z</time>
      </trkpt>
      <trkpt lat="45.77962" lon="4.64339">
        <ele>638</ele>
        <time>2012-05-28T10:45:26Z</time>
      </trkpt>
      <trkpt lat="45.77963" lon="4.64341">
        <ele>638</ele>
        <time>2012-05-28T10:45:27Z</time>
      </trkpt>
      <trkpt lat="45.77964" lon="4.64342">
        <ele>639</ele>
        <time>2012-05-28T10:45:28Z</time>
      </trkpt>
      <trkpt lat="45.77965" lon="4.64344">
        <ele>639</ele>
        <time>2012-05-28T10:45:29Z</time>
      </trkpt>
      <trkpt lat="45.77965" lon="4.64346">
        <ele>639</ele>
        <time>2012-05-28T10:45:30Z</time>
      </trkpt>
      <trkpt lat="45.77966" lon="4.64347">
        <ele>639</ele>
        <time>2012-05-28T10:45:31Z</time>
      </trkpt>
      <trkpt lat="45.77967" lon="4.64348">
        <ele>639</ele>
        <time>2012-05-28T10:45:32Z</time>
      </trkpt>
      <trkpt lat="45.77968" lon="4.6435">
        <ele>639</ele>
        <time>2012-05-28T10:45:33Z</time>
      </trkpt>
      <trkpt lat="45.77969" lon="4.64351">
        <ele>640</ele>
        <time>2012-05-28T10:45:34Z</time>
      </trkpt>
      <trkpt lat="45.77969" lon="4.64353">
        <ele>640</ele>
        <time>2012-05-28T10:45:35Z</time>
      </trkpt>
      <trkpt lat="45.77976" lon="4.64366">
        <ele>641</ele>
        <time>2012-05-28T10:45:43Z</time>
      </trkpt>
      <trkpt lat="45.77977" lon="4.64367">
        <ele>641</ele>
        <time>2012-05-28T10:45:44Z</time>
      </trkpt>
      <trkpt lat="45.77978" lon="4.64369">
        <ele>641</ele>
        <time>2012-05-28T10:45:45Z</time>
      </trkpt>
      <trkpt lat="45.77979" lon="4.6437">
        <ele>642</ele>
        <time>2012-05-28T10:45:46Z</time>
      </trkpt>
      <trkpt lat="45.7798" lon="4.64372">
        <ele>642</ele>
        <time>2012-05-28T10:45:47Z</time>
      </trkpt>
      <trkpt lat="45.7798" lon="4.64374">
        <ele>642</ele>
        <time>2012-05-28T10:45:48Z</time>
      </trkpt>
      <trkpt lat="45.77981" lon="4.64375">
        <ele>642</ele>
        <time>2012-05-28T10:45:49Z</time>
      </trkpt>
      <trkpt lat="45.77982" lon="4.64377">
        <ele>642</ele>
        <time>2012-05-28T10:45:50Z</time>
      </trkpt>
      <trkpt lat="45.77982" lon="4.64379">
        <ele>642</ele>
        <time>2012-05-28T10:45:51Z</time>
      </trkpt>
      <trkpt lat="45.77983" lon="4.6438">
        <ele>643</ele>
        <time>2012-05-28T10:45:52Z</time>
      </trkpt>
      <trkpt lat="45.77983" lon="4.64381">
        <ele>642</ele>
        <time>2012-05-28T10:45:53Z</time>
      </trkpt>
      <trkpt lat="45.77984" lon="4.64387">
        <ele>644</ele>
        <time>2012-05-28T10:45:56Z</time>
      </trkpt>
      <trkpt lat="45.77988" lon="4.64394">
        <ele>644</ele>
        <time>2012-05-28T10:46:01Z</time>
      </trkpt>
      <trkpt lat="45.7799" lon="4.64394">
        <ele>644</ele>
        <time>2012-05-28T10:46:02Z</time>
      </trkpt>
      <trkpt lat="45.77991" lon="4.64396">
        <ele>645</ele>
        <time>2012-05-28T10:46:04Z</time>
      </trkpt>
      <trkpt lat="45.77999" lon="4.64407">
        <ele>647</ele>
        <time>2012-05-28T10:46:14Z</time>
      </trkpt>
      <trkpt lat="45.78005" lon="4.64417">
        <ele>648</ele>
        <time>2012-05-28T10:46:22Z</time>
      </trkpt>
      <trkpt lat="45.78007" lon="4.64421">
        <ele>648</ele>
        <time>2012-05-28T10:46:25Z</time>
      </trkpt>
      <trkpt lat="45.78014" lon="4.64433">
        <ele>649</ele>
        <time>2012-05-28T10:46:34Z</time>
      </trkpt>
      <trkpt lat="45.7802" lon="4.64442">
        <ele>649</ele>
        <time>2012-05-28T10:46:41Z</time>
      </trkpt>
      <trkpt lat="45.7802" lon="4.64444">
        <ele>649</ele>
        <time>2012-05-28T10:46:42Z</time>
      </trkpt>
      <trkpt lat="45.7802" lon="4.64446">
        <ele>649</ele>
        <time>2012-05-28T10:46:43Z</time>
      </trkpt>
      <trkpt lat="45.78023" lon="4.64453">
        <ele>649</ele>
        <time>2012-05-28T10:46:50Z</time>
      </trkpt>
      <trkpt lat="45.78023" lon="4.64455">
        <ele>649</ele>
        <time>2012-05-28T10:46:51Z</time>
      </trkpt>
      <trkpt lat="45.78023" lon="4.64457">
        <ele>648</ele>
        <time>2012-05-28T10:46:52Z</time>
      </trkpt>
      <trkpt lat="45.78023" lon="4.6446">
        <ele>649</ele>
        <time>2012-05-28T10:46:53Z</time>
      </trkpt>
      <trkpt lat="45.78023" lon="4.64462">
        <ele>649</ele>
        <time>2012-05-28T10:46:54Z</time>
      </trkpt>
      <trkpt lat="45.78023" lon="4.64464">
        <ele>648</ele>
        <time>2012-05-28T10:46:55Z</time>
      </trkpt>
      <trkpt lat="45.78022" lon="4.64466">
        <ele>649</ele>
        <time>2012-05-28T10:46:56Z</time>
      </trkpt>
      <trkpt lat="45.78022" lon="4.64468">
        <ele>649</ele>
        <time>2012-05-28T10:46:57Z</time>
      </trkpt>
      <trkpt lat="45.78022" lon="4.64471">
        <ele>649</ele>
        <time>2012-05-28T10:46:58Z</time>
      </trkpt>
      <trkpt lat="45.78022" lon="4.64474">
        <ele>648</ele>
        <time>2012-05-28T10:46:59Z</time>
      </trkpt>
      <trkpt lat="45.78022" lon="4.64477">
        <ele>648</ele>
        <time>2012-05-28T10:47:00Z</time>
      </trkpt>
      <trkpt lat="45.78022" lon="4.64487">
        <ele>648</ele>
        <time>2012-05-28T10:47:04Z</time>
      </trkpt>
      <trkpt lat="45.78022" lon="4.64489">
        <ele>649</ele>
        <time>2012-05-28T10:47:05Z</time>
      </trkpt>
      <trkpt lat="45.78022" lon="4.64491">
        <ele>648</ele>
        <time>2012-05-28T10:47:06Z</time>
      </trkpt>
      <trkpt lat="45.78023" lon="4.64494">
        <ele>648</ele>
        <time>2012-05-28T10:47:07Z</time>
      </trkpt>
      <trkpt lat="45.78023" lon="4.64498">
        <ele>648</ele>
        <time>2012-05-28T10:47:08Z</time>
      </trkpt>
      <trkpt lat="45.78027" lon="4.6451">
        <ele>648</ele>
        <time>2012-05-28T10:47:13Z</time>
      </trkpt>
      <trkpt lat="45.78027" lon="4.64514">
        <ele>649</ele>
        <time>2012-05-28T10:47:15Z</time>
      </trkpt>
      <trkpt lat="45.78027" lon="4.64516">
        <ele>649</ele>
        <time>2012-05-28T10:47:16Z</time>
      </trkpt>
      <trkpt lat="45.78027" lon="4.64519">
        <ele>649</ele>
        <time>2012-05-28T10:47:17Z</time>
      </trkpt>
      <trkpt lat="45.78027" lon="4.64539">
        <ele>650</ele>
        <time>2012-05-28T10:47:25Z</time>
      </trkpt>
      <trkpt lat="45.78027" lon="4.64542">
        <ele>650</ele>
        <time>2012-05-28T10:47:26Z</time>
      </trkpt>
      <trkpt lat="45.78026" lon="4.64554">
        <ele>650</ele>
        <time>2012-05-28T10:47:31Z</time>
      </trkpt>
      <trkpt lat="45.78026" lon="4.64568">
        <ele>651</ele>
        <time>2012-05-28T10:47:37Z</time>
      </trkpt>
      <trkpt lat="45.78027" lon="4.64576">
        <ele>652</ele>
        <time>2012-05-28T10:47:42Z</time>
      </trkpt>
      <trkpt lat="45.78026" lon="4.64583">
        <ele>652</ele>
        <time>2012-05-28T10:47:47Z</time>
      </trkpt>
      <trkpt lat="45.7802" lon="4.64592">
        <ele>654</ele>
        <time>2012-05-28T10:47:53Z</time>
      </trkpt>
      <trkpt lat="45.78019" lon="4.64594">
        <ele>654</ele>
        <time>2012-05-28T10:47:54Z</time>
      </trkpt>
      <trkpt lat="45.78013" lon="4.64601">
        <ele>655</ele>
        <time>2012-05-28T10:48:00Z</time>
      </trkpt>
      <trkpt lat="45.78012" lon="4.64603">
        <ele>655</ele>
        <time>2012-05-28T10:48:01Z</time>
      </trkpt>
      <trkpt lat="45.78005" lon="4.64615">
        <ele>656</ele>
        <time>2012-05-28T10:48:07Z</time>
      </trkpt>
      <trkpt lat="45.78001" lon="4.64621">
        <ele>657</ele>
        <time>2012-05-28T10:48:10Z</time>
      </trkpt>
      <trkpt lat="45.77998" lon="4.64628">
        <ele>658</ele>
        <time>2012-05-28T10:48:16Z</time>
      </trkpt>
      <trkpt lat="45.77997" lon="4.6463">
        <ele>658</ele>
        <time>2012-05-28T10:48:17Z</time>
      </trkpt>
      <trkpt lat="45.77994" lon="4.64635">
        <ele>658</ele>
        <time>2012-05-28T10:48:20Z</time>
      </trkpt>
      <trkpt lat="45.77986" lon="4.64648">
        <ele>657</ele>
        <time>2012-05-28T10:48:26Z</time>
      </trkpt>
      <trkpt lat="45.77985" lon="4.64651">
        <ele>658</ele>
        <time>2012-05-28T10:48:27Z</time>
      </trkpt>
      <trkpt lat="45.77979" lon="4.6466">
        <ele>658</ele>
        <time>2012-05-28T10:48:33Z</time>
      </trkpt>
      <trkpt lat="45.77973" lon="4.64672">
        <ele>658</ele>
        <time>2012-05-28T10:48:39Z</time>
      </trkpt>
      <trkpt lat="45.77967" lon="4.64683">
        <ele>658</ele>
        <time>2012-05-28T10:48:46Z</time>
      </trkpt>
      <trkpt lat="45.77964" lon="4.64694">
        <ele>657</ele>
        <time>2012-05-28T10:48:50Z</time>
      </trkpt>
      <trkpt lat="45.77963" lon="4.64696">
        <ele>657</ele>
        <time>2012-05-28T10:48:51Z</time>
      </trkpt>
      <trkpt lat="45.77962" lon="4.64699">
        <ele>658</ele>
        <time>2012-05-28T10:48:52Z</time>
      </trkpt>
      <trkpt lat="45.77961" lon="4.64701">
        <ele>657</ele>
        <time>2012-05-28T10:48:53Z</time>
      </trkpt>
      <trkpt lat="45.77959" lon="4.64715">
        <ele>658</ele>
        <time>2012-05-28T10:48:58Z</time>
      </trkpt>
      <trkpt lat="45.77957" lon="4.64724">
        <ele>658</ele>
        <time>2012-05-28T10:49:03Z</time>
      </trkpt>
      <trkpt lat="45.77954" lon="4.6473">
        <ele>657</ele>
        <time>2012-05-28T10:49:09Z</time>
      </trkpt>
      <trkpt lat="45.77953" lon="4.6473">
        <ele>658</ele>
        <time>2012-05-28T10:49:22Z</time>
      </trkpt>
      <trkpt lat="45.77951" lon="4.64733">
        <ele>657</ele>
        <time>2012-05-28T10:49:41Z</time>
      </trkpt>
      <trkpt lat="45.77949" lon="4.64734">
        <ele>658</ele>
        <time>2012-05-28T10:49:59Z</time>
      </trkpt>
      <trkpt lat="45.77947" lon="4.64735">
        <ele>657</ele>
        <time>2012-05-28T10:50:17Z</time>
      </trkpt>
      <trkpt lat="45.77946" lon="4.64735">
        <ele>657</ele>
        <time>2012-05-28T10:50:37Z</time>
      </trkpt>
      <trkpt lat="45.77947" lon="4.64735">
        <ele>657</ele>
        <time>2012-05-28T10:50:58Z</time>
      </trkpt>
      <trkpt lat="45.77948" lon="4.64735">
        <ele>657</ele>
        <time>2012-05-28T10:51:19Z</time>
      </trkpt>
      <trkpt lat="45.77948" lon="4.64736">
        <ele>657</ele>
        <time>2012-05-28T10:51:36Z</time>
      </trkpt>
      <trkpt lat="45.77947" lon="4.64737">
        <ele>658</ele>
        <time>2012-05-28T10:51:55Z</time>
      </trkpt>
      <trkpt lat="45.77947" lon="4.64737">
        <ele>658</ele>
        <time>2012-05-28T10:52:12Z</time>
      </trkpt>
      <trkpt lat="45.77948" lon="4.64737">
        <ele>657</ele>
        <time>2012-05-28T10:52:36Z</time>
      </trkpt>
      <trkpt lat="45.77948" lon="4.64736">
        <ele>658</ele>
        <time>2012-05-28T10:52:55Z</time>
      </trkpt>
      <trkpt lat="45.77949" lon="4.64736">
        <ele>658</ele>
        <time>2012-05-28T10:53:04Z</time>
      </trkpt>
      <trkpt lat="45.77949" lon="4.64736">
        <ele>658</ele>
        <time>2012-05-28T10:53:12Z</time>
      </trkpt>
      <trkpt lat="45.77949" lon="4.64736">
        <ele>658</ele>
        <time>2012-05-28T10:53:20Z</time>
      </trkpt>
      <trkpt lat="45.7795" lon="4.64737">
        <ele>658</ele>
        <time>2012-05-28T10:53:31Z</time>
      </trkpt>
      <trkpt lat="45.77949" lon="4.64742">
        <ele>658</ele>
        <time>2012-05-28T10:53:42Z</time>
      </trkpt>
      <trkpt lat="45.77948" lon="4.64744">
        <ele>657</ele>
        <time>2012-05-28T10:53:43Z</time>
      </trkpt>
      <trkpt lat="45.77948" lon="4.64746">
        <ele>658</ele>
        <time>2012-05-28T10:53:44Z</time>
      </trkpt>
      <trkpt lat="45.77947" lon="4.64749">
        <ele>657</ele>
        <time>2012-05-28T10:53:45Z</time>
      </trkpt>
      <trkpt lat="45.77947" lon="4.64752">
        <ele>657</ele>
        <time>2012-05-28T10:53:46Z</time>
      </trkpt>
      <trkpt lat="45.77947" lon="4.64755">
        <ele>657</ele>
        <time>2012-05-28T10:53:47Z</time>
      </trkpt>
      <trkpt lat="45.77947" lon="4.64758">
        <ele>657</ele>
        <time>2012-05-28T10:53:48Z</time>
      </trkpt>
      <trkpt lat="45.77947" lon="4.64761">
        <ele>657</ele>
        <time>2012-05-28T10:53:49Z</time>
      </trkpt>
      <trkpt lat="45.77947" lon="4.64764">
        <ele>657</ele>
        <time>2012-05-28T10:53:50Z</time>
      </trkpt>
      <trkpt lat="45.77946" lon="4.64767">
        <ele>657</ele>
        <time>2012-05-28T10:53:51Z</time>
      </trkpt>
      <trkpt lat="45.77945" lon="4.64771">
        <ele>656</ele>
        <time>2012-05-28T10:53:52Z</time>
      </trkpt>
      <trkpt lat="45.77944" lon="4.64776">
        <ele>656</ele>
        <time>2012-05-28T10:53:53Z</time>
      </trkpt>
      <trkpt lat="45.77943" lon="4.64782">
        <ele>656</ele>
        <time>2012-05-28T10:53:54Z</time>
      </trkpt>
      <trkpt lat="45.77942" lon="4.64789">
        <ele>656</ele>
        <time>2012-05-28T10:53:55Z</time>
      </trkpt>
      <trkpt lat="45.7794" lon="4.64795">
        <ele>656</ele>
        <time>2012-05-28T10:53:56Z</time>
      </trkpt>
      <trkpt lat="45.77938" lon="4.64801">
        <ele>656</ele>
        <time>2012-05-28T10:53:57Z</time>
      </trkpt>
      <trkpt lat="45.77936" lon="4.64806">
        <ele>655</ele>
        <time>2012-05-28T10:53:58Z</time>
      </trkpt>
      <trkpt lat="45.77933" lon="4.64817">
        <ele>654</ele>
        <time>2012-05-28T10:54:00Z</time>
      </trkpt>
      <trkpt lat="45.77929" lon="4.64829">
        <ele>654</ele>
        <time>2012-05-28T10:54:02Z</time>
      </trkpt>
      <trkpt lat="45.77927" lon="4.64846">
        <ele>653</ele>
        <time>2012-05-28T10:54:05Z</time>
      </trkpt>
      <trkpt lat="45.77927" lon="4.64851">
        <ele>652</ele>
        <time>2012-05-28T10:54:06Z</time>
      </trkpt>
      <trkpt lat="45.77927" lon="4.64856">
        <ele>651</ele>
        <time>2012-05-28T10:54:07Z</time>
      </trkpt>
      <trkpt lat="45.77927" lon="4.64861">
        <ele>651</ele>
        <time>2012-05-28T10:54:08Z</time>
      </trkpt>
      <trkpt lat="45.77925" lon="4.64866">
        <ele>651</ele>
        <time>2012-05-28T10:54:09Z</time>
      </trkpt>
      <trkpt lat="45.77924" lon="4.64872">
        <ele>650</ele>
        <time>2012-05-28T10:54:10Z</time>
      </trkpt>
      <trkpt lat="45.77923" lon="4.64877">
        <ele>649</ele>
        <time>2012-05-28T10:54:11Z</time>
      </trkpt>
      <trkpt lat="45.77922" lon="4.64883">
        <ele>649</ele>
        <time>2012-05-28T10:54:12Z</time>
      </trkpt>
      <trkpt lat="45.7792" lon="4.64895">
        <ele>647</ele>
        <time>2012-05-28T10:54:15Z</time>
      </trkpt>
      <trkpt lat="45.77919" lon="4.64903">
        <ele>645</ele>
        <time>2012-05-28T10:54:20Z</time>
      </trkpt>
      <trkpt lat="45.77918" lon="4.64906">
        <ele>644</ele>
        <time>2012-05-28T10:54:25Z</time>
      </trkpt>
      <trkpt lat="45.77915" lon="4.64907">
        <ele>644</ele>
        <time>2012-05-28T10:54:41Z</time>
      </trkpt>
      <trkpt lat="45.77915" lon="4.64906">
        <ele>645</ele>
        <time>2012-05-28T10:54:42Z</time>
      </trkpt>
      <trkpt lat="45.77911" lon="4.64907">
        <ele>644</ele>
        <time>2012-05-28T10:54:45Z</time>
      </trkpt>
      <trkpt lat="45.77908" lon="4.6492">
        <ele>642</ele>
        <time>2012-05-28T10:54:51Z</time>
      </trkpt>
      <trkpt lat="45.77903" lon="4.64928">
        <ele>641</ele>
        <time>2012-05-28T10:54:56Z</time>
      </trkpt>
      <trkpt lat="45.77903" lon="4.64933">
        <ele>639</ele>
        <time>2012-05-28T10:54:58Z</time>
      </trkpt>
      <trkpt lat="45.77899" lon="4.64939">
        <ele>637</ele>
        <time>2012-05-28T10:55:01Z</time>
      </trkpt>
      <trkpt lat="45.7789" lon="4.64936">
        <ele>636</ele>
        <time>2012-05-28T10:55:06Z</time>
      </trkpt>
      <trkpt lat="45.77882" lon="4.64929">
        <ele>634</ele>
        <time>2012-05-28T10:55:10Z</time>
      </trkpt>
      <trkpt lat="45.7787" lon="4.64912">
        <ele>631</ele>
        <time>2012-05-28T10:55:15Z</time>
      </trkpt>
      <trkpt lat="45.77867" lon="4.64909">
        <ele>631</ele>
        <time>2012-05-28T10:55:17Z</time>
      </trkpt>
      <trkpt lat="45.77864" lon="4.64909">
        <ele>628</ele>
        <time>2012-05-28T10:55:20Z</time>
      </trkpt>
      <trkpt lat="45.77858" lon="4.64905">
        <ele>625</ele>
        <time>2012-05-28T10:55:23Z</time>
      </trkpt>
      <trkpt lat="45.77854" lon="4.64905">
        <ele>624</ele>
        <time>2012-05-28T10:55:25Z</time>
      </trkpt>
      <trkpt lat="45.77847" lon="4.64899">
        <ele>623</ele>
        <time>2012-05-28T10:55:28Z</time>
      </trkpt>
      <trkpt lat="45.7784" lon="4.64889">
        <ele>620</ele>
        <time>2012-05-28T10:55:32Z</time>
      </trkpt>
      <trkpt lat="45.77832" lon="4.64883">
        <ele>616</ele>
        <time>2012-05-28T10:55:36Z</time>
      </trkpt>
      <trkpt lat="45.77827" lon="4.64876">
        <ele>612</ele>
        <time>2012-05-28T10:55:40Z</time>
      </trkpt>
      <trkpt lat="45.77826" lon="4.64876">
        <ele>611</ele>
        <time>2012-05-28T10:55:43Z</time>
      </trkpt>
      <trkpt lat="45.77824" lon="4.64877">
        <ele>612</ele>
        <time>2012-05-28T10:55:47Z</time>
      </trkpt>
      <trkpt lat="45.7782" lon="4.64887">
        <ele>609</ele>
        <time>2012-05-28T10:55:53Z</time>
      </trkpt>
      <trkpt lat="45.77814" lon="4.64887">
        <ele>607</ele>
        <time>2012-05-28T10:55:57Z</time>
      </trkpt>
      <trkpt lat="45.77806" lon="4.64878">
        <ele>603</ele>
        <time>2012-05-28T10:56:03Z</time>
      </trkpt>
      <trkpt lat="45.77801" lon="4.6488">
        <ele>600</ele>
        <time>2012-05-28T10:56:06Z</time>
      </trkpt>
      <trkpt lat="45.77799" lon="4.64881">
        <ele>598</ele>
        <time>2012-05-28T10:56:07Z</time>
      </trkpt>
      <trkpt lat="45.77798" lon="4.64885">
        <ele>597</ele>
        <time>2012-05-28T10:56:09Z</time>
      </trkpt>
      <trkpt lat="45.77798" lon="4.64889">
        <ele>597</ele>
        <time>2012-05-28T10:56:15Z</time>
      </trkpt>
      <trkpt lat="45.77798" lon="4.64891">
        <ele>597</ele>
        <time>2012-05-28T10:56:28Z</time>
      </trkpt>
      <trkpt lat="45.77798" lon="4.64891">
        <ele>597</ele>
        <time>2012-05-28T10:56:38Z</time>
      </trkpt>
      <trkpt lat="45.77798" lon="4.64891">
        <ele>597</ele>
        <time>2012-05-28T10:56:48Z</time>
      </trkpt>
      <trkpt lat="45.77798" lon="4.64899">
        <ele>596</ele>
        <time>2012-05-28T10:56:51Z</time>
      </trkpt>
      <trkpt lat="45.77797" lon="4.64912">
        <ele>594</ele>
        <time>2012-05-28T10:56:55Z</time>
      </trkpt>
      <trkpt lat="45.77796" lon="4.64933">
        <ele>592</ele>
        <time>2012-05-28T10:57:01Z</time>
      </trkpt>
      <trkpt lat="45.77795" lon="4.64937">
        <ele>592</ele>
        <time>2012-05-28T10:57:03Z</time>
      </trkpt>
      <trkpt lat="45.77793" lon="4.6495">
        <ele>592</ele>
        <time>2012-05-28T10:57:07Z</time>
      </trkpt>
      <trkpt lat="45.7779" lon="4.64976">
        <ele>591</ele>
        <time>2012-05-28T10:57:14Z</time>
      </trkpt>
      <trkpt lat="45.7779" lon="4.64999">
        <ele>592</ele>
        <time>2012-05-28T10:57:21Z</time>
      </trkpt>
      <trkpt lat="45.77788" lon="4.65012">
        <ele>591</ele>
        <time>2012-05-28T10:57:25Z</time>
      </trkpt>
      <trkpt lat="45.77784" lon="4.65041">
        <ele>591</ele>
        <time>2012-05-28T10:57:32Z</time>
      </trkpt>
      <trkpt lat="45.77787" lon="4.6507">
        <ele>590</ele>
        <time>2012-05-28T10:57:37Z</time>
      </trkpt>
      <trkpt lat="45.77792" lon="4.65091">
        <ele>591</ele>
        <time>2012-05-28T10:57:42Z</time>
      </trkpt>
      <trkpt lat="45.77797" lon="4.65109">
        <ele>593</ele>
        <time>2012-05-28T10:57:48Z</time>
      </trkpt>
      <trkpt lat="45.77803" lon="4.65128">
        <ele>591</ele>
        <time>2012-05-28T10:57:53Z</time>
      </trkpt>
      <trkpt lat="45.77809" lon="4.6515">
        <ele>590</ele>
        <time>2012-05-28T10:57:59Z</time>
      </trkpt>
      <trkpt lat="45.77809" lon="4.6517">
        <ele>589</ele>
        <time>2012-05-28T10:58:05Z</time>
      </trkpt>
      <trkpt lat="45.77812" lon="4.65192">
        <ele>588</ele>
        <time>2012-05-28T10:58:11Z</time>
      </trkpt>
      <trkpt lat="45.77806" lon="4.65201">
        <ele>587</ele>
        <time>2012-05-28T10:58:15Z</time>
      </trkpt>
      <trkpt lat="45.77801" lon="4.65209">
        <ele>586</ele>
        <time>2012-05-28T10:58:18Z</time>
      </trkpt>
      <trkpt lat="45.77789" lon="4.65212">
        <ele>583</ele>
        <time>2012-05-28T10:58:23Z</time>
      </trkpt>
      <trkpt lat="45.77781" lon="4.65215">
        <ele>582</ele>
        <time>2012-05-28T10:58:26Z</time>
      </trkpt>
      <trkpt lat="45.77778" lon="4.65218">
        <ele>581</ele>
        <time>2012-05-28T10:58:28Z</time>
      </trkpt>
      <trkpt lat="45.77775" lon="4.65224">
        <ele>580</ele>
        <time>2012-05-28T10:58:30Z</time>
      </trkpt>
      <trkpt lat="45.77757" lon="4.65228">
        <ele>576</ele>
        <time>2012-05-28T10:58:36Z</time>
      </trkpt>
      <trkpt lat="45.77748" lon="4.65232">
        <ele>573</ele>
        <time>2012-05-28T10:58:39Z</time>
      </trkpt>
      <trkpt lat="45.77741" lon="4.65241">
        <ele>569</ele>
        <time>2012-05-28T10:58:44Z</time>
      </trkpt>
      <trkpt lat="45.77737" lon="4.65241">
        <ele>568</ele>
        <time>2012-05-28T10:58:46Z</time>
      </trkpt>
      <trkpt lat="45.77734" lon="4.65236">
        <ele>565</ele>
        <time>2012-05-28T10:58:50Z</time>
      </trkpt>
      <trkpt lat="45.77733" lon="4.65235">
        <ele>565</ele>
        <time>2012-05-28T10:58:51Z</time>
      </trkpt>
      <trkpt lat="45.77726" lon="4.65238">
        <ele>562</ele>
        <time>2012-05-28T10:58:55Z</time>
      </trkpt>
      <trkpt lat="45.7772" lon="4.65249">
        <ele>559</ele>
        <time>2012-05-28T10:59:00Z</time>
      </trkpt>
      <trkpt lat="45.77719" lon="4.65252">
        <ele>558</ele>
        <time>2012-05-28T10:59:04Z</time>
      </trkpt>
      <trkpt lat="45.77719" lon="4.65255">
        <ele>557</ele>
        <time>2012-05-28T10:59:06Z</time>
      </trkpt>
      <trkpt lat="45.77711" lon="4.65252">
        <ele>553</ele>
        <time>2012-05-28T10:59:11Z</time>
      </trkpt>
      <trkpt lat="45.77709" lon="4.65251">
        <ele>552</ele>
        <time>2012-05-28T10:59:12Z</time>
      </trkpt>
      <trkpt lat="45.77702" lon="4.65245">
        <ele>549</ele>
        <time>2012-05-28T10:59:15Z</time>
      </trkpt>
      <trkpt lat="45.77693" lon="4.65241">
        <ele>545</ele>
        <time>2012-05-28T10:59:19Z</time>
      </trkpt>
      <trkpt lat="45.77692" lon="4.65241">
        <ele>544</ele>
        <time>2012-05-28T10:59:20Z</time>
      </trkpt>
      <trkpt lat="45.77686" lon="4.6526">
        <ele>541</ele>
        <time>2012-05-28T10:59:27Z</time>
      </trkpt>
      <trkpt lat="45.77686" lon="4.65263">
        <ele>540</ele>
        <time>2012-05-28T10:59:32Z</time>
      </trkpt>
      <trkpt lat="45.77689" lon="4.65265">
        <ele>540</ele>
        <time>2012-05-28T10:59:42Z</time>
      </trkpt>
      <trkpt lat="45.77688" lon="4.65271">
        <ele>540</ele>
        <time>2012-05-28T10:59:58Z</time>
      </trkpt>
      <trkpt lat="45.77686" lon="4.65272">
        <ele>540</ele>
        <time>2012-05-28T11:00:17Z</time>
      </trkpt>
      <trkpt lat="45.77686" lon="4.65271">
        <ele>540</ele>
        <time>2012-05-28T11:00:32Z</time>
      </trkpt>
      <trkpt lat="45.77686" lon="4.65271">
        <ele>539</ele>
        <time>2012-05-28T11:00:42Z</time>
      </trkpt>
      <trkpt lat="45.77678" lon="4.65277">
        <ele>536</ele>
        <time>2012-05-28T11:00:48Z</time>
      </trkpt>
      <trkpt lat="45.77674" lon="4.65281">
        <ele>534</ele>
        <time>2012-05-28T11:00:50Z</time>
      </trkpt>
      <trkpt lat="45.7767" lon="4.65283">
        <ele>532</ele>
        <time>2012-05-28T11:00:52Z</time>
      </trkpt>
      <trkpt lat="45.77665" lon="4.65289">
        <ele>531</ele>
        <time>2012-05-28T11:00:55Z</time>
      </trkpt>
      <trkpt lat="45.77655" lon="4.65292">
        <ele>527</ele>
        <time>2012-05-28T11:00:58Z</time>
      </trkpt>
      <trkpt lat="45.77648" lon="4.65292">
        <ele>525</ele>
        <time>2012-05-28T11:01:00Z</time>
      </trkpt>
      <trkpt lat="45.77633" lon="4.65293">
        <ele>521</ele>
        <time>2012-05-28T11:01:04Z</time>
      </trkpt>
      <trkpt lat="45.7763" lon="4.65294">
        <ele>520</ele>
        <time>2012-05-28T11:01:05Z</time>
      </trkpt>
      <trkpt lat="45.77615" lon="4.65296">
        <ele>517</ele>
        <time>2012-05-28T11:01:08Z</time>
      </trkpt>
      <trkpt lat="45.77602" lon="4.65293">
        <ele>517</ele>
        <time>2012-05-28T11:01:12Z</time>
      </trkpt>
      <trkpt lat="45.77592" lon="4.65293">
        <ele>517</ele>
        <time>2012-05-28T11:01:17Z</time>
      </trkpt>
      <trkpt lat="45.77575" lon="4.65292">
        <ele>517</ele>
        <time>2012-05-28T11:01:24Z</time>
      </trkpt>
      <trkpt lat="45.77556" lon="4.6529">
        <ele>516</ele>
        <time>2012-05-28T11:01:30Z</time>
      </trkpt>
      <trkpt lat="45.77541" lon="4.65287">
        <ele>515</ele>
        <time>2012-05-28T11:01:36Z</time>
      </trkpt>
      <trkpt lat="45.77534" lon="4.6528">
        <ele>513</ele>
        <time>2012-05-28T11:01:41Z</time>
      </trkpt>
      <trkpt lat="45.77528" lon="4.65272">
        <ele>510</ele>
        <time>2012-05-28T11:01:44Z</time>
      </trkpt>
      <trkpt lat="45.77514" lon="4.65265">
        <ele>507</ele>
        <time>2012-05-28T11:01:48Z</time>
      </trkpt>
      <trkpt lat="45.77496" lon="4.65259">
        <ele>504</ele>
        <time>2012-05-28T11:01:52Z</time>
      </trkpt>
      <trkpt lat="45.77484" lon="4.65255">
        <ele>501</ele>
        <time>2012-05-28T11:01:55Z</time>
      </trkpt>
      <trkpt lat="45.7748" lon="4.65254">
        <ele>500</ele>
        <time>2012-05-28T11:01:56Z</time>
      </trkpt>
      <trkpt lat="45.77465" lon="4.65259">
        <ele>499</ele>
        <time>2012-05-28T11:02:00Z</time>
      </trkpt>
      <trkpt lat="45.77452" lon="4.65268">
        <ele>497</ele>
        <time>2012-05-28T11:02:05Z</time>
      </trkpt>
      <trkpt lat="45.77446" lon="4.65272">
        <ele>495</ele>
        <time>2012-05-28T11:02:10Z</time>
      </trkpt>
      <trkpt lat="45.77439" lon="4.65279">
        <ele>494</ele>
        <time>2012-05-28T11:02:16Z</time>
      </trkpt>
      <trkpt lat="45.77431" lon="4.65292">
        <ele>494</ele>
        <time>2012-05-28T11:02:21Z</time>
      </trkpt>
      <trkpt lat="45.77426" lon="4.65299">
        <ele>494</ele>
        <time>2012-05-28T11:02:25Z</time>
      </trkpt>
      <trkpt lat="45.77419" lon="4.65298">
        <ele>490</ele>
        <time>2012-05-28T11:02:29Z</time>
      </trkpt>
      <trkpt lat="45.77404" lon="4.65294">
        <ele>488</ele>
        <time>2012-05-28T11:02:34Z</time>
      </trkpt>
      <trkpt lat="45.77392" lon="4.6529">
        <ele>483</ele>
        <time>2012-05-28T11:02:38Z</time>
      </trkpt>
      <trkpt lat="45.77384" lon="4.65303">
        <ele>482</ele>
        <time>2012-05-28T11:02:44Z</time>
      </trkpt>
      <trkpt lat="45.7738" lon="4.65311">
        <ele>482</ele>
        <time>2012-05-28T11:02:47Z</time>
      </trkpt>
      <trkpt lat="45.77375" lon="4.65326">
        <ele>482</ele>
        <time>2012-05-28T11:02:52Z</time>
      </trkpt>
      <trkpt lat="45.77375" lon="4.65336">
        <ele>482</ele>
        <time>2012-05-28T11:02:55Z</time>
      </trkpt>
      <trkpt lat="45.77367" lon="4.65368">
        <ele>482</ele>
        <time>2012-05-28T11:03:04Z</time>
      </trkpt>
      <trkpt lat="45.77368" lon="4.65372">
        <ele>482</ele>
        <time>2012-05-28T11:03:05Z</time>
      </trkpt>
      <trkpt lat="45.77367" lon="4.6539">
        <ele>482</ele>
        <time>2012-05-28T11:03:10Z</time>
      </trkpt>
      <trkpt lat="45.77362" lon="4.65427">
        <ele>483</ele>
        <time>2012-05-28T11:03:18Z</time>
      </trkpt>
      <trkpt lat="45.77361" lon="4.65454">
        <ele>483</ele>
        <time>2012-05-28T11:03:23Z</time>
      </trkpt>
      <trkpt lat="45.7736" lon="4.65464">
        <ele>483</ele>
        <time>2012-05-28T11:03:25Z</time>
      </trkpt>
      <trkpt lat="45.77362" lon="4.65491">
        <ele>483</ele>
        <time>2012-05-28T11:03:31Z</time>
      </trkpt>
      <trkpt lat="45.77361" lon="4.65505">
        <ele>483</ele>
        <time>2012-05-28T11:03:34Z</time>
      </trkpt>
      <trkpt lat="45.77359" lon="4.65516">
        <ele>482</ele>
        <time>2012-05-28T11:03:36Z</time>
      </trkpt>
      <trkpt lat="45.77357" lon="4.65531">
        <ele>481</ele>
        <time>2012-05-28T11:03:38Z</time>
      </trkpt>
      <trkpt lat="45.77357" lon="4.65538">
        <ele>480</ele>
        <time>2012-05-28T11:03:39Z</time>
      </trkpt>
      <trkpt lat="45.77358" lon="4.65575">
        <ele>479</ele>
        <time>2012-05-28T11:03:44Z</time>
      </trkpt>
      <trkpt lat="45.77358" lon="4.65582">
        <ele>479</ele>
        <time>2012-05-28T11:03:45Z</time>
      </trkpt>
      <trkpt lat="45.77357" lon="4.65597">
        <ele>478</ele>
        <time>2012-05-28T11:03:47Z</time>
      </trkpt>
      <trkpt lat="45.77357" lon="4.65605">
        <ele>478</ele>
        <time>2012-05-28T11:03:48Z</time>
      </trkpt>
      <trkpt lat="45.77358" lon="4.65623">
        <ele>477</ele>
        <time>2012-05-28T11:03:50Z</time>
      </trkpt>
      <trkpt lat="45.77359" lon="4.65631">
        <ele>477</ele>
        <time>2012-05-28T11:03:51Z</time>
      </trkpt>
      <trkpt lat="45.77361" lon="4.65637">
        <ele>476</ele>
        <time>2012-05-28T11:03:52Z</time>
      </trkpt>
      <trkpt lat="45.77361" lon="4.65644">
        <ele>476</ele>
        <time>2012-05-28T11:03:53Z</time>
      </trkpt>
      <trkpt lat="45.7736" lon="4.65652">
        <ele>475</ele>
        <time>2012-05-28T11:03:54Z</time>
      </trkpt>
      <trkpt lat="45.7736" lon="4.65661">
        <ele>475</ele>
        <time>2012-05-28T11:03:55Z</time>
      </trkpt>
      <trkpt lat="45.7736" lon="4.65672">
        <ele>474</ele>
        <time>2012-05-28T11:03:56Z</time>
      </trkpt>
      <trkpt lat="45.77359" lon="4.65684">
        <ele>473</ele>
        <time>2012-05-28T11:03:57Z</time>
      </trkpt>
      <trkpt lat="45.77357" lon="4.65709">
        <ele>473</ele>
        <time>2012-05-28T11:03:59Z</time>
      </trkpt>
      <trkpt lat="45.77352" lon="4.65733">
        <ele>471</ele>
        <time>2012-05-28T11:04:01Z</time>
      </trkpt>
      <trkpt lat="45.77351" lon="4.65745">
        <ele>470</ele>
        <time>2012-05-28T11:04:02Z</time>
      </trkpt>
      <trkpt lat="45.7735" lon="4.65755">
        <ele>468</ele>
        <time>2012-05-28T11:04:03Z</time>
      </trkpt>
      <trkpt lat="45.77347" lon="4.65763">
        <ele>468</ele>
        <time>2012-05-28T11:04:04Z</time>
      </trkpt>
      <trkpt lat="45.77343" lon="4.65767">
        <ele>466</ele>
        <time>2012-05-28T11:04:05Z</time>
      </trkpt>
      <trkpt lat="45.77339" lon="4.65771">
        <ele>465</ele>
        <time>2012-05-28T11:04:06Z</time>
      </trkpt>
      <trkpt lat="45.77324" lon="4.65782">
        <ele>462</ele>
        <time>2012-05-28T11:04:09Z</time>
      </trkpt>
      <trkpt lat="45.77312" lon="4.65794">
        <ele>459</ele>
        <time>2012-05-28T11:04:12Z</time>
      </trkpt>
      <trkpt lat="45.77297" lon="4.65809">
        <ele>456</ele>
        <time>2012-05-28T11:04:15Z</time>
      </trkpt>
      <trkpt lat="45.77286" lon="4.65817">
        <ele>454</ele>
        <time>2012-05-28T11:04:17Z</time>
      </trkpt>
      <trkpt lat="45.77281" lon="4.65822">
        <ele>453</ele>
        <time>2012-05-28T11:04:18Z</time>
      </trkpt>
      <trkpt lat="45.77276" lon="4.65826">
        <ele>452</ele>
        <time>2012-05-28T11:04:19Z</time>
      </trkpt>
      <trkpt lat="45.77271" lon="4.65831">
        <ele>451</ele>
        <time>2012-05-28T11:04:20Z</time>
      </trkpt>
      <trkpt lat="45.77268" lon="4.65838">
        <ele>450</ele>
        <time>2012-05-28T11:04:21Z</time>
      </trkpt>
      <trkpt lat="45.77265" lon="4.65846">
        <ele>450</ele>
        <time>2012-05-28T11:04:22Z</time>
      </trkpt>
      <trkpt lat="45.77263" lon="4.65854">
        <ele>450</ele>
        <time>2012-05-28T11:04:23Z</time>
      </trkpt>
      <trkpt lat="45.77262" lon="4.65863">
        <ele>449</ele>
        <time>2012-05-28T11:04:24Z</time>
      </trkpt>
      <trkpt lat="45.77262" lon="4.65869">
        <ele>449</ele>
        <time>2012-05-28T11:04:25Z</time>
      </trkpt>
      <trkpt lat="45.77262" lon="4.65874">
        <ele>447</ele>
        <time>2012-05-28T11:04:26Z</time>
      </trkpt>
      <trkpt lat="45.77262" lon="4.65878">
        <ele>447</ele>
        <time>2012-05-28T11:04:27Z</time>
      </trkpt>
      <trkpt lat="45.77263" lon="4.65882">
        <ele>446</ele>
        <time>2012-05-28T11:04:31Z</time>
      </trkpt>
      <trkpt lat="45.77263" lon="4.65882">
        <ele>446</ele>
        <time>2012-05-28T11:04:33Z</time>
      </trkpt>
      <trkpt lat="45.77262" lon="4.6588">
        <ele>446</ele>
        <time>2012-05-28T11:04:39Z</time>
      </trkpt>
      <trkpt lat="45.77263" lon="4.65881">
        <ele>446</ele>
        <time>2012-05-28T11:04:47Z</time>
      </trkpt>
      <trkpt lat="45.77262" lon="4.6588">
        <ele>446</ele>
        <time>2012-05-28T11:04:56Z</time>
      </trkpt>
      <trkpt lat="45.77262" lon="4.65873">
        <ele>446</ele>
        <time>2012-05-28T11:05:02Z</time>
      </trkpt>
      <trkpt lat="45.77261" lon="4.65857">
        <ele>447</ele>
        <time>2012-05-28T11:05:09Z</time>
      </trkpt>
      <trkpt lat="45.7726" lon="4.65856">
        <ele>448</ele>
        <time>2012-05-28T11:05:10Z</time>
      </trkpt>
      <trkpt lat="45.77258" lon="4.65856">
        <ele>448</ele>
        <time>2012-05-28T11:05:11Z</time>
      </trkpt>
      <trkpt lat="45.77256" lon="4.65857">
        <ele>447</ele>
        <time>2012-05-28T11:05:12Z</time>
      </trkpt>
      <trkpt lat="45.77233" lon="4.65872">
        <ele>444</ele>
        <time>2012-05-28T11:05:18Z</time>
      </trkpt>
      <trkpt lat="45.77229" lon="4.65874">
        <ele>443</ele>
        <time>2012-05-28T11:05:19Z</time>
      </trkpt>
      <trkpt lat="45.77225" lon="4.65874">
        <ele>443</ele>
        <time>2012-05-28T11:05:20Z</time>
      </trkpt>
      <trkpt lat="45.77222" lon="4.6587">
        <ele>442</ele>
        <time>2012-05-28T11:05:21Z</time>
      </trkpt>
      <trkpt lat="45.7722" lon="4.65865">
        <ele>442</ele>
        <time>2012-05-28T11:05:22Z</time>
      </trkpt>
      <trkpt lat="45.77204" lon="4.65837">
        <ele>438</ele>
        <time>2012-05-28T11:05:27Z</time>
      </trkpt>
      <trkpt lat="45.772" lon="4.65833">
        <ele>438</ele>
        <time>2012-05-28T11:05:28Z</time>
      </trkpt>
      <trkpt lat="45.77196" lon="4.65831">
        <ele>437</ele>
        <time>2012-05-28T11:05:29Z</time>
      </trkpt>
      <trkpt lat="45.77191" lon="4.6583">
        <ele>436</ele>
        <time>2012-05-28T11:05:30Z</time>
      </trkpt>
      <trkpt lat="45.77187" lon="4.65828">
        <ele>436</ele>
        <time>2012-05-28T11:05:31Z</time>
      </trkpt>
      <trkpt lat="45.77183" lon="4.65823">
        <ele>436</ele>
        <time>2012-05-28T11:05:32Z</time>
      </trkpt>
      <trkpt lat="45.7718" lon="4.65816">
        <ele>434</ele>
        <time>2012-05-28T11:05:33Z</time>
      </trkpt>
      <trkpt lat="45.77177" lon="4.65808">
        <ele>433</ele>
        <time>2012-05-28T11:05:34Z</time>
      </trkpt>
      <trkpt lat="45.77176" lon="4.658">
        <ele>432</ele>
        <time>2012-05-28T11:05:35Z</time>
      </trkpt>
      <trkpt lat="45.77175" lon="4.65791">
        <ele>431</ele>
        <time>2012-05-28T11:05:36Z</time>
      </trkpt>
      <trkpt lat="45.77175" lon="4.65782">
        <ele>431</ele>
        <time>2012-05-28T11:05:37Z</time>
      </trkpt>
      <trkpt lat="45.77174" lon="4.65772">
        <ele>430</ele>
        <time>2012-05-28T11:05:38Z</time>
      </trkpt>
      <trkpt lat="45.7717" lon="4.65746">
        <ele>427</ele>
        <time>2012-05-28T11:05:41Z</time>
      </trkpt>
      <trkpt lat="45.77167" lon="4.65741">
        <ele>426</ele>
        <time>2012-05-28T11:05:42Z</time>
      </trkpt>
      <trkpt lat="45.77164" lon="4.65738">
        <ele>426</ele>
        <time>2012-05-28T11:05:43Z</time>
      </trkpt>
      <trkpt lat="45.7716" lon="4.65737">
        <ele>425</ele>
        <time>2012-05-28T11:05:44Z</time>
      </trkpt>
      <trkpt lat="45.77157" lon="4.65741">
        <ele>425</ele>
        <time>2012-05-28T11:05:45Z</time>
      </trkpt>
      <trkpt lat="45.77154" lon="4.65746">
        <ele>424</ele>
        <time>2012-05-28T11:05:46Z</time>
      </trkpt>
      <trkpt lat="45.77147" lon="4.65761">
        <ele>422</ele>
        <time>2012-05-28T11:05:48Z</time>
      </trkpt>
      <trkpt lat="45.77141" lon="4.65789">
        <ele>420</ele>
        <time>2012-05-28T11:05:52Z</time>
      </trkpt>
      <trkpt lat="45.77138" lon="4.6579">
        <ele>420</ele>
        <time>2012-05-28T11:05:53Z</time>
      </trkpt>
      <trkpt lat="45.77135" lon="4.65789">
        <ele>419</ele>
        <time>2012-05-28T11:05:54Z</time>
      </trkpt>
      <trkpt lat="45.77131" lon="4.65788">
        <ele>419</ele>
        <time>2012-05-28T11:05:55Z</time>
      </trkpt>
      <trkpt lat="45.77127" lon="4.65787">
        <ele>418</ele>
        <time>2012-05-28T11:05:56Z</time>
      </trkpt>
      <trkpt lat="45.77123" lon="4.65787">
        <ele>418</ele>
        <time>2012-05-28T11:05:57Z</time>
      </trkpt>
      <trkpt lat="45.77119" lon="4.65787">
        <ele>418</ele>
        <time>2012-05-28T11:05:58Z</time>
      </trkpt>
      <trkpt lat="45.7711" lon="4.65786">
        <ele>418</ele>
        <time>2012-05-28T11:06:00Z</time>
      </trkpt>
      <trkpt lat="45.77105" lon="4.65787">
        <ele>417</ele>
        <time>2012-05-28T11:06:01Z</time>
      </trkpt>
      <trkpt lat="45.77101" lon="4.6579">
        <ele>417</ele>
        <time>2012-05-28T11:06:02Z</time>
      </trkpt>
      <trkpt lat="45.77097" lon="4.65794">
        <ele>417</ele>
        <time>2012-05-28T11:06:03Z</time>
      </trkpt>
      <trkpt lat="45.77094" lon="4.65799">
        <ele>417</ele>
        <time>2012-05-28T11:06:04Z</time>
      </trkpt>
      <trkpt lat="45.77091" lon="4.65804">
        <ele>417</ele>
        <time>2012-05-28T11:06:05Z</time>
      </trkpt>
      <trkpt lat="45.77088" lon="4.65811">
        <ele>417</ele>
        <time>2012-05-28T11:06:06Z</time>
      </trkpt>
      <trkpt lat="45.77086" lon="4.65818">
        <ele>416</ele>
        <time>2012-05-28T11:06:07Z</time>
      </trkpt>
      <trkpt lat="45.77084" lon="4.65825">
        <ele>416</ele>
        <time>2012-05-28T11:06:08Z</time>
      </trkpt>
      <trkpt lat="45.77079" lon="4.65849">
        <ele>416</ele>
        <time>2012-05-28T11:06:11Z</time>
      </trkpt>
      <trkpt lat="45.77076" lon="4.65867">
        <ele>415</ele>
        <time>2012-05-28T11:06:13Z</time>
      </trkpt>
      <trkpt lat="45.77075" lon="4.65875">
        <ele>416</ele>
        <time>2012-05-28T11:06:14Z</time>
      </trkpt>
      <trkpt lat="45.77072" lon="4.65925">
        <ele>416</ele>
        <time>2012-05-28T11:06:21Z</time>
      </trkpt>
      <trkpt lat="45.77071" lon="4.65945">
        <ele>416</ele>
        <time>2012-05-28T11:06:27Z</time>
      </trkpt>
      <trkpt lat="45.77071" lon="4.65963">
        <ele>417</ele>
        <time>2012-05-28T11:06:33Z</time>
      </trkpt>
      <trkpt lat="45.77074" lon="4.65991">
        <ele>418</ele>
        <time>2012-05-28T11:06:41Z</time>
      </trkpt>
      <trkpt lat="45.77076" lon="4.66021">
        <ele>420</ele>
        <time>2012-05-28T11:06:49Z</time>
      </trkpt>
      <trkpt lat="45.77075" lon="4.66061">
        <ele>421</ele>
        <time>2012-05-28T11:06:59Z</time>
      </trkpt>
      <trkpt lat="45.77073" lon="4.66091">
        <ele>422</ele>
        <time>2012-05-28T11:07:07Z</time>
      </trkpt>
      <trkpt lat="45.77071" lon="4.66122">
        <ele>423</ele>
        <time>2012-05-28T11:07:15Z</time>
      </trkpt>
      <trkpt lat="45.77069" lon="4.66141">
        <ele>424</ele>
        <time>2012-05-28T11:07:21Z</time>
      </trkpt>
      <trkpt lat="45.77062" lon="4.66164">
        <ele>426</ele>
        <time>2012-05-28T11:07:29Z</time>
      </trkpt>
      <trkpt lat="45.7705" lon="4.66187">
        <ele>427</ele>
        <time>2012-05-28T11:07:37Z</time>
      </trkpt>
      <trkpt lat="45.77034" lon="4.66207">
        <ele>428</ele>
        <time>2012-05-28T11:07:46Z</time>
      </trkpt>
      <trkpt lat="45.77021" lon="4.66215">
        <ele>429</ele>
        <time>2012-05-28T11:07:52Z</time>
      </trkpt>
      <trkpt lat="45.76999" lon="4.66225">
        <ele>430</ele>
        <time>2012-05-28T11:08:00Z</time>
      </trkpt>
      <trkpt lat="45.76976" lon="4.66225">
        <ele>430</ele>
        <time>2012-05-28T11:08:08Z</time>
      </trkpt>
      <trkpt lat="45.76953" lon="4.66214">
        <ele>430</ele>
        <time>2012-05-28T11:08:16Z</time>
      </trkpt>
      <trkpt lat="45.76928" lon="4.6619">
        <ele>430</ele>
        <time>2012-05-28T11:08:25Z</time>
      </trkpt>
      <trkpt lat="45.76907" lon="4.66172">
        <ele>431</ele>
        <time>2012-05-28T11:08:33Z</time>
      </trkpt>
      <trkpt lat="45.76887" lon="4.66164">
        <ele>433</ele>
        <time>2012-05-28T11:08:41Z</time>
      </trkpt>
      <trkpt lat="45.76878" lon="4.66167">
        <ele>434</ele>
        <time>2012-05-28T11:08:46Z</time>
      </trkpt>
      <trkpt lat="45.76862" lon="4.66174">
        <ele>435</ele>
        <time>2012-05-28T11:08:53Z</time>
      </trkpt>
      <trkpt lat="45.76843" lon="4.66183">
        <ele>437</ele>
        <time>2012-05-28T11:09:01Z</time>
      </trkpt>
      <trkpt lat="45.7683" lon="4.66194">
        <ele>436</ele>
        <time>2012-05-28T11:09:06Z</time>
      </trkpt>
      <trkpt lat="45.76815" lon="4.66202">
        <ele>435</ele>
        <time>2012-05-28T11:09:10Z</time>
      </trkpt>
      <trkpt lat="45.76787" lon="4.6621">
        <ele>435</ele>
        <time>2012-05-28T11:09:16Z</time>
      </trkpt>
      <trkpt lat="45.76776" lon="4.66213">
        <ele>434</ele>
        <time>2012-05-28T11:09:18Z</time>
      </trkpt>
      <trkpt lat="45.76752" lon="4.66216">
        <ele>433</ele>
        <time>2012-05-28T11:09:22Z</time>
      </trkpt>
      <trkpt lat="45.76745" lon="4.66214">
        <ele>433</ele>
        <time>2012-05-28T11:09:23Z</time>
      </trkpt>
      <trkpt lat="45.76739" lon="4.66211">
        <ele>432</ele>
        <time>2012-05-28T11:09:24Z</time>
      </trkpt>
      <trkpt lat="45.76734" lon="4.66206">
        <ele>433</ele>
        <time>2012-05-28T11:09:25Z</time>
      </trkpt>
      <trkpt lat="45.76729" lon="4.662">
        <ele>433</ele>
        <time>2012-05-28T11:09:26Z</time>
      </trkpt>
      <trkpt lat="45.76724" lon="4.66193">
        <ele>432</ele>
        <time>2012-05-28T11:09:27Z</time>
      </trkpt>
      <trkpt lat="45.7672" lon="4.66187">
        <ele>432</ele>
        <time>2012-05-28T11:09:28Z</time>
      </trkpt>
      <trkpt lat="45.76708" lon="4.66166">
        <ele>432</ele>
        <time>2012-05-28T11:09:31Z</time>
      </trkpt>
      <trkpt lat="45.76683" lon="4.66123">
        <ele>431</ele>
        <time>2012-05-28T11:09:37Z</time>
      </trkpt>
      <trkpt lat="45.76678" lon="4.66117">
        <ele>431</ele>
        <time>2012-05-28T11:09:38Z</time>
      </trkpt>
      <trkpt lat="45.76672" lon="4.66113">
        <ele>431</ele>
        <time>2012-05-28T11:09:39Z</time>
      </trkpt>
      <trkpt lat="45.7666" lon="4.66105">
        <ele>431</ele>
        <time>2012-05-28T11:09:41Z</time>
      </trkpt>
      <trkpt lat="45.76654" lon="4.66102">
        <ele>431</ele>
        <time>2012-05-28T11:09:42Z</time>
      </trkpt>
      <trkpt lat="45.76648" lon="4.661">
        <ele>431</ele>
        <time>2012-05-28T11:09:43Z</time>
      </trkpt>
      <trkpt lat="45.76625" lon="4.66094">
        <ele>430</ele>
        <time>2012-05-28T11:09:47Z</time>
      </trkpt>
      <trkpt lat="45.76607" lon="4.66093">
        <ele>431</ele>
        <time>2012-05-28T11:09:50Z</time>
      </trkpt>
      <trkpt lat="45.76601" lon="4.66094">
        <ele>430</ele>
        <time>2012-05-28T11:09:51Z</time>
      </trkpt>
      <trkpt lat="45.76596" lon="4.66095">
        <ele>430</ele>
        <time>2012-05-28T11:09:52Z</time>
      </trkpt>
      <trkpt lat="45.76565" lon="4.6611">
        <ele>431</ele>
        <time>2012-05-28T11:09:59Z</time>
      </trkpt>
      <trkpt lat="45.76549" lon="4.66114">
        <ele>432</ele>
        <time>2012-05-28T11:10:05Z</time>
      </trkpt>
      <trkpt lat="45.76526" lon="4.66113">
        <ele>433</ele>
        <time>2012-05-28T11:10:13Z</time>
      </trkpt>
      <trkpt lat="45.76513" lon="4.66109">
        <ele>434</ele>
        <time>2012-05-28T11:10:18Z</time>
      </trkpt>
      <trkpt lat="45.76507" lon="4.66104">
        <ele>435</ele>
        <time>2012-05-28T11:10:21Z</time>
      </trkpt>
      <trkpt lat="45.765" lon="4.66083">
        <ele>436</ele>
        <time>2012-05-28T11:10:28Z</time>
      </trkpt>
      <trkpt lat="45.76501" lon="4.66061">
        <ele>437</ele>
        <time>2012-05-28T11:10:35Z</time>
      </trkpt>
      <trkpt lat="45.76507" lon="4.66037">
        <ele>438</ele>
        <time>2012-05-28T11:10:43Z</time>
      </trkpt>
      <trkpt lat="45.76515" lon="4.66013">
        <ele>439</ele>
        <time>2012-05-28T11:10:51Z</time>
      </trkpt>
      <trkpt lat="45.7653" lon="4.66002">
        <ele>442</ele>
        <time>2012-05-28T11:10:59Z</time>
      </trkpt>
      <trkpt lat="45.76543" lon="4.66005">
        <ele>443</ele>
        <time>2012-05-28T11:11:06Z</time>
      </trkpt>
      <trkpt lat="45.76555" lon="4.66008">
        <ele>443</ele>
        <time>2012-05-28T11:11:14Z</time>
      </trkpt>
      <trkpt lat="45.76556" lon="4.66009">
        <ele>442</ele>
        <time>2012-05-28T11:11:23Z</time>
      </trkpt>
      <trkpt lat="45.76556" lon="4.66008">
        <ele>442</ele>
        <time>2012-05-28T11:11:42Z</time>
      </trkpt>
      <trkpt lat="45.76556" lon="4.66008">
        <ele>438</ele>
        <time>2012-05-28T11:11:50Z</time>
      </trkpt>
      <trkpt lat="45.76556" lon="4.66008">
        <ele>438</ele>
        <time>2012-05-28T11:11:51Z</time>
      </trkpt>
    </trkseg>
  </trk>
</gpx>